GFSGL_prec_precacc24_018.txt.gz
Total_Precipitation_Accumulation
0.00 0.00 0.00 0.00 0.00 0.00 0.00 0.00 0.00 0.00 0.00 0.01 0.00 0.00 0.00 0.00 0.01 0.02 0.02 0.01 0.02 0.02 0.02 0.02 0.02 0.02 0.02 0.02 0.01 0.00 0.01 0.02 0.03 0.00 0.00 0.00 0.00 0.00 0.00 0.00 0.01 0.03 0.06
0.00 0.00 0.00 0.00 0.00 0.00 0.00 0.00 0.00 0.01 0.02 0.01 0.00 0.01 0.02 0.04 0.04 0.04 0.02 0.01 0.01 0.01 0.01 0.01 0.00 0.00 0.00 0.00 0.00 0.00 0.00 0.00 0.00 0.00 0.00 0.00 0.00 0.00 0.00 0.00 0.00 0.00 0.01
0.00 0.00 0.00 0.00 0.00 0.00 0.01 0.01 0.01 0.01 0.02 0.02 0.02 0.03 0.03 0.02 0.01 0.01 0.00 0.00 0.00 0.00 0.00 0.00 0.00 0.00 0.00 0.00 0.00 0.00 0.00 0.00 0.00 0.01 0.00 0.00 0.00 0.00 0.00 0.00 0.00 0.00 0.00
0.00 0.00 0.00 0.00 0.01 0.00 0.01 0.01 0.02 0.03 0.02 0.00 0.00 0.00 0.00 0.00 0.00 0.00 0.00 0.00 0.00 0.00 0.00 0.00 0.00 0.00 0.00 0.00 0.00 0.00 0.00 0.01 0.01 0.01 0.02 0.01 0.00 0.00 0.00 0.00 0.00 0.00 0.00
0.00 0.00 0.00 0.01 0.01 0.03 0.04 0.03 0.03 0.02 0.01 0.01 0.00 0.00 0.00 0.00 0.00 0.00 0.00 0.00 0.00 0.00 0.00 0.00 0.00 0.00 0.00 0.00 0.01 0.01 0.02 0.03 0.03 0.03 0.02 0.01 0.00 0.00 0.00 0.00 0.00 0.00 0.00
0.00 0.00 0.01 0.01 0.03 0.04 0.02 0.02 0.01 0.02 0.01 0.00 0.00 0.00 0.00 0.00 0.00 0.00 0.00 0.00 0.00 0.00 0.00 0.00 0.00 0.00 0.00 0.00 0.01 0.01 0.02 0.06 0.06 0.04 0.02 0.02 0.01 0.01 0.01 0.01 0.00 0.00 0.00
0.00 0.00 0.01 0.03 0.03 0.02 0.02 0.02 0.02 0.03 0.03 0.01 0.00 0.00 0.00 0.00 0.00 0.00 0.00 0.00 0.00 0.00 0.00 0.00 0.00 0.00 0.00 0.00 0.00 0.01 0.01 0.02 0.05 0.07 0.06 0.02 0.01 0.01 0.01 0.02 0.01 0.00 0.00
0.00 0.00 0.01 0.02 0.02 0.04 0.06 0.03 0.07 0.05 0.00 0.00 0.00 0.00 0.00 0.00 0.00 0.00 0.00 0.00 0.00 0.00 0.00 0.00 0.00 0.00 0.00 0.01 0.07 0.05 0.01 0.00 0.00 0.01 0.03 0.02 0.01 0.01 0.01 0.01 0.01 0.01 0.01
0.00 0.00 0.01 0.02 0.02 0.01 0.03 0.06 0.02 0.00 0.00 0.00 0.00 0.00 0.00 0.00 0.00 0.00 0.00 0.00 0.00 0.00 0.00 0.00 0.01 0.01 0.01 0.07 0.08 0.04 0.02 0.01 0.01 0.01 0.03 0.06 0.08 0.07 0.06 0.10 0.08 0.08 0.06
0.00 0.00 0.00 0.00 0.02 0.03 0.02 0.00 0.00 0.00 0.00 0.00 0.00 0.00 0.00 0.00 0.01 0.00 0.00 0.01 0.01 0.02 0.02 0.01 0.01 0.05 0.11 0.09 0.13 0.11 0.08 0.02 0.02 0.02 0.01 0.02 0.02 0.02 0.01 0.02 0.04 0.07 0.05
0.00 0.00 0.01 0.01 0.00 0.00 0.00 0.00 0.00 0.00 0.00 0.00 0.00 0.00 0.00 0.01 0.01 0.00 0.01 0.02 0.05 0.07 0.02 0.02 0.05 0.21 0.11 0.08 0.08 0.08 0.10 0.06 0.03 0.02 0.01 0.01 0.01 0.02 0.02 0.02 0.03 0.03 0.03
0.00 0.01 0.01 0.00 0.00 0.00 0.00 0.00 0.00 0.00 0.00 0.00 0.00 0.01 0.01 0.01 0.00 0.00 0.00 0.02 0.04 0.08 0.06 0.10 0.16 0.09 0.05 0.04 0.07 0.09 0.06 0.03 0.05 0.06 0.07 0.06 0.06 0.06 0.05 0.05 0.07 0.06 0.04
0.00 0.00 0.00 0.00 0.00 0.00 0.00 0.00 0.00 0.00 0.00 0.00 0.00 0.00 0.00 0.00 0.00 0.00 0.01 0.01 0.02 0.06 0.08 0.10 0.09 0.05 0.03 0.04 0.09 0.07 0.05 0.10 0.14 0.11 0.09 0.08 0.09 0.08 0.08 0.08 0.05 0.06 0.06
0.00 0.00 0.00 0.00 0.00 0.00 0.00 0.00 0.00 0.00 0.00 0.00 0.00 0.00 0.00 0.00 0.00 0.01 0.01 0.01 0.03 0.03 0.02 0.08 0.07 0.03 0.05 0.11 0.07 0.06 0.09 0.10 0.08 0.10 0.08 0.06 0.05 0.07 0.11 0.14 0.13 0.10 0.12
0.00 0.00 0.00 0.01 0.00 0.00 0.00 0.00 0.00 0.00 0.00 0.00 0.00 0.00 0.00 0.01 0.00 0.02 0.03 0.04 0.06 0.04 0.05 0.06 0.05 0.05 0.06 0.06 0.03 0.03 0.04 0.03 0.04 0.05 0.05 0.05 0.05 0.07 0.08 0.10 0.15 0.14 0.13
0.00 0.00 0.02 0.02 0.01 0.00 0.00 0.00 0.00 0.00 0.00 0.00 0.00 0.00 0.00 0.00 0.00 0.01 0.02 0.03 0.04 0.03 0.05 0.05 0.07 0.06 0.07 0.07 0.05 0.03 0.03 0.05 0.04 0.05 0.05 0.05 0.06 0.06 0.06 0.06 0.08 0.06 0.06
0.00 0.01 0.02 0.03 0.02 0.01 0.00 0.00 0.00 0.00 0.00 0.00 0.00 0.00 0.00 0.00 0.00 0.01 0.01 0.01 0.03 0.02 0.03 0.05 0.06 0.04 0.02 0.01 0.01 0.02 0.04 0.06 0.03 0.04 0.06 0.06 0.06 0.05 0.04 0.03 0.04 0.04 0.05
0.00 0.01 0.02 0.02 0.01 0.01 0.01 0.00 0.00 0.01 0.01 0.01 0.01 0.00 0.00 0.00 0.00 0.00 0.01 0.01 0.01 0.01 0.02 0.03 0.02 0.01 0.00 0.01 0.01 0.01 0.03 0.04 0.02 0.03 0.05 0.05 0.05 0.05 0.04 0.03 0.03 0.03 0.04
0.00 0.01 0.01 0.01 0.01 0.00 0.01 0.01 0.00 0.01 0.01 0.00 0.00 0.00 0.00 0.00 0.00 0.01 0.01 0.01 0.01 0.01 0.01 0.00 0.00 0.01 0.00 0.00 0.01 0.01 0.03 0.03 0.02 0.02 0.03 0.05 0.05 0.05 0.04 0.03 0.02 0.01 0.01
0.01 0.02 0.02 0.02 0.01 0.00 0.01 0.01 0.00 0.01 0.01 0.01 0.00 0.00 0.00 0.00 0.01 0.01 0.01 0.00 0.00 0.00 0.00 0.00 0.00 0.00 0.01 0.01 0.01 0.01 0.01 0.01 0.01 0.01 0.01 0.03 0.04 0.05 0.05 0.04 0.02 0.02 0.01
0.01 0.01 0.01 0.01 0.01 0.00 0.00 0.01 0.01 0.02 0.02 0.01 0.00 0.00 0.00 0.00 0.01 0.01 0.00 0.00 0.00 0.00 0.00 0.00 0.00 0.00 0.00 0.00 0.00 0.00 0.00 0.00 0.01 0.01 0.01 0.01 0.03 0.02 0.03 0.03 0.02 0.01 0.01
0.02 0.01 0.02 0.02 0.01 0.01 0.01 0.01 0.01 0.02 0.02 0.02 0.01 0.00 0.00 0.01 0.01 0.01 0.00 0.00 0.00 0.00 0.00 0.00 0.00 0.00 0.00 0.00 0.00 0.00 0.00 0.00 0.00 0.00 0.00 0.01 0.01 0.01 0.01 0.02 0.01 0.01 0.01
0.02 0.02 0.03 0.03 0.02 0.01 0.01 0.01 0.02 0.02 0.02 0.01 0.01 0.01 0.01 0.01 0.01 0.01 0.01 0.01 0.00 0.00 0.00 0.00 0.00 0.00 0.00 0.00 0.00 0.00 0.00 0.00 0.00 0.00 0.00 0.01 0.01 0.00 0.01 0.01 0.01 0.01 0.01
0.02 0.03 0.03 0.03 0.03 0.02 0.01 0.01 0.02 0.02 0.01 0.02 0.02 0.02 0.01 0.01 0.00 0.01 0.01 0.01 0.00 0.00 0.00 0.00 0.00 0.00 0.00 0.00 0.00 0.00 0.00 0.00 0.00 0.00 0.00 0.01 0.01 0.00 0.00 0.00 0.00 0.00 0.00
0.02 0.03 0.04 0.03 0.03 0.03 0.02 0.01 0.02 0.02 0.02 0.02 0.02 0.02 0.01 0.00 0.00 0.00 0.00 0.00 0.00 0.00 0.00 0.00 0.00 0.00 0.00 0.00 0.00 0.00 0.00 0.00 0.00 0.00 0.00 0.00 0.00 0.00 0.00 0.00 0.00 0.00 0.00
0.02 0.03 0.03 0.04 0.04 0.04 0.03 0.03 0.02 0.03 0.04 0.04 0.03 0.02 0.01 0.00 0.00 0.00 0.00 0.00 0.00 0.00 0.00 0.00 0.00 0.00 0.00 0.00 0.00 0.00 0.00 0.00 0.00 0.00 0.00 0.00 0.00 0.00 0.00 0.00 0.00 0.00 0.00

GFSGL_prec_precacc24_021.txt.gz
Total_Precipitation_Accumulation
0.00 0.00 0.00 0.00 0.00 0.00 0.00 0.00 0.00 0.00 0.00 0.01 0.00 0.00 0.00 0.00 0.01 0.02 0.02 0.01 0.02 0.02 0.02 0.02 0.02 0.02 0.02 0.02 0.01 0.00 0.01 0.02 0.03 0.00 0.00 0.00 0.00 0.00 0.00 0.00 0.01 0.03 0.06
0.00 0.00 0.00 0.00 0.00 0.00 0.00 0.00 0.00 0.01 0.02 0.01 0.00 0.01 0.02 0.04 0.04 0.04 0.02 0.01 0.01 0.01 0.01 0.01 0.00 0.00 0.00 0.00 0.00 0.00 0.00 0.00 0.00 0.00 0.00 0.00 0.00 0.00 0.00 0.00 0.00 0.00 0.01
0.00 0.00 0.00 0.00 0.00 0.00 0.01 0.01 0.01 0.01 0.02 0.02 0.02 0.03 0.03 0.02 0.01 0.01 0.00 0.00 0.00 0.00 0.00 0.00 0.00 0.00 0.00 0.00 0.00 0.00 0.00 0.00 0.01 0.02 0.01 0.00 0.00 0.00 0.00 0.00 0.00 0.00 0.00
0.00 0.00 0.00 0.00 0.01 0.00 0.01 0.01 0.02 0.03 0.02 0.00 0.00 0.00 0.00 0.00 0.00 0.00 0.00 0.00 0.00 0.00 0.00 0.00 0.00 0.00 0.00 0.00 0.00 0.00 0.01 0.01 0.01 0.02 0.02 0.02 0.01 0.01 0.01 0.01 0.01 0.00 0.00
0.00 0.00 0.00 0.01 0.01 0.03 0.04 0.03 0.03 0.02 0.01 0.01 0.00 0.00 0.00 0.00 0.00 0.00 0.00 0.00 0.00 0.00 0.00 0.00 0.00 0.00 0.00 0.00 0.01 0.01 0.02 0.04 0.04 0.04 0.03 0.02 0.01 0.01 0.01 0.02 0.04 0.02 0.01
0.00 0.00 0.01 0.01 0.03 0.04 0.02 0.02 0.01 0.02 0.01 0.00 0.00 0.00 0.00 0.00 0.00 0.00 0.00 0.00 0.00 0.00 0.00 0.00 0.00 0.00 0.00 0.00 0.01 0.01 0.03 0.08 0.11 0.07 0.05 0.04 0.02 0.01 0.01 0.02 0.03 0.02 0.01
0.00 0.00 0.01 0.03 0.03 0.02 0.02 0.02 0.02 0.03 0.03 0.01 0.00 0.00 0.00 0.00 0.00 0.00 0.00 0.00 0.00 0.00 0.00 0.00 0.00 0.00 0.00 0.00 0.00 0.01 0.02 0.02 0.06 0.10 0.09 0.03 0.02 0.01 0.03 0.04 0.05 0.04 0.02
0.00 0.00 0.01 0.02 0.02 0.04 0.06 0.03 0.07 0.05 0.00 0.00 0.00 0.00 0.00 0.00 0.00 0.00 0.00 0.00 0.00 0.00 0.00 0.00 0.00 0.00 0.01 0.02 0.09 0.06 0.01 0.00 0.01 0.02 0.05 0.03 0.02 0.02 0.03 0.03 0.02 0.03 0.02
0.00 0.00 0.01 0.02 0.02 0.01 0.03 0.06 0.02 0.00 0.00 0.00 0.00 0.00 0.00 0.00 0.00 0.00 0.00 0.00 0.00 0.00 0.00 0.00 0.01 0.01 0.02 0.08 0.09 0.05 0.02 0.01 0.01 0.02 0.04 0.07 0.10 0.08 0.07 0.14 0.11 0.10 0.06
0.00 0.00 0.00 0.00 0.02 0.03 0.02 0.00 0.00 0.00 0.00 0.00 0.00 0.00 0.00 0.00 0.01 0.00 0.00 0.01 0.01 0.02 0.02 0.01 0.01 0.05 0.12 0.09 0.14 0.11 0.09 0.03 0.02 0.03 0.02 0.03 0.03 0.02 0.01 0.03 0.05 0.10 0.10
0.00 0.00 0.01 0.01 0.00 0.00 0.00 0.00 0.00 0.00 0.00 0.00 0.00 0.00 0.00 0.01 0.01 0.00 0.01 0.02 0.05 0.07 0.02 0.02 0.05 0.21 0.12 0.09 0.08 0.09 0.12 0.06 0.04 0.03 0.02 0.01 0.02 0.02 0.03 0.03 0.03 0.03 0.04
0.00 0.01 0.01 0.00 0.00 0.00 0.00 0.00 0.00 0.00 0.00 0.00 0.00 0.01 0.01 0.01 0.00 0.00 0.00 0.02 0.04 0.08 0.06 0.10 0.16 0.09 0.05 0.04 0.07 0.10 0.06 0.03 0.05 0.06 0.08 0.06 0.06 0.06 0.05 0.06 0.08 0.07 0.04
0.00 0.00 0.00 0.00 0.00 0.00 0.00 0.00 0.00 0.00 0.00 0.00 0.00 0.00 0.00 0.00 0.00 0.00 0.01 0.01 0.02 0.06 0.08 0.10 0.09 0.05 0.03 0.04 0.09 0.07 0.05 0.10 0.14 0.12 0.10 0.08 0.09 0.09 0.09 0.09 0.06 0.07 0.08
0.00 0.00 0.00 0.00 0.00 0.00 0.00 0.00 0.00 0.00 0.00 0.00 0.00 0.00 0.00 0.00 0.00 0.01 0.01 0.01 0.03 0.03 0.02 0.08 0.07 0.03 0.05 0.11 0.07 0.06 0.09 0.10 0.09 0.11 0.08 0.06 0.06 0.08 0.13 0.17 0.17 0.13 0.15
0.00 0.00 0.00 0.01 0.00 0.00 0.00 0.00 0.00 0.00 0.00 0.00 0.00 0.00 0.00 0.01 0.00 0.02 0.03 0.04 0.06 0.04 0.05 0.06 0.05 0.05 0.06 0.06 0.03 0.03 0.04 0.03 0.04 0.05 0.06 0.05 0.06 0.07 0.09 0.12 0.18 0.18 0.18
0.00 0.00 0.02 0.02 0.01 0.01 0.00 0.00 0.00 0.00 0.00 0.00 0.00 0.00 0.00 0.00 0.00 0.01 0.02 0.03 0.04 0.03 0.05 0.05 0.07 0.06 0.07 0.07 0.05 0.03 0.03 0.05 0.04 0.05 0.06 0.06 0.06 0.07 0.07 0.06 0.08 0.08 0.08
0.00 0.01 0.02 0.03 0.02 0.01 0.00 0.00 0.00 0.00 0.00 0.00 0.00 0.00 0.00 0.00 0.00 0.01 0.01 0.01 0.03 0.02 0.03 0.05 0.06 0.04 0.02 0.01 0.01 0.02 0.04 0.06 0.03 0.04 0.07 0.06 0.06 0.05 0.04 0.03 0.04 0.04 0.05
0.00 0.01 0.02 0.03 0.02 0.01 0.01 0.01 0.01 0.02 0.01 0.01 0.01 0.00 0.00 0.00 0.00 0.00 0.01 0.01 0.01 0.01 0.02 0.03 0.02 0.01 0.00 0.01 0.01 0.01 0.03 0.04 0.02 0.03 0.05 0.05 0.05 0.06 0.05 0.03 0.03 0.03 0.04
0.00 0.01 0.02 0.02 0.01 0.01 0.02 0.02 0.01 0.01 0.01 0.00 0.00 0.00 0.00 0.00 0.01 0.01 0.01 0.01 0.01 0.01 0.01 0.00 0.00 0.01 0.00 0.00 0.01 0.01 0.03 0.03 0.02 0.02 0.03 0.05 0.05 0.05 0.04 0.03 0.02 0.01 0.01
0.01 0.02 0.02 0.02 0.01 0.01 0.02 0.01 0.00 0.02 0.01 0.01 0.01 0.00 0.00 0.00 0.01 0.01 0.01 0.00 0.00 0.00 0.00 0.00 0.00 0.00 0.01 0.01 0.01 0.01 0.01 0.01 0.01 0.01 0.01 0.03 0.04 0.05 0.05 0.04 0.02 0.02 0.01
0.01 0.02 0.02 0.02 0.01 0.01 0.01 0.01 0.01 0.02 0.02 0.01 0.01 0.00 0.00 0.00 0.01 0.01 0.00 0.00 0.00 0.00 0.00 0.00 0.00 0.00 0.00 0.00 0.00 0.00 0.00 0.00 0.01 0.01 0.01 0.01 0.03 0.02 0.03 0.03 0.02 0.01 0.01
0.02 0.02 0.02 0.03 0.02 0.02 0.02 0.01 0.01 0.02 0.02 0.02 0.01 0.00 0.00 0.01 0.01 0.01 0.00 0.00 0.00 0.00 0.00 0.00 0.00 0.00 0.00 0.00 0.00 0.00 0.00 0.00 0.00 0.00 0.00 0.01 0.01 0.01 0.01 0.02 0.01 0.01 0.01
0.02 0.02 0.03 0.03 0.04 0.03 0.02 0.02 0.02 0.02 0.02 0.01 0.01 0.01 0.01 0.01 0.01 0.01 0.01 0.01 0.00 0.00 0.00 0.00 0.00 0.00 0.00 0.00 0.00 0.00 0.00 0.00 0.00 0.00 0.00 0.01 0.01 0.00 0.01 0.01 0.01 0.01 0.01
0.02 0.03 0.04 0.04 0.04 0.03 0.03 0.02 0.02 0.02 0.01 0.02 0.02 0.02 0.01 0.01 0.00 0.01 0.01 0.01 0.00 0.00 0.00 0.00 0.00 0.00 0.00 0.00 0.00 0.00 0.00 0.00 0.00 0.00 0.00 0.01 0.01 0.00 0.00 0.00 0.00 0.00 0.00
0.03 0.03 0.05 0.05 0.05 0.04 0.03 0.02 0.03 0.03 0.03 0.03 0.03 0.03 0.01 0.01 0.00 0.00 0.00 0.00 0.00 0.00 0.00 0.00 0.00 0.00 0.00 0.00 0.00 0.00 0.00 0.00 0.00 0.00 0.00 0.00 0.00 0.00 0.00 0.00 0.00 0.00 0.00
0.03 0.05 0.05 0.05 0.05 0.05 0.05 0.05 0.04 0.04 0.06 0.05 0.06 0.05 0.04 0.02 0.01 0.01 0.00 0.00 0.00 0.00 0.00 0.00 0.00 0.00 0.00 0.00 0.00 0.00 0.00 0.00 0.00 0.00 0.00 0.00 0.00 0.00 0.00 0.00 0.00 0.00 0.00

GFSGL_prec_precacc24_024.txt.gz
Total_Precipitation_Accumulation
0.00 0.00 0.00 0.00 0.00 0.00 0.00 0.00 0.00 0.00 0.00 0.01 0.00 0.00 0.00 0.00 0.01 0.02 0.04 0.03 0.02 0.02 0.02 0.02 0.02 0.02 0.02 0.02 0.01 0.00 0.01 0.02 0.03 0.00 0.00 0.00 0.00 0.00 0.00 0.00 0.01 0.03 0.06
0.00 0.00 0.00 0.00 0.00 0.00 0.00 0.00 0.00 0.01 0.02 0.01 0.00 0.01 0.02 0.04 0.06 0.06 0.02 0.01 0.01 0.01 0.01 0.01 0.00 0.00 0.00 0.00 0.00 0.00 0.00 0.00 0.00 0.00 0.00 0.00 0.00 0.00 0.00 0.00 0.00 0.00 0.01
0.00 0.00 0.00 0.00 0.00 0.00 0.01 0.01 0.01 0.01 0.02 0.02 0.02 0.03 0.03 0.04 0.03 0.01 0.00 0.00 0.00 0.00 0.00 0.00 0.00 0.00 0.00 0.00 0.00 0.00 0.00 0.00 0.01 0.02 0.01 0.00 0.00 0.00 0.01 0.01 0.01 0.00 0.00
0.00 0.00 0.00 0.00 0.01 0.00 0.01 0.01 0.02 0.03 0.02 0.00 0.00 0.00 0.01 0.00 0.00 0.00 0.00 0.00 0.00 0.00 0.00 0.00 0.00 0.00 0.00 0.00 0.00 0.00 0.01 0.02 0.02 0.03 0.02 0.02 0.02 0.01 0.01 0.02 0.02 0.02 0.01
0.00 0.00 0.00 0.01 0.01 0.03 0.04 0.03 0.03 0.02 0.01 0.01 0.00 0.00 0.00 0.00 0.00 0.00 0.00 0.00 0.00 0.00 0.00 0.00 0.00 0.00 0.00 0.00 0.01 0.01 0.03 0.05 0.05 0.05 0.04 0.02 0.01 0.01 0.02 0.03 0.05 0.03 0.02
0.00 0.00 0.01 0.01 0.03 0.04 0.02 0.02 0.01 0.02 0.01 0.00 0.00 0.00 0.00 0.00 0.00 0.00 0.00 0.00 0.00 0.00 0.00 0.00 0.00 0.00 0.00 0.00 0.01 0.02 0.03 0.09 0.13 0.09 0.06 0.05 0.03 0.03 0.02 0.04 0.05 0.04 0.02
0.00 0.00 0.01 0.03 0.03 0.02 0.02 0.02 0.02 0.03 0.03 0.01 0.00 0.00 0.00 0.00 0.00 0.00 0.00 0.00 0.00 0.00 0.00 0.00 0.00 0.00 0.00 0.00 0.00 0.01 0.02 0.03 0.08 0.11 0.12 0.05 0.04 0.03 0.05 0.06 0.08 0.08 0.05
0.00 0.00 0.01 0.02 0.02 0.04 0.06 0.03 0.07 0.05 0.00 0.00 0.00 0.00 0.00 0.00 0.00 0.00 0.00 0.00 0.00 0.00 0.00 0.00 0.00 0.00 0.01 0.02 0.10 0.07 0.02 0.01 0.01 0.03 0.07 0.05 0.04 0.04 0.05 0.06 0.06 0.06 0.04
0.00 0.00 0.01 0.02 0.02 0.01 0.03 0.06 0.02 0.00 0.00 0.00 0.00 0.00 0.00 0.00 0.00 0.00 0.00 0.00 0.00 0.00 0.00 0.00 0.01 0.01 0.02 0.08 0.10 0.06 0.03 0.01 0.01 0.02 0.04 0.07 0.10 0.09 0.09 0.16 0.13 0.14 0.10
0.00 0.00 0.00 0.00 0.02 0.03 0.02 0.00 0.00 0.00 0.00 0.00 0.00 0.00 0.00 0.00 0.01 0.00 0.00 0.01 0.01 0.02 0.02 0.01 0.01 0.05 0.12 0.09 0.14 0.12 0.10 0.04 0.02 0.03 0.02 0.03 0.04 0.04 0.02 0.04 0.06 0.12 0.13
0.00 0.00 0.01 0.01 0.00 0.00 0.00 0.00 0.00 0.00 0.00 0.00 0.00 0.00 0.00 0.01 0.01 0.00 0.01 0.02 0.05 0.07 0.02 0.02 0.05 0.21 0.12 0.09 0.08 0.10 0.13 0.07 0.04 0.03 0.02 0.02 0.02 0.03 0.05 0.07 0.06 0.04 0.04
0.00 0.01 0.01 0.00 0.00 0.00 0.00 0.00 0.00 0.00 0.00 0.00 0.00 0.01 0.01 0.01 0.00 0.00 0.00 0.02 0.04 0.08 0.06 0.10 0.16 0.09 0.05 0.04 0.07 0.10 0.06 0.03 0.05 0.07 0.08 0.06 0.07 0.07 0.06 0.07 0.10 0.09 0.05
0.00 0.00 0.00 0.00 0.00 0.00 0.00 0.00 0.00 0.00 0.00 0.00 0.00 0.00 0.00 0.00 0.00 0.00 0.01 0.01 0.02 0.06 0.08 0.10 0.09 0.05 0.03 0.04 0.09 0.07 0.05 0.10 0.14 0.12 0.10 0.09 0.10 0.10 0.11 0.13 0.10 0.09 0.09
0.00 0.00 0.00 0.00 0.00 0.00 0.00 0.00 0.00 0.00 0.00 0.00 0.00 0.00 0.00 0.00 0.00 0.01 0.01 0.01 0.03 0.03 0.02 0.08 0.07 0.03 0.05 0.11 0.07 0.06 0.09 0.10 0.09 0.12 0.09 0.07 0.07 0.09 0.15 0.19 0.21 0.19 0.19
0.00 0.00 0.00 0.01 0.00 0.00 0.00 0.00 0.00 0.00 0.00 0.00 0.00 0.00 0.01 0.01 0.01 0.02 0.03 0.04 0.07 0.04 0.05 0.06 0.05 0.05 0.06 0.06 0.03 0.03 0.04 0.03 0.04 0.06 0.06 0.05 0.06 0.08 0.10 0.13 0.20 0.22 0.24
0.00 0.00 0.02 0.02 0.01 0.01 0.00 0.00 0.00 0.00 0.00 0.00 0.00 0.00 0.00 0.01 0.00 0.01 0.02 0.03 0.04 0.03 0.05 0.05 0.07 0.06 0.07 0.07 0.05 0.03 0.03 0.05 0.04 0.05 0.06 0.06 0.07 0.07 0.07 0.07 0.09 0.09 0.10
0.00 0.01 0.02 0.03 0.02 0.01 0.01 0.01 0.01 0.01 0.00 0.00 0.00 0.00 0.00 0.00 0.00 0.01 0.01 0.01 0.03 0.02 0.03 0.05 0.06 0.04 0.02 0.01 0.01 0.02 0.04 0.06 0.03 0.04 0.07 0.06 0.06 0.05 0.05 0.04 0.05 0.05 0.06
0.00 0.01 0.02 0.03 0.02 0.02 0.02 0.02 0.03 0.03 0.02 0.01 0.01 0.00 0.00 0.00 0.00 0.01 0.01 0.01 0.01 0.02 0.02 0.03 0.02 0.01 0.00 0.01 0.01 0.01 0.03 0.04 0.02 0.03 0.05 0.06 0.05 0.06 0.05 0.03 0.03 0.03 0.04
0.00 0.01 0.02 0.03 0.02 0.02 0.02 0.03 0.03 0.03 0.02 0.01 0.01 0.00 0.00 0.00 0.01 0.01 0.02 0.02 0.02 0.01 0.01 0.00 0.00 0.01 0.00 0.00 0.01 0.01 0.03 0.03 0.02 0.02 0.03 0.05 0.05 0.05 0.04 0.04 0.03 0.01 0.01
0.01 0.02 0.02 0.03 0.03 0.03 0.02 0.02 0.02 0.03 0.02 0.02 0.01 0.01 0.00 0.00 0.01 0.01 0.02 0.01 0.00 0.00 0.00 0.00 0.00 0.00 0.01 0.01 0.01 0.01 0.01 0.01 0.01 0.01 0.01 0.03 0.04 0.05 0.05 0.05 0.02 0.02 0.01
0.01 0.02 0.02 0.03 0.02 0.02 0.02 0.03 0.02 0.03 0.03 0.01 0.01 0.01 0.00 0.01 0.01 0.01 0.01 0.01 0.00 0.00 0.00 0.00 0.00 0.00 0.00 0.01 0.00 0.01 0.00 0.00 0.01 0.01 0.01 0.01 0.03 0.02 0.03 0.03 0.02 0.01 0.01
0.02 0.02 0.02 0.03 0.03 0.03 0.03 0.02 0.03 0.03 0.02 0.02 0.01 0.01 0.00 0.01 0.02 0.01 0.01 0.01 0.01 0.00 0.00 0.00 0.00 0.00 0.00 0.00 0.01 0.01 0.00 0.00 0.00 0.00 0.00 0.01 0.01 0.01 0.01 0.02 0.01 0.01 0.01
0.02 0.03 0.05 0.04 0.04 0.04 0.03 0.03 0.04 0.04 0.03 0.02 0.01 0.01 0.01 0.02 0.01 0.01 0.01 0.01 0.01 0.01 0.00 0.00 0.00 0.00 0.00 0.00 0.00 0.00 0.00 0.00 0.00 0.00 0.00 0.01 0.01 0.00 0.01 0.01 0.01 0.01 0.01
0.02 0.04 0.05 0.05 0.05 0.04 0.04 0.04 0.04 0.03 0.02 0.02 0.02 0.02 0.02 0.01 0.01 0.01 0.01 0.01 0.01 0.00 0.00 0.00 0.00 0.00 0.00 0.00 0.00 0.00 0.00 0.00 0.00 0.00 0.00 0.01 0.01 0.00 0.00 0.00 0.00 0.00 0.00
0.03 0.04 0.07 0.07 0.07 0.06 0.05 0.04 0.04 0.05 0.05 0.05 0.05 0.04 0.03 0.02 0.02 0.02 0.02 0.02 0.02 0.01 0.00 0.00 0.00 0.00 0.00 0.00 0.00 0.00 0.00 0.00 0.00 0.00 0.00 0.00 0.00 0.00 0.00 0.00 0.00 0.00 0.00
0.03 0.06 0.08 0.08 0.09 0.08 0.07 0.07 0.06 0.06 0.07 0.07 0.07 0.06 0.05 0.04 0.03 0.02 0.02 0.03 0.03 0.02 0.01 0.00 0.00 0.00 0.00 0.00 0.00 0.00 0.00 0.00 0.00 0.00 0.00 0.00 0.00 0.00 0.00 0.00 0.00 0.00 0.00

GFSGL_prec_precacc24_027.txt.gz
Total_Precipitation_Accumulation
0.00 0.00 0.00 0.00 0.00 0.00 0.00 0.00 0.00 0.00 0.00 0.00 0.00 0.00 0.00 0.00 0.01 0.02 0.04 0.05 0.04 0.03 0.02 0.03 0.03 0.02 0.02 0.02 0.01 0.00 0.01 0.02 0.03 0.00 0.00 0.00 0.00 0.00 0.00 0.00 0.01 0.03 0.06
0.00 0.00 0.00 0.00 0.00 0.00 0.00 0.00 0.00 0.01 0.01 0.00 0.00 0.00 0.01 0.02 0.03 0.05 0.03 0.02 0.01 0.01 0.01 0.02 0.01 0.00 0.00 0.00 0.00 0.00 0.00 0.00 0.00 0.00 0.00 0.00 0.00 0.00 0.00 0.00 0.00 0.00 0.01
0.00 0.00 0.00 0.00 0.00 0.00 0.01 0.00 0.01 0.01 0.01 0.01 0.00 0.00 0.01 0.02 0.02 0.00 0.00 0.00 0.00 0.01 0.00 0.00 0.00 0.00 0.00 0.00 0.00 0.00 0.00 0.00 0.01 0.03 0.01 0.00 0.00 0.00 0.01 0.01 0.01 0.00 0.00
0.00 0.00 0.00 0.00 0.01 0.00 0.01 0.01 0.02 0.02 0.02 0.00 0.00 0.00 0.01 0.00 0.00 0.00 0.00 0.00 0.01 0.00 0.00 0.00 0.00 0.00 0.00 0.00 0.00 0.00 0.01 0.02 0.02 0.03 0.03 0.02 0.02 0.01 0.02 0.03 0.03 0.02 0.02
0.00 0.00 0.00 0.01 0.01 0.03 0.04 0.03 0.03 0.02 0.01 0.01 0.00 0.00 0.00 0.00 0.00 0.00 0.00 0.00 0.00 0.00 0.00 0.00 0.00 0.00 0.00 0.00 0.01 0.01 0.03 0.05 0.05 0.06 0.04 0.03 0.02 0.02 0.04 0.05 0.06 0.04 0.02
0.00 0.00 0.01 0.01 0.03 0.04 0.02 0.02 0.01 0.02 0.01 0.00 0.00 0.00 0.00 0.00 0.00 0.00 0.00 0.00 0.00 0.00 0.00 0.00 0.00 0.00 0.00 0.00 0.01 0.02 0.03 0.09 0.15 0.10 0.07 0.06 0.04 0.04 0.05 0.06 0.08 0.06 0.03
0.00 0.00 0.01 0.03 0.03 0.02 0.02 0.02 0.02 0.03 0.03 0.01 0.00 0.00 0.00 0.00 0.00 0.00 0.00 0.00 0.00 0.00 0.00 0.00 0.00 0.00 0.00 0.00 0.00 0.01 0.02 0.03 0.09 0.12 0.13 0.07 0.07 0.06 0.07 0.09 0.10 0.10 0.07
0.00 0.00 0.01 0.02 0.02 0.04 0.06 0.03 0.07 0.05 0.00 0.00 0.00 0.00 0.00 0.00 0.00 0.00 0.00 0.00 0.00 0.00 0.00 0.00 0.00 0.00 0.01 0.02 0.10 0.07 0.01 0.00 0.01 0.03 0.07 0.05 0.04 0.04 0.06 0.07 0.07 0.07 0.04
0.00 0.00 0.01 0.02 0.02 0.01 0.03 0.06 0.02 0.00 0.00 0.00 0.00 0.00 0.00 0.00 0.00 0.00 0.00 0.00 0.00 0.00 0.00 0.00 0.01 0.01 0.01 0.08 0.09 0.04 0.01 0.01 0.01 0.02 0.04 0.07 0.10 0.09 0.09 0.17 0.13 0.14 0.10
0.00 0.00 0.00 0.00 0.02 0.03 0.02 0.00 0.00 0.00 0.00 0.00 0.00 0.00 0.00 0.00 0.01 0.00 0.00 0.00 0.01 0.01 0.01 0.00 0.00 0.05 0.11 0.09 0.12 0.09 0.08 0.03 0.01 0.02 0.01 0.02 0.02 0.03 0.02 0.06 0.09 0.14 0.13
0.00 0.00 0.01 0.01 0.00 0.00 0.00 0.00 0.00 0.00 0.00 0.00 0.00 0.00 0.00 0.00 0.00 0.00 0.00 0.01 0.03 0.04 0.01 0.01 0.03 0.14 0.09 0.07 0.07 0.09 0.12 0.06 0.04 0.03 0.03 0.02 0.02 0.03 0.04 0.07 0.08 0.08 0.06
0.01 0.01 0.01 0.00 0.00 0.00 0.00 0.00 0.00 0.00 0.00 0.00 0.00 0.00 0.00 0.00 0.00 0.00 0.00 0.01 0.02 0.05 0.04 0.06 0.08 0.07 0.05 0.04 0.07 0.09 0.06 0.03 0.05 0.06 0.07 0.06 0.06 0.07 0.06 0.07 0.11 0.09 0.06
0.00 0.00 0.00 0.00 0.00 0.00 0.00 0.00 0.00 0.00 0.00 0.00 0.00 0.00 0.01 0.01 0.01 0.00 0.00 0.00 0.01 0.04 0.04 0.06 0.07 0.04 0.03 0.04 0.08 0.07 0.04 0.08 0.11 0.11 0.09 0.08 0.09 0.10 0.10 0.13 0.11 0.12 0.10
0.00 0.00 0.00 0.00 0.00 0.00 0.00 0.00 0.00 0.00 0.00 0.00 0.00 0.00 0.00 0.00 0.00 0.01 0.00 0.01 0.01 0.02 0.01 0.04 0.04 0.02 0.03 0.08 0.05 0.05 0.07 0.08 0.08 0.10 0.08 0.06 0.07 0.08 0.12 0.17 0.20 0.20 0.26
0.00 0.00 0.00 0.01 0.00 0.00 0.00 0.00 0.00 0.00 0.00 0.00 0.00 0.01 0.01 0.01 0.00 0.01 0.02 0.02 0.04 0.03 0.02 0.03 0.02 0.02 0.03 0.04 0.02 0.02 0.03 0.02 0.04 0.05 0.05 0.05 0.06 0.07 0.09 0.12 0.19 0.20 0.24
0.00 0.00 0.02 0.02 0.01 0.01 0.00 0.00 0.00 0.00 0.00 0.00 0.00 0.00 0.00 0.00 0.00 0.00 0.01 0.01 0.03 0.01 0.03 0.03 0.03 0.03 0.03 0.04 0.03 0.02 0.02 0.04 0.03 0.04 0.05 0.05 0.06 0.07 0.06 0.05 0.09 0.09 0.09
0.00 0.01 0.02 0.03 0.02 0.01 0.01 0.01 0.01 0.01 0.00 0.00 0.00 0.00 0.00 0.00 0.00 0.00 0.01 0.00 0.02 0.01 0.02 0.03 0.03 0.02 0.01 0.00 0.01 0.02 0.04 0.05 0.02 0.04 0.06 0.05 0.06 0.05 0.04 0.03 0.03 0.03 0.04
0.00 0.01 0.02 0.03 0.02 0.02 0.02 0.03 0.04 0.04 0.03 0.02 0.01 0.00 0.00 0.00 0.00 0.00 0.00 0.01 0.01 0.01 0.01 0.01 0.01 0.01 0.00 0.01 0.00 0.01 0.02 0.02 0.01 0.02 0.04 0.05 0.04 0.05 0.04 0.03 0.03 0.03 0.02
0.00 0.01 0.02 0.03 0.03 0.02 0.03 0.04 0.04 0.04 0.03 0.02 0.01 0.00 0.00 0.00 0.00 0.01 0.02 0.02 0.01 0.01 0.01 0.00 0.00 0.01 0.00 0.00 0.01 0.00 0.01 0.02 0.00 0.01 0.02 0.04 0.04 0.04 0.04 0.03 0.02 0.01 0.00
0.01 0.02 0.02 0.03 0.03 0.03 0.03 0.03 0.03 0.04 0.03 0.03 0.02 0.01 0.00 0.01 0.02 0.02 0.02 0.02 0.01 0.01 0.01 0.00 0.00 0.00 0.00 0.00 0.00 0.01 0.01 0.01 0.01 0.00 0.00 0.02 0.03 0.04 0.04 0.04 0.02 0.01 0.01
0.01 0.02 0.02 0.03 0.02 0.02 0.02 0.03 0.03 0.04 0.05 0.03 0.02 0.01 0.00 0.01 0.02 0.02 0.02 0.03 0.02 0.01 0.01 0.01 0.01 0.00 0.00 0.01 0.00 0.00 0.00 0.00 0.00 0.00 0.00 0.01 0.01 0.01 0.02 0.03 0.01 0.01 0.01
0.02 0.02 0.03 0.04 0.04 0.05 0.04 0.03 0.04 0.04 0.04 0.04 0.02 0.01 0.00 0.01 0.02 0.01 0.01 0.01 0.02 0.01 0.01 0.01 0.01 0.01 0.01 0.00 0.01 0.01 0.01 0.00 0.00 0.00 0.00 0.00 0.00 0.00 0.01 0.01 0.01 0.00 0.00
0.02 0.04 0.05 0.05 0.06 0.05 0.05 0.04 0.05 0.05 0.04 0.04 0.03 0.03 0.02 0.02 0.02 0.01 0.01 0.01 0.01 0.01 0.01 0.01 0.01 0.01 0.01 0.00 0.01 0.00 0.00 0.00 0.00 0.00 0.00 0.01 0.01 0.00 0.01 0.01 0.00 0.00 0.00
0.03 0.04 0.05 0.05 0.06 0.06 0.06 0.06 0.05 0.04 0.04 0.05 0.05 0.05 0.04 0.03 0.03 0.02 0.01 0.02 0.02 0.02 0.02 0.01 0.01 0.00 0.00 0.00 0.00 0.00 0.00 0.00 0.00 0.00 0.00 0.01 0.01 0.00 0.00 0.00 0.00 0.00 0.00
0.05 0.04 0.06 0.07 0.08 0.08 0.07 0.06 0.07 0.07 0.07 0.07 0.07 0.07 0.05 0.04 0.04 0.03 0.03 0.04 0.04 0.04 0.03 0.03 0.02 0.01 0.00 0.00 0.00 0.00 0.00 0.00 0.00 0.00 0.00 0.00 0.00 0.00 0.00 0.00 0.00 0.00 0.00
0.07 0.09 0.09 0.09 0.10 0.10 0.12 0.11 0.09 0.08 0.09 0.08 0.08 0.07 0.06 0.05 0.05 0.04 0.03 0.05 0.05 0.05 0.04 0.05 0.04 0.02 0.01 0.01 0.00 0.00 0.00 0.00 0.00 0.00 0.00 0.00 0.00 0.00 0.00 0.00 0.00 0.00 0.00

GFSGL_prec_precacc24_030.txt.gz
Total_Precipitation_Accumulation
0.00 0.00 0.00 0.00 0.00 0.00 0.00 0.00 0.00 0.00 0.00 0.00 0.00 0.00 0.00 0.00 0.00 0.01 0.03 0.04 0.04 0.03 0.02 0.02 0.03 0.02 0.01 0.02 0.01 0.00 0.00 0.02 0.03 0.00 0.00 0.00 0.00 0.00 0.00 0.00 0.01 0.03 0.06
0.00 0.00 0.00 0.00 0.00 0.00 0.00 0.00 0.00 0.01 0.01 0.00 0.00 0.00 0.00 0.00 0.01 0.03 0.02 0.01 0.01 0.01 0.01 0.01 0.00 0.00 0.00 0.00 0.00 0.00 0.00 0.00 0.00 0.00 0.00 0.00 0.00 0.00 0.00 0.00 0.00 0.00 0.01
0.00 0.00 0.00 0.00 0.00 0.00 0.01 0.00 0.01 0.01 0.01 0.01 0.00 0.00 0.01 0.02 0.02 0.00 0.00 0.00 0.00 0.01 0.00 0.00 0.00 0.00 0.00 0.00 0.00 0.00 0.00 0.00 0.01 0.03 0.01 0.00 0.00 0.00 0.01 0.01 0.01 0.00 0.00
0.00 0.00 0.00 0.00 0.01 0.00 0.01 0.01 0.02 0.02 0.02 0.00 0.00 0.00 0.01 0.00 0.00 0.00 0.00 0.01 0.01 0.00 0.00 0.00 0.00 0.00 0.00 0.00 0.00 0.00 0.01 0.02 0.02 0.03 0.03 0.02 0.02 0.01 0.02 0.03 0.04 0.03 0.02
0.00 0.00 0.00 0.01 0.01 0.03 0.04 0.03 0.03 0.02 0.01 0.01 0.00 0.00 0.00 0.00 0.00 0.00 0.00 0.00 0.00 0.00 0.00 0.00 0.00 0.00 0.00 0.00 0.01 0.01 0.03 0.05 0.05 0.06 0.04 0.04 0.03 0.02 0.04 0.05 0.07 0.04 0.02
0.00 0.00 0.01 0.01 0.03 0.04 0.02 0.02 0.01 0.02 0.01 0.00 0.00 0.00 0.00 0.00 0.00 0.00 0.00 0.00 0.00 0.00 0.00 0.00 0.00 0.00 0.00 0.00 0.01 0.02 0.03 0.09 0.15 0.11 0.08 0.07 0.04 0.06 0.06 0.07 0.09 0.06 0.04
0.00 0.00 0.00 0.01 0.02 0.01 0.02 0.02 0.02 0.03 0.03 0.01 0.00 0.00 0.00 0.00 0.00 0.00 0.00 0.00 0.00 0.00 0.00 0.00 0.00 0.00 0.00 0.00 0.00 0.01 0.02 0.03 0.09 0.12 0.13 0.08 0.08 0.07 0.07 0.09 0.11 0.11 0.08
0.00 0.00 0.00 0.01 0.01 0.04 0.06 0.03 0.07 0.05 0.00 0.00 0.00 0.00 0.00 0.00 0.00 0.00 0.00 0.00 0.00 0.00 0.00 0.00 0.00 0.00 0.00 0.02 0.10 0.07 0.01 0.00 0.01 0.03 0.07 0.05 0.04 0.04 0.06 0.07 0.07 0.07 0.04
0.00 0.00 0.00 0.01 0.02 0.01 0.03 0.06 0.02 0.00 0.00 0.00 0.00 0.00 0.00 0.00 0.00 0.00 0.00 0.00 0.00 0.00 0.00 0.00 0.00 0.01 0.01 0.08 0.09 0.04 0.01 0.00 0.00 0.01 0.04 0.07 0.09 0.08 0.09 0.17 0.13 0.13 0.10
0.00 0.00 0.00 0.00 0.01 0.02 0.02 0.00 0.00 0.00 0.00 0.00 0.00 0.00 0.00 0.00 0.00 0.00 0.00 0.00 0.00 0.00 0.00 0.00 0.00 0.03 0.10 0.08 0.10 0.07 0.06 0.02 0.01 0.01 0.01 0.01 0.02 0.03 0.03 0.07 0.12 0.21 0.18
0.00 0.00 0.01 0.01 0.01 0.00 0.00 0.00 0.00 0.00 0.00 0.00 0.00 0.00 0.00 0.00 0.00 0.00 0.00 0.00 0.01 0.02 0.00 0.00 0.01 0.05 0.08 0.06 0.06 0.08 0.12 0.06 0.04 0.03 0.03 0.03 0.03 0.03 0.04 0.07 0.08 0.10 0.12
0.01 0.01 0.01 0.00 0.00 0.00 0.00 0.00 0.00 0.00 0.00 0.00 0.00 0.00 0.00 0.00 0.00 0.00 0.00 0.00 0.01 0.02 0.02 0.02 0.03 0.06 0.05 0.04 0.07 0.09 0.05 0.03 0.05 0.05 0.06 0.05 0.06 0.06 0.05 0.07 0.11 0.10 0.08
0.01 0.00 0.00 0.00 0.00 0.00 0.00 0.00 0.00 0.00 0.00 0.00 0.00 0.01 0.01 0.01 0.01 0.00 0.00 0.00 0.01 0.01 0.01 0.04 0.04 0.03 0.02 0.03 0.06 0.06 0.04 0.05 0.07 0.07 0.07 0.06 0.07 0.08 0.08 0.12 0.10 0.11 0.09
0.01 0.00 0.00 0.00 0.00 0.00 0.00 0.00 0.00 0.00 0.00 0.00 0.00 0.01 0.01 0.01 0.01 0.01 0.01 0.00 0.01 0.01 0.00 0.02 0.01 0.01 0.02 0.04 0.02 0.02 0.04 0.05 0.06 0.08 0.06 0.06 0.06 0.07 0.11 0.16 0.17 0.18 0.26
0.00 0.00 0.00 0.01 0.00 0.00 0.00 0.00 0.00 0.00 0.00 0.00 0.01 0.01 0.02 0.01 0.01 0.01 0.02 0.02 0.03 0.02 0.01 0.01 0.00 0.01 0.01 0.01 0.00 0.01 0.01 0.01 0.02 0.04 0.04 0.04 0.05 0.06 0.08 0.11 0.18 0.19 0.21
0.00 0.00 0.02 0.02 0.01 0.01 0.00 0.00 0.00 0.00 0.00 0.00 0.00 0.00 0.00 0.00 0.00 0.00 0.00 0.00 0.01 0.01 0.01 0.01 0.01 0.01 0.01 0.02 0.01 0.01 0.01 0.03 0.02 0.04 0.04 0.04 0.05 0.06 0.06 0.04 0.06 0.08 0.09
0.00 0.01 0.02 0.03 0.02 0.01 0.01 0.01 0.01 0.01 0.00 0.00 0.00 0.00 0.00 0.00 0.00 0.00 0.00 0.00 0.00 0.00 0.00 0.01 0.01 0.01 0.01 0.00 0.00 0.01 0.03 0.04 0.02 0.03 0.04 0.05 0.05 0.04 0.03 0.02 0.02 0.03 0.03
0.00 0.01 0.02 0.02 0.02 0.02 0.02 0.03 0.04 0.04 0.04 0.02 0.01 0.00 0.00 0.00 0.00 0.00 0.00 0.01 0.01 0.01 0.01 0.00 0.01 0.01 0.00 0.01 0.00 0.00 0.01 0.01 0.00 0.01 0.02 0.04 0.04 0.04 0.03 0.02 0.02 0.02 0.02
0.00 0.01 0.02 0.03 0.02 0.02 0.03 0.04 0.04 0.04 0.04 0.02 0.02 0.01 0.00 0.00 0.00 0.00 0.01 0.03 0.02 0.01 0.01 0.00 0.00 0.01 0.00 0.00 0.00 0.00 0.01 0.01 0.00 0.00 0.01 0.03 0.03 0.03 0.03 0.02 0.02 0.01 0.00
0.01 0.02 0.02 0.03 0.03 0.03 0.03 0.03 0.03 0.04 0.04 0.03 0.02 0.02 0.02 0.03 0.02 0.01 0.02 0.02 0.02 0.01 0.01 0.01 0.00 0.00 0.01 0.00 0.00 0.01 0.00 0.00 0.00 0.00 0.00 0.01 0.02 0.03 0.03 0.03 0.01 0.01 0.00
0.01 0.02 0.03 0.03 0.02 0.03 0.03 0.04 0.04 0.05 0.05 0.03 0.02 0.02 0.01 0.03 0.02 0.02 0.02 0.03 0.02 0.01 0.01 0.01 0.01 0.01 0.01 0.01 0.00 0.01 0.00 0.00 0.00 0.00 0.00 0.00 0.00 0.00 0.01 0.02 0.01 0.00 0.00
0.03 0.03 0.03 0.05 0.05 0.05 0.04 0.05 0.05 0.05 0.04 0.04 0.03 0.02 0.01 0.02 0.02 0.01 0.01 0.02 0.02 0.01 0.01 0.01 0.01 0.01 0.01 0.01 0.00 0.01 0.01 0.00 0.00 0.00 0.00 0.00 0.00 0.00 0.01 0.01 0.01 0.00 0.00
0.04 0.05 0.06 0.06 0.05 0.05 0.05 0.04 0.06 0.06 0.05 0.05 0.04 0.04 0.05 0.07 0.05 0.02 0.01 0.01 0.01 0.02 0.01 0.02 0.02 0.01 0.01 0.01 0.01 0.00 0.00 0.00 0.00 0.00 0.00 0.01 0.01 0.01 0.01 0.01 0.00 0.00 0.00
0.04 0.05 0.06 0.06 0.08 0.07 0.06 0.06 0.06 0.05 0.05 0.07 0.06 0.06 0.07 0.09 0.10 0.08 0.05 0.04 0.03 0.02 0.02 0.04 0.03 0.02 0.01 0.01 0.01 0.00 0.00 0.00 0.00 0.00 0.00 0.01 0.01 0.00 0.00 0.00 0.00 0.00 0.00
0.07 0.11 0.15 0.16 0.18 0.16 0.11 0.08 0.08 0.09 0.10 0.10 0.09 0.08 0.06 0.06 0.07 0.06 0.05 0.05 0.06 0.05 0.04 0.04 0.03 0.03 0.02 0.02 0.02 0.01 0.00 0.00 0.00 0.00 0.00 0.00 0.00 0.00 0.00 0.00 0.00 0.00 0.00
0.08 0.11 0.13 0.12 0.13 0.13 0.14 0.12 0.10 0.09 0.10 0.09 0.08 0.07 0.06 0.05 0.05 0.04 0.04 0.05 0.06 0.06 0.05 0.06 0.05 0.03 0.03 0.02 0.03 0.04 0.01 0.00 0.00 0.00 0.00 0.00 0.00 0.00 0.00 0.00 0.00 0.00 0.00

GFSGL_prec_precacc24_033.txt.gz
Total_Precipitation_Accumulation
0.00 0.00 0.00 0.00 0.00 0.00 0.00 0.00 0.00 0.00 0.00 0.00 0.00 0.00 0.00 0.00 0.00 0.01 0.03 0.04 0.03 0.03 0.02 0.02 0.02 0.02 0.01 0.01 0.00 0.00 0.00 0.01 0.02 0.00 0.00 0.00 0.00 0.00 0.00 0.00 0.00 0.00 0.04
0.00 0.00 0.00 0.00 0.00 0.00 0.00 0.00 0.00 0.01 0.01 0.00 0.00 0.00 0.00 0.00 0.01 0.03 0.02 0.01 0.01 0.00 0.00 0.00 0.00 0.00 0.00 0.00 0.00 0.00 0.00 0.00 0.00 0.00 0.00 0.00 0.00 0.00 0.00 0.00 0.00 0.00 0.00
0.00 0.00 0.00 0.00 0.00 0.00 0.01 0.00 0.01 0.01 0.01 0.01 0.00 0.00 0.01 0.02 0.02 0.00 0.00 0.00 0.00 0.01 0.00 0.00 0.00 0.00 0.00 0.00 0.00 0.00 0.00 0.00 0.01 0.03 0.01 0.00 0.00 0.00 0.01 0.01 0.01 0.00 0.00
0.00 0.00 0.00 0.00 0.00 0.00 0.01 0.01 0.02 0.02 0.02 0.00 0.00 0.00 0.01 0.00 0.00 0.00 0.00 0.01 0.01 0.00 0.00 0.00 0.00 0.00 0.00 0.00 0.00 0.00 0.01 0.02 0.02 0.03 0.03 0.02 0.02 0.01 0.02 0.03 0.04 0.03 0.02
0.00 0.00 0.00 0.00 0.00 0.01 0.02 0.02 0.02 0.02 0.01 0.01 0.00 0.00 0.00 0.00 0.00 0.00 0.00 0.00 0.00 0.00 0.00 0.00 0.00 0.00 0.00 0.00 0.01 0.01 0.03 0.05 0.05 0.06 0.04 0.04 0.03 0.02 0.04 0.06 0.08 0.04 0.02
0.00 0.00 0.00 0.00 0.00 0.01 0.00 0.01 0.01 0.02 0.01 0.00 0.00 0.00 0.00 0.00 0.00 0.00 0.00 0.00 0.00 0.00 0.00 0.00 0.00 0.00 0.00 0.00 0.00 0.01 0.03 0.09 0.15 0.11 0.08 0.07 0.05 0.06 0.07 0.07 0.09 0.06 0.04
0.00 0.00 0.00 0.00 0.00 0.00 0.00 0.01 0.02 0.03 0.03 0.01 0.00 0.00 0.00 0.00 0.00 0.00 0.00 0.00 0.00 0.00 0.00 0.00 0.00 0.00 0.00 0.00 0.00 0.01 0.02 0.03 0.09 0.12 0.13 0.08 0.08 0.07 0.07 0.09 0.11 0.11 0.08
0.00 0.00 0.00 0.00 0.00 0.00 0.01 0.02 0.07 0.05 0.00 0.00 0.00 0.00 0.00 0.00 0.00 0.00 0.00 0.00 0.00 0.00 0.00 0.00 0.00 0.00 0.00 0.01 0.10 0.07 0.01 0.00 0.01 0.03 0.07 0.05 0.04 0.04 0.06 0.07 0.07 0.07 0.04
0.00 0.00 0.00 0.00 0.00 0.00 0.00 0.05 0.03 0.00 0.00 0.00 0.00 0.00 0.00 0.00 0.00 0.00 0.00 0.00 0.00 0.00 0.00 0.00 0.00 0.01 0.01 0.07 0.08 0.04 0.01 0.00 0.00 0.01 0.03 0.06 0.08 0.07 0.08 0.16 0.14 0.15 0.11
0.00 0.00 0.00 0.00 0.00 0.01 0.01 0.01 0.00 0.00 0.00 0.00 0.00 0.00 0.00 0.00 0.00 0.00 0.00 0.00 0.00 0.00 0.00 0.00 0.00 0.01 0.04 0.07 0.09 0.06 0.05 0.02 0.01 0.01 0.01 0.01 0.02 0.03 0.03 0.07 0.11 0.21 0.19
0.00 0.01 0.01 0.02 0.01 0.01 0.00 0.00 0.00 0.00 0.00 0.00 0.00 0.00 0.00 0.00 0.00 0.00 0.00 0.00 0.01 0.01 0.00 0.00 0.00 0.02 0.05 0.05 0.06 0.08 0.11 0.05 0.03 0.03 0.03 0.03 0.03 0.03 0.04 0.07 0.08 0.10 0.13
0.02 0.02 0.02 0.00 0.00 0.00 0.00 0.00 0.00 0.00 0.00 0.00 0.00 0.00 0.00 0.00 0.00 0.00 0.00 0.00 0.01 0.01 0.01 0.01 0.02 0.03 0.03 0.03 0.05 0.07 0.04 0.02 0.04 0.05 0.05 0.04 0.05 0.05 0.04 0.05 0.09 0.09 0.08
0.01 0.01 0.01 0.00 0.00 0.00 0.00 0.00 0.00 0.00 0.00 0.00 0.00 0.01 0.01 0.01 0.01 0.00 0.00 0.00 0.00 0.00 0.00 0.02 0.01 0.01 0.02 0.01 0.02 0.03 0.02 0.03 0.03 0.04 0.05 0.05 0.06 0.07 0.08 0.11 0.09 0.11 0.09
0.01 0.00 0.00 0.00 0.00 0.00 0.00 0.00 0.00 0.00 0.00 0.00 0.00 0.01 0.01 0.01 0.01 0.01 0.01 0.00 0.01 0.00 0.00 0.00 0.00 0.00 0.01 0.01 0.01 0.02 0.02 0.03 0.05 0.06 0.06 0.05 0.06 0.07 0.11 0.15 0.16 0.16 0.23
0.00 0.00 0.00 0.01 0.00 0.00 0.00 0.00 0.00 0.00 0.00 0.00 0.01 0.01 0.02 0.01 0.01 0.01 0.02 0.01 0.02 0.01 0.00 0.00 0.00 0.00 0.00 0.00 0.00 0.01 0.01 0.01 0.02 0.04 0.04 0.03 0.05 0.06 0.08 0.10 0.17 0.18 0.20
0.00 0.00 0.02 0.02 0.01 0.01 0.00 0.00 0.00 0.00 0.00 0.00 0.00 0.00 0.00 0.00 0.00 0.00 0.00 0.00 0.00 0.00 0.01 0.00 0.00 0.01 0.01 0.01 0.00 0.00 0.00 0.02 0.02 0.03 0.03 0.04 0.05 0.06 0.05 0.04 0.05 0.07 0.08
0.00 0.01 0.02 0.03 0.02 0.01 0.01 0.01 0.01 0.01 0.00 0.00 0.00 0.00 0.00 0.00 0.00 0.00 0.00 0.00 0.00 0.00 0.00 0.00 0.01 0.01 0.01 0.00 0.00 0.00 0.01 0.02 0.01 0.02 0.03 0.04 0.04 0.04 0.03 0.02 0.02 0.03 0.03
0.00 0.01 0.02 0.02 0.02 0.02 0.02 0.03 0.04 0.04 0.03 0.02 0.01 0.00 0.00 0.00 0.00 0.00 0.01 0.02 0.02 0.02 0.01 0.00 0.01 0.01 0.00 0.01 0.00 0.00 0.00 0.00 0.00 0.01 0.02 0.03 0.03 0.03 0.03 0.02 0.02 0.02 0.01
0.00 0.01 0.02 0.03 0.03 0.03 0.03 0.04 0.04 0.04 0.04 0.02 0.02 0.01 0.00 0.00 0.00 0.01 0.04 0.06 0.02 0.01 0.01 0.00 0.00 0.01 0.00 0.00 0.00 0.00 0.00 0.00 0.00 0.00 0.01 0.02 0.02 0.02 0.02 0.02 0.02 0.01 0.00
0.01 0.02 0.03 0.03 0.04 0.04 0.04 0.04 0.03 0.04 0.04 0.03 0.02 0.02 0.02 0.04 0.04 0.03 0.04 0.04 0.02 0.01 0.01 0.01 0.00 0.00 0.01 0.00 0.00 0.01 0.00 0.00 0.00 0.00 0.00 0.00 0.01 0.02 0.02 0.02 0.01 0.00 0.00
0.02 0.02 0.04 0.04 0.03 0.03 0.04 0.05 0.05 0.05 0.05 0.04 0.03 0.02 0.01 0.04 0.05 0.04 0.03 0.05 0.03 0.01 0.01 0.01 0.01 0.01 0.01 0.01 0.00 0.01 0.00 0.00 0.00 0.00 0.00 0.00 0.00 0.00 0.01 0.01 0.00 0.00 0.00
0.03 0.03 0.04 0.05 0.06 0.07 0.06 0.07 0.06 0.05 0.05 0.04 0.03 0.02 0.01 0.03 0.04 0.04 0.05 0.04 0.04 0.02 0.01 0.01 0.01 0.01 0.01 0.01 0.00 0.01 0.01 0.00 0.00 0.00 0.00 0.00 0.00 0.00 0.01 0.00 0.00 0.00 0.00
0.04 0.05 0.06 0.06 0.07 0.07 0.06 0.05 0.08 0.10 0.09 0.05 0.04 0.04 0.05 0.09 0.07 0.05 0.04 0.04 0.06 0.05 0.04 0.04 0.04 0.02 0.01 0.01 0.01 0.00 0.00 0.00 0.00 0.00 0.00 0.01 0.00 0.01 0.01 0.01 0.00 0.00 0.00
0.04 0.06 0.06 0.07 0.08 0.10 0.12 0.15 0.18 0.15 0.07 0.07 0.08 0.10 0.11 0.11 0.13 0.13 0.12 0.12 0.13 0.10 0.08 0.08 0.06 0.04 0.03 0.02 0.02 0.00 0.00 0.00 0.00 0.00 0.00 0.01 0.00 0.00 0.00 0.00 0.00 0.00 0.00
0.08 0.11 0.16 0.18 0.21 0.20 0.18 0.16 0.15 0.15 0.13 0.13 0.11 0.09 0.08 0.08 0.08 0.07 0.07 0.07 0.08 0.09 0.07 0.07 0.06 0.04 0.02 0.03 0.04 0.02 0.00 0.00 0.01 0.00 0.00 0.00 0.00 0.00 0.00 0.00 0.00 0.00 0.00
0.09 0.12 0.15 0.14 0.15 0.15 0.20 0.24 0.25 0.19 0.16 0.11 0.08 0.07 0.07 0.06 0.05 0.04 0.04 0.05 0.06 0.06 0.06 0.07 0.06 0.05 0.04 0.04 0.04 0.06 0.04 0.02 0.03 0.01 0.00 0.00 0.00 0.00 0.00 0.00 0.00 0.00 0.00

GFSGL_prec_precacc24_036.txt.gz
Total_Precipitation_Accumulation
0.00 0.00 0.00 0.00 0.00 0.00 0.00 0.00 0.00 0.00 0.00 0.00 0.00 0.00 0.00 0.00 0.00 0.01 0.03 0.04 0.03 0.02 0.02 0.02 0.02 0.02 0.01 0.01 0.00 0.00 0.00 0.00 0.01 0.00 0.00 0.00 0.00 0.00 0.00 0.00 0.00 0.00 0.00
0.00 0.00 0.00 0.00 0.00 0.00 0.00 0.00 0.00 0.00 0.01 0.00 0.00 0.00 0.00 0.00 0.01 0.03 0.02 0.01 0.01 0.00 0.00 0.00 0.00 0.00 0.00 0.00 0.00 0.00 0.00 0.00 0.00 0.00 0.00 0.00 0.00 0.00 0.00 0.00 0.00 0.00 0.00
0.00 0.00 0.00 0.00 0.00 0.00 0.00 0.00 0.00 0.00 0.00 0.00 0.00 0.00 0.01 0.02 0.02 0.00 0.00 0.00 0.00 0.01 0.00 0.00 0.00 0.00 0.00 0.00 0.00 0.00 0.00 0.00 0.01 0.03 0.01 0.00 0.00 0.00 0.01 0.01 0.01 0.00 0.00
0.00 0.00 0.00 0.00 0.00 0.00 0.00 0.00 0.00 0.00 0.00 0.00 0.00 0.00 0.01 0.00 0.00 0.00 0.00 0.01 0.01 0.00 0.00 0.00 0.00 0.00 0.00 0.00 0.00 0.00 0.01 0.02 0.02 0.03 0.03 0.02 0.02 0.01 0.02 0.03 0.04 0.03 0.02
0.01 0.01 0.01 0.00 0.00 0.00 0.00 0.00 0.00 0.00 0.01 0.01 0.00 0.00 0.00 0.00 0.00 0.00 0.00 0.00 0.00 0.00 0.00 0.00 0.00 0.00 0.00 0.00 0.00 0.01 0.02 0.05 0.05 0.06 0.04 0.04 0.03 0.02 0.04 0.06 0.08 0.04 0.02
0.01 0.02 0.01 0.00 0.00 0.00 0.00 0.00 0.00 0.02 0.01 0.00 0.00 0.00 0.00 0.00 0.00 0.00 0.00 0.00 0.00 0.00 0.00 0.00 0.00 0.00 0.00 0.00 0.00 0.01 0.02 0.08 0.13 0.09 0.08 0.07 0.05 0.06 0.07 0.07 0.09 0.06 0.04
0.02 0.01 0.00 0.00 0.00 0.00 0.00 0.00 0.00 0.02 0.03 0.01 0.00 0.00 0.00 0.00 0.00 0.00 0.00 0.00 0.00 0.00 0.00 0.00 0.00 0.00 0.00 0.00 0.00 0.01 0.02 0.03 0.08 0.11 0.12 0.08 0.08 0.07 0.07 0.09 0.11 0.11 0.08
0.01 0.00 0.00 0.00 0.00 0.00 0.00 0.00 0.00 0.02 0.00 0.00 0.00 0.00 0.00 0.00 0.00 0.00 0.00 0.00 0.00 0.00 0.00 0.00 0.00 0.00 0.00 0.01 0.09 0.06 0.01 0.00 0.01 0.03 0.07 0.05 0.04 0.04 0.06 0.07 0.09 0.08 0.04
0.00 0.00 0.00 0.00 0.00 0.01 0.02 0.03 0.02 0.01 0.00 0.00 0.00 0.00 0.00 0.00 0.00 0.00 0.00 0.00 0.00 0.00 0.00 0.00 0.00 0.01 0.01 0.04 0.06 0.04 0.01 0.00 0.00 0.01 0.02 0.05 0.07 0.07 0.07 0.16 0.13 0.14 0.11
0.00 0.00 0.00 0.02 0.06 0.07 0.04 0.01 0.00 0.00 0.00 0.00 0.00 0.00 0.00 0.00 0.00 0.00 0.00 0.00 0.00 0.00 0.00 0.00 0.00 0.01 0.03 0.04 0.07 0.05 0.04 0.02 0.01 0.01 0.01 0.01 0.02 0.03 0.03 0.07 0.11 0.21 0.19
0.01 0.03 0.07 0.09 0.05 0.01 0.00 0.00 0.00 0.00 0.00 0.00 0.00 0.00 0.00 0.00 0.00 0.00 0.00 0.00 0.00 0.01 0.00 0.00 0.00 0.01 0.02 0.03 0.04 0.06 0.10 0.04 0.03 0.03 0.03 0.03 0.03 0.03 0.04 0.07 0.08 0.10 0.13
0.02 0.04 0.03 0.01 0.00 0.00 0.00 0.00 0.00 0.00 0.00 0.00 0.00 0.00 0.00 0.00 0.00 0.00 0.00 0.00 0.00 0.01 0.00 0.00 0.01 0.01 0.02 0.01 0.02 0.04 0.02 0.01 0.02 0.03 0.04 0.04 0.04 0.04 0.04 0.05 0.08 0.08 0.08
0.01 0.01 0.01 0.00 0.00 0.00 0.00 0.00 0.00 0.00 0.00 0.00 0.00 0.01 0.01 0.01 0.01 0.00 0.00 0.00 0.00 0.00 0.00 0.00 0.00 0.00 0.00 0.00 0.01 0.02 0.01 0.01 0.01 0.02 0.03 0.03 0.04 0.06 0.06 0.10 0.08 0.09 0.07
0.01 0.00 0.00 0.00 0.00 0.00 0.00 0.00 0.00 0.00 0.00 0.00 0.00 0.01 0.01 0.01 0.01 0.01 0.01 0.01 0.01 0.01 0.00 0.00 0.00 0.00 0.00 0.00 0.00 0.01 0.01 0.02 0.04 0.05 0.05 0.04 0.05 0.06 0.10 0.14 0.15 0.16 0.22
0.00 0.00 0.00 0.01 0.00 0.00 0.00 0.00 0.00 0.00 0.00 0.00 0.01 0.01 0.02 0.01 0.01 0.01 0.02 0.03 0.03 0.02 0.00 0.00 0.00 0.00 0.00 0.00 0.00 0.00 0.00 0.00 0.01 0.02 0.03 0.03 0.04 0.05 0.06 0.09 0.15 0.17 0.19
0.00 0.00 0.02 0.02 0.01 0.01 0.00 0.00 0.00 0.00 0.00 0.00 0.00 0.00 0.00 0.00 0.00 0.00 0.00 0.00 0.00 0.01 0.03 0.01 0.00 0.00 0.01 0.00 0.00 0.00 0.00 0.00 0.01 0.02 0.02 0.03 0.04 0.04 0.04 0.04 0.05 0.07 0.08
0.00 0.01 0.02 0.03 0.02 0.01 0.01 0.01 0.01 0.01 0.00 0.00 0.00 0.00 0.00 0.00 0.00 0.00 0.00 0.01 0.02 0.05 0.04 0.00 0.01 0.01 0.01 0.00 0.00 0.00 0.00 0.00 0.00 0.01 0.02 0.03 0.03 0.03 0.02 0.02 0.02 0.03 0.03
0.00 0.01 0.02 0.02 0.02 0.02 0.02 0.03 0.04 0.04 0.04 0.03 0.01 0.00 0.00 0.00 0.00 0.01 0.01 0.06 0.08 0.06 0.02 0.00 0.01 0.01 0.00 0.00 0.00 0.00 0.00 0.00 0.00 0.00 0.01 0.02 0.02 0.02 0.02 0.02 0.02 0.02 0.01
0.00 0.01 0.02 0.03 0.03 0.03 0.03 0.05 0.06 0.06 0.06 0.03 0.02 0.01 0.00 0.00 0.00 0.01 0.05 0.11 0.06 0.02 0.02 0.01 0.00 0.00 0.00 0.00 0.00 0.00 0.00 0.00 0.00 0.00 0.00 0.01 0.01 0.01 0.01 0.02 0.02 0.01 0.00
0.01 0.02 0.03 0.04 0.04 0.04 0.04 0.05 0.04 0.05 0.05 0.04 0.03 0.02 0.02 0.04 0.05 0.03 0.04 0.05 0.05 0.03 0.02 0.02 0.01 0.00 0.01 0.00 0.00 0.01 0.01 0.01 0.00 0.00 0.00 0.00 0.01 0.01 0.01 0.01 0.01 0.00 0.00
0.02 0.02 0.04 0.04 0.03 0.04 0.05 0.05 0.06 0.07 0.08 0.07 0.05 0.03 0.02 0.05 0.06 0.04 0.03 0.05 0.05 0.03 0.03 0.02 0.01 0.01 0.01 0.01 0.00 0.01 0.00 0.00 0.00 0.00 0.00 0.00 0.00 0.00 0.00 0.00 0.00 0.00 0.00
0.03 0.03 0.04 0.05 0.06 0.07 0.06 0.07 0.08 0.07 0.06 0.06 0.05 0.04 0.03 0.05 0.04 0.05 0.05 0.05 0.04 0.04 0.04 0.05 0.03 0.01 0.01 0.01 0.00 0.01 0.01 0.00 0.00 0.00 0.00 0.00 0.00 0.00 0.01 0.00 0.00 0.00 0.00
0.04 0.05 0.07 0.06 0.07 0.07 0.06 0.06 0.08 0.11 0.13 0.14 0.13 0.11 0.07 0.09 0.09 0.08 0.07 0.06 0.09 0.12 0.10 0.11 0.09 0.04 0.01 0.01 0.01 0.01 0.01 0.00 0.00 0.00 0.00 0.00 0.00 0.01 0.01 0.01 0.00 0.00 0.00
0.04 0.06 0.07 0.07 0.09 0.11 0.13 0.16 0.18 0.19 0.18 0.19 0.21 0.16 0.14 0.16 0.17 0.15 0.14 0.13 0.15 0.15 0.16 0.18 0.16 0.11 0.06 0.04 0.02 0.01 0.01 0.00 0.00 0.00 0.00 0.01 0.00 0.00 0.00 0.00 0.00 0.00 0.00
0.08 0.11 0.16 0.18 0.21 0.20 0.19 0.17 0.17 0.21 0.26 0.25 0.21 0.16 0.12 0.11 0.09 0.08 0.07 0.07 0.09 0.09 0.08 0.09 0.08 0.07 0.05 0.06 0.06 0.03 0.00 0.00 0.02 0.01 0.02 0.01 0.00 0.00 0.00 0.00 0.00 0.00 0.00
0.09 0.13 0.15 0.14 0.15 0.16 0.20 0.25 0.26 0.24 0.22 0.18 0.16 0.14 0.12 0.09 0.06 0.05 0.04 0.05 0.06 0.06 0.06 0.07 0.06 0.05 0.05 0.05 0.06 0.07 0.05 0.03 0.04 0.03 0.02 0.02 0.01 0.00 0.00 0.00 0.00 0.00 0.00

GFSGL_prec_precacc24_039.txt.gz
Total_Precipitation_Accumulation
0.00 0.00 0.01 0.01 0.01 0.00 0.00 0.00 0.00 0.00 0.00 0.00 0.00 0.00 0.00 0.00 0.00 0.01 0.03 0.04 0.03 0.02 0.02 0.02 0.02 0.02 0.01 0.01 0.00 0.00 0.00 0.00 0.00 0.00 0.00 0.00 0.00 0.00 0.00 0.00 0.00 0.00 0.00
0.01 0.01 0.02 0.02 0.01 0.00 0.00 0.00 0.00 0.00 0.00 0.00 0.00 0.00 0.00 0.00 0.01 0.03 0.02 0.01 0.01 0.00 0.00 0.00 0.00 0.00 0.00 0.00 0.00 0.00 0.00 0.00 0.00 0.00 0.00 0.00 0.00 0.00 0.00 0.00 0.00 0.00 0.00
0.03 0.03 0.02 0.01 0.00 0.00 0.00 0.00 0.00 0.00 0.00 0.00 0.00 0.00 0.01 0.02 0.02 0.00 0.00 0.00 0.00 0.01 0.00 0.00 0.00 0.00 0.00 0.00 0.00 0.00 0.00 0.00 0.01 0.03 0.01 0.00 0.00 0.00 0.01 0.01 0.01 0.00 0.00
0.03 0.02 0.01 0.01 0.00 0.00 0.00 0.00 0.00 0.00 0.00 0.00 0.00 0.00 0.01 0.00 0.00 0.00 0.00 0.01 0.01 0.00 0.00 0.00 0.00 0.00 0.00 0.00 0.00 0.00 0.01 0.01 0.01 0.02 0.02 0.02 0.02 0.01 0.02 0.03 0.04 0.03 0.02
0.03 0.03 0.02 0.01 0.00 0.00 0.00 0.01 0.01 0.01 0.00 0.00 0.00 0.00 0.00 0.00 0.00 0.00 0.00 0.00 0.00 0.00 0.00 0.00 0.00 0.00 0.00 0.00 0.00 0.01 0.01 0.03 0.03 0.04 0.04 0.03 0.02 0.02 0.04 0.06 0.08 0.04 0.02
0.03 0.03 0.03 0.01 0.00 0.00 0.01 0.00 0.01 0.00 0.00 0.01 0.02 0.01 0.00 0.00 0.00 0.00 0.00 0.00 0.00 0.00 0.00 0.00 0.00 0.00 0.00 0.00 0.00 0.01 0.01 0.06 0.12 0.08 0.06 0.05 0.04 0.06 0.07 0.07 0.09 0.06 0.04
0.03 0.04 0.02 0.01 0.00 0.00 0.00 0.00 0.00 0.01 0.06 0.06 0.02 0.00 0.00 0.00 0.00 0.00 0.00 0.00 0.00 0.00 0.00 0.00 0.00 0.00 0.00 0.00 0.00 0.01 0.02 0.03 0.07 0.10 0.11 0.08 0.08 0.07 0.07 0.09 0.11 0.11 0.09
0.02 0.02 0.01 0.00 0.00 0.00 0.00 0.01 0.08 0.13 0.06 0.00 0.00 0.00 0.00 0.00 0.00 0.00 0.00 0.00 0.00 0.00 0.00 0.00 0.00 0.00 0.00 0.01 0.04 0.04 0.01 0.00 0.01 0.02 0.06 0.05 0.04 0.04 0.06 0.08 0.11 0.10 0.04
0.00 0.00 0.00 0.00 0.00 0.02 0.10 0.17 0.09 0.01 0.00 0.00 0.00 0.00 0.00 0.00 0.00 0.00 0.00 0.00 0.00 0.00 0.00 0.00 0.00 0.00 0.00 0.03 0.04 0.03 0.01 0.00 0.00 0.00 0.01 0.02 0.04 0.06 0.06 0.15 0.12 0.13 0.10
0.00 0.00 0.01 0.06 0.15 0.20 0.12 0.03 0.00 0.00 0.00 0.00 0.00 0.00 0.00 0.00 0.00 0.00 0.00 0.00 0.00 0.00 0.00 0.00 0.00 0.00 0.01 0.02 0.04 0.02 0.04 0.02 0.01 0.01 0.01 0.01 0.02 0.03 0.03 0.07 0.11 0.20 0.18
0.03 0.07 0.12 0.15 0.09 0.03 0.00 0.00 0.00 0.00 0.00 0.00 0.00 0.00 0.00 0.00 0.00 0.00 0.00 0.00 0.00 0.00 0.00 0.00 0.00 0.00 0.01 0.01 0.01 0.03 0.07 0.02 0.02 0.02 0.02 0.02 0.03 0.03 0.04 0.07 0.08 0.10 0.13
0.02 0.04 0.04 0.01 0.00 0.00 0.00 0.00 0.00 0.00 0.00 0.00 0.00 0.00 0.00 0.00 0.00 0.00 0.00 0.00 0.00 0.00 0.00 0.00 0.00 0.00 0.00 0.00 0.01 0.02 0.01 0.00 0.01 0.02 0.02 0.02 0.03 0.03 0.03 0.04 0.07 0.08 0.08
0.01 0.01 0.01 0.00 0.00 0.00 0.00 0.00 0.00 0.00 0.00 0.00 0.00 0.01 0.01 0.01 0.01 0.00 0.00 0.00 0.00 0.00 0.00 0.00 0.00 0.00 0.00 0.00 0.00 0.00 0.00 0.00 0.01 0.02 0.02 0.02 0.03 0.04 0.05 0.09 0.08 0.09 0.07
0.01 0.00 0.00 0.00 0.00 0.00 0.00 0.00 0.00 0.00 0.00 0.00 0.00 0.01 0.01 0.01 0.01 0.01 0.01 0.01 0.01 0.02 0.01 0.01 0.02 0.01 0.00 0.00 0.00 0.00 0.00 0.01 0.02 0.03 0.03 0.03 0.04 0.04 0.07 0.11 0.13 0.15 0.20
0.00 0.00 0.00 0.01 0.00 0.00 0.00 0.00 0.00 0.00 0.00 0.00 0.01 0.01 0.02 0.01 0.01 0.01 0.02 0.03 0.03 0.02 0.02 0.03 0.02 0.01 0.00 0.00 0.00 0.00 0.00 0.00 0.00 0.01 0.02 0.02 0.03 0.03 0.04 0.06 0.11 0.14 0.18
0.00 0.00 0.00 0.01 0.01 0.01 0.00 0.00 0.00 0.00 0.00 0.00 0.00 0.00 0.00 0.00 0.00 0.00 0.00 0.00 0.00 0.02 0.08 0.04 0.02 0.01 0.01 0.00 0.00 0.00 0.00 0.00 0.00 0.01 0.01 0.02 0.02 0.02 0.02 0.03 0.04 0.06 0.06
0.00 0.00 0.00 0.01 0.02 0.01 0.01 0.01 0.01 0.01 0.00 0.00 0.00 0.00 0.01 0.02 0.02 0.01 0.00 0.01 0.02 0.07 0.10 0.01 0.01 0.02 0.01 0.01 0.00 0.00 0.00 0.00 0.00 0.00 0.01 0.01 0.01 0.01 0.01 0.02 0.02 0.02 0.02
0.00 0.00 0.01 0.02 0.02 0.02 0.02 0.03 0.05 0.05 0.05 0.03 0.01 0.01 0.01 0.01 0.01 0.01 0.01 0.06 0.09 0.07 0.04 0.01 0.01 0.01 0.02 0.01 0.00 0.00 0.00 0.00 0.00 0.00 0.00 0.01 0.01 0.01 0.01 0.01 0.01 0.01 0.01
0.00 0.01 0.02 0.03 0.03 0.03 0.04 0.05 0.07 0.07 0.07 0.04 0.02 0.01 0.01 0.01 0.02 0.04 0.07 0.11 0.06 0.03 0.02 0.02 0.01 0.02 0.02 0.02 0.01 0.00 0.00 0.00 0.00 0.00 0.00 0.01 0.01 0.01 0.01 0.01 0.01 0.00 0.00
0.00 0.01 0.02 0.04 0.04 0.04 0.04 0.05 0.05 0.06 0.06 0.05 0.04 0.02 0.03 0.07 0.10 0.07 0.06 0.06 0.05 0.03 0.02 0.03 0.02 0.03 0.03 0.02 0.01 0.01 0.01 0.01 0.00 0.00 0.00 0.00 0.00 0.00 0.00 0.01 0.01 0.00 0.00
0.01 0.02 0.03 0.04 0.03 0.04 0.05 0.05 0.06 0.07 0.09 0.07 0.05 0.04 0.04 0.10 0.10 0.06 0.04 0.06 0.05 0.04 0.04 0.03 0.03 0.04 0.03 0.03 0.02 0.02 0.01 0.00 0.00 0.00 0.00 0.00 0.00 0.00 0.00 0.00 0.00 0.00 0.00
0.02 0.03 0.04 0.06 0.06 0.07 0.07 0.08 0.08 0.08 0.07 0.07 0.05 0.04 0.04 0.09 0.09 0.09 0.08 0.06 0.06 0.06 0.06 0.09 0.08 0.05 0.04 0.04 0.03 0.04 0.02 0.01 0.00 0.00 0.00 0.00 0.00 0.01 0.01 0.00 0.00 0.00 0.00
0.03 0.04 0.07 0.06 0.07 0.07 0.06 0.06 0.08 0.11 0.13 0.15 0.15 0.16 0.17 0.20 0.19 0.16 0.14 0.12 0.11 0.12 0.11 0.13 0.13 0.11 0.07 0.06 0.05 0.04 0.03 0.01 0.00 0.01 0.01 0.01 0.00 0.01 0.01 0.01 0.00 0.00 0.00
0.04 0.05 0.06 0.07 0.09 0.11 0.13 0.16 0.18 0.19 0.19 0.20 0.24 0.25 0.23 0.25 0.26 0.24 0.20 0.17 0.16 0.15 0.16 0.19 0.18 0.15 0.12 0.09 0.08 0.06 0.04 0.02 0.02 0.02 0.02 0.03 0.02 0.01 0.00 0.00 0.00 0.00 0.00
0.07 0.11 0.15 0.18 0.21 0.21 0.19 0.17 0.17 0.20 0.26 0.26 0.23 0.19 0.17 0.16 0.16 0.13 0.11 0.09 0.09 0.09 0.08 0.09 0.08 0.07 0.06 0.07 0.08 0.05 0.02 0.01 0.03 0.02 0.05 0.04 0.02 0.01 0.00 0.00 0.00 0.00 0.00
0.08 0.12 0.14 0.14 0.15 0.16 0.20 0.25 0.26 0.24 0.22 0.18 0.16 0.15 0.14 0.12 0.10 0.08 0.07 0.07 0.07 0.06 0.06 0.07 0.06 0.05 0.05 0.05 0.06 0.07 0.06 0.04 0.06 0.04 0.04 0.05 0.04 0.03 0.01 0.00 0.00 0.00 0.00

GFSGL_prec_precacc24_042.txt.gz
Total_Precipitation_Accumulation
0.00 0.01 0.06 0.08 0.09 0.09 0.06 0.03 0.01 0.00 0.00 0.00 0.00 0.00 0.00 0.00 0.00 0.01 0.03 0.04 0.03 0.02 0.02 0.02 0.02 0.02 0.01 0.01 0.00 0.00 0.00 0.00 0.00 0.00 0.00 0.00 0.00 0.00 0.00 0.00 0.00 0.00 0.00
0.07 0.08 0.13 0.11 0.08 0.04 0.03 0.01 0.00 0.00 0.00 0.00 0.00 0.00 0.00 0.00 0.01 0.03 0.02 0.01 0.01 0.00 0.00 0.00 0.00 0.00 0.00 0.00 0.00 0.00 0.00 0.00 0.00 0.00 0.00 0.00 0.00 0.00 0.00 0.00 0.00 0.00 0.00
0.13 0.09 0.08 0.05 0.03 0.01 0.01 0.00 0.00 0.01 0.02 0.02 0.00 0.00 0.01 0.02 0.02 0.00 0.00 0.00 0.00 0.01 0.00 0.00 0.00 0.00 0.00 0.00 0.00 0.00 0.00 0.00 0.00 0.01 0.01 0.00 0.00 0.00 0.01 0.01 0.01 0.00 0.00
0.12 0.08 0.05 0.03 0.02 0.01 0.01 0.00 0.00 0.01 0.01 0.01 0.01 0.01 0.01 0.01 0.00 0.00 0.00 0.01 0.01 0.00 0.00 0.00 0.00 0.00 0.00 0.00 0.00 0.00 0.00 0.01 0.01 0.01 0.01 0.01 0.02 0.01 0.02 0.03 0.04 0.03 0.02
0.07 0.06 0.04 0.02 0.01 0.00 0.01 0.01 0.01 0.01 0.01 0.00 0.02 0.06 0.05 0.02 0.00 0.00 0.00 0.00 0.00 0.00 0.00 0.00 0.00 0.00 0.00 0.00 0.00 0.00 0.01 0.02 0.02 0.02 0.02 0.02 0.02 0.02 0.04 0.06 0.08 0.04 0.02
0.04 0.04 0.03 0.02 0.01 0.01 0.01 0.01 0.01 0.01 0.02 0.06 0.11 0.08 0.03 0.01 0.00 0.00 0.00 0.00 0.00 0.00 0.00 0.00 0.00 0.00 0.00 0.00 0.00 0.00 0.01 0.04 0.09 0.06 0.05 0.04 0.03 0.05 0.06 0.07 0.08 0.07 0.05
0.04 0.05 0.03 0.01 0.01 0.00 0.00 0.00 0.00 0.04 0.18 0.20 0.09 0.03 0.00 0.00 0.00 0.00 0.00 0.00 0.00 0.00 0.00 0.00 0.00 0.00 0.00 0.00 0.00 0.00 0.01 0.02 0.04 0.05 0.07 0.07 0.07 0.06 0.06 0.07 0.10 0.12 0.10
0.02 0.02 0.01 0.00 0.00 0.00 0.00 0.01 0.12 0.25 0.17 0.04 0.00 0.00 0.00 0.00 0.00 0.00 0.00 0.00 0.00 0.00 0.00 0.00 0.00 0.00 0.00 0.00 0.03 0.02 0.01 0.00 0.01 0.02 0.04 0.04 0.03 0.03 0.06 0.08 0.11 0.10 0.04
0.00 0.00 0.00 0.00 0.00 0.02 0.14 0.31 0.29 0.14 0.03 0.00 0.00 0.00 0.00 0.00 0.00 0.00 0.00 0.00 0.00 0.00 0.00 0.00 0.00 0.00 0.00 0.01 0.02 0.02 0.00 0.00 0.00 0.00 0.01 0.02 0.01 0.01 0.03 0.11 0.10 0.12 0.09
0.00 0.00 0.01 0.06 0.19 0.30 0.25 0.09 0.01 0.00 0.00 0.00 0.00 0.00 0.00 0.00 0.00 0.00 0.00 0.00 0.00 0.00 0.00 0.00 0.00 0.00 0.01 0.01 0.01 0.01 0.02 0.02 0.00 0.01 0.01 0.01 0.02 0.03 0.03 0.06 0.10 0.19 0.17
0.03 0.07 0.13 0.17 0.12 0.04 0.01 0.00 0.00 0.00 0.00 0.00 0.00 0.00 0.00 0.00 0.00 0.00 0.00 0.00 0.00 0.00 0.00 0.00 0.00 0.00 0.00 0.00 0.00 0.01 0.03 0.01 0.01 0.01 0.02 0.02 0.02 0.03 0.04 0.07 0.08 0.10 0.13
0.03 0.04 0.04 0.01 0.00 0.00 0.00 0.00 0.00 0.00 0.00 0.00 0.00 0.00 0.00 0.00 0.00 0.00 0.00 0.00 0.00 0.00 0.00 0.00 0.00 0.00 0.00 0.00 0.00 0.00 0.00 0.00 0.01 0.02 0.02 0.02 0.02 0.02 0.02 0.03 0.07 0.08 0.08
0.01 0.01 0.01 0.00 0.00 0.00 0.00 0.00 0.00 0.00 0.00 0.00 0.00 0.01 0.01 0.01 0.01 0.00 0.00 0.00 0.00 0.00 0.00 0.00 0.00 0.00 0.00 0.01 0.00 0.00 0.00 0.00 0.01 0.01 0.02 0.02 0.02 0.03 0.04 0.07 0.07 0.08 0.06
0.01 0.00 0.00 0.00 0.00 0.00 0.00 0.00 0.00 0.00 0.00 0.00 0.00 0.01 0.01 0.01 0.01 0.01 0.01 0.01 0.01 0.02 0.01 0.01 0.02 0.03 0.04 0.03 0.02 0.02 0.00 0.00 0.01 0.02 0.02 0.02 0.02 0.03 0.04 0.07 0.10 0.13 0.19
0.00 0.00 0.00 0.00 0.00 0.00 0.00 0.00 0.00 0.00 0.00 0.00 0.01 0.01 0.02 0.01 0.01 0.01 0.02 0.03 0.03 0.03 0.02 0.04 0.04 0.03 0.03 0.02 0.01 0.01 0.01 0.00 0.00 0.00 0.01 0.01 0.01 0.01 0.02 0.03 0.06 0.09 0.15
0.00 0.00 0.00 0.00 0.00 0.00 0.00 0.00 0.00 0.00 0.00 0.00 0.00 0.00 0.00 0.00 0.00 0.00 0.00 0.01 0.03 0.05 0.11 0.06 0.02 0.02 0.02 0.01 0.02 0.02 0.01 0.00 0.00 0.00 0.01 0.01 0.01 0.01 0.01 0.02 0.03 0.04 0.05
0.00 0.00 0.00 0.00 0.00 0.01 0.01 0.01 0.01 0.01 0.00 0.00 0.00 0.00 0.01 0.02 0.02 0.03 0.04 0.06 0.07 0.13 0.16 0.02 0.01 0.01 0.01 0.02 0.03 0.03 0.02 0.00 0.00 0.00 0.00 0.01 0.01 0.01 0.01 0.01 0.01 0.02 0.01
0.00 0.00 0.00 0.01 0.01 0.01 0.02 0.03 0.05 0.05 0.05 0.03 0.01 0.01 0.01 0.01 0.01 0.01 0.02 0.09 0.14 0.10 0.07 0.02 0.01 0.01 0.02 0.03 0.03 0.03 0.02 0.00 0.00 0.00 0.00 0.01 0.01 0.01 0.01 0.01 0.01 0.01 0.01
0.00 0.00 0.01 0.01 0.02 0.03 0.03 0.05 0.07 0.07 0.07 0.04 0.02 0.01 0.01 0.01 0.02 0.04 0.08 0.19 0.13 0.07 0.05 0.03 0.01 0.02 0.03 0.03 0.03 0.03 0.02 0.01 0.00 0.00 0.00 0.00 0.00 0.01 0.01 0.01 0.01 0.00 0.00
0.00 0.00 0.01 0.02 0.03 0.04 0.04 0.05 0.04 0.05 0.05 0.05 0.04 0.03 0.03 0.08 0.10 0.07 0.09 0.12 0.13 0.09 0.06 0.04 0.03 0.03 0.03 0.03 0.04 0.04 0.02 0.01 0.00 0.00 0.00 0.00 0.00 0.01 0.00 0.01 0.00 0.00 0.00
0.01 0.01 0.02 0.03 0.03 0.04 0.05 0.05 0.06 0.07 0.08 0.07 0.06 0.04 0.05 0.12 0.12 0.08 0.07 0.09 0.09 0.08 0.08 0.06 0.04 0.04 0.04 0.05 0.05 0.05 0.02 0.01 0.00 0.00 0.00 0.00 0.00 0.01 0.00 0.00 0.00 0.00 0.00
0.01 0.02 0.02 0.04 0.06 0.07 0.07 0.08 0.08 0.08 0.07 0.07 0.05 0.04 0.04 0.10 0.11 0.14 0.17 0.17 0.17 0.16 0.13 0.12 0.10 0.06 0.06 0.08 0.08 0.09 0.06 0.03 0.02 0.01 0.00 0.00 0.00 0.01 0.01 0.01 0.00 0.00 0.00
0.02 0.04 0.05 0.05 0.06 0.06 0.06 0.06 0.08 0.11 0.14 0.15 0.15 0.16 0.17 0.21 0.22 0.21 0.21 0.19 0.18 0.18 0.16 0.16 0.15 0.12 0.10 0.12 0.15 0.12 0.08 0.04 0.03 0.05 0.03 0.01 0.01 0.01 0.02 0.01 0.00 0.00 0.00
0.03 0.04 0.05 0.05 0.07 0.10 0.13 0.16 0.18 0.19 0.19 0.20 0.24 0.25 0.24 0.25 0.28 0.27 0.24 0.23 0.24 0.22 0.21 0.22 0.20 0.16 0.14 0.12 0.13 0.13 0.11 0.07 0.09 0.08 0.07 0.06 0.03 0.02 0.02 0.01 0.00 0.00 0.00
0.06 0.10 0.14 0.17 0.20 0.20 0.19 0.17 0.17 0.21 0.26 0.26 0.23 0.19 0.17 0.17 0.16 0.14 0.13 0.13 0.13 0.13 0.12 0.12 0.10 0.08 0.07 0.08 0.10 0.09 0.06 0.06 0.09 0.06 0.09 0.08 0.05 0.03 0.02 0.01 0.00 0.00 0.00
0.07 0.11 0.13 0.13 0.13 0.15 0.19 0.24 0.26 0.23 0.20 0.16 0.15 0.14 0.13 0.12 0.10 0.08 0.08 0.08 0.08 0.08 0.07 0.08 0.07 0.05 0.05 0.05 0.07 0.09 0.07 0.05 0.08 0.08 0.08 0.08 0.06 0.05 0.03 0.02 0.01 0.00 0.00

GFSGL_prec_precacc24_045.txt.gz
Total_Precipitation_Accumulation
0.01 0.03 0.07 0.12 0.17 0.22 0.19 0.13 0.06 0.03 0.01 0.00 0.00 0.00 0.00 0.00 0.00 0.01 0.03 0.04 0.03 0.02 0.02 0.02 0.02 0.02 0.01 0.01 0.00 0.00 0.00 0.00 0.00 0.00 0.00 0.00 0.00 0.00 0.00 0.00 0.00 0.00 0.00
0.09 0.12 0.19 0.20 0.20 0.16 0.12 0.08 0.04 0.02 0.01 0.01 0.01 0.01 0.01 0.01 0.01 0.03 0.03 0.02 0.01 0.00 0.00 0.00 0.00 0.00 0.00 0.00 0.00 0.00 0.00 0.00 0.00 0.00 0.00 0.00 0.00 0.00 0.00 0.00 0.00 0.00 0.00
0.16 0.14 0.14 0.12 0.10 0.10 0.09 0.06 0.03 0.02 0.02 0.02 0.01 0.01 0.02 0.03 0.03 0.02 0.01 0.00 0.00 0.01 0.00 0.00 0.00 0.00 0.00 0.00 0.00 0.00 0.00 0.00 0.00 0.00 0.00 0.00 0.00 0.00 0.00 0.01 0.01 0.00 0.00
0.16 0.11 0.10 0.10 0.11 0.07 0.04 0.02 0.01 0.01 0.01 0.01 0.02 0.01 0.01 0.04 0.03 0.00 0.00 0.01 0.01 0.00 0.00 0.00 0.00 0.00 0.00 0.00 0.00 0.00 0.00 0.00 0.00 0.01 0.00 0.01 0.00 0.00 0.01 0.02 0.03 0.02 0.02
0.09 0.09 0.07 0.04 0.02 0.01 0.01 0.01 0.01 0.01 0.01 0.00 0.02 0.08 0.10 0.07 0.04 0.02 0.00 0.00 0.00 0.00 0.00 0.00 0.00 0.00 0.00 0.00 0.00 0.00 0.00 0.01 0.01 0.01 0.01 0.02 0.02 0.02 0.03 0.04 0.04 0.02 0.01
0.04 0.04 0.03 0.02 0.01 0.01 0.01 0.01 0.01 0.02 0.03 0.06 0.16 0.18 0.12 0.08 0.05 0.01 0.00 0.00 0.00 0.00 0.00 0.00 0.00 0.00 0.00 0.00 0.00 0.00 0.00 0.01 0.04 0.03 0.03 0.03 0.03 0.05 0.06 0.06 0.06 0.05 0.04
0.04 0.05 0.03 0.01 0.01 0.00 0.00 0.00 0.00 0.05 0.21 0.31 0.23 0.14 0.08 0.04 0.01 0.00 0.00 0.00 0.00 0.00 0.00 0.00 0.00 0.00 0.00 0.00 0.00 0.00 0.00 0.01 0.03 0.03 0.05 0.06 0.07 0.06 0.05 0.05 0.06 0.08 0.08
0.02 0.02 0.01 0.00 0.00 0.00 0.00 0.02 0.14 0.31 0.31 0.20 0.11 0.03 0.00 0.00 0.00 0.00 0.00 0.00 0.00 0.00 0.00 0.00 0.00 0.00 0.00 0.00 0.01 0.01 0.00 0.00 0.00 0.01 0.03 0.03 0.02 0.03 0.04 0.05 0.10 0.09 0.04
0.00 0.00 0.00 0.00 0.00 0.02 0.15 0.35 0.37 0.21 0.06 0.00 0.00 0.00 0.00 0.00 0.00 0.00 0.00 0.00 0.00 0.00 0.00 0.00 0.00 0.00 0.00 0.01 0.01 0.00 0.00 0.00 0.00 0.00 0.00 0.00 0.00 0.00 0.02 0.07 0.07 0.10 0.09
0.00 0.00 0.01 0.06 0.19 0.31 0.28 0.11 0.01 0.00 0.00 0.00 0.00 0.00 0.00 0.00 0.00 0.00 0.00 0.00 0.00 0.00 0.00 0.00 0.00 0.00 0.00 0.00 0.01 0.01 0.01 0.01 0.00 0.00 0.00 0.00 0.01 0.02 0.03 0.06 0.09 0.16 0.13
0.03 0.07 0.13 0.17 0.12 0.05 0.01 0.00 0.00 0.00 0.00 0.00 0.00 0.00 0.00 0.00 0.00 0.00 0.00 0.00 0.00 0.00 0.00 0.00 0.00 0.00 0.00 0.00 0.01 0.01 0.01 0.00 0.00 0.01 0.01 0.01 0.01 0.02 0.04 0.06 0.08 0.10 0.13
0.03 0.04 0.04 0.01 0.00 0.00 0.00 0.00 0.00 0.00 0.00 0.00 0.00 0.00 0.00 0.00 0.00 0.00 0.00 0.00 0.00 0.00 0.00 0.00 0.00 0.00 0.00 0.00 0.00 0.01 0.00 0.00 0.01 0.01 0.02 0.02 0.02 0.01 0.01 0.02 0.06 0.07 0.08
0.01 0.01 0.01 0.00 0.00 0.00 0.00 0.00 0.00 0.00 0.00 0.00 0.00 0.01 0.01 0.01 0.01 0.00 0.00 0.00 0.00 0.00 0.00 0.00 0.00 0.00 0.00 0.01 0.01 0.00 0.01 0.03 0.01 0.02 0.01 0.01 0.01 0.02 0.02 0.06 0.06 0.07 0.05
0.01 0.00 0.00 0.00 0.00 0.00 0.00 0.00 0.00 0.00 0.00 0.00 0.00 0.01 0.01 0.01 0.01 0.01 0.01 0.01 0.01 0.02 0.02 0.02 0.02 0.03 0.04 0.04 0.03 0.04 0.06 0.03 0.02 0.02 0.01 0.01 0.01 0.01 0.02 0.04 0.07 0.09 0.16
0.00 0.00 0.00 0.00 0.00 0.00 0.00 0.00 0.00 0.00 0.00 0.00 0.01 0.02 0.02 0.02 0.01 0.01 0.02 0.04 0.04 0.04 0.05 0.08 0.06 0.04 0.03 0.03 0.03 0.02 0.04 0.04 0.03 0.01 0.01 0.01 0.01 0.01 0.01 0.02 0.03 0.04 0.10
0.00 0.00 0.00 0.00 0.00 0.00 0.00 0.00 0.00 0.00 0.00 0.00 0.00 0.00 0.00 0.01 0.00 0.00 0.00 0.02 0.04 0.07 0.19 0.13 0.06 0.04 0.04 0.02 0.02 0.03 0.04 0.05 0.03 0.02 0.01 0.01 0.01 0.01 0.01 0.01 0.02 0.02 0.03
0.00 0.00 0.00 0.00 0.00 0.00 0.00 0.01 0.01 0.01 0.00 0.00 0.00 0.00 0.01 0.02 0.02 0.03 0.04 0.06 0.07 0.14 0.22 0.10 0.06 0.04 0.02 0.02 0.03 0.03 0.03 0.03 0.04 0.05 0.02 0.01 0.01 0.01 0.01 0.01 0.01 0.02 0.01
0.00 0.00 0.00 0.00 0.01 0.01 0.02 0.02 0.04 0.04 0.05 0.03 0.01 0.01 0.01 0.01 0.01 0.01 0.02 0.10 0.14 0.11 0.09 0.05 0.05 0.04 0.04 0.04 0.03 0.03 0.02 0.03 0.04 0.02 0.01 0.01 0.00 0.01 0.01 0.01 0.01 0.01 0.01
0.00 0.00 0.00 0.01 0.01 0.02 0.02 0.04 0.06 0.07 0.07 0.04 0.02 0.01 0.01 0.01 0.02 0.04 0.08 0.19 0.14 0.09 0.08 0.08 0.06 0.08 0.08 0.04 0.04 0.03 0.03 0.03 0.02 0.02 0.01 0.01 0.00 0.01 0.01 0.00 0.00 0.00 0.00
0.00 0.00 0.00 0.01 0.03 0.03 0.03 0.04 0.04 0.05 0.05 0.04 0.04 0.03 0.03 0.08 0.10 0.07 0.09 0.13 0.14 0.12 0.10 0.11 0.10 0.10 0.07 0.05 0.05 0.05 0.05 0.03 0.02 0.02 0.01 0.00 0.00 0.01 0.00 0.01 0.00 0.00 0.00
0.01 0.01 0.01 0.02 0.02 0.03 0.04 0.05 0.06 0.07 0.08 0.07 0.05 0.04 0.05 0.12 0.12 0.08 0.07 0.11 0.12 0.11 0.12 0.13 0.13 0.13 0.11 0.09 0.08 0.07 0.05 0.02 0.02 0.02 0.01 0.01 0.00 0.01 0.00 0.00 0.00 0.00 0.00
0.01 0.02 0.02 0.04 0.05 0.06 0.06 0.07 0.08 0.08 0.07 0.07 0.05 0.04 0.04 0.10 0.12 0.14 0.17 0.18 0.19 0.19 0.18 0.17 0.16 0.13 0.11 0.12 0.11 0.11 0.09 0.06 0.04 0.04 0.02 0.01 0.00 0.01 0.01 0.01 0.01 0.00 0.00
0.02 0.04 0.05 0.04 0.04 0.05 0.05 0.05 0.08 0.11 0.14 0.15 0.15 0.16 0.17 0.21 0.22 0.21 0.21 0.19 0.19 0.21 0.20 0.22 0.21 0.18 0.15 0.16 0.17 0.16 0.14 0.08 0.07 0.10 0.09 0.04 0.01 0.01 0.02 0.01 0.01 0.00 0.00
0.03 0.04 0.04 0.05 0.06 0.09 0.12 0.16 0.18 0.19 0.19 0.20 0.24 0.25 0.24 0.25 0.28 0.27 0.24 0.23 0.24 0.23 0.23 0.26 0.24 0.21 0.18 0.15 0.14 0.15 0.15 0.13 0.15 0.13 0.13 0.12 0.07 0.03 0.03 0.02 0.00 0.00 0.00
0.06 0.09 0.13 0.16 0.19 0.18 0.17 0.16 0.16 0.20 0.25 0.25 0.22 0.18 0.16 0.16 0.16 0.14 0.13 0.13 0.13 0.13 0.12 0.14 0.13 0.11 0.10 0.11 0.12 0.10 0.07 0.09 0.13 0.13 0.16 0.13 0.08 0.06 0.04 0.03 0.01 0.00 0.00
0.06 0.09 0.11 0.11 0.12 0.13 0.17 0.22 0.24 0.22 0.18 0.15 0.12 0.12 0.11 0.10 0.09 0.08 0.07 0.08 0.08 0.08 0.08 0.09 0.09 0.07 0.07 0.07 0.08 0.09 0.07 0.06 0.09 0.11 0.13 0.13 0.10 0.08 0.05 0.03 0.03 0.01 0.00

GFSGL_prec_precacc24_048.txt.gz
Total_Precipitation_Accumulation
0.01 0.03 0.07 0.13 0.18 0.23 0.23 0.18 0.12 0.07 0.04 0.02 0.01 0.00 0.00 0.01 0.01 0.04 0.06 0.05 0.05 0.05 0.03 0.02 0.02 0.02 0.01 0.01 0.00 0.00 0.00 0.00 0.00 0.00 0.00 0.00 0.00 0.00 0.00 0.00 0.00 0.00 0.00
0.09 0.12 0.19 0.20 0.21 0.17 0.16 0.13 0.10 0.07 0.04 0.02 0.03 0.04 0.04 0.02 0.04 0.07 0.08 0.08 0.05 0.01 0.00 0.00 0.00 0.00 0.00 0.00 0.00 0.00 0.00 0.00 0.00 0.00 0.00 0.00 0.00 0.00 0.00 0.00 0.00 0.00 0.00
0.16 0.14 0.14 0.13 0.11 0.14 0.14 0.12 0.09 0.07 0.04 0.04 0.04 0.03 0.04 0.06 0.07 0.07 0.06 0.04 0.02 0.01 0.01 0.00 0.00 0.00 0.00 0.00 0.00 0.00 0.00 0.00 0.00 0.00 0.00 0.00 0.00 0.00 0.00 0.00 0.00 0.00 0.00
0.17 0.12 0.10 0.11 0.13 0.10 0.07 0.05 0.03 0.03 0.01 0.02 0.02 0.03 0.03 0.07 0.07 0.06 0.04 0.03 0.02 0.01 0.00 0.00 0.00 0.00 0.00 0.00 0.00 0.00 0.00 0.00 0.00 0.00 0.00 0.00 0.00 0.00 0.01 0.01 0.01 0.01 0.00
0.11 0.12 0.09 0.04 0.02 0.01 0.01 0.01 0.01 0.01 0.01 0.01 0.04 0.10 0.14 0.10 0.08 0.07 0.04 0.02 0.01 0.00 0.00 0.00 0.00 0.00 0.00 0.00 0.00 0.00 0.00 0.00 0.00 0.00 0.01 0.01 0.01 0.01 0.02 0.03 0.03 0.01 0.00
0.04 0.04 0.03 0.02 0.01 0.01 0.01 0.01 0.01 0.02 0.03 0.07 0.17 0.19 0.15 0.12 0.11 0.06 0.03 0.02 0.00 0.00 0.00 0.00 0.00 0.00 0.00 0.00 0.00 0.00 0.00 0.00 0.02 0.02 0.02 0.01 0.01 0.04 0.04 0.04 0.03 0.03 0.02
0.04 0.05 0.03 0.01 0.01 0.00 0.00 0.00 0.01 0.05 0.22 0.31 0.25 0.18 0.12 0.06 0.03 0.01 0.00 0.00 0.00 0.00 0.00 0.00 0.00 0.00 0.00 0.00 0.00 0.00 0.00 0.00 0.01 0.01 0.02 0.04 0.05 0.04 0.03 0.03 0.03 0.04 0.05
0.02 0.02 0.01 0.00 0.00 0.00 0.00 0.02 0.14 0.32 0.33 0.23 0.12 0.04 0.01 0.00 0.00 0.00 0.00 0.00 0.00 0.00 0.00 0.00 0.00 0.00 0.00 0.00 0.00 0.00 0.00 0.00 0.00 0.00 0.01 0.01 0.00 0.00 0.01 0.03 0.06 0.06 0.02
0.00 0.00 0.00 0.00 0.00 0.02 0.15 0.35 0.37 0.22 0.06 0.00 0.00 0.00 0.00 0.00 0.00 0.00 0.00 0.00 0.00 0.00 0.00 0.00 0.00 0.00 0.00 0.00 0.00 0.00 0.00 0.00 0.00 0.00 0.00 0.00 0.00 0.00 0.01 0.05 0.05 0.06 0.05
0.00 0.00 0.01 0.06 0.19 0.31 0.28 0.11 0.01 0.00 0.00 0.00 0.00 0.00 0.00 0.00 0.00 0.00 0.00 0.00 0.00 0.00 0.00 0.00 0.00 0.00 0.00 0.00 0.00 0.00 0.01 0.00 0.00 0.00 0.00 0.00 0.00 0.01 0.02 0.04 0.08 0.14 0.10
0.03 0.07 0.13 0.17 0.12 0.05 0.01 0.00 0.00 0.00 0.00 0.00 0.00 0.00 0.00 0.00 0.00 0.00 0.00 0.00 0.00 0.00 0.00 0.00 0.00 0.00 0.00 0.00 0.01 0.01 0.01 0.00 0.01 0.01 0.01 0.01 0.01 0.01 0.02 0.02 0.05 0.09 0.13
0.03 0.04 0.04 0.01 0.00 0.00 0.00 0.00 0.00 0.00 0.00 0.00 0.00 0.00 0.00 0.00 0.00 0.00 0.00 0.00 0.00 0.00 0.00 0.00 0.00 0.00 0.00 0.00 0.00 0.01 0.00 0.01 0.03 0.03 0.02 0.01 0.01 0.01 0.01 0.01 0.03 0.05 0.06
0.01 0.01 0.01 0.00 0.00 0.00 0.00 0.00 0.00 0.00 0.00 0.00 0.00 0.00 0.00 0.01 0.01 0.00 0.00 0.00 0.00 0.00 0.00 0.00 0.00 0.00 0.01 0.02 0.01 0.00 0.02 0.05 0.05 0.05 0.03 0.01 0.01 0.01 0.01 0.02 0.03 0.05 0.03
0.01 0.00 0.00 0.00 0.00 0.00 0.00 0.00 0.00 0.00 0.00 0.00 0.00 0.00 0.01 0.01 0.01 0.01 0.01 0.01 0.01 0.02 0.02 0.03 0.03 0.04 0.05 0.04 0.04 0.05 0.07 0.06 0.05 0.04 0.03 0.02 0.01 0.01 0.01 0.01 0.02 0.04 0.12
0.00 0.00 0.00 0.00 0.00 0.00 0.00 0.00 0.00 0.00 0.00 0.00 0.01 0.01 0.02 0.01 0.01 0.01 0.02 0.04 0.05 0.05 0.06 0.09 0.07 0.06 0.05 0.05 0.04 0.04 0.05 0.06 0.06 0.03 0.03 0.03 0.02 0.01 0.01 0.01 0.01 0.01 0.04
0.00 0.00 0.00 0.00 0.00 0.00 0.00 0.00 0.00 0.00 0.00 0.00 0.00 0.00 0.00 0.00 0.00 0.00 0.00 0.02 0.04 0.07 0.20 0.14 0.08 0.06 0.06 0.05 0.06 0.06 0.06 0.06 0.04 0.04 0.05 0.04 0.03 0.01 0.01 0.01 0.01 0.01 0.02
0.00 0.00 0.00 0.00 0.00 0.00 0.00 0.01 0.01 0.00 0.00 0.00 0.00 0.00 0.01 0.02 0.02 0.03 0.04 0.06 0.07 0.14 0.23 0.12 0.09 0.07 0.06 0.05 0.07 0.07 0.06 0.04 0.04 0.06 0.04 0.03 0.02 0.02 0.01 0.01 0.01 0.01 0.01
0.00 0.00 0.00 0.00 0.00 0.00 0.01 0.01 0.02 0.03 0.04 0.02 0.01 0.01 0.01 0.01 0.01 0.01 0.02 0.09 0.14 0.11 0.10 0.07 0.07 0.07 0.07 0.08 0.07 0.06 0.05 0.04 0.05 0.03 0.02 0.02 0.02 0.02 0.02 0.01 0.01 0.01 0.01
0.00 0.00 0.00 0.00 0.01 0.01 0.02 0.03 0.04 0.05 0.06 0.03 0.02 0.01 0.01 0.01 0.02 0.04 0.07 0.19 0.14 0.09 0.08 0.09 0.07 0.09 0.13 0.14 0.14 0.10 0.06 0.04 0.03 0.03 0.02 0.03 0.03 0.03 0.02 0.01 0.01 0.00 0.00
0.00 0.00 0.00 0.01 0.01 0.02 0.02 0.03 0.03 0.04 0.04 0.04 0.03 0.02 0.03 0.08 0.10 0.07 0.08 0.13 0.14 0.12 0.10 0.11 0.10 0.12 0.15 0.17 0.17 0.14 0.09 0.05 0.04 0.04 0.03 0.03 0.03 0.03 0.01 0.01 0.01 0.01 0.00
0.01 0.01 0.01 0.01 0.02 0.02 0.03 0.04 0.05 0.06 0.07 0.07 0.05 0.03 0.04 0.12 0.12 0.08 0.07 0.10 0.12 0.11 0.13 0.13 0.13 0.14 0.15 0.15 0.15 0.14 0.11 0.06 0.04 0.03 0.04 0.04 0.04 0.02 0.01 0.01 0.01 0.01 0.00
0.01 0.02 0.02 0.03 0.04 0.05 0.05 0.06 0.07 0.07 0.06 0.07 0.05 0.04 0.04 0.10 0.11 0.14 0.17 0.18 0.19 0.19 0.18 0.18 0.16 0.14 0.14 0.16 0.16 0.16 0.14 0.10 0.08 0.07 0.06 0.06 0.04 0.02 0.02 0.02 0.01 0.01 0.00
0.02 0.03 0.03 0.03 0.04 0.04 0.04 0.04 0.06 0.09 0.13 0.14 0.15 0.16 0.17 0.21 0.21 0.21 0.21 0.19 0.19 0.21 0.20 0.22 0.22 0.19 0.17 0.20 0.23 0.22 0.19 0.12 0.10 0.15 0.15 0.10 0.05 0.03 0.02 0.01 0.01 0.01 0.00
0.03 0.03 0.03 0.03 0.05 0.08 0.10 0.14 0.17 0.17 0.18 0.20 0.23 0.24 0.24 0.25 0.27 0.27 0.24 0.22 0.24 0.23 0.23 0.26 0.24 0.22 0.19 0.18 0.18 0.19 0.19 0.15 0.17 0.17 0.19 0.18 0.11 0.06 0.04 0.03 0.01 0.01 0.00
0.06 0.08 0.11 0.13 0.16 0.16 0.16 0.14 0.14 0.18 0.23 0.23 0.21 0.17 0.16 0.15 0.14 0.13 0.12 0.11 0.12 0.12 0.12 0.14 0.13 0.12 0.11 0.13 0.15 0.13 0.10 0.10 0.15 0.16 0.20 0.18 0.13 0.09 0.07 0.05 0.03 0.02 0.01
0.06 0.08 0.09 0.08 0.08 0.11 0.15 0.20 0.22 0.20 0.17 0.14 0.11 0.10 0.10 0.09 0.07 0.06 0.06 0.05 0.05 0.06 0.06 0.08 0.09 0.07 0.07 0.08 0.10 0.12 0.10 0.08 0.11 0.12 0.15 0.17 0.16 0.13 0.08 0.05 0.05 0.04 0.02

GFSGL_prec_precacc24_051.txt.gz
Total_Precipitation_Accumulation
0.01 0.03 0.07 0.14 0.18 0.24 0.24 0.23 0.16 0.09 0.06 0.03 0.02 0.02 0.01 0.01 0.02 0.05 0.08 0.06 0.06 0.11 0.11 0.05 0.01 0.01 0.01 0.01 0.00 0.00 0.00 0.00 0.00 0.00 0.00 0.00 0.00 0.00 0.00 0.00 0.00 0.00 0.00
0.09 0.12 0.20 0.21 0.21 0.18 0.16 0.14 0.10 0.08 0.05 0.03 0.05 0.08 0.10 0.13 0.18 0.19 0.12 0.10 0.12 0.09 0.03 0.01 0.00 0.00 0.00 0.00 0.00 0.00 0.00 0.00 0.00 0.00 0.00 0.00 0.00 0.00 0.00 0.00 0.00 0.00 0.00
0.16 0.14 0.15 0.15 0.12 0.14 0.15 0.13 0.10 0.08 0.07 0.07 0.07 0.09 0.15 0.15 0.10 0.09 0.09 0.10 0.11 0.06 0.02 0.01 0.00 0.00 0.00 0.00 0.00 0.00 0.00 0.00 0.00 0.00 0.00 0.00 0.00 0.00 0.00 0.00 0.00 0.00 0.00
0.17 0.13 0.11 0.12 0.14 0.11 0.08 0.06 0.03 0.03 0.02 0.02 0.03 0.03 0.04 0.08 0.10 0.11 0.12 0.11 0.06 0.02 0.00 0.00 0.00 0.00 0.00 0.00 0.00 0.00 0.01 0.00 0.00 0.00 0.00 0.00 0.00 0.00 0.00 0.00 0.01 0.00 0.00
0.15 0.15 0.11 0.06 0.03 0.02 0.02 0.01 0.01 0.01 0.01 0.01 0.04 0.10 0.14 0.12 0.10 0.09 0.05 0.02 0.01 0.01 0.00 0.00 0.00 0.00 0.00 0.00 0.00 0.00 0.01 0.01 0.01 0.00 0.00 0.00 0.00 0.00 0.01 0.01 0.01 0.00 0.00
0.05 0.05 0.04 0.02 0.01 0.01 0.01 0.01 0.01 0.02 0.03 0.07 0.17 0.19 0.15 0.12 0.11 0.07 0.04 0.02 0.01 0.00 0.00 0.00 0.00 0.00 0.00 0.00 0.00 0.00 0.00 0.00 0.01 0.01 0.01 0.01 0.00 0.02 0.02 0.01 0.01 0.01 0.01
0.04 0.05 0.03 0.01 0.01 0.00 0.00 0.00 0.01 0.05 0.22 0.31 0.25 0.18 0.12 0.06 0.05 0.01 0.01 0.00 0.00 0.00 0.00 0.00 0.00 0.00 0.00 0.00 0.00 0.00 0.00 0.00 0.00 0.00 0.01 0.02 0.02 0.02 0.01 0.00 0.00 0.02 0.03
0.02 0.02 0.01 0.00 0.00 0.00 0.00 0.02 0.14 0.32 0.33 0.23 0.12 0.04 0.00 0.00 0.00 0.00 0.00 0.00 0.00 0.00 0.00 0.00 0.00 0.00 0.00 0.00 0.00 0.00 0.00 0.00 0.00 0.00 0.00 0.00 0.00 0.00 0.01 0.01 0.04 0.04 0.01
0.00 0.00 0.00 0.00 0.00 0.02 0.15 0.35 0.37 0.22 0.06 0.00 0.00 0.00 0.00 0.00 0.00 0.00 0.00 0.00 0.00 0.00 0.00 0.00 0.00 0.00 0.00 0.00 0.00 0.00 0.00 0.00 0.00 0.00 0.00 0.00 0.00 0.00 0.00 0.03 0.03 0.04 0.03
0.00 0.00 0.01 0.06 0.19 0.31 0.28 0.11 0.01 0.00 0.00 0.00 0.00 0.00 0.00 0.00 0.00 0.00 0.00 0.00 0.00 0.00 0.00 0.00 0.00 0.00 0.00 0.00 0.00 0.00 0.01 0.00 0.01 0.01 0.01 0.00 0.00 0.00 0.01 0.02 0.05 0.11 0.08
0.03 0.07 0.13 0.17 0.12 0.05 0.01 0.00 0.00 0.00 0.00 0.00 0.00 0.00 0.00 0.00 0.00 0.00 0.00 0.00 0.00 0.00 0.00 0.00 0.00 0.00 0.00 0.00 0.01 0.01 0.01 0.00 0.02 0.03 0.02 0.02 0.01 0.01 0.00 0.00 0.01 0.04 0.09
0.02 0.04 0.04 0.01 0.00 0.00 0.00 0.00 0.00 0.00 0.00 0.00 0.00 0.00 0.00 0.00 0.00 0.00 0.00 0.00 0.00 0.00 0.00 0.00 0.01 0.00 0.00 0.00 0.01 0.02 0.02 0.03 0.05 0.05 0.03 0.03 0.02 0.01 0.00 0.00 0.00 0.02 0.04
0.01 0.01 0.01 0.00 0.00 0.00 0.00 0.00 0.00 0.00 0.00 0.00 0.00 0.00 0.00 0.00 0.00 0.00 0.00 0.00 0.00 0.00 0.00 0.00 0.00 0.00 0.01 0.02 0.02 0.01 0.04 0.10 0.11 0.12 0.07 0.03 0.01 0.01 0.01 0.00 0.00 0.00 0.01
0.01 0.00 0.00 0.00 0.00 0.00 0.00 0.00 0.00 0.00 0.00 0.00 0.00 0.00 0.00 0.00 0.00 0.01 0.01 0.01 0.01 0.02 0.02 0.03 0.03 0.04 0.05 0.05 0.04 0.06 0.09 0.07 0.06 0.06 0.04 0.03 0.04 0.05 0.02 0.01 0.01 0.00 0.02
0.00 0.00 0.00 0.00 0.00 0.00 0.00 0.00 0.00 0.00 0.00 0.00 0.00 0.01 0.01 0.01 0.01 0.01 0.02 0.03 0.04 0.05 0.06 0.09 0.08 0.07 0.06 0.05 0.06 0.06 0.08 0.11 0.11 0.07 0.07 0.06 0.05 0.04 0.03 0.01 0.01 0.01 0.01
0.00 0.00 0.00 0.00 0.00 0.00 0.00 0.00 0.00 0.00 0.00 0.00 0.00 0.00 0.00 0.00 0.00 0.00 0.00 0.02 0.04 0.07 0.20 0.15 0.09 0.08 0.08 0.06 0.08 0.09 0.10 0.10 0.08 0.08 0.08 0.07 0.07 0.05 0.03 0.02 0.02 0.01 0.01
0.00 0.00 0.00 0.00 0.00 0.00 0.00 0.00 0.00 0.00 0.00 0.00 0.00 0.00 0.01 0.02 0.02 0.03 0.04 0.06 0.07 0.14 0.23 0.12 0.09 0.08 0.07 0.07 0.09 0.11 0.11 0.09 0.09 0.09 0.08 0.05 0.04 0.05 0.04 0.03 0.03 0.02 0.00
0.00 0.00 0.00 0.00 0.00 0.00 0.00 0.00 0.01 0.02 0.02 0.01 0.00 0.01 0.01 0.01 0.01 0.01 0.02 0.09 0.13 0.11 0.10 0.07 0.07 0.07 0.08 0.08 0.08 0.09 0.08 0.09 0.10 0.06 0.04 0.03 0.05 0.05 0.06 0.04 0.03 0.02 0.01
0.00 0.00 0.00 0.00 0.00 0.01 0.01 0.02 0.03 0.04 0.04 0.02 0.01 0.01 0.01 0.01 0.02 0.04 0.07 0.17 0.13 0.09 0.08 0.08 0.07 0.09 0.13 0.15 0.16 0.18 0.21 0.21 0.15 0.07 0.04 0.04 0.05 0.06 0.06 0.04 0.02 0.01 0.01
0.00 0.00 0.00 0.01 0.01 0.01 0.01 0.02 0.02 0.02 0.03 0.02 0.02 0.02 0.02 0.07 0.09 0.06 0.07 0.12 0.13 0.11 0.10 0.11 0.10 0.12 0.16 0.18 0.19 0.20 0.21 0.18 0.15 0.09 0.05 0.04 0.05 0.05 0.05 0.05 0.03 0.02 0.01
0.01 0.01 0.01 0.01 0.01 0.02 0.03 0.03 0.04 0.04 0.05 0.05 0.04 0.03 0.04 0.11 0.11 0.07 0.06 0.08 0.11 0.11 0.12 0.13 0.13 0.14 0.15 0.16 0.16 0.16 0.15 0.14 0.13 0.12 0.09 0.07 0.08 0.06 0.05 0.04 0.03 0.02 0.01
0.01 0.02 0.02 0.02 0.03 0.03 0.03 0.05 0.05 0.05 0.04 0.05 0.04 0.03 0.04 0.10 0.11 0.13 0.16 0.17 0.18 0.18 0.17 0.18 0.16 0.14 0.14 0.16 0.16 0.18 0.16 0.15 0.13 0.11 0.09 0.09 0.08 0.07 0.06 0.04 0.04 0.03 0.01
0.01 0.02 0.02 0.02 0.02 0.02 0.02 0.03 0.04 0.07 0.10 0.12 0.13 0.14 0.16 0.20 0.21 0.21 0.20 0.19 0.19 0.20 0.19 0.21 0.21 0.19 0.17 0.20 0.24 0.24 0.21 0.15 0.14 0.18 0.18 0.13 0.11 0.09 0.06 0.04 0.03 0.03 0.01
0.02 0.02 0.03 0.03 0.04 0.06 0.08 0.11 0.14 0.16 0.16 0.17 0.20 0.21 0.21 0.23 0.26 0.26 0.24 0.22 0.23 0.22 0.22 0.25 0.24 0.22 0.19 0.18 0.18 0.20 0.21 0.19 0.21 0.21 0.22 0.21 0.16 0.14 0.11 0.07 0.04 0.02 0.01
0.03 0.07 0.10 0.12 0.15 0.14 0.13 0.11 0.11 0.16 0.21 0.20 0.18 0.15 0.14 0.13 0.12 0.11 0.11 0.10 0.09 0.09 0.10 0.11 0.12 0.11 0.11 0.13 0.15 0.14 0.12 0.13 0.18 0.19 0.23 0.21 0.17 0.16 0.15 0.11 0.07 0.05 0.03
0.01 0.04 0.06 0.06 0.06 0.07 0.11 0.16 0.19 0.17 0.15 0.12 0.09 0.09 0.09 0.08 0.06 0.05 0.05 0.03 0.03 0.03 0.04 0.04 0.05 0.05 0.06 0.07 0.10 0.12 0.11 0.09 0.13 0.15 0.17 0.19 0.19 0.19 0.16 0.11 0.10 0.09 0.04

GFSGL_prec_precacc24_054.txt.gz
Total_Precipitation_Accumulation
0.18 0.20 0.15 0.23 0.24 0.28 0.25 0.27 0.21 0.17 0.15 0.08 0.05 0.03 0.02 0.02 0.05 0.09 0.15 0.17 0.20 0.21 0.15 0.09 0.04 0.04 0.01 0.00 0.00 0.00 0.00 0.00 0.00 0.00 0.00 0.00 0.00 0.00 0.00 0.00 0.00 0.00 0.00
0.36 0.39 0.32 0.28 0.26 0.23 0.23 0.19 0.15 0.09 0.06 0.04 0.05 0.09 0.12 0.18 0.26 0.30 0.23 0.19 0.16 0.12 0.09 0.06 0.03 0.01 0.00 0.00 0.00 0.00 0.00 0.00 0.00 0.00 0.00 0.00 0.00 0.00 0.00 0.00 0.00 0.00 0.00
0.27 0.46 0.30 0.26 0.23 0.18 0.17 0.14 0.10 0.09 0.08 0.07 0.07 0.10 0.15 0.17 0.14 0.12 0.11 0.12 0.13 0.10 0.05 0.02 0.01 0.01 0.00 0.00 0.00 0.00 0.00 0.00 0.00 0.00 0.00 0.00 0.00 0.00 0.00 0.00 0.00 0.00 0.00
0.24 0.16 0.16 0.15 0.16 0.12 0.09 0.07 0.05 0.04 0.03 0.03 0.03 0.04 0.04 0.08 0.10 0.11 0.13 0.11 0.06 0.02 0.01 0.01 0.01 0.00 0.00 0.00 0.00 0.01 0.01 0.01 0.00 0.01 0.00 0.00 0.00 0.00 0.00 0.00 0.00 0.00 0.00
0.22 0.18 0.15 0.07 0.04 0.03 0.03 0.02 0.01 0.01 0.01 0.01 0.04 0.10 0.14 0.12 0.10 0.09 0.05 0.02 0.01 0.01 0.00 0.00 0.00 0.00 0.00 0.00 0.00 0.00 0.01 0.01 0.01 0.01 0.00 0.00 0.00 0.00 0.00 0.00 0.00 0.00 0.00
0.06 0.08 0.06 0.03 0.01 0.01 0.01 0.01 0.01 0.02 0.03 0.07 0.17 0.19 0.15 0.12 0.11 0.07 0.04 0.02 0.01 0.00 0.00 0.00 0.00 0.00 0.00 0.00 0.00 0.00 0.00 0.00 0.00 0.01 0.01 0.01 0.00 0.01 0.01 0.00 0.00 0.00 0.01
0.05 0.08 0.03 0.02 0.01 0.00 0.00 0.00 0.01 0.05 0.22 0.31 0.25 0.18 0.11 0.06 0.05 0.02 0.01 0.00 0.00 0.00 0.00 0.00 0.00 0.00 0.00 0.00 0.00 0.00 0.00 0.00 0.00 0.00 0.00 0.01 0.01 0.01 0.01 0.00 0.00 0.01 0.02
0.02 0.02 0.01 0.00 0.00 0.00 0.00 0.02 0.14 0.32 0.33 0.23 0.12 0.04 0.00 0.00 0.00 0.00 0.00 0.00 0.00 0.00 0.00 0.00 0.00 0.00 0.00 0.00 0.00 0.00 0.00 0.00 0.00 0.00 0.00 0.00 0.00 0.00 0.01 0.01 0.04 0.04 0.00
0.00 0.00 0.00 0.00 0.00 0.02 0.15 0.35 0.37 0.22 0.06 0.00 0.00 0.00 0.00 0.00 0.00 0.00 0.00 0.00 0.00 0.00 0.00 0.00 0.00 0.00 0.00 0.00 0.00 0.00 0.00 0.00 0.00 0.00 0.01 0.01 0.01 0.00 0.00 0.03 0.02 0.03 0.02
0.00 0.00 0.01 0.06 0.19 0.31 0.28 0.11 0.01 0.00 0.00 0.00 0.00 0.00 0.00 0.00 0.00 0.00 0.00 0.00 0.00 0.00 0.00 0.00 0.00 0.00 0.00 0.00 0.00 0.00 0.01 0.00 0.01 0.02 0.02 0.02 0.01 0.00 0.01 0.01 0.01 0.04 0.03
0.03 0.07 0.13 0.16 0.12 0.05 0.01 0.00 0.00 0.00 0.00 0.00 0.00 0.00 0.00 0.00 0.00 0.00 0.00 0.00 0.00 0.00 0.00 0.00 0.00 0.00 0.00 0.00 0.01 0.02 0.02 0.01 0.03 0.04 0.04 0.05 0.03 0.01 0.00 0.00 0.00 0.01 0.03
0.01 0.03 0.03 0.01 0.00 0.00 0.00 0.00 0.00 0.00 0.00 0.00 0.00 0.00 0.00 0.00 0.00 0.00 0.00 0.00 0.00 0.00 0.00 0.00 0.01 0.00 0.00 0.00 0.01 0.02 0.02 0.03 0.08 0.08 0.07 0.06 0.06 0.08 0.05 0.02 0.01 0.00 0.00
0.00 0.00 0.00 0.00 0.00 0.00 0.00 0.00 0.00 0.00 0.00 0.00 0.00 0.00 0.00 0.00 0.00 0.00 0.00 0.00 0.00 0.00 0.00 0.00 0.00 0.00 0.01 0.02 0.02 0.01 0.04 0.10 0.12 0.13 0.09 0.04 0.02 0.01 0.02 0.03 0.02 0.00 0.00
0.00 0.00 0.00 0.00 0.00 0.00 0.00 0.00 0.00 0.00 0.00 0.00 0.00 0.00 0.00 0.00 0.00 0.00 0.00 0.00 0.01 0.02 0.02 0.03 0.03 0.04 0.05 0.05 0.05 0.06 0.09 0.08 0.08 0.07 0.05 0.04 0.06 0.07 0.05 0.02 0.01 0.01 0.03
0.00 0.00 0.00 0.00 0.00 0.00 0.00 0.00 0.00 0.00 0.00 0.00 0.00 0.00 0.00 0.00 0.00 0.01 0.01 0.02 0.03 0.04 0.06 0.09 0.08 0.07 0.06 0.06 0.06 0.06 0.09 0.11 0.12 0.09 0.10 0.10 0.12 0.12 0.08 0.03 0.02 0.02 0.02
0.00 0.00 0.00 0.00 0.00 0.00 0.00 0.00 0.00 0.00 0.00 0.00 0.00 0.00 0.00 0.00 0.00 0.00 0.00 0.02 0.04 0.07 0.20 0.15 0.09 0.08 0.08 0.06 0.08 0.09 0.10 0.11 0.10 0.10 0.12 0.11 0.12 0.14 0.09 0.03 0.03 0.02 0.01
0.00 0.00 0.00 0.00 0.00 0.00 0.00 0.00 0.00 0.00 0.00 0.00 0.00 0.00 0.01 0.02 0.02 0.03 0.04 0.06 0.07 0.14 0.23 0.12 0.09 0.08 0.07 0.07 0.10 0.11 0.12 0.10 0.10 0.12 0.11 0.09 0.07 0.07 0.07 0.06 0.05 0.03 0.02
0.00 0.00 0.00 0.00 0.00 0.00 0.00 0.00 0.01 0.01 0.02 0.01 0.00 0.01 0.01 0.01 0.01 0.01 0.02 0.09 0.13 0.10 0.09 0.07 0.07 0.07 0.08 0.08 0.09 0.09 0.08 0.09 0.11 0.08 0.07 0.05 0.06 0.07 0.08 0.06 0.04 0.04 0.03
0.01 0.00 0.00 0.00 0.01 0.01 0.01 0.02 0.03 0.03 0.03 0.01 0.00 0.00 0.00 0.01 0.02 0.04 0.07 0.17 0.13 0.09 0.07 0.08 0.07 0.09 0.13 0.16 0.17 0.19 0.21 0.23 0.25 0.26 0.22 0.17 0.09 0.07 0.08 0.06 0.05 0.03 0.04
0.04 0.03 0.02 0.02 0.02 0.01 0.01 0.02 0.02 0.02 0.02 0.02 0.02 0.01 0.01 0.05 0.08 0.06 0.08 0.12 0.13 0.11 0.09 0.11 0.10 0.12 0.16 0.18 0.20 0.20 0.21 0.20 0.21 0.21 0.17 0.13 0.10 0.07 0.06 0.05 0.05 0.06 0.02
0.03 0.02 0.01 0.01 0.01 0.01 0.02 0.02 0.03 0.03 0.04 0.04 0.03 0.02 0.03 0.09 0.10 0.06 0.05 0.08 0.11 0.11 0.12 0.14 0.13 0.14 0.15 0.16 0.16 0.16 0.15 0.14 0.16 0.18 0.18 0.16 0.15 0.13 0.08 0.07 0.07 0.04 0.04
0.01 0.01 0.01 0.01 0.01 0.02 0.03 0.03 0.04 0.04 0.03 0.04 0.03 0.03 0.03 0.08 0.10 0.13 0.16 0.17 0.18 0.18 0.17 0.18 0.16 0.14 0.14 0.16 0.17 0.19 0.17 0.15 0.14 0.13 0.12 0.11 0.10 0.09 0.09 0.09 0.08 0.06 0.04
0.00 0.01 0.01 0.01 0.01 0.02 0.02 0.02 0.03 0.06 0.09 0.11 0.12 0.13 0.13 0.15 0.17 0.19 0.20 0.19 0.19 0.20 0.19 0.21 0.21 0.19 0.17 0.20 0.24 0.25 0.22 0.16 0.15 0.20 0.20 0.14 0.11 0.11 0.11 0.10 0.08 0.07 0.05
0.01 0.01 0.00 0.00 0.01 0.04 0.07 0.11 0.14 0.15 0.15 0.15 0.18 0.19 0.18 0.18 0.19 0.20 0.20 0.20 0.21 0.21 0.21 0.23 0.22 0.20 0.19 0.18 0.19 0.21 0.21 0.19 0.23 0.23 0.25 0.23 0.17 0.15 0.15 0.13 0.10 0.06 0.05
0.00 0.01 0.01 0.02 0.04 0.06 0.09 0.10 0.10 0.13 0.17 0.16 0.15 0.13 0.11 0.11 0.10 0.09 0.09 0.08 0.08 0.08 0.09 0.10 0.10 0.10 0.09 0.11 0.13 0.13 0.12 0.14 0.19 0.20 0.25 0.24 0.19 0.18 0.18 0.17 0.14 0.11 0.07
0.00 0.01 0.02 0.02 0.02 0.04 0.07 0.14 0.17 0.16 0.13 0.11 0.09 0.08 0.08 0.07 0.06 0.05 0.04 0.03 0.02 0.02 0.03 0.03 0.04 0.04 0.05 0.06 0.07 0.09 0.10 0.09 0.13 0.16 0.19 0.21 0.21 0.21 0.19 0.16 0.17 0.16 0.07

GFSGL_prec_precacc24_057.txt.gz
Total_Precipitation_Accumulation
0.30 0.33 0.25 0.34 0.34 0.42 0.31 0.37 0.28 0.24 0.35 0.37 0.17 0.05 0.03 0.03 0.05 0.10 0.16 0.20 0.22 0.25 0.22 0.14 0.06 0.04 0.03 0.01 0.00 0.00 0.00 0.00 0.00 0.00 0.00 0.00 0.00 0.00 0.00 0.00 0.00 0.00 0.00
0.67 0.85 0.57 0.67 0.55 0.44 0.33 0.24 0.25 0.17 0.12 0.08 0.06 0.09 0.12 0.18 0.26 0.30 0.24 0.21 0.19 0.16 0.11 0.07 0.04 0.02 0.01 0.00 0.00 0.00 0.00 0.00 0.00 0.00 0.00 0.00 0.00 0.00 0.00 0.00 0.00 0.00 0.00
0.67 0.69 0.46 0.50 0.55 0.46 0.37 0.20 0.12 0.12 0.10 0.08 0.08 0.11 0.16 0.17 0.14 0.12 0.13 0.15 0.15 0.10 0.06 0.03 0.01 0.01 0.00 0.00 0.00 0.00 0.00 0.00 0.00 0.00 0.00 0.00 0.00 0.00 0.00 0.00 0.00 0.00 0.00
0.32 0.26 0.17 0.19 0.37 0.18 0.15 0.12 0.08 0.06 0.05 0.05 0.04 0.05 0.05 0.10 0.12 0.13 0.13 0.12 0.07 0.02 0.01 0.01 0.01 0.00 0.00 0.00 0.00 0.01 0.01 0.01 0.01 0.01 0.01 0.00 0.00 0.00 0.00 0.00 0.01 0.00 0.00
0.31 0.28 0.22 0.10 0.09 0.07 0.06 0.06 0.04 0.05 0.03 0.03 0.05 0.11 0.14 0.12 0.11 0.09 0.05 0.02 0.01 0.01 0.00 0.00 0.00 0.00 0.00 0.00 0.00 0.00 0.01 0.02 0.02 0.01 0.00 0.00 0.00 0.00 0.00 0.01 0.01 0.00 0.00
0.07 0.10 0.06 0.03 0.05 0.05 0.05 0.03 0.02 0.03 0.04 0.07 0.17 0.19 0.15 0.12 0.11 0.07 0.04 0.02 0.01 0.00 0.00 0.00 0.00 0.00 0.00 0.00 0.00 0.00 0.00 0.01 0.01 0.01 0.01 0.01 0.00 0.01 0.01 0.02 0.01 0.01 0.01
0.07 0.09 0.04 0.02 0.03 0.02 0.01 0.00 0.01 0.05 0.22 0.31 0.25 0.18 0.11 0.06 0.05 0.02 0.01 0.00 0.00 0.00 0.00 0.00 0.00 0.00 0.00 0.00 0.00 0.00 0.00 0.00 0.00 0.00 0.00 0.00 0.01 0.01 0.03 0.03 0.03 0.04 0.03
0.02 0.02 0.03 0.01 0.01 0.00 0.00 0.02 0.14 0.32 0.33 0.23 0.12 0.04 0.00 0.00 0.00 0.00 0.00 0.00 0.00 0.00 0.00 0.00 0.00 0.00 0.00 0.00 0.00 0.00 0.00 0.00 0.00 0.00 0.00 0.00 0.01 0.01 0.02 0.04 0.06 0.05 0.01
0.00 0.00 0.00 0.00 0.00 0.02 0.15 0.35 0.36 0.21 0.06 0.00 0.00 0.00 0.00 0.00 0.00 0.00 0.00 0.00 0.00 0.00 0.00 0.00 0.00 0.00 0.00 0.00 0.00 0.00 0.00 0.00 0.00 0.00 0.02 0.02 0.02 0.01 0.01 0.04 0.01 0.02 0.01
0.00 0.00 0.01 0.06 0.19 0.30 0.26 0.10 0.01 0.00 0.00 0.00 0.00 0.00 0.00 0.00 0.00 0.00 0.00 0.00 0.00 0.00 0.00 0.00 0.00 0.00 0.00 0.00 0.00 0.00 0.01 0.00 0.01 0.02 0.02 0.02 0.01 0.01 0.01 0.01 0.01 0.03 0.02
0.02 0.06 0.12 0.15 0.11 0.04 0.01 0.00 0.00 0.00 0.00 0.00 0.00 0.00 0.00 0.00 0.00 0.00 0.00 0.00 0.00 0.00 0.00 0.00 0.00 0.00 0.00 0.00 0.01 0.02 0.02 0.01 0.03 0.04 0.04 0.05 0.05 0.06 0.05 0.05 0.06 0.08 0.06
0.01 0.02 0.03 0.01 0.00 0.00 0.00 0.00 0.00 0.00 0.00 0.00 0.00 0.00 0.00 0.00 0.00 0.00 0.00 0.00 0.00 0.00 0.00 0.00 0.01 0.00 0.00 0.00 0.01 0.02 0.02 0.03 0.08 0.08 0.07 0.06 0.06 0.09 0.09 0.07 0.04 0.03 0.02
0.00 0.00 0.00 0.00 0.00 0.00 0.00 0.00 0.00 0.00 0.00 0.00 0.00 0.00 0.00 0.00 0.00 0.00 0.00 0.00 0.00 0.00 0.00 0.00 0.00 0.00 0.01 0.02 0.02 0.01 0.04 0.11 0.13 0.14 0.10 0.05 0.02 0.02 0.03 0.04 0.04 0.01 0.00
0.00 0.00 0.00 0.00 0.00 0.00 0.00 0.00 0.00 0.00 0.00 0.00 0.00 0.00 0.00 0.00 0.00 0.00 0.00 0.00 0.01 0.02 0.02 0.03 0.03 0.04 0.05 0.05 0.05 0.06 0.09 0.08 0.09 0.09 0.07 0.06 0.06 0.08 0.07 0.05 0.06 0.04 0.05
0.00 0.00 0.00 0.00 0.00 0.00 0.00 0.00 0.00 0.00 0.00 0.00 0.00 0.00 0.00 0.00 0.00 0.01 0.01 0.02 0.03 0.04 0.06 0.09 0.08 0.07 0.06 0.06 0.06 0.06 0.09 0.11 0.12 0.09 0.10 0.11 0.13 0.13 0.11 0.09 0.11 0.09 0.07
0.00 0.00 0.00 0.00 0.00 0.00 0.00 0.00 0.00 0.00 0.00 0.00 0.00 0.00 0.00 0.00 0.00 0.00 0.00 0.02 0.04 0.07 0.19 0.15 0.09 0.08 0.08 0.06 0.08 0.09 0.10 0.11 0.10 0.10 0.12 0.12 0.13 0.16 0.17 0.17 0.18 0.13 0.04
0.00 0.00 0.00 0.00 0.00 0.00 0.00 0.00 0.00 0.00 0.00 0.00 0.00 0.00 0.01 0.02 0.02 0.03 0.04 0.06 0.07 0.14 0.23 0.12 0.09 0.08 0.07 0.07 0.10 0.11 0.12 0.10 0.10 0.12 0.12 0.10 0.09 0.09 0.10 0.12 0.07 0.03 0.02
0.00 0.00 0.00 0.00 0.00 0.00 0.00 0.01 0.01 0.01 0.02 0.01 0.00 0.01 0.01 0.01 0.01 0.01 0.01 0.07 0.12 0.10 0.09 0.07 0.07 0.07 0.08 0.08 0.09 0.09 0.08 0.09 0.11 0.08 0.08 0.08 0.10 0.11 0.14 0.10 0.07 0.04 0.03
0.01 0.00 0.00 0.01 0.02 0.03 0.03 0.02 0.03 0.03 0.03 0.01 0.00 0.00 0.00 0.01 0.02 0.03 0.04 0.14 0.13 0.09 0.07 0.08 0.07 0.09 0.13 0.16 0.17 0.19 0.21 0.23 0.25 0.26 0.24 0.25 0.25 0.26 0.24 0.18 0.10 0.04 0.04
0.06 0.08 0.09 0.08 0.06 0.03 0.02 0.02 0.01 0.02 0.02 0.02 0.02 0.01 0.01 0.04 0.06 0.05 0.05 0.10 0.13 0.11 0.09 0.11 0.10 0.12 0.16 0.18 0.20 0.20 0.21 0.21 0.21 0.21 0.19 0.16 0.14 0.13 0.11 0.11 0.10 0.08 0.04
0.20 0.15 0.09 0.05 0.04 0.02 0.01 0.01 0.02 0.02 0.04 0.04 0.03 0.02 0.03 0.08 0.07 0.05 0.04 0.06 0.09 0.10 0.12 0.14 0.13 0.14 0.15 0.16 0.17 0.16 0.15 0.14 0.16 0.19 0.19 0.20 0.20 0.18 0.14 0.13 0.11 0.07 0.05
0.11 0.06 0.04 0.02 0.01 0.01 0.01 0.01 0.03 0.03 0.03 0.03 0.03 0.03 0.03 0.07 0.08 0.10 0.13 0.14 0.16 0.17 0.17 0.18 0.16 0.14 0.14 0.17 0.17 0.19 0.17 0.16 0.14 0.13 0.12 0.12 0.13 0.14 0.12 0.11 0.11 0.09 0.07
0.03 0.02 0.01 0.01 0.00 0.00 0.01 0.01 0.01 0.01 0.05 0.10 0.12 0.12 0.12 0.14 0.16 0.16 0.17 0.16 0.14 0.16 0.17 0.19 0.19 0.18 0.17 0.20 0.24 0.25 0.23 0.16 0.15 0.20 0.21 0.15 0.12 0.11 0.12 0.11 0.11 0.12 0.10
0.01 0.01 0.00 0.00 0.00 0.01 0.01 0.02 0.01 0.04 0.12 0.14 0.16 0.16 0.14 0.15 0.16 0.15 0.13 0.12 0.12 0.14 0.16 0.19 0.19 0.18 0.16 0.16 0.18 0.20 0.21 0.19 0.23 0.24 0.26 0.24 0.18 0.16 0.16 0.14 0.12 0.11 0.11
0.00 0.00 0.00 0.00 0.01 0.01 0.01 0.01 0.02 0.07 0.14 0.14 0.13 0.11 0.10 0.09 0.08 0.08 0.07 0.06 0.05 0.05 0.06 0.07 0.08 0.08 0.09 0.10 0.11 0.11 0.12 0.15 0.19 0.20 0.25 0.24 0.20 0.19 0.20 0.19 0.16 0.15 0.12
0.00 0.00 0.00 0.00 0.00 0.01 0.01 0.02 0.02 0.06 0.07 0.08 0.08 0.08 0.07 0.07 0.05 0.05 0.04 0.03 0.03 0.02 0.02 0.02 0.03 0.02 0.03 0.04 0.06 0.07 0.07 0.08 0.11 0.15 0.20 0.22 0.22 0.22 0.22 0.18 0.19 0.21 0.13

GFSGL_prec_precacc24_060.txt.gz
Total_Precipitation_Accumulation
0.34 0.39 0.26 0.37 0.35 0.58 0.57 0.72 0.57 0.46 0.43 0.49 0.35 0.18 0.08 0.10 0.10 0.11 0.17 0.21 0.22 0.26 0.24 0.18 0.11 0.08 0.05 0.02 0.01 0.01 0.00 0.00 0.00 0.00 0.00 0.00 0.00 0.00 0.00 0.00 0.00 0.00 0.00
0.93 1.08 0.71 0.85 0.70 0.66 0.75 0.72 0.72 0.50 0.19 0.14 0.16 0.13 0.14 0.19 0.27 0.31 0.25 0.22 0.20 0.18 0.14 0.09 0.05 0.03 0.01 0.00 0.00 0.00 0.00 0.00 0.00 0.00 0.00 0.00 0.00 0.00 0.00 0.00 0.00 0.00 0.00
0.98 0.95 0.72 0.74 0.67 0.49 0.54 0.42 0.23 0.19 0.15 0.12 0.12 0.13 0.16 0.17 0.14 0.12 0.14 0.16 0.17 0.13 0.07 0.03 0.01 0.01 0.01 0.00 0.00 0.00 0.00 0.00 0.00 0.00 0.00 0.00 0.00 0.00 0.00 0.00 0.00 0.00 0.00
0.48 0.49 0.36 0.34 0.51 0.26 0.30 0.20 0.12 0.10 0.08 0.09 0.07 0.06 0.05 0.10 0.12 0.13 0.14 0.13 0.07 0.03 0.01 0.01 0.01 0.01 0.00 0.00 0.00 0.01 0.01 0.01 0.01 0.01 0.01 0.00 0.00 0.00 0.00 0.00 0.00 0.00 0.01
0.38 0.38 0.28 0.16 0.18 0.12 0.16 0.15 0.08 0.07 0.04 0.04 0.07 0.12 0.15 0.13 0.12 0.10 0.06 0.03 0.02 0.01 0.00 0.00 0.00 0.00 0.00 0.00 0.00 0.01 0.01 0.02 0.02 0.01 0.00 0.00 0.00 0.00 0.00 0.01 0.01 0.00 0.00
0.11 0.15 0.10 0.08 0.11 0.11 0.10 0.07 0.06 0.06 0.06 0.09 0.19 0.21 0.16 0.13 0.13 0.08 0.04 0.02 0.01 0.00 0.00 0.00 0.00 0.00 0.00 0.00 0.00 0.00 0.01 0.01 0.01 0.01 0.01 0.01 0.00 0.00 0.01 0.02 0.02 0.02 0.02
0.09 0.11 0.06 0.04 0.06 0.06 0.05 0.04 0.03 0.06 0.23 0.33 0.26 0.19 0.12 0.06 0.05 0.02 0.01 0.00 0.00 0.00 0.00 0.00 0.00 0.00 0.00 0.00 0.00 0.00 0.00 0.00 0.00 0.00 0.00 0.00 0.01 0.01 0.03 0.03 0.04 0.05 0.04
0.03 0.03 0.04 0.02 0.03 0.04 0.04 0.03 0.15 0.32 0.33 0.23 0.12 0.04 0.00 0.00 0.00 0.00 0.00 0.00 0.00 0.00 0.00 0.00 0.00 0.00 0.00 0.00 0.00 0.00 0.00 0.00 0.00 0.00 0.00 0.00 0.01 0.01 0.02 0.04 0.06 0.05 0.02
0.01 0.01 0.01 0.00 0.02 0.03 0.14 0.33 0.35 0.21 0.06 0.00 0.00 0.00 0.00 0.00 0.00 0.00 0.00 0.00 0.00 0.00 0.00 0.00 0.00 0.00 0.00 0.00 0.00 0.00 0.00 0.00 0.00 0.00 0.02 0.02 0.02 0.01 0.01 0.03 0.02 0.04 0.03
0.01 0.01 0.01 0.05 0.15 0.25 0.24 0.10 0.01 0.00 0.00 0.00 0.00 0.00 0.00 0.00 0.00 0.00 0.00 0.00 0.00 0.00 0.00 0.00 0.00 0.00 0.00 0.00 0.00 0.00 0.01 0.00 0.01 0.02 0.02 0.02 0.01 0.01 0.01 0.01 0.01 0.05 0.05
0.02 0.04 0.06 0.09 0.07 0.03 0.01 0.00 0.00 0.00 0.00 0.00 0.00 0.00 0.00 0.00 0.00 0.00 0.00 0.00 0.00 0.00 0.00 0.00 0.00 0.00 0.00 0.00 0.01 0.02 0.02 0.01 0.03 0.04 0.04 0.05 0.05 0.06 0.05 0.05 0.06 0.11 0.17
0.01 0.00 0.01 0.01 0.00 0.00 0.00 0.00 0.00 0.00 0.00 0.00 0.00 0.00 0.00 0.00 0.00 0.00 0.00 0.00 0.00 0.00 0.00 0.00 0.01 0.00 0.00 0.00 0.01 0.02 0.02 0.03 0.08 0.08 0.07 0.06 0.06 0.09 0.09 0.07 0.05 0.04 0.05
0.00 0.00 0.00 0.00 0.00 0.00 0.00 0.00 0.00 0.00 0.00 0.00 0.00 0.00 0.00 0.00 0.00 0.00 0.00 0.00 0.00 0.00 0.00 0.00 0.00 0.00 0.01 0.02 0.02 0.01 0.04 0.11 0.13 0.14 0.10 0.05 0.02 0.02 0.03 0.04 0.04 0.02 0.01
0.00 0.00 0.00 0.00 0.00 0.00 0.00 0.00 0.00 0.00 0.00 0.00 0.00 0.00 0.00 0.00 0.00 0.00 0.00 0.00 0.00 0.01 0.02 0.03 0.03 0.04 0.05 0.05 0.05 0.06 0.09 0.08 0.09 0.09 0.07 0.06 0.06 0.08 0.07 0.05 0.06 0.06 0.09
0.00 0.00 0.00 0.00 0.00 0.00 0.00 0.00 0.00 0.00 0.00 0.00 0.00 0.00 0.00 0.00 0.00 0.00 0.00 0.01 0.02 0.03 0.06 0.09 0.07 0.07 0.06 0.06 0.06 0.06 0.09 0.11 0.12 0.09 0.10 0.11 0.13 0.13 0.11 0.09 0.12 0.12 0.12
0.00 0.00 0.00 0.00 0.00 0.00 0.00 0.00 0.00 0.00 0.00 0.00 0.00 0.00 0.00 0.00 0.00 0.00 0.00 0.02 0.04 0.06 0.17 0.14 0.09 0.08 0.08 0.06 0.08 0.09 0.10 0.11 0.10 0.10 0.12 0.12 0.14 0.16 0.17 0.18 0.23 0.23 0.18
0.00 0.00 0.00 0.00 0.00 0.00 0.00 0.00 0.00 0.01 0.00 0.00 0.00 0.00 0.01 0.02 0.02 0.03 0.04 0.05 0.05 0.09 0.19 0.12 0.09 0.08 0.07 0.07 0.10 0.11 0.12 0.10 0.10 0.13 0.12 0.10 0.09 0.10 0.10 0.12 0.10 0.07 0.06
0.00 0.00 0.00 0.00 0.00 0.00 0.00 0.01 0.02 0.03 0.04 0.04 0.01 0.01 0.01 0.01 0.01 0.01 0.01 0.04 0.06 0.05 0.08 0.07 0.07 0.07 0.08 0.08 0.09 0.09 0.08 0.09 0.11 0.09 0.08 0.08 0.10 0.13 0.15 0.12 0.11 0.11 0.09
0.01 0.01 0.02 0.03 0.04 0.05 0.07 0.08 0.08 0.07 0.05 0.03 0.01 0.00 0.00 0.01 0.02 0.03 0.04 0.09 0.09 0.07 0.06 0.08 0.07 0.09 0.13 0.16 0.17 0.19 0.22 0.23 0.25 0.26 0.24 0.25 0.26 0.29 0.28 0.26 0.24 0.19 0.15
0.13 0.15 0.16 0.18 0.18 0.17 0.14 0.09 0.05 0.04 0.02 0.01 0.01 0.00 0.01 0.04 0.06 0.05 0.05 0.08 0.10 0.09 0.08 0.09 0.10 0.12 0.16 0.18 0.20 0.20 0.21 0.20 0.21 0.21 0.19 0.16 0.14 0.15 0.14 0.14 0.14 0.14 0.09
0.30 0.26 0.20 0.17 0.14 0.11 0.08 0.05 0.03 0.02 0.02 0.01 0.01 0.01 0.03 0.07 0.06 0.04 0.04 0.06 0.08 0.08 0.10 0.12 0.13 0.14 0.15 0.15 0.17 0.16 0.15 0.14 0.16 0.19 0.19 0.20 0.20 0.19 0.16 0.16 0.14 0.10 0.08
0.18 0.14 0.11 0.08 0.07 0.06 0.03 0.02 0.02 0.02 0.01 0.01 0.01 0.01 0.01 0.05 0.08 0.10 0.13 0.14 0.16 0.16 0.14 0.14 0.14 0.14 0.14 0.16 0.17 0.19 0.17 0.16 0.14 0.13 0.12 0.12 0.13 0.14 0.14 0.14 0.14 0.12 0.08
0.07 0.06 0.05 0.04 0.04 0.02 0.01 0.01 0.01 0.01 0.01 0.02 0.03 0.07 0.11 0.13 0.14 0.14 0.15 0.14 0.12 0.10 0.10 0.12 0.14 0.16 0.17 0.20 0.23 0.25 0.23 0.16 0.15 0.21 0.21 0.15 0.12 0.12 0.13 0.13 0.13 0.14 0.12
0.05 0.03 0.02 0.02 0.01 0.01 0.01 0.01 0.01 0.01 0.02 0.03 0.04 0.09 0.10 0.10 0.12 0.13 0.12 0.11 0.10 0.09 0.08 0.08 0.09 0.11 0.14 0.15 0.17 0.20 0.21 0.19 0.23 0.24 0.27 0.24 0.18 0.16 0.16 0.15 0.13 0.13 0.12
0.02 0.01 0.01 0.01 0.01 0.01 0.01 0.01 0.01 0.01 0.01 0.02 0.03 0.05 0.06 0.07 0.07 0.07 0.07 0.06 0.05 0.05 0.05 0.05 0.06 0.05 0.06 0.07 0.09 0.11 0.12 0.15 0.18 0.19 0.25 0.25 0.20 0.19 0.20 0.20 0.17 0.17 0.14
0.01 0.00 0.00 0.00 0.00 0.01 0.01 0.01 0.01 0.01 0.01 0.01 0.01 0.02 0.02 0.03 0.04 0.04 0.04 0.03 0.03 0.02 0.02 0.02 0.03 0.02 0.02 0.03 0.04 0.06 0.06 0.07 0.10 0.14 0.19 0.21 0.22 0.23 0.23 0.20 0.20 0.24 0.15

GFSGL_prec_precacc24_063.txt.gz
Total_Precipitation_Accumulation
0.46 0.41 0.26 0.36 0.35 0.57 0.60 0.75 0.59 0.55 0.63 0.64 0.41 0.26 0.20 0.31 0.27 0.18 0.22 0.22 0.23 0.26 0.25 0.18 0.12 0.08 0.05 0.03 0.01 0.01 0.01 0.00 0.00 0.00 0.00 0.00 0.00 0.00 0.00 0.00 0.00 0.00 0.00
1.15 1.23 0.75 0.88 0.77 0.73 0.80 0.77 0.81 0.78 0.72 0.53 0.30 0.19 0.20 0.24 0.31 0.34 0.26 0.22 0.20 0.18 0.15 0.10 0.06 0.03 0.02 0.01 0.01 0.01 0.00 0.00 0.00 0.00 0.00 0.00 0.00 0.00 0.00 0.00 0.00 0.00 0.00
1.13 1.03 0.81 0.97 1.09 0.71 0.62 0.48 0.31 0.32 0.35 0.23 0.22 0.20 0.25 0.21 0.18 0.14 0.14 0.17 0.18 0.14 0.08 0.04 0.03 0.02 0.02 0.01 0.00 0.00 0.00 0.00 0.00 0.00 0.00 0.00 0.00 0.00 0.00 0.00 0.00 0.00 0.00
0.53 0.56 0.44 0.42 0.57 0.27 0.31 0.25 0.19 0.13 0.12 0.13 0.09 0.09 0.10 0.14 0.14 0.13 0.15 0.13 0.07 0.03 0.01 0.01 0.01 0.01 0.00 0.00 0.00 0.01 0.01 0.01 0.01 0.01 0.01 0.00 0.00 0.00 0.00 0.00 0.00 0.00 0.01
0.37 0.39 0.28 0.18 0.21 0.12 0.17 0.17 0.11 0.10 0.10 0.10 0.10 0.15 0.18 0.16 0.13 0.11 0.06 0.04 0.02 0.01 0.00 0.01 0.00 0.00 0.00 0.00 0.00 0.01 0.01 0.02 0.02 0.01 0.00 0.00 0.00 0.00 0.00 0.01 0.01 0.00 0.00
0.10 0.13 0.09 0.09 0.13 0.12 0.11 0.08 0.07 0.09 0.12 0.12 0.21 0.24 0.20 0.16 0.16 0.10 0.05 0.02 0.01 0.00 0.00 0.00 0.00 0.00 0.00 0.00 0.00 0.00 0.01 0.01 0.01 0.01 0.01 0.01 0.00 0.00 0.01 0.02 0.02 0.03 0.02
0.08 0.10 0.05 0.04 0.09 0.09 0.07 0.06 0.06 0.09 0.22 0.31 0.27 0.22 0.15 0.08 0.08 0.03 0.02 0.00 0.00 0.00 0.00 0.00 0.00 0.00 0.00 0.00 0.00 0.00 0.00 0.00 0.00 0.00 0.00 0.00 0.01 0.01 0.03 0.03 0.04 0.05 0.03
0.03 0.04 0.06 0.05 0.07 0.08 0.06 0.05 0.11 0.23 0.30 0.24 0.15 0.06 0.02 0.01 0.01 0.00 0.00 0.00 0.00 0.00 0.00 0.00 0.00 0.00 0.00 0.00 0.00 0.00 0.00 0.00 0.00 0.00 0.00 0.00 0.01 0.01 0.02 0.04 0.04 0.03 0.02
0.02 0.03 0.04 0.03 0.06 0.06 0.09 0.22 0.32 0.23 0.08 0.02 0.02 0.01 0.00 0.00 0.00 0.00 0.00 0.00 0.00 0.00 0.00 0.00 0.00 0.00 0.00 0.00 0.00 0.00 0.00 0.00 0.00 0.00 0.02 0.02 0.02 0.01 0.01 0.03 0.02 0.04 0.03
0.03 0.03 0.02 0.03 0.08 0.14 0.19 0.12 0.03 0.01 0.01 0.01 0.00 0.00 0.00 0.00 0.00 0.00 0.00 0.00 0.00 0.00 0.00 0.00 0.00 0.00 0.00 0.00 0.00 0.00 0.01 0.00 0.01 0.02 0.02 0.02 0.01 0.01 0.01 0.01 0.01 0.06 0.06
0.01 0.01 0.02 0.04 0.04 0.02 0.02 0.01 0.01 0.00 0.00 0.00 0.00 0.00 0.00 0.00 0.00 0.00 0.00 0.00 0.00 0.00 0.00 0.00 0.00 0.00 0.00 0.00 0.01 0.02 0.02 0.01 0.03 0.04 0.04 0.05 0.05 0.06 0.05 0.05 0.06 0.12 0.19
0.02 0.01 0.01 0.00 0.00 0.01 0.00 0.00 0.00 0.00 0.00 0.00 0.00 0.00 0.00 0.00 0.00 0.00 0.00 0.00 0.00 0.00 0.00 0.00 0.01 0.00 0.00 0.00 0.01 0.02 0.02 0.03 0.08 0.08 0.07 0.06 0.06 0.09 0.09 0.07 0.05 0.04 0.06
0.00 0.00 0.00 0.00 0.00 0.00 0.00 0.00 0.00 0.00 0.00 0.00 0.00 0.00 0.00 0.00 0.00 0.00 0.00 0.00 0.00 0.00 0.00 0.00 0.00 0.00 0.01 0.02 0.02 0.01 0.04 0.11 0.13 0.14 0.10 0.05 0.02 0.02 0.03 0.04 0.04 0.02 0.01
0.00 0.00 0.00 0.00 0.00 0.00 0.00 0.00 0.00 0.00 0.00 0.00 0.00 0.00 0.00 0.00 0.00 0.00 0.00 0.00 0.00 0.01 0.01 0.02 0.01 0.02 0.05 0.05 0.05 0.06 0.09 0.08 0.09 0.09 0.07 0.06 0.06 0.08 0.07 0.05 0.06 0.06 0.09
0.00 0.00 0.00 0.00 0.00 0.00 0.00 0.00 0.00 0.00 0.00 0.00 0.00 0.00 0.00 0.00 0.00 0.00 0.00 0.01 0.02 0.03 0.04 0.06 0.05 0.06 0.06 0.06 0.06 0.06 0.09 0.11 0.12 0.09 0.10 0.11 0.13 0.13 0.11 0.09 0.12 0.12 0.13
0.00 0.00 0.00 0.00 0.00 0.00 0.00 0.00 0.00 0.00 0.00 0.00 0.00 0.00 0.00 0.00 0.00 0.00 0.01 0.02 0.04 0.05 0.12 0.10 0.08 0.08 0.08 0.06 0.08 0.09 0.10 0.11 0.10 0.10 0.12 0.12 0.14 0.16 0.17 0.18 0.23 0.23 0.19
0.00 0.00 0.00 0.00 0.00 0.00 0.00 0.00 0.00 0.01 0.01 0.00 0.00 0.00 0.02 0.02 0.01 0.02 0.04 0.05 0.05 0.07 0.14 0.11 0.09 0.07 0.06 0.07 0.10 0.11 0.12 0.10 0.10 0.13 0.12 0.10 0.09 0.10 0.10 0.12 0.10 0.07 0.06
0.01 0.01 0.00 0.00 0.01 0.02 0.02 0.03 0.03 0.04 0.06 0.07 0.06 0.04 0.03 0.03 0.01 0.00 0.01 0.03 0.05 0.04 0.06 0.06 0.07 0.07 0.06 0.07 0.09 0.09 0.08 0.09 0.11 0.09 0.08 0.08 0.11 0.13 0.15 0.12 0.11 0.11 0.11
0.07 0.10 0.10 0.10 0.10 0.10 0.11 0.13 0.13 0.12 0.10 0.09 0.08 0.06 0.04 0.04 0.02 0.01 0.02 0.09 0.08 0.07 0.06 0.07 0.06 0.08 0.12 0.14 0.17 0.19 0.22 0.23 0.25 0.26 0.24 0.25 0.26 0.29 0.28 0.26 0.25 0.20 0.20
0.26 0.25 0.23 0.23 0.22 0.20 0.18 0.14 0.10 0.09 0.06 0.04 0.04 0.03 0.03 0.02 0.01 0.01 0.03 0.08 0.10 0.09 0.08 0.08 0.08 0.10 0.13 0.17 0.19 0.20 0.21 0.20 0.21 0.21 0.19 0.16 0.14 0.15 0.15 0.14 0.15 0.16 0.13
0.37 0.32 0.26 0.21 0.18 0.15 0.11 0.07 0.06 0.05 0.04 0.03 0.03 0.02 0.02 0.02 0.03 0.03 0.04 0.06 0.08 0.08 0.10 0.11 0.11 0.11 0.13 0.14 0.16 0.16 0.15 0.14 0.16 0.19 0.19 0.20 0.20 0.19 0.16 0.16 0.14 0.12 0.11
0.22 0.17 0.14 0.11 0.10 0.08 0.06 0.04 0.05 0.04 0.03 0.02 0.02 0.01 0.01 0.02 0.04 0.08 0.12 0.14 0.14 0.14 0.13 0.10 0.09 0.10 0.11 0.14 0.14 0.16 0.16 0.15 0.14 0.13 0.12 0.12 0.13 0.14 0.14 0.14 0.14 0.13 0.11
0.10 0.09 0.08 0.07 0.06 0.05 0.03 0.03 0.02 0.02 0.03 0.03 0.03 0.03 0.04 0.04 0.05 0.07 0.09 0.09 0.10 0.09 0.10 0.09 0.10 0.10 0.11 0.15 0.19 0.22 0.21 0.16 0.15 0.20 0.21 0.15 0.12 0.12 0.13 0.13 0.14 0.15 0.14
0.06 0.05 0.04 0.03 0.02 0.02 0.03 0.03 0.03 0.03 0.03 0.03 0.02 0.02 0.02 0.02 0.03 0.04 0.05 0.06 0.08 0.09 0.08 0.08 0.07 0.07 0.08 0.10 0.12 0.15 0.17 0.18 0.22 0.23 0.26 0.23 0.17 0.15 0.17 0.15 0.14 0.14 0.14
0.03 0.02 0.02 0.02 0.02 0.02 0.02 0.02 0.01 0.01 0.01 0.01 0.01 0.01 0.00 0.01 0.01 0.01 0.03 0.04 0.04 0.05 0.05 0.05 0.06 0.05 0.05 0.06 0.07 0.09 0.10 0.14 0.17 0.19 0.23 0.22 0.19 0.19 0.21 0.20 0.17 0.17 0.15
0.01 0.01 0.00 0.01 0.00 0.01 0.01 0.01 0.01 0.00 0.01 0.01 0.01 0.01 0.01 0.01 0.00 0.00 0.01 0.01 0.02 0.02 0.02 0.02 0.03 0.02 0.02 0.03 0.04 0.06 0.05 0.06 0.08 0.13 0.19 0.19 0.19 0.20 0.22 0.20 0.21 0.24 0.16

GFSGL_prec_precacc24_066.txt.gz
Total_Precipitation_Accumulation
0.54 0.44 0.21 0.29 0.27 0.48 0.53 0.71 0.58 0.54 0.63 0.67 0.47 0.36 0.29 0.42 0.41 0.28 0.28 0.29 0.29 0.31 0.27 0.20 0.14 0.09 0.06 0.03 0.02 0.01 0.01 0.00 0.01 0.00 0.00 0.00 0.00 0.00 0.00 0.00 0.00 0.00 0.00
1.19 1.24 0.68 0.79 0.70 0.70 0.78 0.76 0.80 0.79 0.73 0.57 0.38 0.29 0.28 0.31 0.45 0.51 0.37 0.29 0.24 0.21 0.18 0.12 0.07 0.05 0.03 0.02 0.02 0.02 0.01 0.00 0.00 0.00 0.00 0.00 0.00 0.00 0.00 0.00 0.00 0.00 0.00
1.06 1.04 0.80 0.95 1.09 0.91 0.78 0.54 0.33 0.32 0.35 0.31 0.33 0.29 0.29 0.25 0.20 0.19 0.19 0.20 0.19 0.15 0.09 0.05 0.04 0.03 0.02 0.01 0.01 0.01 0.00 0.00 0.00 0.00 0.00 0.00 0.00 0.00 0.00 0.00 0.00 0.00 0.00
0.45 0.50 0.43 0.43 0.60 0.29 0.31 0.25 0.19 0.13 0.14 0.18 0.14 0.14 0.13 0.15 0.16 0.16 0.18 0.14 0.08 0.03 0.01 0.01 0.02 0.01 0.00 0.00 0.01 0.01 0.01 0.01 0.01 0.01 0.01 0.00 0.00 0.00 0.00 0.00 0.00 0.00 0.01
0.33 0.35 0.27 0.22 0.24 0.16 0.19 0.18 0.12 0.10 0.12 0.15 0.13 0.12 0.15 0.16 0.18 0.16 0.09 0.05 0.03 0.02 0.01 0.01 0.01 0.02 0.01 0.00 0.00 0.01 0.01 0.02 0.02 0.01 0.00 0.00 0.00 0.00 0.00 0.01 0.01 0.00 0.00
0.09 0.13 0.09 0.10 0.15 0.14 0.16 0.14 0.13 0.14 0.20 0.20 0.25 0.27 0.22 0.21 0.27 0.17 0.09 0.04 0.02 0.02 0.01 0.00 0.01 0.01 0.01 0.01 0.01 0.01 0.01 0.01 0.01 0.01 0.01 0.01 0.00 0.00 0.01 0.02 0.02 0.02 0.02
0.07 0.09 0.04 0.04 0.12 0.12 0.11 0.13 0.14 0.15 0.21 0.28 0.32 0.30 0.21 0.14 0.17 0.09 0.06 0.02 0.02 0.02 0.01 0.00 0.00 0.00 0.01 0.00 0.00 0.00 0.00 0.00 0.00 0.00 0.00 0.00 0.01 0.01 0.03 0.03 0.04 0.04 0.02
0.03 0.04 0.06 0.05 0.10 0.12 0.12 0.11 0.15 0.20 0.29 0.31 0.23 0.12 0.09 0.08 0.10 0.06 0.04 0.01 0.02 0.01 0.01 0.00 0.00 0.00 0.00 0.00 0.00 0.00 0.00 0.00 0.00 0.00 0.00 0.00 0.01 0.01 0.02 0.04 0.04 0.03 0.02
0.02 0.03 0.04 0.04 0.07 0.07 0.08 0.12 0.17 0.17 0.09 0.05 0.05 0.05 0.05 0.05 0.05 0.02 0.01 0.00 0.00 0.00 0.00 0.00 0.00 0.00 0.00 0.00 0.00 0.00 0.00 0.00 0.00 0.00 0.02 0.02 0.02 0.01 0.01 0.03 0.02 0.04 0.03
0.03 0.04 0.02 0.03 0.05 0.05 0.07 0.08 0.05 0.03 0.03 0.03 0.03 0.02 0.04 0.02 0.03 0.01 0.00 0.00 0.00 0.00 0.00 0.00 0.00 0.00 0.00 0.00 0.00 0.00 0.01 0.00 0.01 0.02 0.02 0.02 0.01 0.01 0.01 0.01 0.01 0.06 0.06
0.01 0.02 0.02 0.02 0.02 0.01 0.02 0.03 0.02 0.02 0.03 0.03 0.02 0.02 0.02 0.01 0.01 0.00 0.00 0.00 0.00 0.00 0.00 0.00 0.00 0.00 0.00 0.00 0.01 0.02 0.02 0.01 0.03 0.04 0.04 0.05 0.05 0.06 0.05 0.05 0.06 0.12 0.20
0.04 0.03 0.02 0.01 0.01 0.01 0.01 0.01 0.02 0.02 0.02 0.02 0.02 0.02 0.01 0.00 0.00 0.00 0.00 0.00 0.00 0.00 0.00 0.00 0.01 0.00 0.00 0.00 0.01 0.02 0.02 0.03 0.08 0.08 0.07 0.06 0.06 0.09 0.09 0.07 0.05 0.04 0.06
0.02 0.01 0.01 0.01 0.02 0.03 0.04 0.05 0.04 0.04 0.03 0.03 0.01 0.00 0.00 0.00 0.00 0.00 0.00 0.00 0.00 0.00 0.00 0.00 0.00 0.00 0.01 0.02 0.01 0.01 0.04 0.11 0.13 0.14 0.10 0.05 0.02 0.02 0.03 0.04 0.04 0.02 0.01
0.01 0.00 0.00 0.01 0.02 0.02 0.02 0.02 0.02 0.02 0.01 0.00 0.00 0.00 0.00 0.00 0.00 0.00 0.00 0.00 0.00 0.01 0.01 0.02 0.01 0.01 0.01 0.02 0.03 0.04 0.09 0.08 0.09 0.09 0.07 0.06 0.06 0.08 0.07 0.05 0.06 0.06 0.09
0.00 0.00 0.00 0.00 0.01 0.00 0.00 0.01 0.00 0.00 0.00 0.00 0.00 0.00 0.00 0.00 0.00 0.00 0.00 0.01 0.02 0.03 0.04 0.05 0.04 0.04 0.03 0.03 0.04 0.05 0.08 0.11 0.12 0.09 0.10 0.11 0.13 0.13 0.11 0.09 0.12 0.12 0.14
0.00 0.00 0.00 0.00 0.00 0.00 0.00 0.00 0.00 0.00 0.00 0.00 0.00 0.00 0.01 0.01 0.01 0.01 0.01 0.01 0.01 0.02 0.09 0.09 0.07 0.07 0.07 0.05 0.06 0.07 0.08 0.10 0.10 0.10 0.12 0.12 0.14 0.16 0.17 0.18 0.23 0.23 0.20
0.00 0.00 0.00 0.00 0.01 0.00 0.00 0.00 0.02 0.05 0.07 0.07 0.08 0.06 0.05 0.04 0.02 0.00 0.00 0.00 0.00 0.01 0.07 0.10 0.08 0.07 0.06 0.05 0.07 0.09 0.09 0.09 0.10 0.13 0.12 0.10 0.09 0.10 0.11 0.12 0.10 0.08 0.07
0.05 0.08 0.09 0.10 0.10 0.10 0.11 0.13 0.14 0.14 0.15 0.15 0.11 0.06 0.05 0.05 0.03 0.02 0.01 0.01 0.01 0.01 0.03 0.05 0.06 0.07 0.06 0.06 0.06 0.06 0.07 0.09 0.11 0.09 0.08 0.08 0.11 0.13 0.15 0.12 0.11 0.12 0.11
0.11 0.17 0.20 0.23 0.25 0.24 0.24 0.23 0.21 0.19 0.17 0.17 0.16 0.14 0.11 0.09 0.06 0.05 0.04 0.05 0.05 0.04 0.04 0.07 0.07 0.09 0.12 0.14 0.14 0.16 0.20 0.23 0.25 0.26 0.24 0.25 0.26 0.29 0.28 0.26 0.25 0.20 0.20
0.39 0.39 0.36 0.34 0.32 0.28 0.24 0.20 0.16 0.14 0.12 0.10 0.09 0.08 0.07 0.05 0.05 0.05 0.04 0.04 0.05 0.06 0.07 0.10 0.11 0.12 0.15 0.16 0.17 0.18 0.20 0.20 0.21 0.22 0.19 0.16 0.14 0.15 0.15 0.14 0.15 0.16 0.13
0.46 0.40 0.32 0.27 0.23 0.19 0.16 0.12 0.10 0.09 0.08 0.07 0.07 0.06 0.04 0.03 0.03 0.03 0.03 0.04 0.06 0.06 0.08 0.10 0.11 0.12 0.12 0.12 0.12 0.12 0.13 0.14 0.16 0.19 0.19 0.20 0.20 0.18 0.16 0.16 0.14 0.12 0.11
0.26 0.21 0.18 0.15 0.13 0.11 0.09 0.07 0.06 0.05 0.04 0.04 0.04 0.03 0.03 0.03 0.04 0.04 0.04 0.04 0.05 0.06 0.07 0.07 0.08 0.09 0.09 0.10 0.10 0.11 0.12 0.14 0.13 0.13 0.12 0.12 0.13 0.14 0.13 0.14 0.14 0.13 0.11
0.12 0.11 0.10 0.09 0.08 0.06 0.04 0.04 0.03 0.03 0.04 0.04 0.04 0.04 0.04 0.04 0.03 0.03 0.02 0.02 0.02 0.03 0.05 0.07 0.08 0.08 0.08 0.09 0.10 0.14 0.16 0.13 0.13 0.17 0.19 0.15 0.12 0.12 0.12 0.13 0.14 0.15 0.15
0.08 0.06 0.05 0.05 0.04 0.04 0.04 0.04 0.04 0.03 0.04 0.04 0.03 0.03 0.02 0.01 0.01 0.01 0.01 0.01 0.01 0.01 0.03 0.04 0.05 0.06 0.06 0.07 0.07 0.08 0.10 0.13 0.16 0.18 0.22 0.20 0.16 0.14 0.16 0.15 0.14 0.15 0.14
0.04 0.03 0.03 0.02 0.02 0.02 0.02 0.02 0.02 0.01 0.01 0.01 0.01 0.01 0.01 0.01 0.00 0.00 0.01 0.01 0.00 0.01 0.01 0.02 0.04 0.05 0.04 0.05 0.05 0.05 0.06 0.09 0.12 0.15 0.19 0.19 0.17 0.17 0.19 0.20 0.17 0.18 0.15
0.01 0.01 0.00 0.01 0.00 0.01 0.01 0.01 0.01 0.00 0.01 0.01 0.01 0.01 0.01 0.01 0.00 0.00 0.01 0.00 0.01 0.00 0.00 0.01 0.02 0.02 0.02 0.03 0.03 0.04 0.04 0.05 0.06 0.09 0.17 0.17 0.18 0.18 0.20 0.19 0.20 0.25 0.17

GFSGL_prec_precacc24_069.txt.gz
Total_Precipitation_Accumulation
0.58 0.45 0.20 0.25 0.19 0.36 0.41 0.62 0.53 0.52 0.62 0.67 0.47 0.35 0.29 0.42 0.46 0.33 0.31 0.31 0.31 0.34 0.31 0.23 0.16 0.12 0.07 0.04 0.02 0.01 0.01 0.00 0.01 0.00 0.00 0.00 0.00 0.00 0.00 0.00 0.00 0.00 0.00
1.20 1.25 0.66 0.70 0.58 0.59 0.68 0.69 0.77 0.77 0.71 0.56 0.37 0.29 0.30 0.33 0.51 0.65 0.57 0.50 0.47 0.41 0.32 0.19 0.11 0.07 0.05 0.03 0.02 0.03 0.02 0.01 0.01 0.00 0.00 0.00 0.00 0.00 0.00 0.00 0.00 0.00 0.00
1.02 1.01 0.78 0.92 1.04 0.83 0.70 0.49 0.30 0.31 0.35 0.31 0.32 0.28 0.29 0.29 0.30 0.30 0.31 0.33 0.32 0.27 0.18 0.10 0.06 0.05 0.04 0.03 0.03 0.03 0.01 0.00 0.00 0.00 0.00 0.00 0.00 0.00 0.00 0.00 0.00 0.00 0.00
0.41 0.47 0.39 0.37 0.53 0.25 0.28 0.23 0.18 0.13 0.14 0.17 0.13 0.13 0.13 0.14 0.17 0.22 0.26 0.25 0.16 0.09 0.05 0.04 0.04 0.04 0.03 0.03 0.02 0.02 0.01 0.01 0.01 0.01 0.01 0.00 0.00 0.00 0.00 0.00 0.00 0.00 0.01
0.31 0.32 0.24 0.20 0.23 0.15 0.19 0.19 0.12 0.10 0.11 0.15 0.12 0.10 0.11 0.13 0.16 0.18 0.15 0.08 0.05 0.06 0.04 0.03 0.02 0.05 0.04 0.02 0.01 0.01 0.01 0.02 0.02 0.01 0.00 0.00 0.00 0.00 0.00 0.01 0.01 0.00 0.00
0.09 0.12 0.09 0.10 0.15 0.14 0.16 0.15 0.13 0.14 0.19 0.20 0.20 0.18 0.15 0.17 0.30 0.23 0.13 0.06 0.03 0.03 0.03 0.01 0.03 0.04 0.02 0.02 0.01 0.01 0.01 0.01 0.01 0.01 0.01 0.01 0.00 0.00 0.01 0.02 0.02 0.02 0.02
0.07 0.09 0.04 0.04 0.12 0.12 0.11 0.13 0.14 0.15 0.21 0.22 0.21 0.23 0.17 0.14 0.24 0.20 0.14 0.04 0.03 0.03 0.02 0.02 0.02 0.03 0.04 0.00 0.01 0.00 0.00 0.00 0.00 0.00 0.00 0.00 0.01 0.01 0.03 0.03 0.04 0.04 0.02
0.03 0.04 0.06 0.05 0.10 0.12 0.12 0.10 0.13 0.14 0.15 0.17 0.16 0.13 0.13 0.14 0.17 0.10 0.09 0.02 0.03 0.03 0.02 0.02 0.02 0.01 0.01 0.00 0.00 0.00 0.00 0.00 0.00 0.00 0.00 0.00 0.01 0.01 0.02 0.04 0.04 0.03 0.02
0.02 0.03 0.04 0.04 0.07 0.07 0.07 0.08 0.09 0.10 0.09 0.07 0.07 0.07 0.07 0.08 0.10 0.04 0.03 0.00 0.02 0.03 0.03 0.03 0.01 0.00 0.01 0.01 0.00 0.00 0.00 0.00 0.00 0.00 0.02 0.02 0.02 0.01 0.01 0.03 0.02 0.04 0.03
0.03 0.04 0.02 0.03 0.05 0.04 0.04 0.06 0.05 0.05 0.06 0.05 0.05 0.05 0.08 0.05 0.08 0.04 0.02 0.01 0.03 0.04 0.04 0.03 0.01 0.00 0.00 0.00 0.00 0.00 0.01 0.00 0.01 0.02 0.02 0.02 0.01 0.01 0.01 0.01 0.01 0.06 0.06
0.01 0.02 0.03 0.03 0.04 0.02 0.03 0.05 0.04 0.04 0.05 0.04 0.05 0.04 0.04 0.05 0.06 0.05 0.03 0.01 0.01 0.02 0.01 0.00 0.00 0.00 0.00 0.00 0.00 0.01 0.02 0.01 0.03 0.04 0.04 0.05 0.05 0.06 0.05 0.05 0.06 0.12 0.20
0.04 0.05 0.07 0.08 0.07 0.06 0.03 0.03 0.02 0.02 0.03 0.04 0.05 0.05 0.04 0.05 0.09 0.07 0.05 0.05 0.03 0.01 0.01 0.00 0.01 0.00 0.00 0.00 0.01 0.01 0.02 0.03 0.08 0.08 0.07 0.06 0.06 0.09 0.09 0.07 0.05 0.04 0.06
0.05 0.05 0.06 0.05 0.06 0.07 0.08 0.07 0.05 0.07 0.07 0.08 0.07 0.06 0.05 0.04 0.06 0.06 0.04 0.02 0.00 0.00 0.00 0.00 0.00 0.00 0.01 0.02 0.01 0.00 0.02 0.08 0.12 0.14 0.10 0.05 0.02 0.02 0.03 0.04 0.04 0.02 0.01
0.05 0.03 0.03 0.03 0.03 0.02 0.03 0.04 0.04 0.04 0.05 0.07 0.09 0.09 0.09 0.09 0.07 0.02 0.00 0.00 0.00 0.00 0.00 0.01 0.01 0.01 0.01 0.01 0.01 0.02 0.03 0.05 0.07 0.08 0.07 0.06 0.06 0.08 0.07 0.05 0.06 0.06 0.09
0.01 0.00 0.00 0.00 0.01 0.00 0.00 0.02 0.02 0.04 0.06 0.05 0.05 0.06 0.06 0.03 0.01 0.00 0.00 0.01 0.01 0.02 0.02 0.02 0.02 0.03 0.03 0.03 0.03 0.03 0.05 0.07 0.09 0.09 0.10 0.11 0.13 0.13 0.11 0.09 0.12 0.12 0.14
0.00 0.00 0.00 0.00 0.00 0.00 0.00 0.02 0.02 0.01 0.02 0.01 0.02 0.03 0.03 0.04 0.05 0.06 0.05 0.02 0.01 0.01 0.02 0.02 0.03 0.05 0.05 0.04 0.06 0.06 0.06 0.06 0.06 0.08 0.11 0.11 0.14 0.16 0.17 0.18 0.23 0.23 0.20
0.02 0.00 0.01 0.01 0.01 0.01 0.01 0.02 0.04 0.12 0.16 0.18 0.19 0.16 0.12 0.10 0.07 0.04 0.02 0.01 0.00 0.00 0.01 0.03 0.04 0.05 0.05 0.05 0.07 0.08 0.09 0.07 0.06 0.08 0.10 0.10 0.09 0.10 0.11 0.12 0.10 0.08 0.07
0.09 0.12 0.13 0.13 0.13 0.15 0.16 0.19 0.20 0.22 0.25 0.26 0.20 0.13 0.09 0.07 0.05 0.04 0.03 0.02 0.02 0.01 0.01 0.02 0.03 0.04 0.05 0.05 0.06 0.06 0.06 0.06 0.07 0.07 0.07 0.08 0.11 0.13 0.15 0.12 0.11 0.12 0.11
0.18 0.24 0.28 0.33 0.36 0.34 0.33 0.32 0.28 0.25 0.22 0.22 0.22 0.20 0.17 0.14 0.10 0.08 0.06 0.06 0.05 0.04 0.03 0.03 0.03 0.04 0.08 0.13 0.14 0.16 0.19 0.21 0.23 0.25 0.24 0.25 0.26 0.29 0.28 0.26 0.25 0.20 0.20
0.56 0.58 0.51 0.47 0.43 0.36 0.30 0.24 0.19 0.17 0.15 0.13 0.12 0.11 0.09 0.06 0.06 0.05 0.05 0.05 0.05 0.05 0.04 0.05 0.05 0.07 0.12 0.16 0.16 0.17 0.17 0.18 0.19 0.20 0.18 0.16 0.14 0.15 0.15 0.14 0.16 0.17 0.13
0.61 0.56 0.45 0.36 0.30 0.24 0.19 0.15 0.13 0.11 0.10 0.09 0.09 0.08 0.05 0.03 0.03 0.04 0.03 0.04 0.04 0.04 0.04 0.05 0.04 0.04 0.06 0.08 0.10 0.10 0.11 0.12 0.15 0.18 0.18 0.19 0.21 0.19 0.16 0.16 0.14 0.12 0.12
0.35 0.30 0.24 0.19 0.16 0.14 0.11 0.08 0.08 0.06 0.06 0.05 0.05 0.05 0.03 0.04 0.04 0.05 0.05 0.04 0.03 0.03 0.02 0.02 0.02 0.02 0.03 0.05 0.06 0.09 0.10 0.11 0.10 0.10 0.11 0.12 0.13 0.14 0.14 0.14 0.14 0.13 0.11
0.14 0.13 0.12 0.11 0.09 0.07 0.05 0.05 0.04 0.04 0.05 0.05 0.05 0.05 0.05 0.05 0.04 0.03 0.02 0.02 0.01 0.01 0.01 0.01 0.01 0.02 0.03 0.05 0.07 0.10 0.11 0.09 0.09 0.12 0.14 0.12 0.12 0.12 0.13 0.13 0.14 0.15 0.15
0.09 0.07 0.06 0.06 0.05 0.04 0.04 0.05 0.05 0.04 0.04 0.04 0.03 0.03 0.02 0.01 0.01 0.01 0.01 0.01 0.01 0.00 0.00 0.01 0.01 0.01 0.02 0.04 0.06 0.06 0.07 0.07 0.10 0.14 0.16 0.15 0.13 0.13 0.15 0.15 0.14 0.15 0.15
0.04 0.04 0.03 0.03 0.02 0.02 0.02 0.02 0.02 0.01 0.01 0.01 0.01 0.01 0.01 0.01 0.00 0.00 0.01 0.01 0.00 0.00 0.01 0.00 0.00 0.01 0.01 0.02 0.03 0.04 0.05 0.07 0.08 0.09 0.13 0.15 0.14 0.15 0.17 0.19 0.17 0.18 0.15
0.01 0.01 0.00 0.01 0.00 0.01 0.01 0.01 0.01 0.00 0.01 0.01 0.01 0.01 0.01 0.01 0.00 0.00 0.01 0.00 0.01 0.00 0.00 0.00 0.00 0.00 0.01 0.01 0.02 0.04 0.04 0.04 0.05 0.07 0.12 0.13 0.14 0.16 0.19 0.18 0.19 0.24 0.17

GFSGL_prec_precacc24_072.txt.gz
Total_Precipitation_Accumulation
0.58 0.45 0.20 0.24 0.18 0.34 0.37 0.56 0.48 0.48 0.60 0.65 0.46 0.35 0.29 0.41 0.44 0.30 0.26 0.28 0.30 0.31 0.31 0.25 0.18 0.16 0.12 0.09 0.06 0.05 0.04 0.03 0.02 0.00 0.00 0.00 0.00 0.00 0.00 0.00 0.00 0.00 0.00
1.20 1.25 0.66 0.70 0.57 0.57 0.65 0.64 0.71 0.72 0.68 0.54 0.35 0.26 0.26 0.32 0.47 0.58 0.51 0.45 0.43 0.44 0.41 0.33 0.27 0.25 0.26 0.26 0.19 0.09 0.06 0.04 0.02 0.01 0.01 0.00 0.00 0.00 0.00 0.00 0.00 0.00 0.00
1.02 1.01 0.78 0.90 1.03 0.79 0.64 0.43 0.24 0.26 0.33 0.29 0.30 0.26 0.26 0.23 0.23 0.25 0.27 0.34 0.40 0.41 0.43 0.41 0.33 0.25 0.18 0.14 0.12 0.10 0.07 0.04 0.01 0.01 0.00 0.00 0.00 0.00 0.00 0.00 0.00 0.00 0.00
0.40 0.46 0.38 0.36 0.51 0.22 0.25 0.21 0.16 0.11 0.13 0.17 0.12 0.11 0.10 0.12 0.14 0.17 0.22 0.26 0.24 0.22 0.22 0.26 0.34 0.36 0.29 0.16 0.07 0.04 0.03 0.02 0.01 0.02 0.01 0.00 0.00 0.00 0.00 0.00 0.00 0.00 0.01
0.29 0.29 0.22 0.19 0.23 0.15 0.19 0.19 0.12 0.10 0.11 0.15 0.11 0.08 0.08 0.10 0.12 0.14 0.13 0.12 0.14 0.17 0.16 0.16 0.12 0.10 0.08 0.04 0.02 0.01 0.01 0.03 0.02 0.01 0.00 0.00 0.00 0.00 0.00 0.01 0.01 0.00 0.00
0.09 0.12 0.09 0.10 0.15 0.14 0.16 0.15 0.13 0.14 0.19 0.19 0.19 0.17 0.13 0.14 0.25 0.19 0.11 0.05 0.05 0.05 0.05 0.03 0.04 0.08 0.04 0.05 0.04 0.03 0.02 0.01 0.01 0.01 0.01 0.01 0.00 0.00 0.01 0.02 0.02 0.02 0.02
0.07 0.09 0.04 0.04 0.12 0.12 0.11 0.13 0.14 0.15 0.20 0.21 0.19 0.19 0.15 0.12 0.22 0.19 0.15 0.04 0.04 0.04 0.03 0.03 0.03 0.06 0.07 0.01 0.03 0.03 0.01 0.01 0.00 0.00 0.00 0.00 0.01 0.01 0.03 0.03 0.04 0.04 0.02
0.03 0.04 0.06 0.05 0.10 0.12 0.12 0.10 0.13 0.13 0.13 0.15 0.14 0.13 0.13 0.14 0.17 0.11 0.12 0.04 0.05 0.06 0.06 0.04 0.04 0.04 0.06 0.04 0.01 0.01 0.01 0.01 0.01 0.00 0.00 0.00 0.01 0.01 0.02 0.04 0.04 0.03 0.02
0.02 0.03 0.04 0.04 0.07 0.07 0.07 0.08 0.09 0.10 0.09 0.07 0.08 0.08 0.09 0.10 0.14 0.08 0.06 0.01 0.04 0.07 0.07 0.07 0.09 0.08 0.16 0.12 0.07 0.06 0.02 0.00 0.00 0.00 0.02 0.02 0.02 0.01 0.01 0.03 0.02 0.04 0.03
0.03 0.04 0.02 0.03 0.05 0.04 0.04 0.06 0.05 0.05 0.07 0.06 0.06 0.06 0.10 0.06 0.11 0.06 0.03 0.01 0.03 0.06 0.08 0.10 0.14 0.07 0.09 0.04 0.02 0.01 0.00 0.00 0.01 0.02 0.02 0.02 0.01 0.01 0.01 0.01 0.01 0.06 0.06
0.01 0.02 0.03 0.03 0.04 0.03 0.04 0.06 0.05 0.05 0.06 0.06 0.06 0.04 0.05 0.06 0.08 0.08 0.06 0.02 0.02 0.06 0.08 0.08 0.09 0.09 0.07 0.04 0.01 0.01 0.01 0.01 0.02 0.03 0.04 0.05 0.05 0.06 0.05 0.05 0.06 0.12 0.19
0.04 0.05 0.07 0.08 0.08 0.06 0.05 0.07 0.06 0.04 0.04 0.05 0.05 0.05 0.04 0.07 0.13 0.12 0.10 0.11 0.13 0.09 0.10 0.09 0.10 0.09 0.05 0.02 0.01 0.01 0.02 0.02 0.04 0.06 0.06 0.06 0.06 0.09 0.09 0.07 0.05 0.04 0.06
0.05 0.05 0.07 0.06 0.08 0.10 0.11 0.09 0.07 0.08 0.07 0.08 0.07 0.07 0.06 0.06 0.10 0.13 0.12 0.13 0.14 0.12 0.12 0.11 0.08 0.04 0.01 0.00 0.01 0.00 0.01 0.05 0.08 0.10 0.08 0.04 0.02 0.02 0.03 0.04 0.04 0.02 0.01
0.05 0.05 0.05 0.05 0.06 0.04 0.04 0.04 0.04 0.04 0.06 0.08 0.09 0.10 0.12 0.15 0.16 0.16 0.15 0.13 0.12 0.11 0.08 0.04 0.01 0.00 0.00 0.01 0.01 0.01 0.02 0.02 0.04 0.05 0.05 0.05 0.05 0.07 0.07 0.05 0.06 0.05 0.09
0.01 0.00 0.01 0.01 0.01 0.00 0.01 0.03 0.03 0.05 0.09 0.07 0.07 0.09 0.11 0.13 0.13 0.12 0.11 0.10 0.07 0.04 0.02 0.01 0.01 0.01 0.01 0.01 0.01 0.02 0.03 0.05 0.06 0.06 0.07 0.09 0.11 0.13 0.11 0.09 0.12 0.12 0.13
0.00 0.00 0.01 0.00 0.00 0.00 0.00 0.03 0.05 0.04 0.05 0.04 0.07 0.10 0.15 0.15 0.16 0.15 0.11 0.06 0.03 0.02 0.02 0.02 0.03 0.03 0.03 0.02 0.02 0.03 0.04 0.05 0.05 0.06 0.07 0.08 0.11 0.16 0.17 0.18 0.22 0.23 0.19
0.04 0.02 0.03 0.03 0.02 0.03 0.03 0.04 0.08 0.19 0.23 0.27 0.28 0.25 0.18 0.18 0.14 0.10 0.07 0.05 0.03 0.02 0.03 0.03 0.04 0.04 0.03 0.02 0.03 0.04 0.05 0.06 0.06 0.07 0.08 0.07 0.08 0.09 0.10 0.12 0.09 0.07 0.06
0.26 0.28 0.28 0.31 0.34 0.35 0.32 0.32 0.31 0.31 0.34 0.36 0.30 0.19 0.15 0.12 0.11 0.09 0.08 0.06 0.05 0.03 0.02 0.02 0.01 0.02 0.01 0.01 0.02 0.03 0.04 0.05 0.07 0.06 0.06 0.06 0.09 0.11 0.14 0.12 0.11 0.11 0.10
0.45 0.51 0.51 0.52 0.56 0.53 0.48 0.44 0.39 0.35 0.31 0.31 0.29 0.26 0.22 0.18 0.13 0.10 0.07 0.07 0.06 0.04 0.03 0.03 0.02 0.03 0.03 0.03 0.05 0.11 0.17 0.20 0.22 0.23 0.22 0.23 0.23 0.27 0.27 0.26 0.25 0.20 0.20
0.80 0.86 0.77 0.69 0.64 0.57 0.49 0.38 0.30 0.25 0.20 0.17 0.16 0.15 0.13 0.09 0.07 0.07 0.06 0.05 0.05 0.05 0.04 0.05 0.05 0.04 0.04 0.04 0.05 0.09 0.13 0.17 0.18 0.18 0.17 0.14 0.12 0.14 0.15 0.14 0.15 0.16 0.13
0.70 0.69 0.61 0.51 0.45 0.39 0.32 0.25 0.19 0.16 0.14 0.12 0.12 0.11 0.07 0.04 0.04 0.04 0.04 0.04 0.04 0.04 0.04 0.04 0.03 0.03 0.02 0.02 0.02 0.04 0.05 0.09 0.13 0.16 0.16 0.16 0.17 0.18 0.16 0.16 0.14 0.12 0.12
0.38 0.32 0.27 0.24 0.22 0.19 0.16 0.13 0.12 0.10 0.08 0.07 0.07 0.06 0.04 0.04 0.05 0.05 0.05 0.04 0.03 0.02 0.02 0.01 0.01 0.01 0.01 0.02 0.02 0.04 0.05 0.06 0.07 0.07 0.07 0.07 0.10 0.13 0.14 0.14 0.14 0.13 0.11
0.16 0.15 0.14 0.13 0.11 0.09 0.08 0.07 0.06 0.06 0.06 0.06 0.06 0.06 0.05 0.05 0.04 0.03 0.02 0.02 0.01 0.01 0.00 0.00 0.01 0.01 0.00 0.01 0.02 0.03 0.05 0.05 0.06 0.07 0.09 0.07 0.08 0.11 0.13 0.14 0.14 0.16 0.15
0.09 0.08 0.07 0.06 0.05 0.05 0.05 0.06 0.05 0.04 0.04 0.04 0.03 0.03 0.02 0.01 0.01 0.01 0.01 0.01 0.01 0.01 0.00 0.01 0.00 0.00 0.00 0.01 0.01 0.02 0.03 0.05 0.08 0.09 0.10 0.09 0.09 0.11 0.14 0.14 0.14 0.15 0.15
0.04 0.04 0.03 0.03 0.02 0.02 0.02 0.02 0.02 0.01 0.01 0.01 0.01 0.01 0.01 0.01 0.00 0.00 0.01 0.01 0.00 0.00 0.00 0.00 0.00 0.01 0.00 0.00 0.00 0.01 0.02 0.05 0.06 0.06 0.09 0.09 0.09 0.12 0.16 0.17 0.16 0.17 0.15
0.01 0.01 0.00 0.01 0.00 0.01 0.01 0.01 0.01 0.00 0.01 0.01 0.01 0.01 0.01 0.01 0.00 0.00 0.00 0.00 0.01 0.00 0.00 0.00 0.00 0.00 0.00 0.00 0.00 0.01 0.01 0.02 0.04 0.05 0.11 0.09 0.09 0.11 0.16 0.17 0.17 0.22 0.16

GFSGL_prec_precacc24_075.txt.gz
Total_Precipitation_Accumulation
0.58 0.45 0.19 0.23 0.18 0.34 0.36 0.51 0.44 0.46 0.58 0.64 0.45 0.34 0.28 0.41 0.44 0.29 0.25 0.26 0.27 0.27 0.25 0.23 0.20 0.17 0.15 0.12 0.09 0.07 0.06 0.06 0.09 0.06 0.04 0.03 0.00 0.00 0.00 0.00 0.00 0.00 0.00
1.20 1.25 0.65 0.69 0.57 0.57 0.64 0.64 0.71 0.71 0.67 0.53 0.33 0.22 0.21 0.22 0.33 0.46 0.46 0.41 0.37 0.36 0.39 0.34 0.28 0.27 0.30 0.30 0.31 0.29 0.26 0.22 0.25 0.20 0.12 0.08 0.01 0.00 0.00 0.00 0.00 0.00 0.00
1.02 1.01 0.77 0.88 1.02 0.79 0.64 0.42 0.23 0.25 0.31 0.26 0.27 0.19 0.16 0.15 0.20 0.23 0.24 0.28 0.31 0.36 0.42 0.41 0.34 0.27 0.22 0.20 0.21 0.22 0.19 0.20 0.19 0.16 0.09 0.06 0.03 0.00 0.00 0.00 0.00 0.00 0.00
0.40 0.45 0.37 0.35 0.50 0.21 0.24 0.20 0.16 0.11 0.13 0.16 0.12 0.11 0.10 0.11 0.11 0.11 0.15 0.17 0.20 0.21 0.22 0.26 0.35 0.42 0.40 0.34 0.26 0.19 0.14 0.11 0.10 0.11 0.09 0.03 0.01 0.00 0.00 0.00 0.00 0.00 0.01
0.26 0.27 0.20 0.17 0.22 0.15 0.18 0.18 0.12 0.10 0.11 0.15 0.11 0.08 0.07 0.08 0.10 0.12 0.12 0.12 0.13 0.16 0.17 0.19 0.20 0.23 0.21 0.19 0.17 0.12 0.07 0.06 0.07 0.07 0.07 0.02 0.02 0.00 0.00 0.01 0.01 0.00 0.00
0.08 0.12 0.08 0.10 0.15 0.14 0.16 0.15 0.13 0.14 0.19 0.19 0.19 0.17 0.13 0.14 0.25 0.18 0.10 0.05 0.04 0.05 0.05 0.05 0.08 0.12 0.09 0.12 0.12 0.12 0.09 0.09 0.08 0.04 0.03 0.03 0.02 0.00 0.01 0.01 0.02 0.02 0.02
0.07 0.09 0.04 0.04 0.12 0.12 0.11 0.13 0.14 0.15 0.20 0.21 0.19 0.19 0.15 0.12 0.21 0.19 0.15 0.04 0.04 0.04 0.03 0.04 0.06 0.10 0.14 0.05 0.10 0.08 0.08 0.09 0.07 0.04 0.04 0.04 0.03 0.01 0.02 0.03 0.04 0.04 0.02
0.03 0.04 0.06 0.05 0.10 0.12 0.12 0.10 0.13 0.13 0.13 0.15 0.14 0.13 0.13 0.14 0.18 0.12 0.13 0.04 0.05 0.06 0.07 0.06 0.08 0.10 0.16 0.14 0.08 0.08 0.09 0.13 0.13 0.07 0.08 0.10 0.08 0.03 0.02 0.04 0.04 0.03 0.02
0.02 0.03 0.04 0.04 0.07 0.07 0.07 0.08 0.09 0.10 0.09 0.07 0.08 0.08 0.09 0.11 0.17 0.13 0.11 0.03 0.05 0.08 0.09 0.11 0.15 0.14 0.32 0.26 0.16 0.19 0.20 0.20 0.20 0.16 0.12 0.07 0.04 0.02 0.01 0.03 0.02 0.04 0.03
0.03 0.04 0.02 0.03 0.05 0.04 0.04 0.06 0.05 0.05 0.07 0.06 0.07 0.07 0.12 0.09 0.17 0.12 0.11 0.04 0.08 0.11 0.12 0.16 0.25 0.15 0.23 0.13 0.07 0.06 0.08 0.10 0.11 0.12 0.10 0.05 0.02 0.01 0.01 0.01 0.01 0.06 0.06
0.01 0.02 0.03 0.03 0.04 0.03 0.04 0.06 0.05 0.05 0.07 0.09 0.10 0.07 0.07 0.10 0.11 0.11 0.08 0.03 0.03 0.07 0.10 0.11 0.15 0.18 0.13 0.12 0.10 0.10 0.13 0.12 0.11 0.08 0.06 0.04 0.04 0.05 0.05 0.05 0.06 0.12 0.19
0.04 0.05 0.07 0.08 0.08 0.06 0.05 0.07 0.06 0.06 0.07 0.07 0.08 0.06 0.05 0.07 0.16 0.14 0.12 0.13 0.16 0.11 0.13 0.14 0.21 0.24 0.17 0.15 0.13 0.12 0.11 0.09 0.08 0.07 0.05 0.04 0.05 0.08 0.09 0.07 0.05 0.04 0.06
0.05 0.05 0.07 0.06 0.08 0.10 0.11 0.11 0.10 0.13 0.13 0.12 0.11 0.11 0.10 0.08 0.11 0.15 0.13 0.15 0.16 0.14 0.16 0.21 0.24 0.22 0.17 0.15 0.13 0.10 0.06 0.03 0.03 0.03 0.03 0.03 0.01 0.01 0.03 0.04 0.04 0.02 0.01
0.06 0.05 0.05 0.06 0.08 0.06 0.08 0.09 0.09 0.09 0.10 0.11 0.12 0.11 0.12 0.15 0.17 0.17 0.17 0.16 0.16 0.17 0.18 0.17 0.14 0.12 0.09 0.08 0.06 0.03 0.01 0.01 0.02 0.03 0.03 0.03 0.02 0.03 0.05 0.05 0.06 0.05 0.09
0.07 0.06 0.05 0.04 0.04 0.03 0.04 0.09 0.09 0.11 0.17 0.16 0.17 0.15 0.15 0.17 0.19 0.17 0.15 0.14 0.13 0.12 0.10 0.09 0.08 0.07 0.04 0.02 0.01 0.01 0.01 0.01 0.01 0.02 0.03 0.05 0.07 0.09 0.08 0.08 0.11 0.11 0.13
0.09 0.08 0.09 0.07 0.05 0.05 0.05 0.07 0.11 0.13 0.13 0.12 0.15 0.15 0.21 0.22 0.27 0.24 0.19 0.13 0.09 0.08 0.07 0.06 0.05 0.04 0.03 0.02 0.02 0.01 0.00 0.01 0.02 0.03 0.04 0.05 0.07 0.11 0.14 0.16 0.22 0.22 0.19
0.12 0.11 0.10 0.08 0.07 0.06 0.05 0.05 0.10 0.23 0.30 0.37 0.39 0.36 0.27 0.29 0.24 0.19 0.16 0.12 0.09 0.06 0.05 0.05 0.05 0.05 0.03 0.02 0.01 0.01 0.01 0.01 0.02 0.04 0.04 0.05 0.05 0.05 0.07 0.09 0.07 0.06 0.06
0.48 0.50 0.42 0.42 0.43 0.44 0.45 0.49 0.52 0.56 0.61 0.68 0.61 0.44 0.35 0.28 0.22 0.18 0.13 0.09 0.07 0.04 0.03 0.03 0.03 0.02 0.01 0.01 0.01 0.01 0.01 0.01 0.02 0.04 0.04 0.05 0.07 0.08 0.09 0.09 0.09 0.10 0.10
0.65 0.79 0.84 0.86 0.89 0.83 0.77 0.72 0.66 0.60 0.54 0.52 0.47 0.41 0.35 0.27 0.20 0.15 0.11 0.09 0.07 0.05 0.03 0.03 0.03 0.03 0.03 0.02 0.02 0.02 0.02 0.04 0.12 0.20 0.21 0.22 0.22 0.25 0.23 0.23 0.23 0.19 0.20
0.86 0.99 0.96 0.93 0.87 0.78 0.69 0.56 0.47 0.41 0.34 0.30 0.28 0.26 0.22 0.15 0.13 0.11 0.09 0.07 0.06 0.06 0.05 0.05 0.05 0.04 0.03 0.03 0.03 0.02 0.01 0.03 0.07 0.14 0.15 0.13 0.10 0.11 0.11 0.11 0.13 0.16 0.13
0.74 0.73 0.67 0.58 0.54 0.51 0.45 0.37 0.32 0.27 0.24 0.21 0.20 0.18 0.12 0.08 0.07 0.06 0.05 0.05 0.05 0.04 0.04 0.04 0.03 0.02 0.02 0.01 0.01 0.01 0.01 0.01 0.04 0.07 0.11 0.13 0.14 0.14 0.12 0.13 0.13 0.11 0.11
0.40 0.34 0.30 0.26 0.25 0.22 0.19 0.16 0.15 0.13 0.11 0.10 0.11 0.09 0.06 0.05 0.06 0.06 0.05 0.05 0.04 0.02 0.02 0.01 0.01 0.01 0.00 0.01 0.01 0.02 0.02 0.02 0.02 0.03 0.04 0.04 0.06 0.08 0.10 0.11 0.12 0.12 0.11
0.16 0.16 0.15 0.14 0.13 0.11 0.10 0.09 0.09 0.09 0.09 0.09 0.08 0.08 0.06 0.05 0.04 0.03 0.02 0.02 0.01 0.01 0.00 0.00 0.01 0.00 0.00 0.00 0.01 0.02 0.03 0.02 0.02 0.04 0.06 0.03 0.03 0.05 0.09 0.12 0.13 0.14 0.15
0.10 0.08 0.07 0.07 0.06 0.05 0.06 0.06 0.06 0.05 0.05 0.05 0.03 0.03 0.02 0.01 0.01 0.01 0.01 0.01 0.01 0.01 0.00 0.01 0.00 0.00 0.00 0.01 0.01 0.01 0.00 0.01 0.04 0.06 0.07 0.07 0.04 0.03 0.08 0.11 0.12 0.14 0.15
0.04 0.04 0.03 0.03 0.02 0.02 0.02 0.02 0.02 0.01 0.01 0.01 0.01 0.01 0.01 0.01 0.00 0.00 0.01 0.01 0.00 0.00 0.00 0.00 0.00 0.00 0.00 0.00 0.00 0.00 0.00 0.02 0.03 0.03 0.07 0.07 0.06 0.05 0.08 0.12 0.12 0.15 0.14
0.01 0.01 0.00 0.01 0.00 0.00 0.00 0.01 0.01 0.00 0.01 0.01 0.01 0.01 0.01 0.01 0.00 0.00 0.00 0.00 0.00 0.00 0.00 0.00 0.00 0.00 0.00 0.00 0.00 0.01 0.01 0.00 0.01 0.03 0.09 0.08 0.06 0.05 0.09 0.12 0.13 0.18 0.14

GFSGL_prec_precacc24_078.txt.gz
Total_Precipitation_Accumulation
0.40 0.28 0.12 0.14 0.11 0.30 0.35 0.48 0.39 0.38 0.49 0.60 0.42 0.32 0.27 0.40 0.42 0.25 0.17 0.15 0.12 0.15 0.19 0.19 0.17 0.16 0.18 0.16 0.15 0.15 0.11 0.09 0.10 0.07 0.04 0.04 0.03 0.03 0.01 0.00 0.00 0.00 0.00
0.93 0.98 0.53 0.62 0.52 0.52 0.57 0.58 0.66 0.70 0.66 0.53 0.33 0.22 0.19 0.16 0.25 0.35 0.34 0.32 0.32 0.33 0.33 0.30 0.26 0.27 0.32 0.34 0.35 0.32 0.28 0.23 0.26 0.22 0.14 0.10 0.07 0.04 0.02 0.01 0.01 0.00 0.00
0.91 0.69 0.62 0.78 0.91 0.75 0.62 0.41 0.23 0.24 0.30 0.25 0.26 0.18 0.15 0.13 0.16 0.20 0.22 0.26 0.29 0.32 0.38 0.40 0.34 0.28 0.24 0.21 0.22 0.24 0.21 0.22 0.23 0.22 0.15 0.08 0.06 0.05 0.05 0.04 0.02 0.02 0.00
0.33 0.42 0.33 0.32 0.48 0.19 0.23 0.19 0.15 0.10 0.11 0.15 0.11 0.11 0.10 0.10 0.11 0.11 0.14 0.17 0.19 0.20 0.22 0.26 0.36 0.43 0.42 0.37 0.31 0.24 0.19 0.18 0.17 0.17 0.14 0.09 0.08 0.06 0.05 0.03 0.02 0.02 0.02
0.19 0.23 0.16 0.16 0.22 0.14 0.17 0.18 0.11 0.10 0.11 0.15 0.11 0.08 0.07 0.08 0.10 0.11 0.12 0.12 0.13 0.16 0.17 0.19 0.20 0.23 0.24 0.23 0.22 0.16 0.13 0.13 0.14 0.11 0.11 0.06 0.05 0.05 0.05 0.04 0.05 0.04 0.04
0.07 0.08 0.06 0.09 0.15 0.13 0.15 0.15 0.13 0.14 0.19 0.19 0.19 0.17 0.13 0.14 0.25 0.18 0.10 0.05 0.04 0.05 0.05 0.05 0.08 0.12 0.10 0.14 0.16 0.16 0.13 0.14 0.16 0.16 0.16 0.13 0.08 0.07 0.07 0.10 0.12 0.13 0.09
0.06 0.06 0.03 0.04 0.12 0.12 0.11 0.13 0.14 0.15 0.20 0.21 0.19 0.19 0.15 0.12 0.20 0.18 0.14 0.04 0.04 0.04 0.03 0.04 0.06 0.10 0.15 0.09 0.18 0.22 0.27 0.40 0.41 0.31 0.24 0.20 0.15 0.13 0.15 0.16 0.15 0.15 0.11
0.02 0.04 0.06 0.05 0.10 0.12 0.12 0.10 0.13 0.13 0.13 0.15 0.14 0.13 0.13 0.14 0.17 0.13 0.14 0.05 0.05 0.07 0.07 0.07 0.08 0.10 0.19 0.22 0.23 0.37 0.48 0.54 0.49 0.41 0.40 0.42 0.36 0.30 0.29 0.27 0.24 0.16 0.07
0.02 0.03 0.04 0.04 0.07 0.07 0.07 0.08 0.09 0.10 0.09 0.07 0.08 0.08 0.09 0.11 0.17 0.13 0.12 0.04 0.05 0.08 0.09 0.12 0.17 0.15 0.40 0.32 0.20 0.28 0.34 0.36 0.39 0.35 0.31 0.30 0.28 0.23 0.18 0.13 0.09 0.08 0.06
0.03 0.04 0.02 0.03 0.05 0.04 0.04 0.06 0.05 0.05 0.07 0.06 0.07 0.07 0.13 0.10 0.18 0.13 0.11 0.05 0.11 0.13 0.15 0.21 0.37 0.21 0.34 0.19 0.11 0.08 0.11 0.13 0.15 0.18 0.18 0.17 0.15 0.13 0.11 0.08 0.06 0.07 0.07
0.01 0.02 0.03 0.03 0.04 0.03 0.04 0.06 0.05 0.05 0.07 0.09 0.10 0.07 0.07 0.10 0.12 0.13 0.11 0.04 0.06 0.12 0.17 0.18 0.22 0.27 0.17 0.16 0.14 0.11 0.15 0.17 0.18 0.15 0.13 0.11 0.10 0.12 0.12 0.09 0.10 0.15 0.21
0.04 0.05 0.07 0.08 0.08 0.06 0.06 0.08 0.07 0.06 0.07 0.07 0.08 0.07 0.06 0.08 0.19 0.17 0.15 0.18 0.23 0.14 0.17 0.19 0.30 0.33 0.22 0.20 0.18 0.17 0.18 0.15 0.13 0.12 0.12 0.10 0.07 0.05 0.07 0.07 0.05 0.04 0.06
0.05 0.05 0.07 0.07 0.09 0.14 0.15 0.13 0.11 0.13 0.14 0.14 0.13 0.13 0.13 0.11 0.16 0.22 0.21 0.23 0.25 0.22 0.22 0.28 0.33 0.29 0.21 0.19 0.18 0.15 0.12 0.11 0.10 0.08 0.05 0.04 0.02 0.01 0.01 0.02 0.02 0.02 0.01
0.07 0.06 0.06 0.06 0.10 0.09 0.11 0.12 0.11 0.11 0.14 0.18 0.19 0.18 0.21 0.24 0.26 0.28 0.30 0.30 0.31 0.28 0.28 0.27 0.21 0.17 0.13 0.13 0.11 0.07 0.04 0.02 0.03 0.05 0.06 0.04 0.01 0.00 0.02 0.03 0.05 0.04 0.07
0.10 0.09 0.10 0.09 0.08 0.06 0.07 0.13 0.15 0.20 0.30 0.32 0.35 0.39 0.42 0.47 0.48 0.45 0.36 0.31 0.26 0.23 0.18 0.17 0.17 0.15 0.13 0.11 0.08 0.07 0.07 0.05 0.03 0.02 0.01 0.01 0.01 0.01 0.02 0.06 0.09 0.10 0.12
0.14 0.14 0.18 0.16 0.15 0.14 0.13 0.18 0.24 0.30 0.36 0.41 0.46 0.48 0.54 0.56 0.62 0.54 0.45 0.37 0.28 0.23 0.19 0.17 0.16 0.14 0.13 0.12 0.10 0.07 0.03 0.02 0.01 0.00 0.00 0.00 0.02 0.03 0.09 0.15 0.20 0.21 0.19
0.31 0.28 0.27 0.28 0.27 0.25 0.24 0.22 0.27 0.43 0.49 0.56 0.60 0.59 0.50 0.56 0.50 0.42 0.35 0.31 0.28 0.23 0.20 0.20 0.18 0.16 0.12 0.08 0.05 0.03 0.02 0.01 0.00 0.01 0.01 0.01 0.03 0.03 0.04 0.07 0.05 0.05 0.05
0.69 0.74 0.66 0.65 0.65 0.67 0.70 0.76 0.73 0.70 0.78 0.93 0.88 0.66 0.56 0.51 0.46 0.40 0.34 0.26 0.21 0.16 0.13 0.11 0.09 0.07 0.05 0.03 0.02 0.01 0.01 0.01 0.01 0.01 0.01 0.03 0.05 0.07 0.08 0.07 0.07 0.08 0.09
0.75 0.93 1.02 1.04 1.08 1.09 1.05 0.99 0.91 0.83 0.77 0.76 0.70 0.63 0.57 0.46 0.36 0.31 0.24 0.20 0.17 0.14 0.10 0.08 0.07 0.05 0.04 0.02 0.02 0.02 0.02 0.01 0.01 0.02 0.03 0.09 0.18 0.23 0.21 0.21 0.21 0.17 0.17
0.85 1.00 1.01 1.02 1.00 0.92 0.82 0.69 0.60 0.54 0.47 0.43 0.41 0.38 0.33 0.24 0.21 0.19 0.16 0.14 0.11 0.10 0.08 0.07 0.06 0.05 0.03 0.02 0.02 0.02 0.01 0.01 0.01 0.01 0.02 0.04 0.05 0.09 0.11 0.10 0.11 0.12 0.12
0.74 0.74 0.68 0.61 0.58 0.55 0.51 0.46 0.41 0.36 0.34 0.31 0.31 0.28 0.20 0.13 0.13 0.12 0.10 0.09 0.08 0.07 0.06 0.04 0.03 0.02 0.01 0.01 0.01 0.01 0.00 0.01 0.01 0.01 0.02 0.05 0.07 0.07 0.09 0.10 0.09 0.09 0.09
0.40 0.36 0.31 0.29 0.27 0.25 0.22 0.19 0.18 0.16 0.15 0.14 0.15 0.12 0.08 0.07 0.08 0.07 0.06 0.05 0.04 0.02 0.02 0.01 0.01 0.00 0.00 0.01 0.00 0.01 0.01 0.01 0.01 0.01 0.01 0.02 0.04 0.06 0.07 0.07 0.08 0.08 0.09
0.17 0.16 0.15 0.15 0.14 0.13 0.11 0.11 0.11 0.10 0.11 0.11 0.10 0.09 0.07 0.06 0.05 0.03 0.03 0.02 0.01 0.01 0.00 0.00 0.00 0.00 0.00 0.00 0.00 0.01 0.02 0.01 0.02 0.02 0.04 0.03 0.02 0.03 0.04 0.06 0.08 0.10 0.12
0.10 0.08 0.07 0.07 0.06 0.06 0.07 0.06 0.06 0.05 0.05 0.05 0.04 0.03 0.02 0.01 0.01 0.01 0.01 0.01 0.00 0.01 0.00 0.00 0.00 0.00 0.00 0.00 0.00 0.00 0.00 0.01 0.02 0.04 0.04 0.05 0.03 0.02 0.04 0.04 0.05 0.10 0.12
0.04 0.04 0.03 0.03 0.02 0.02 0.02 0.02 0.02 0.01 0.01 0.01 0.01 0.01 0.01 0.01 0.01 0.01 0.01 0.00 0.00 0.00 0.00 0.00 0.00 0.00 0.00 0.00 0.00 0.00 0.00 0.01 0.02 0.02 0.05 0.04 0.04 0.04 0.05 0.06 0.06 0.09 0.10
0.01 0.01 0.00 0.01 0.00 0.00 0.00 0.00 0.00 0.00 0.01 0.01 0.01 0.01 0.01 0.01 0.00 0.00 0.00 0.00 0.00 0.00 0.00 0.00 0.00 0.00 0.00 0.00 0.00 0.00 0.00 0.00 0.01 0.02 0.07 0.06 0.04 0.04 0.06 0.07 0.06 0.11 0.11

GFSGL_prec_precacc24_081.txt.gz
Total_Precipitation_Accumulation
0.29 0.15 0.02 0.02 0.01 0.16 0.28 0.38 0.31 0.31 0.29 0.30 0.31 0.30 0.26 0.39 0.41 0.24 0.16 0.12 0.11 0.12 0.13 0.14 0.15 0.15 0.16 0.16 0.16 0.16 0.12 0.12 0.11 0.07 0.04 0.04 0.03 0.03 0.01 0.00 0.00 0.00 0.00
0.61 0.52 0.29 0.23 0.23 0.31 0.47 0.53 0.56 0.62 0.61 0.48 0.32 0.21 0.19 0.16 0.25 0.35 0.34 0.31 0.29 0.29 0.31 0.28 0.25 0.26 0.31 0.34 0.36 0.32 0.28 0.25 0.30 0.26 0.15 0.10 0.07 0.05 0.04 0.02 0.02 0.01 0.00
0.51 0.46 0.46 0.53 0.59 0.47 0.42 0.34 0.21 0.21 0.28 0.24 0.26 0.18 0.15 0.13 0.16 0.20 0.20 0.23 0.27 0.31 0.38 0.40 0.34 0.28 0.24 0.21 0.23 0.25 0.22 0.23 0.25 0.24 0.16 0.09 0.08 0.06 0.06 0.06 0.05 0.03 0.02
0.25 0.32 0.31 0.28 0.27 0.14 0.17 0.13 0.12 0.08 0.09 0.13 0.10 0.10 0.09 0.09 0.09 0.10 0.13 0.16 0.19 0.20 0.22 0.26 0.36 0.43 0.42 0.37 0.32 0.26 0.23 0.22 0.21 0.19 0.16 0.11 0.10 0.07 0.07 0.07 0.05 0.04 0.03
0.10 0.14 0.09 0.14 0.17 0.10 0.14 0.14 0.08 0.05 0.09 0.13 0.10 0.07 0.07 0.07 0.10 0.11 0.12 0.12 0.13 0.16 0.17 0.19 0.20 0.23 0.24 0.23 0.24 0.20 0.18 0.19 0.20 0.20 0.17 0.11 0.10 0.09 0.07 0.05 0.06 0.06 0.08
0.06 0.06 0.06 0.08 0.11 0.10 0.11 0.13 0.11 0.13 0.18 0.19 0.19 0.17 0.13 0.14 0.25 0.18 0.10 0.05 0.04 0.05 0.05 0.05 0.08 0.12 0.10 0.15 0.18 0.20 0.18 0.17 0.18 0.20 0.22 0.22 0.17 0.17 0.18 0.21 0.24 0.27 0.24
0.05 0.05 0.03 0.04 0.09 0.10 0.11 0.13 0.14 0.15 0.20 0.21 0.19 0.19 0.15 0.12 0.20 0.18 0.14 0.04 0.04 0.04 0.03 0.04 0.06 0.10 0.15 0.09 0.19 0.24 0.30 0.43 0.46 0.41 0.44 0.42 0.36 0.33 0.29 0.31 0.32 0.32 0.29
0.03 0.06 0.07 0.07 0.11 0.13 0.12 0.10 0.13 0.13 0.13 0.15 0.14 0.13 0.13 0.14 0.17 0.13 0.14 0.05 0.05 0.07 0.07 0.07 0.08 0.10 0.19 0.22 0.23 0.37 0.49 0.59 0.62 0.60 0.61 0.65 0.60 0.47 0.40 0.37 0.33 0.28 0.22
0.01 0.03 0.04 0.07 0.10 0.10 0.08 0.08 0.09 0.10 0.09 0.07 0.08 0.08 0.09 0.11 0.17 0.13 0.12 0.04 0.05 0.08 0.09 0.12 0.17 0.15 0.41 0.33 0.20 0.28 0.38 0.43 0.52 0.48 0.44 0.44 0.42 0.35 0.26 0.21 0.20 0.18 0.16
0.03 0.04 0.02 0.04 0.08 0.09 0.08 0.08 0.05 0.05 0.07 0.06 0.07 0.07 0.13 0.10 0.18 0.13 0.12 0.05 0.12 0.15 0.16 0.22 0.39 0.23 0.38 0.22 0.12 0.08 0.16 0.21 0.22 0.26 0.27 0.25 0.22 0.18 0.16 0.12 0.11 0.13 0.14
0.01 0.02 0.03 0.03 0.04 0.09 0.10 0.11 0.08 0.06 0.08 0.09 0.11 0.08 0.08 0.11 0.13 0.15 0.12 0.04 0.07 0.13 0.18 0.20 0.25 0.34 0.23 0.23 0.20 0.13 0.21 0.25 0.28 0.21 0.18 0.17 0.14 0.11 0.10 0.10 0.10 0.13 0.19
0.04 0.05 0.07 0.08 0.08 0.07 0.11 0.14 0.13 0.09 0.08 0.07 0.08 0.07 0.06 0.09 0.20 0.19 0.18 0.21 0.27 0.16 0.21 0.25 0.38 0.45 0.31 0.29 0.26 0.26 0.28 0.21 0.15 0.16 0.16 0.15 0.12 0.09 0.06 0.04 0.03 0.02 0.05
0.05 0.05 0.07 0.07 0.09 0.16 0.20 0.19 0.20 0.21 0.20 0.17 0.14 0.14 0.14 0.13 0.18 0.27 0.26 0.31 0.36 0.31 0.39 0.52 0.57 0.47 0.37 0.35 0.33 0.31 0.25 0.20 0.18 0.15 0.12 0.09 0.06 0.04 0.02 0.01 0.01 0.01 0.01
0.07 0.06 0.06 0.06 0.10 0.10 0.13 0.15 0.16 0.17 0.19 0.24 0.26 0.25 0.27 0.29 0.32 0.34 0.37 0.42 0.48 0.52 0.62 0.61 0.56 0.50 0.45 0.40 0.34 0.27 0.20 0.15 0.13 0.11 0.10 0.09 0.04 0.01 0.01 0.00 0.01 0.01 0.04
0.10 0.09 0.10 0.09 0.09 0.08 0.09 0.18 0.19 0.29 0.41 0.42 0.47 0.53 0.57 0.62 0.70 0.70 0.64 0.64 0.67 0.70 0.67 0.66 0.60 0.50 0.45 0.38 0.30 0.25 0.22 0.18 0.15 0.11 0.08 0.05 0.03 0.02 0.01 0.00 0.01 0.03 0.07
0.14 0.14 0.19 0.16 0.16 0.17 0.17 0.24 0.33 0.41 0.47 0.54 0.63 0.68 0.84 0.89 1.03 0.98 0.95 0.89 0.80 0.73 0.63 0.60 0.56 0.46 0.41 0.38 0.32 0.25 0.18 0.13 0.09 0.06 0.04 0.03 0.02 0.01 0.01 0.01 0.04 0.11 0.16
0.31 0.29 0.29 0.32 0.32 0.31 0.32 0.35 0.43 0.62 0.67 0.76 0.83 0.85 0.80 0.93 0.89 0.83 0.76 0.67 0.59 0.49 0.47 0.49 0.44 0.36 0.29 0.22 0.16 0.12 0.09 0.05 0.03 0.02 0.01 0.01 0.01 0.01 0.01 0.01 0.03 0.05 0.05
0.69 0.75 0.68 0.70 0.75 0.81 0.86 0.95 1.04 1.13 1.22 1.39 1.37 1.15 1.01 0.89 0.76 0.67 0.57 0.43 0.38 0.30 0.25 0.22 0.19 0.15 0.11 0.08 0.06 0.04 0.03 0.01 0.01 0.01 0.01 0.01 0.02 0.02 0.02 0.03 0.05 0.08 0.08
0.76 0.94 1.03 1.07 1.13 1.16 1.13 1.12 1.09 1.03 0.95 0.95 0.89 0.81 0.75 0.61 0.48 0.42 0.33 0.27 0.24 0.21 0.16 0.14 0.12 0.10 0.08 0.05 0.03 0.02 0.02 0.01 0.01 0.01 0.01 0.01 0.02 0.04 0.05 0.09 0.16 0.16 0.17
0.84 0.96 0.96 0.97 0.99 0.95 0.88 0.76 0.69 0.63 0.57 0.52 0.49 0.48 0.43 0.30 0.26 0.25 0.22 0.19 0.16 0.15 0.12 0.10 0.08 0.06 0.04 0.03 0.02 0.02 0.01 0.01 0.01 0.01 0.01 0.01 0.01 0.03 0.05 0.04 0.06 0.10 0.10
0.58 0.62 0.61 0.57 0.57 0.56 0.54 0.49 0.46 0.42 0.40 0.37 0.38 0.36 0.27 0.19 0.19 0.17 0.15 0.13 0.11 0.09 0.08 0.05 0.04 0.02 0.01 0.01 0.00 0.01 0.00 0.00 0.01 0.01 0.01 0.01 0.01 0.02 0.03 0.04 0.05 0.06 0.08
0.31 0.31 0.28 0.28 0.28 0.25 0.23 0.21 0.20 0.18 0.17 0.16 0.17 0.15 0.10 0.09 0.10 0.09 0.08 0.06 0.04 0.03 0.02 0.01 0.01 0.00 0.00 0.00 0.00 0.01 0.01 0.01 0.01 0.01 0.01 0.01 0.01 0.02 0.03 0.04 0.05 0.05 0.06
0.14 0.14 0.14 0.15 0.14 0.13 0.11 0.11 0.11 0.11 0.11 0.11 0.10 0.09 0.07 0.06 0.05 0.03 0.03 0.02 0.01 0.01 0.00 0.00 0.00 0.00 0.00 0.00 0.00 0.01 0.01 0.01 0.02 0.02 0.03 0.02 0.02 0.02 0.03 0.04 0.05 0.06 0.06
0.09 0.08 0.07 0.07 0.06 0.06 0.07 0.07 0.06 0.05 0.05 0.05 0.04 0.03 0.02 0.02 0.01 0.01 0.01 0.01 0.00 0.01 0.00 0.00 0.00 0.00 0.00 0.00 0.00 0.00 0.00 0.01 0.02 0.03 0.03 0.04 0.03 0.01 0.03 0.03 0.03 0.05 0.06
0.04 0.04 0.03 0.03 0.02 0.02 0.02 0.02 0.02 0.01 0.01 0.01 0.01 0.01 0.01 0.01 0.01 0.01 0.01 0.00 0.00 0.00 0.00 0.00 0.00 0.00 0.00 0.00 0.00 0.00 0.00 0.01 0.01 0.02 0.04 0.04 0.03 0.02 0.03 0.04 0.04 0.06 0.05
0.01 0.01 0.00 0.01 0.00 0.00 0.00 0.00 0.00 0.00 0.01 0.01 0.01 0.01 0.01 0.01 0.01 0.00 0.00 0.00 0.00 0.00 0.00 0.00 0.00 0.00 0.00 0.00 0.00 0.00 0.00 0.00 0.01 0.02 0.06 0.05 0.03 0.03 0.04 0.05 0.04 0.06 0.05

GFSGL_prec_precacc24_084.txt.gz
Total_Precipitation_Accumulation
0.25 0.09 0.00 0.00 0.00 0.00 0.02 0.03 0.03 0.09 0.20 0.18 0.12 0.17 0.21 0.32 0.36 0.23 0.15 0.11 0.10 0.11 0.10 0.11 0.11 0.12 0.14 0.15 0.15 0.15 0.12 0.12 0.13 0.07 0.04 0.04 0.03 0.03 0.01 0.00 0.00 0.00 0.00
0.35 0.30 0.15 0.05 0.08 0.09 0.06 0.05 0.09 0.29 0.53 0.43 0.22 0.18 0.16 0.15 0.24 0.34 0.33 0.30 0.28 0.27 0.28 0.27 0.24 0.26 0.31 0.34 0.36 0.32 0.28 0.25 0.30 0.26 0.16 0.12 0.09 0.07 0.05 0.03 0.03 0.02 0.02
0.20 0.20 0.20 0.29 0.47 0.44 0.25 0.13 0.10 0.14 0.22 0.20 0.22 0.16 0.15 0.13 0.16 0.20 0.19 0.21 0.24 0.29 0.36 0.39 0.33 0.28 0.23 0.21 0.23 0.25 0.22 0.23 0.25 0.24 0.16 0.10 0.08 0.06 0.06 0.07 0.06 0.04 0.02
0.09 0.09 0.12 0.13 0.13 0.06 0.02 0.06 0.08 0.04 0.06 0.10 0.08 0.08 0.08 0.08 0.09 0.09 0.12 0.16 0.18 0.20 0.22 0.26 0.36 0.43 0.42 0.37 0.32 0.26 0.23 0.22 0.21 0.20 0.17 0.13 0.12 0.08 0.08 0.09 0.07 0.07 0.07
0.06 0.05 0.04 0.07 0.09 0.06 0.04 0.05 0.04 0.04 0.08 0.12 0.08 0.06 0.07 0.07 0.09 0.10 0.11 0.11 0.13 0.16 0.17 0.19 0.20 0.23 0.24 0.23 0.24 0.19 0.18 0.19 0.21 0.21 0.20 0.14 0.14 0.10 0.08 0.07 0.10 0.11 0.15
0.06 0.10 0.06 0.06 0.06 0.04 0.06 0.09 0.08 0.10 0.16 0.17 0.17 0.15 0.11 0.12 0.22 0.17 0.10 0.05 0.04 0.05 0.05 0.05 0.08 0.12 0.10 0.15 0.18 0.20 0.18 0.17 0.18 0.20 0.23 0.23 0.17 0.17 0.18 0.23 0.28 0.33 0.34
0.02 0.11 0.10 0.06 0.09 0.11 0.13 0.13 0.13 0.15 0.21 0.21 0.19 0.18 0.14 0.12 0.20 0.18 0.14 0.04 0.04 0.04 0.03 0.04 0.06 0.10 0.15 0.09 0.19 0.24 0.30 0.43 0.47 0.42 0.45 0.43 0.36 0.34 0.31 0.33 0.36 0.37 0.37
0.02 0.05 0.07 0.10 0.13 0.16 0.14 0.12 0.14 0.16 0.17 0.17 0.16 0.14 0.13 0.14 0.17 0.13 0.14 0.05 0.05 0.07 0.07 0.07 0.08 0.10 0.19 0.22 0.23 0.37 0.49 0.60 0.63 0.61 0.63 0.69 0.67 0.60 0.53 0.47 0.41 0.34 0.29
0.01 0.02 0.03 0.07 0.09 0.09 0.09 0.13 0.17 0.19 0.13 0.10 0.11 0.10 0.09 0.11 0.17 0.13 0.12 0.04 0.06 0.09 0.09 0.12 0.17 0.15 0.41 0.33 0.20 0.28 0.38 0.44 0.55 0.53 0.48 0.52 0.56 0.47 0.37 0.28 0.27 0.22 0.21
0.02 0.03 0.02 0.03 0.06 0.08 0.08 0.09 0.12 0.13 0.09 0.10 0.11 0.13 0.17 0.12 0.20 0.15 0.13 0.06 0.13 0.16 0.17 0.23 0.41 0.25 0.40 0.25 0.14 0.09 0.17 0.25 0.26 0.32 0.33 0.32 0.29 0.26 0.25 0.20 0.18 0.20 0.20
0.01 0.02 0.03 0.03 0.04 0.09 0.10 0.12 0.09 0.09 0.14 0.17 0.16 0.13 0.13 0.15 0.16 0.18 0.14 0.05 0.07 0.14 0.20 0.23 0.28 0.44 0.32 0.34 0.31 0.19 0.35 0.44 0.47 0.32 0.25 0.24 0.19 0.15 0.14 0.14 0.12 0.12 0.11
0.03 0.05 0.07 0.08 0.08 0.07 0.11 0.14 0.14 0.12 0.12 0.15 0.18 0.16 0.11 0.11 0.23 0.22 0.21 0.23 0.29 0.16 0.22 0.30 0.46 0.57 0.38 0.36 0.34 0.41 0.48 0.35 0.24 0.26 0.29 0.30 0.29 0.26 0.21 0.15 0.07 0.03 0.02
0.05 0.05 0.07 0.07 0.09 0.16 0.20 0.19 0.20 0.24 0.23 0.20 0.18 0.20 0.20 0.19 0.23 0.33 0.31 0.38 0.44 0.37 0.47 0.65 0.71 0.58 0.46 0.46 0.49 0.50 0.47 0.45 0.49 0.54 0.56 0.53 0.44 0.32 0.20 0.12 0.06 0.03 0.02
0.07 0.06 0.06 0.06 0.10 0.10 0.13 0.15 0.16 0.17 0.21 0.29 0.35 0.37 0.39 0.41 0.41 0.40 0.44 0.50 0.59 0.66 0.78 0.77 0.71 0.66 0.61 0.64 0.70 0.65 0.58 0.57 0.55 0.52 0.48 0.41 0.29 0.20 0.16 0.12 0.08 0.04 0.04
0.10 0.09 0.10 0.09 0.09 0.08 0.10 0.18 0.20 0.31 0.43 0.46 0.54 0.65 0.72 0.81 0.94 0.94 0.83 0.85 0.91 1.00 1.00 1.04 1.05 0.98 0.91 0.87 0.82 0.76 0.69 0.59 0.49 0.41 0.32 0.25 0.17 0.12 0.09 0.05 0.02 0.01 0.02
0.14 0.15 0.19 0.16 0.16 0.17 0.18 0.24 0.35 0.44 0.51 0.58 0.71 0.77 0.99 1.11 1.28 1.23 1.20 1.19 1.16 1.13 1.04 1.02 0.99 0.93 0.88 0.82 0.71 0.60 0.48 0.38 0.30 0.22 0.16 0.11 0.07 0.04 0.01 0.00 0.00 0.01 0.02
0.31 0.29 0.29 0.32 0.32 0.31 0.33 0.35 0.44 0.63 0.70 0.84 0.95 1.00 0.98 1.16 1.14 1.06 0.96 0.89 0.85 0.74 0.71 0.75 0.70 0.64 0.56 0.47 0.37 0.29 0.24 0.19 0.13 0.09 0.05 0.03 0.01 0.01 0.00 0.00 0.00 0.01 0.01
0.70 0.75 0.69 0.70 0.76 0.81 0.87 0.96 1.04 1.13 1.24 1.46 1.49 1.33 1.24 1.14 1.08 1.00 0.88 0.68 0.62 0.50 0.44 0.40 0.35 0.29 0.23 0.18 0.14 0.11 0.08 0.05 0.03 0.01 0.01 0.01 0.01 0.01 0.01 0.01 0.00 0.01 0.03
0.75 0.94 1.02 1.05 1.11 1.13 1.09 1.07 1.03 0.98 0.95 0.99 0.94 0.87 0.85 0.74 0.61 0.53 0.43 0.36 0.33 0.30 0.25 0.22 0.18 0.15 0.11 0.07 0.05 0.03 0.02 0.01 0.01 0.01 0.01 0.01 0.01 0.01 0.01 0.01 0.01 0.02 0.06
0.78 0.90 0.88 0.88 0.87 0.82 0.77 0.68 0.65 0.61 0.57 0.55 0.53 0.54 0.49 0.35 0.32 0.32 0.28 0.24 0.22 0.20 0.16 0.13 0.12 0.08 0.05 0.03 0.02 0.02 0.01 0.01 0.01 0.01 0.01 0.01 0.01 0.01 0.02 0.01 0.02 0.04 0.05
0.48 0.51 0.50 0.46 0.46 0.47 0.47 0.46 0.44 0.40 0.39 0.38 0.40 0.39 0.29 0.21 0.22 0.20 0.18 0.16 0.13 0.12 0.09 0.06 0.04 0.02 0.01 0.01 0.00 0.01 0.00 0.00 0.00 0.01 0.01 0.01 0.01 0.01 0.01 0.01 0.02 0.03 0.05
0.23 0.23 0.21 0.21 0.22 0.20 0.20 0.19 0.19 0.17 0.17 0.16 0.18 0.15 0.10 0.09 0.10 0.09 0.08 0.06 0.04 0.03 0.02 0.01 0.01 0.00 0.00 0.00 0.00 0.01 0.01 0.01 0.00 0.01 0.01 0.01 0.01 0.01 0.01 0.02 0.02 0.03 0.05
0.10 0.10 0.10 0.11 0.10 0.11 0.10 0.11 0.11 0.10 0.11 0.11 0.09 0.08 0.06 0.06 0.04 0.03 0.03 0.02 0.01 0.01 0.00 0.00 0.00 0.00 0.00 0.00 0.00 0.00 0.01 0.01 0.01 0.01 0.02 0.02 0.02 0.02 0.02 0.03 0.02 0.04 0.05
0.05 0.05 0.05 0.05 0.05 0.05 0.06 0.06 0.05 0.05 0.04 0.04 0.03 0.03 0.02 0.01 0.01 0.01 0.01 0.01 0.01 0.01 0.00 0.00 0.00 0.00 0.00 0.00 0.00 0.00 0.00 0.01 0.01 0.02 0.02 0.03 0.02 0.01 0.02 0.03 0.02 0.03 0.05
0.02 0.02 0.02 0.02 0.02 0.02 0.02 0.01 0.02 0.01 0.01 0.01 0.01 0.01 0.02 0.01 0.01 0.01 0.01 0.00 0.00 0.00 0.00 0.00 0.00 0.00 0.00 0.00 0.00 0.00 0.00 0.00 0.01 0.01 0.03 0.03 0.02 0.02 0.02 0.03 0.03 0.04 0.04
0.00 0.00 0.00 0.00 0.00 0.00 0.00 0.00 0.00 0.00 0.01 0.01 0.01 0.01 0.01 0.01 0.01 0.00 0.00 0.00 0.00 0.00 0.00 0.00 0.00 0.00 0.00 0.00 0.00 0.00 0.00 0.00 0.00 0.01 0.04 0.03 0.03 0.02 0.03 0.04 0.03 0.04 0.03

GFSGL_prec_precacc24_087.txt.gz
Total_Precipitation_Accumulation
0.13 0.06 0.00 0.00 0.00 0.00 0.00 0.00 0.00 0.00 0.01 0.03 0.06 0.09 0.09 0.11 0.20 0.16 0.11 0.10 0.10 0.10 0.10 0.10 0.10 0.12 0.14 0.15 0.16 0.16 0.12 0.13 0.14 0.08 0.04 0.04 0.03 0.03 0.01 0.00 0.00 0.00 0.00
0.13 0.14 0.08 0.01 0.00 0.01 0.01 0.00 0.00 0.00 0.01 0.04 0.09 0.11 0.11 0.10 0.20 0.31 0.31 0.29 0.28 0.26 0.27 0.26 0.23 0.25 0.30 0.33 0.35 0.32 0.28 0.25 0.30 0.26 0.16 0.12 0.09 0.07 0.05 0.03 0.03 0.02 0.02
0.05 0.10 0.10 0.05 0.05 0.21 0.16 0.07 0.02 0.01 0.03 0.09 0.12 0.09 0.05 0.08 0.12 0.18 0.19 0.21 0.24 0.28 0.36 0.38 0.32 0.27 0.23 0.20 0.23 0.25 0.22 0.23 0.25 0.24 0.16 0.10 0.08 0.06 0.06 0.07 0.06 0.04 0.02
0.04 0.04 0.07 0.08 0.09 0.06 0.01 0.00 0.00 0.00 0.01 0.06 0.06 0.05 0.04 0.04 0.07 0.09 0.12 0.16 0.18 0.20 0.22 0.26 0.36 0.43 0.42 0.37 0.32 0.26 0.23 0.22 0.21 0.20 0.17 0.13 0.12 0.08 0.08 0.09 0.07 0.07 0.07
0.12 0.12 0.13 0.09 0.12 0.09 0.06 0.03 0.00 0.00 0.02 0.05 0.04 0.03 0.03 0.03 0.07 0.10 0.11 0.11 0.12 0.16 0.17 0.19 0.20 0.23 0.23 0.23 0.24 0.19 0.18 0.19 0.21 0.21 0.20 0.14 0.14 0.10 0.08 0.07 0.10 0.11 0.15
0.07 0.12 0.07 0.07 0.08 0.06 0.11 0.17 0.10 0.08 0.11 0.14 0.14 0.12 0.07 0.09 0.19 0.16 0.09 0.05 0.04 0.05 0.05 0.05 0.08 0.12 0.10 0.15 0.18 0.20 0.18 0.17 0.18 0.20 0.23 0.23 0.17 0.17 0.18 0.23 0.29 0.35 0.37
0.02 0.11 0.09 0.05 0.07 0.09 0.15 0.15 0.13 0.16 0.21 0.19 0.18 0.17 0.13 0.12 0.21 0.19 0.15 0.04 0.04 0.04 0.03 0.04 0.06 0.10 0.15 0.09 0.19 0.24 0.30 0.43 0.47 0.42 0.45 0.43 0.36 0.34 0.31 0.34 0.36 0.38 0.40
0.01 0.02 0.04 0.07 0.09 0.12 0.12 0.11 0.13 0.17 0.17 0.18 0.16 0.15 0.15 0.15 0.21 0.22 0.24 0.08 0.05 0.07 0.07 0.07 0.08 0.10 0.19 0.22 0.23 0.37 0.49 0.60 0.63 0.61 0.63 0.69 0.67 0.61 0.56 0.52 0.47 0.43 0.41
0.00 0.00 0.00 0.04 0.05 0.05 0.07 0.10 0.14 0.17 0.11 0.08 0.10 0.15 0.13 0.13 0.23 0.21 0.24 0.08 0.08 0.12 0.12 0.13 0.17 0.15 0.41 0.33 0.20 0.28 0.38 0.44 0.55 0.54 0.49 0.54 0.58 0.51 0.42 0.33 0.35 0.34 0.35
0.00 0.01 0.00 0.02 0.04 0.06 0.05 0.05 0.10 0.12 0.07 0.09 0.12 0.15 0.23 0.15 0.27 0.22 0.18 0.09 0.17 0.19 0.20 0.24 0.43 0.26 0.40 0.25 0.14 0.09 0.17 0.25 0.27 0.34 0.37 0.37 0.35 0.35 0.39 0.32 0.31 0.37 0.37
0.00 0.01 0.01 0.02 0.02 0.08 0.09 0.11 0.08 0.08 0.14 0.17 0.18 0.16 0.17 0.20 0.22 0.25 0.18 0.10 0.13 0.17 0.24 0.27 0.31 0.52 0.38 0.39 0.35 0.23 0.44 0.54 0.57 0.42 0.35 0.35 0.31 0.29 0.27 0.25 0.26 0.27 0.26
0.02 0.04 0.07 0.07 0.08 0.06 0.10 0.14 0.14 0.12 0.12 0.15 0.19 0.18 0.15 0.16 0.31 0.27 0.25 0.29 0.41 0.29 0.37 0.42 0.61 0.75 0.50 0.46 0.43 0.55 0.66 0.46 0.29 0.31 0.35 0.39 0.40 0.41 0.41 0.38 0.33 0.29 0.26
0.05 0.05 0.07 0.07 0.09 0.16 0.20 0.19 0.20 0.24 0.23 0.20 0.19 0.22 0.23 0.22 0.28 0.41 0.36 0.44 0.55 0.51 0.64 0.85 0.88 0.70 0.56 0.60 0.69 0.69 0.62 0.57 0.66 0.76 0.80 0.79 0.71 0.61 0.50 0.43 0.37 0.31 0.27
0.07 0.06 0.06 0.06 0.10 0.10 0.13 0.15 0.16 0.17 0.21 0.29 0.35 0.37 0.40 0.43 0.44 0.45 0.49 0.57 0.69 0.81 1.07 1.15 1.12 1.02 0.94 0.95 1.01 0.94 0.85 0.85 0.87 0.88 0.84 0.76 0.62 0.51 0.44 0.38 0.33 0.27 0.22
0.10 0.09 0.10 0.09 0.09 0.08 0.10 0.19 0.21 0.32 0.44 0.46 0.55 0.65 0.73 0.84 0.99 1.01 0.94 0.97 1.07 1.21 1.25 1.36 1.39 1.32 1.25 1.23 1.19 1.18 1.15 1.09 1.02 0.92 0.78 0.66 0.56 0.46 0.36 0.26 0.19 0.14 0.11
0.14 0.15 0.19 0.16 0.16 0.17 0.18 0.24 0.35 0.44 0.51 0.59 0.71 0.79 1.04 1.17 1.35 1.29 1.29 1.29 1.28 1.25 1.16 1.19 1.21 1.16 1.10 1.04 0.94 0.84 0.72 0.62 0.53 0.42 0.34 0.27 0.20 0.15 0.10 0.05 0.03 0.03 0.02
0.31 0.29 0.29 0.32 0.32 0.31 0.33 0.35 0.44 0.63 0.70 0.84 0.95 1.02 0.99 1.18 1.17 1.11 1.04 0.96 0.95 0.83 0.80 0.86 0.83 0.78 0.70 0.59 0.50 0.42 0.36 0.29 0.21 0.16 0.12 0.08 0.05 0.03 0.02 0.01 0.01 0.01 0.01
0.69 0.74 0.69 0.70 0.75 0.80 0.86 0.94 1.02 1.11 1.22 1.42 1.45 1.30 1.23 1.13 1.09 1.02 0.91 0.70 0.65 0.55 0.48 0.45 0.41 0.35 0.30 0.25 0.21 0.17 0.14 0.10 0.06 0.03 0.02 0.01 0.01 0.01 0.01 0.01 0.00 0.01 0.01
0.70 0.85 0.94 0.98 1.05 1.08 1.05 1.02 0.98 0.93 0.89 0.92 0.88 0.82 0.83 0.72 0.60 0.54 0.44 0.38 0.37 0.34 0.29 0.27 0.24 0.21 0.18 0.14 0.10 0.06 0.04 0.02 0.01 0.01 0.01 0.01 0.01 0.01 0.01 0.01 0.01 0.01 0.01
0.64 0.80 0.81 0.82 0.83 0.78 0.72 0.63 0.60 0.56 0.53 0.51 0.50 0.51 0.47 0.34 0.32 0.33 0.29 0.26 0.24 0.24 0.20 0.17 0.15 0.12 0.08 0.05 0.03 0.02 0.02 0.01 0.01 0.01 0.01 0.01 0.01 0.01 0.02 0.01 0.01 0.01 0.01
0.41 0.45 0.45 0.41 0.42 0.44 0.44 0.43 0.41 0.37 0.36 0.35 0.38 0.37 0.28 0.20 0.22 0.20 0.18 0.16 0.14 0.12 0.09 0.06 0.04 0.02 0.01 0.01 0.00 0.01 0.00 0.00 0.00 0.00 0.01 0.01 0.01 0.01 0.01 0.01 0.01 0.01 0.01
0.19 0.19 0.18 0.18 0.19 0.18 0.18 0.16 0.16 0.14 0.15 0.14 0.16 0.14 0.09 0.08 0.09 0.07 0.06 0.05 0.03 0.02 0.02 0.01 0.01 0.00 0.00 0.00 0.00 0.00 0.01 0.01 0.00 0.01 0.01 0.01 0.01 0.01 0.01 0.02 0.01 0.02 0.02
0.07 0.07 0.07 0.08 0.08 0.08 0.08 0.09 0.09 0.08 0.09 0.08 0.07 0.06 0.04 0.04 0.03 0.02 0.02 0.02 0.01 0.01 0.00 0.00 0.00 0.00 0.00 0.00 0.00 0.00 0.00 0.01 0.01 0.01 0.02 0.02 0.01 0.02 0.02 0.02 0.02 0.02 0.02
0.03 0.03 0.03 0.04 0.04 0.03 0.04 0.04 0.03 0.03 0.02 0.02 0.02 0.01 0.01 0.01 0.01 0.01 0.01 0.01 0.01 0.01 0.00 0.00 0.00 0.00 0.00 0.00 0.00 0.00 0.00 0.00 0.01 0.01 0.02 0.02 0.02 0.01 0.02 0.02 0.02 0.02 0.03
0.01 0.01 0.01 0.01 0.01 0.01 0.01 0.00 0.01 0.01 0.01 0.01 0.01 0.01 0.02 0.01 0.01 0.01 0.01 0.00 0.00 0.00 0.00 0.00 0.00 0.00 0.00 0.00 0.00 0.00 0.00 0.00 0.01 0.01 0.02 0.02 0.02 0.02 0.02 0.03 0.03 0.03 0.03
0.00 0.00 0.00 0.00 0.00 0.00 0.00 0.00 0.00 0.00 0.01 0.01 0.01 0.01 0.01 0.01 0.01 0.00 0.00 0.00 0.00 0.00 0.00 0.00 0.00 0.00 0.00 0.00 0.00 0.00 0.00 0.00 0.00 0.01 0.03 0.02 0.02 0.02 0.03 0.03 0.02 0.03 0.02

GFSGL_prec_precacc24_090.txt.gz
Total_Precipitation_Accumulation
0.04 0.03 0.00 0.00 0.00 0.00 0.00 0.00 0.00 0.00 0.00 0.00 0.00 0.00 0.00 0.00 0.06 0.06 0.04 0.03 0.03 0.06 0.08 0.09 0.09 0.11 0.15 0.16 0.16 0.16 0.14 0.14 0.15 0.08 0.04 0.04 0.03 0.03 0.01 0.00 0.00 0.00 0.00
0.03 0.07 0.05 0.00 0.00 0.00 0.00 0.00 0.00 0.00 0.00 0.00 0.00 0.01 0.03 0.04 0.07 0.14 0.21 0.22 0.24 0.24 0.24 0.23 0.22 0.24 0.30 0.32 0.34 0.31 0.28 0.25 0.31 0.28 0.16 0.12 0.09 0.07 0.05 0.03 0.03 0.02 0.02
0.02 0.03 0.05 0.03 0.02 0.00 0.00 0.00 0.00 0.00 0.00 0.00 0.00 0.00 0.01 0.04 0.10 0.13 0.14 0.17 0.22 0.27 0.35 0.37 0.31 0.26 0.22 0.20 0.23 0.25 0.22 0.23 0.25 0.24 0.17 0.10 0.08 0.06 0.06 0.07 0.06 0.04 0.02
0.13 0.10 0.09 0.08 0.07 0.04 0.01 0.00 0.00 0.00 0.00 0.00 0.00 0.00 0.01 0.02 0.05 0.06 0.09 0.14 0.18 0.19 0.21 0.25 0.35 0.42 0.42 0.37 0.32 0.26 0.23 0.23 0.21 0.20 0.17 0.13 0.12 0.08 0.08 0.09 0.07 0.07 0.07
0.19 0.17 0.16 0.07 0.09 0.06 0.05 0.03 0.00 0.00 0.00 0.00 0.00 0.00 0.01 0.01 0.02 0.05 0.07 0.09 0.12 0.15 0.16 0.18 0.19 0.21 0.23 0.23 0.24 0.19 0.18 0.19 0.21 0.21 0.20 0.14 0.14 0.10 0.08 0.07 0.10 0.11 0.15
0.10 0.16 0.09 0.06 0.05 0.04 0.07 0.12 0.06 0.05 0.03 0.01 0.01 0.02 0.02 0.03 0.09 0.08 0.05 0.03 0.03 0.03 0.04 0.04 0.07 0.11 0.09 0.14 0.18 0.20 0.18 0.17 0.18 0.20 0.23 0.23 0.17 0.17 0.18 0.23 0.29 0.35 0.37
0.02 0.11 0.10 0.05 0.05 0.06 0.12 0.09 0.07 0.09 0.11 0.09 0.07 0.07 0.07 0.07 0.16 0.19 0.15 0.04 0.02 0.02 0.02 0.04 0.05 0.10 0.15 0.09 0.19 0.24 0.30 0.43 0.47 0.42 0.45 0.43 0.36 0.34 0.31 0.34 0.36 0.38 0.40
0.01 0.02 0.04 0.07 0.06 0.08 0.06 0.06 0.07 0.10 0.09 0.10 0.09 0.11 0.10 0.09 0.20 0.27 0.29 0.12 0.05 0.07 0.07 0.06 0.07 0.10 0.19 0.22 0.23 0.37 0.49 0.60 0.63 0.61 0.63 0.69 0.67 0.61 0.57 0.53 0.48 0.44 0.42
0.00 0.00 0.00 0.03 0.04 0.04 0.04 0.06 0.09 0.11 0.07 0.06 0.09 0.13 0.10 0.11 0.29 0.22 0.25 0.10 0.10 0.13 0.13 0.15 0.19 0.16 0.42 0.34 0.21 0.28 0.38 0.44 0.55 0.54 0.50 0.55 0.60 0.52 0.43 0.35 0.37 0.41 0.45
0.00 0.00 0.00 0.01 0.03 0.05 0.04 0.03 0.08 0.10 0.05 0.07 0.09 0.13 0.22 0.15 0.33 0.23 0.19 0.12 0.22 0.22 0.22 0.27 0.51 0.33 0.44 0.27 0.16 0.11 0.21 0.28 0.29 0.36 0.40 0.40 0.37 0.38 0.45 0.35 0.32 0.43 0.58
0.00 0.00 0.01 0.01 0.02 0.08 0.08 0.09 0.06 0.06 0.11 0.14 0.15 0.14 0.16 0.20 0.24 0.27 0.21 0.12 0.15 0.26 0.37 0.38 0.42 0.66 0.44 0.46 0.46 0.37 0.70 0.80 0.81 0.58 0.46 0.45 0.39 0.36 0.35 0.35 0.36 0.41 0.49
0.00 0.02 0.06 0.07 0.07 0.06 0.09 0.13 0.13 0.10 0.10 0.13 0.16 0.16 0.14 0.16 0.32 0.28 0.25 0.30 0.44 0.33 0.48 0.56 0.75 0.89 0.59 0.59 0.65 0.92 1.11 0.83 0.61 0.62 0.66 0.66 0.60 0.55 0.52 0.48 0.44 0.41 0.41
0.03 0.05 0.06 0.05 0.07 0.13 0.16 0.15 0.16 0.20 0.20 0.17 0.18 0.21 0.23 0.22 0.28 0.41 0.37 0.45 0.57 0.53 0.69 0.98 1.02 0.80 0.65 0.71 0.91 1.01 1.01 1.02 1.19 1.33 1.39 1.37 1.24 1.06 0.86 0.72 0.60 0.50 0.44
0.06 0.06 0.06 0.05 0.08 0.08 0.11 0.13 0.14 0.16 0.19 0.29 0.36 0.38 0.40 0.43 0.45 0.45 0.49 0.57 0.70 0.82 1.09 1.20 1.20 1.15 1.11 1.16 1.25 1.21 1.15 1.22 1.28 1.32 1.28 1.19 1.01 0.85 0.74 0.67 0.58 0.51 0.43
0.10 0.09 0.10 0.09 0.09 0.08 0.11 0.19 0.21 0.34 0.45 0.47 0.56 0.66 0.74 0.85 1.01 1.01 0.94 0.98 1.08 1.22 1.27 1.39 1.44 1.39 1.35 1.33 1.29 1.27 1.24 1.19 1.13 1.08 0.98 0.91 0.80 0.68 0.58 0.45 0.35 0.27 0.20
0.14 0.15 0.19 0.16 0.16 0.17 0.18 0.24 0.36 0.45 0.52 0.59 0.72 0.79 1.04 1.18 1.34 1.29 1.28 1.29 1.28 1.26 1.17 1.20 1.23 1.18 1.12 1.07 0.98 0.89 0.77 0.67 0.60 0.50 0.42 0.35 0.28 0.22 0.15 0.09 0.06 0.04 0.03
0.31 0.30 0.29 0.31 0.31 0.31 0.32 0.35 0.43 0.59 0.64 0.77 0.89 0.96 0.96 1.17 1.16 1.11 1.04 0.96 0.95 0.83 0.80 0.86 0.84 0.79 0.71 0.61 0.52 0.44 0.40 0.34 0.26 0.21 0.16 0.12 0.08 0.04 0.02 0.02 0.01 0.01 0.01
0.65 0.67 0.60 0.61 0.66 0.72 0.77 0.84 0.92 1.01 1.13 1.35 1.41 1.29 1.22 1.11 1.07 1.00 0.89 0.69 0.65 0.55 0.49 0.46 0.42 0.36 0.31 0.26 0.22 0.19 0.15 0.11 0.07 0.04 0.02 0.01 0.01 0.01 0.01 0.01 0.00 0.00 0.00
0.66 0.78 0.84 0.85 0.90 0.94 0.92 0.91 0.90 0.85 0.82 0.85 0.81 0.75 0.76 0.66 0.56 0.50 0.41 0.35 0.33 0.32 0.28 0.26 0.24 0.21 0.18 0.14 0.11 0.07 0.04 0.02 0.01 0.01 0.01 0.01 0.01 0.01 0.01 0.01 0.01 0.01 0.01
0.51 0.65 0.69 0.71 0.73 0.71 0.66 0.58 0.54 0.50 0.47 0.46 0.45 0.47 0.43 0.30 0.28 0.29 0.26 0.24 0.22 0.21 0.18 0.15 0.14 0.10 0.07 0.04 0.03 0.02 0.02 0.01 0.01 0.00 0.00 0.01 0.01 0.01 0.01 0.01 0.01 0.01 0.01
0.32 0.37 0.38 0.36 0.38 0.39 0.39 0.38 0.36 0.33 0.32 0.31 0.34 0.33 0.25 0.18 0.19 0.17 0.16 0.14 0.12 0.10 0.07 0.04 0.02 0.01 0.01 0.01 0.00 0.01 0.00 0.00 0.00 0.00 0.01 0.01 0.01 0.01 0.01 0.01 0.01 0.01 0.01
0.15 0.16 0.14 0.15 0.16 0.15 0.15 0.14 0.14 0.13 0.13 0.12 0.14 0.12 0.08 0.07 0.07 0.06 0.04 0.03 0.02 0.01 0.01 0.00 0.00 0.00 0.00 0.00 0.00 0.00 0.00 0.00 0.00 0.01 0.01 0.01 0.01 0.01 0.01 0.02 0.01 0.02 0.02
0.04 0.05 0.05 0.06 0.06 0.07 0.07 0.08 0.08 0.07 0.08 0.07 0.06 0.05 0.03 0.03 0.02 0.01 0.02 0.02 0.01 0.01 0.00 0.00 0.00 0.00 0.00 0.00 0.00 0.00 0.00 0.01 0.01 0.01 0.01 0.01 0.01 0.01 0.02 0.02 0.02 0.02 0.02
0.02 0.02 0.02 0.02 0.02 0.02 0.03 0.03 0.02 0.02 0.02 0.02 0.01 0.01 0.01 0.01 0.01 0.01 0.01 0.01 0.01 0.01 0.00 0.00 0.00 0.00 0.00 0.00 0.00 0.00 0.00 0.00 0.01 0.01 0.01 0.02 0.02 0.01 0.02 0.02 0.02 0.02 0.02
0.00 0.00 0.00 0.00 0.00 0.00 0.00 0.00 0.01 0.00 0.00 0.01 0.01 0.01 0.01 0.01 0.01 0.01 0.01 0.00 0.00 0.00 0.00 0.00 0.00 0.00 0.00 0.00 0.00 0.00 0.00 0.00 0.00 0.01 0.01 0.01 0.02 0.01 0.02 0.02 0.02 0.03 0.02
0.00 0.00 0.00 0.00 0.00 0.00 0.00 0.00 0.00 0.00 0.01 0.01 0.01 0.01 0.01 0.00 0.01 0.00 0.00 0.00 0.00 0.00 0.00 0.00 0.00 0.00 0.00 0.00 0.00 0.00 0.00 0.00 0.00 0.01 0.02 0.02 0.02 0.02 0.02 0.03 0.02 0.02 0.02

GFSGL_prec_precacc24_096.txt.gz
Total_Precipitation_Accumulation
0.00 0.00 0.00 0.00 0.01 0.00 0.00 0.00 0.00 0.00 0.00 0.00 0.00 0.02 0.04 0.01 0.03 0.02 0.01 0.02 0.02 0.02 0.03 0.05 0.04 0.04 0.09 0.11 0.13 0.15 0.13 0.13 0.17 0.09 0.04 0.04 0.03 0.03 0.01 0.00 0.00 0.00 0.00
0.01 0.01 0.00 0.00 0.00 0.01 0.00 0.00 0.00 0.00 0.00 0.00 0.00 0.00 0.00 0.00 0.00 0.00 0.00 0.00 0.00 0.00 0.01 0.02 0.02 0.04 0.07 0.09 0.18 0.25 0.25 0.23 0.34 0.31 0.16 0.12 0.09 0.07 0.05 0.03 0.03 0.02 0.02
0.06 0.05 0.01 0.01 0.00 0.00 0.00 0.00 0.00 0.00 0.00 0.00 0.01 0.00 0.00 0.00 0.00 0.00 0.00 0.00 0.00 0.00 0.01 0.02 0.02 0.04 0.06 0.08 0.12 0.16 0.16 0.21 0.26 0.26 0.17 0.11 0.09 0.07 0.08 0.07 0.06 0.04 0.02
0.25 0.26 0.16 0.09 0.06 0.03 0.01 0.01 0.00 0.00 0.00 0.00 0.00 0.00 0.00 0.00 0.00 0.00 0.00 0.00 0.00 0.00 0.00 0.01 0.03 0.07 0.14 0.22 0.29 0.25 0.24 0.26 0.25 0.23 0.17 0.13 0.13 0.08 0.10 0.10 0.08 0.07 0.07
0.37 0.39 0.29 0.10 0.10 0.07 0.06 0.03 0.01 0.01 0.00 0.00 0.00 0.00 0.00 0.00 0.00 0.00 0.00 0.00 0.00 0.00 0.01 0.04 0.08 0.13 0.16 0.19 0.23 0.20 0.21 0.23 0.25 0.26 0.21 0.15 0.14 0.10 0.09 0.08 0.11 0.11 0.16
0.24 0.31 0.24 0.14 0.08 0.05 0.08 0.12 0.07 0.05 0.03 0.01 0.01 0.02 0.01 0.01 0.02 0.00 0.00 0.00 0.00 0.00 0.01 0.02 0.03 0.04 0.06 0.10 0.15 0.18 0.18 0.19 0.20 0.21 0.24 0.24 0.18 0.17 0.18 0.24 0.29 0.35 0.37
0.24 0.26 0.21 0.15 0.16 0.14 0.16 0.12 0.10 0.12 0.12 0.10 0.09 0.08 0.09 0.13 0.18 0.11 0.10 0.02 0.01 0.01 0.01 0.01 0.02 0.05 0.09 0.08 0.16 0.21 0.29 0.43 0.48 0.45 0.47 0.46 0.40 0.40 0.36 0.35 0.37 0.39 0.40
0.27 0.31 0.28 0.23 0.18 0.18 0.12 0.09 0.09 0.12 0.12 0.12 0.10 0.12 0.12 0.17 0.23 0.24 0.23 0.10 0.03 0.05 0.07 0.07 0.07 0.08 0.17 0.23 0.23 0.37 0.50 0.62 0.72 0.81 0.92 1.03 1.00 0.82 0.72 0.66 0.62 0.58 0.52
0.09 0.10 0.17 0.24 0.27 0.21 0.12 0.08 0.10 0.11 0.05 0.04 0.07 0.12 0.08 0.11 0.28 0.18 0.21 0.09 0.09 0.10 0.12 0.19 0.23 0.13 0.34 0.28 0.16 0.25 0.37 0.47 0.68 0.71 0.78 0.77 0.76 0.66 0.57 0.53 0.68 0.81 0.84
0.02 0.03 0.03 0.04 0.07 0.09 0.09 0.07 0.08 0.08 0.02 0.04 0.05 0.09 0.16 0.11 0.28 0.20 0.16 0.10 0.19 0.18 0.19 0.26 0.59 0.33 0.40 0.26 0.16 0.15 0.29 0.40 0.47 0.53 0.63 0.64 0.60 0.61 0.71 0.56 0.57 0.85 1.21
0.02 0.01 0.02 0.02 0.02 0.06 0.05 0.06 0.04 0.04 0.08 0.11 0.11 0.12 0.13 0.15 0.17 0.20 0.15 0.11 0.13 0.20 0.31 0.32 0.39 0.68 0.41 0.46 0.50 0.44 0.87 1.04 1.11 0.88 0.79 0.83 0.74 0.64 0.60 0.60 0.60 0.70 0.91
0.02 0.01 0.01 0.01 0.01 0.01 0.05 0.07 0.08 0.08 0.07 0.10 0.13 0.13 0.11 0.10 0.19 0.17 0.16 0.20 0.32 0.24 0.39 0.48 0.69 0.85 0.57 0.61 0.69 1.00 1.27 1.07 0.86 0.89 0.93 0.97 0.95 0.93 0.90 0.82 0.75 0.72 0.75
0.00 0.00 0.00 0.00 0.01 0.06 0.10 0.10 0.13 0.16 0.16 0.12 0.12 0.15 0.17 0.16 0.18 0.28 0.25 0.31 0.43 0.41 0.58 0.87 0.94 0.77 0.65 0.73 0.94 1.04 1.07 1.09 1.29 1.45 1.54 1.54 1.42 1.27 1.08 0.92 0.78 0.67 0.60
0.02 0.02 0.01 0.01 0.04 0.05 0.09 0.11 0.12 0.14 0.15 0.22 0.27 0.28 0.29 0.29 0.29 0.29 0.35 0.44 0.58 0.71 1.02 1.16 1.19 1.15 1.11 1.16 1.26 1.24 1.19 1.26 1.34 1.39 1.38 1.31 1.12 0.95 0.83 0.76 0.66 0.59 0.49
0.09 0.09 0.09 0.08 0.08 0.08 0.11 0.18 0.20 0.32 0.37 0.41 0.50 0.58 0.64 0.74 0.90 0.90 0.83 0.89 1.02 1.19 1.25 1.38 1.43 1.39 1.35 1.34 1.30 1.28 1.25 1.21 1.14 1.10 1.00 0.93 0.82 0.70 0.60 0.47 0.37 0.28 0.21
0.14 0.15 0.18 0.16 0.16 0.17 0.18 0.22 0.32 0.42 0.47 0.56 0.66 0.71 0.92 1.05 1.20 1.15 1.19 1.24 1.26 1.25 1.15 1.19 1.22 1.18 1.12 1.07 0.98 0.89 0.78 0.68 0.61 0.51 0.43 0.36 0.29 0.23 0.16 0.11 0.07 0.05 0.04
0.27 0.27 0.27 0.29 0.30 0.29 0.30 0.32 0.38 0.46 0.48 0.59 0.69 0.79 0.84 1.04 1.04 1.02 0.97 0.92 0.92 0.80 0.78 0.83 0.82 0.77 0.70 0.61 0.52 0.45 0.40 0.34 0.27 0.21 0.16 0.13 0.08 0.05 0.03 0.02 0.02 0.01 0.01
0.45 0.47 0.42 0.39 0.42 0.47 0.55 0.65 0.75 0.84 0.94 1.14 1.22 1.17 1.13 1.05 1.00 0.93 0.83 0.64 0.60 0.52 0.47 0.44 0.41 0.35 0.30 0.25 0.22 0.18 0.15 0.11 0.07 0.03 0.02 0.01 0.01 0.01 0.01 0.01 0.00 0.00 0.00
0.32 0.44 0.53 0.56 0.60 0.65 0.68 0.71 0.72 0.70 0.68 0.72 0.68 0.62 0.65 0.58 0.49 0.45 0.37 0.32 0.31 0.30 0.27 0.25 0.23 0.20 0.17 0.13 0.10 0.06 0.03 0.02 0.01 0.01 0.01 0.01 0.01 0.01 0.00 0.00 0.00 0.00 0.00
0.11 0.18 0.27 0.36 0.41 0.42 0.41 0.39 0.40 0.40 0.39 0.38 0.38 0.40 0.37 0.27 0.25 0.26 0.24 0.22 0.20 0.19 0.16 0.13 0.12 0.09 0.06 0.03 0.01 0.01 0.01 0.01 0.00 0.00 0.00 0.00 0.00 0.00 0.01 0.00 0.00 0.01 0.01
0.08 0.08 0.09 0.11 0.16 0.19 0.23 0.25 0.27 0.26 0.26 0.26 0.29 0.29 0.22 0.16 0.18 0.16 0.15 0.13 0.10 0.09 0.06 0.03 0.01 0.00 0.00 0.00 0.00 0.00 0.00 0.00 0.00 0.00 0.00 0.00 0.00 0.00 0.00 0.00 0.01 0.01 0.01
0.04 0.05 0.05 0.06 0.07 0.07 0.08 0.08 0.08 0.08 0.09 0.09 0.11 0.09 0.06 0.06 0.06 0.05 0.03 0.02 0.01 0.01 0.00 0.00 0.00 0.00 0.00 0.00 0.00 0.00 0.00 0.00 0.00 0.00 0.00 0.00 0.00 0.00 0.00 0.01 0.01 0.01 0.01
0.01 0.01 0.01 0.02 0.03 0.03 0.04 0.04 0.05 0.05 0.05 0.05 0.04 0.03 0.02 0.02 0.01 0.01 0.01 0.01 0.01 0.00 0.00 0.00 0.00 0.00 0.00 0.00 0.00 0.00 0.00 0.01 0.01 0.00 0.00 0.00 0.00 0.00 0.01 0.01 0.01 0.01 0.01
0.00 0.00 0.00 0.00 0.01 0.01 0.01 0.02 0.01 0.01 0.01 0.01 0.01 0.01 0.01 0.01 0.01 0.01 0.01 0.01 0.01 0.01 0.00 0.00 0.00 0.00 0.00 0.00 0.00 0.00 0.00 0.00 0.00 0.00 0.00 0.01 0.01 0.00 0.01 0.01 0.01 0.01 0.01
0.00 0.00 0.00 0.00 0.00 0.00 0.00 0.00 0.01 0.01 0.01 0.01 0.01 0.01 0.01 0.01 0.01 0.01 0.01 0.00 0.00 0.01 0.01 0.00 0.00 0.00 0.00 0.00 0.00 0.00 0.00 0.00 0.00 0.00 0.00 0.00 0.01 0.01 0.01 0.01 0.01 0.02 0.01
0.00 0.00 0.00 0.00 0.00 0.00 0.00 0.00 0.00 0.00 0.01 0.01 0.01 0.01 0.01 0.00 0.00 0.00 0.00 0.00 0.00 0.00 0.00 0.00 0.00 0.00 0.00 0.00 0.00 0.00 0.00 0.00 0.00 0.00 0.00 0.01 0.01 0.01 0.01 0.02 0.01 0.01 0.01

GFSGL_prec_precacc24_102.txt.gz
Total_Precipitation_Accumulation
0.01 0.01 0.01 0.01 0.01 0.00 0.00 0.01 0.00 0.01 0.00 0.01 0.00 0.02 0.04 0.03 0.07 0.12 0.09 0.05 0.02 0.02 0.02 0.02 0.01 0.01 0.03 0.03 0.05 0.06 0.07 0.09 0.11 0.03 0.00 0.00 0.01 0.01 0.00 0.00 0.00 0.00 0.00
0.03 0.03 0.02 0.01 0.01 0.01 0.00 0.01 0.00 0.01 0.01 0.01 0.01 0.00 0.00 0.01 0.01 0.03 0.07 0.06 0.07 0.04 0.02 0.01 0.00 0.01 0.01 0.02 0.03 0.04 0.03 0.04 0.10 0.11 0.03 0.03 0.03 0.02 0.03 0.03 0.02 0.01 0.02
0.08 0.07 0.04 0.03 0.01 0.01 0.01 0.02 0.01 0.01 0.01 0.02 0.03 0.01 0.00 0.00 0.01 0.02 0.01 0.02 0.02 0.01 0.02 0.02 0.01 0.01 0.01 0.01 0.01 0.02 0.02 0.03 0.03 0.04 0.02 0.03 0.03 0.02 0.04 0.04 0.04 0.03 0.02
0.33 0.31 0.23 0.14 0.08 0.05 0.01 0.03 0.01 0.01 0.02 0.02 0.03 0.02 0.02 0.01 0.01 0.02 0.02 0.02 0.01 0.00 0.00 0.00 0.00 0.00 0.00 0.01 0.05 0.05 0.08 0.11 0.11 0.10 0.05 0.05 0.07 0.03 0.09 0.08 0.07 0.06 0.06
0.54 0.54 0.42 0.20 0.15 0.10 0.08 0.06 0.02 0.02 0.02 0.02 0.03 0.05 0.04 0.03 0.02 0.01 0.00 0.01 0.01 0.00 0.00 0.00 0.00 0.00 0.00 0.01 0.04 0.08 0.16 0.18 0.18 0.22 0.17 0.12 0.12 0.09 0.09 0.11 0.16 0.12 0.19
0.44 0.47 0.43 0.30 0.17 0.10 0.10 0.14 0.09 0.06 0.04 0.03 0.03 0.02 0.03 0.02 0.05 0.01 0.01 0.01 0.01 0.01 0.02 0.02 0.01 0.01 0.00 0.00 0.03 0.06 0.08 0.09 0.08 0.10 0.15 0.18 0.13 0.15 0.16 0.22 0.27 0.32 0.37
0.46 0.50 0.42 0.32 0.27 0.19 0.19 0.16 0.13 0.13 0.14 0.12 0.12 0.10 0.11 0.15 0.23 0.13 0.11 0.03 0.05 0.07 0.05 0.04 0.05 0.05 0.05 0.01 0.03 0.04 0.04 0.09 0.16 0.22 0.26 0.31 0.39 0.50 0.48 0.46 0.49 0.55 0.57
0.60 0.69 0.65 0.51 0.35 0.29 0.25 0.20 0.17 0.16 0.16 0.16 0.14 0.16 0.15 0.21 0.27 0.25 0.24 0.11 0.06 0.10 0.11 0.08 0.06 0.05 0.12 0.11 0.04 0.07 0.12 0.24 0.43 0.63 0.87 1.03 1.09 0.87 0.70 0.65 0.62 0.63 0.67
0.47 0.49 0.60 0.68 0.68 0.58 0.46 0.40 0.37 0.35 0.21 0.14 0.13 0.16 0.12 0.13 0.30 0.16 0.18 0.08 0.14 0.18 0.20 0.25 0.24 0.12 0.26 0.18 0.09 0.12 0.17 0.30 0.54 0.51 0.56 0.56 0.55 0.48 0.43 0.45 0.67 0.86 0.95
0.27 0.42 0.43 0.45 0.58 0.68 0.80 0.75 0.62 0.57 0.47 0.39 0.34 0.31 0.31 0.16 0.32 0.23 0.20 0.19 0.27 0.28 0.27 0.29 0.54 0.37 0.35 0.28 0.23 0.23 0.27 0.36 0.40 0.41 0.49 0.53 0.50 0.53 0.67 0.52 0.55 0.86 1.25
0.28 0.23 0.35 0.48 0.43 0.48 0.51 0.59 0.65 0.59 0.50 0.45 0.41 0.39 0.37 0.31 0.28 0.29 0.28 0.26 0.26 0.28 0.32 0.27 0.26 0.51 0.31 0.34 0.38 0.32 0.72 0.87 0.95 0.74 0.67 0.72 0.65 0.57 0.55 0.56 0.57 0.68 0.90
0.23 0.22 0.18 0.18 0.29 0.31 0.31 0.28 0.27 0.31 0.31 0.28 0.25 0.23 0.19 0.16 0.21 0.16 0.13 0.15 0.24 0.20 0.31 0.38 0.49 0.61 0.39 0.42 0.51 0.83 1.09 0.92 0.74 0.77 0.81 0.87 0.88 0.89 0.88 0.80 0.73 0.71 0.75
0.04 0.08 0.11 0.11 0.11 0.15 0.20 0.19 0.17 0.17 0.16 0.12 0.10 0.11 0.13 0.12 0.13 0.19 0.16 0.22 0.32 0.31 0.48 0.70 0.69 0.52 0.45 0.54 0.76 0.89 0.95 0.99 1.20 1.40 1.51 1.52 1.41 1.27 1.08 0.92 0.78 0.67 0.60
0.01 0.01 0.02 0.03 0.04 0.04 0.05 0.08 0.12 0.13 0.11 0.14 0.20 0.21 0.20 0.20 0.20 0.19 0.21 0.28 0.40 0.55 0.82 0.94 0.99 0.99 0.98 1.04 1.16 1.17 1.15 1.24 1.31 1.36 1.35 1.29 1.12 0.95 0.83 0.76 0.66 0.59 0.49
0.00 0.00 0.00 0.00 0.02 0.03 0.07 0.10 0.10 0.19 0.17 0.18 0.25 0.32 0.36 0.44 0.58 0.58 0.59 0.68 0.83 1.01 1.10 1.22 1.27 1.25 1.23 1.24 1.22 1.21 1.19 1.16 1.11 1.08 1.00 0.92 0.82 0.70 0.60 0.47 0.37 0.28 0.21
0.00 0.00 0.01 0.01 0.01 0.03 0.05 0.08 0.14 0.18 0.16 0.20 0.28 0.34 0.54 0.65 0.75 0.77 0.85 0.93 1.01 1.03 0.98 1.03 1.08 1.06 1.00 0.96 0.89 0.83 0.74 0.66 0.60 0.51 0.43 0.36 0.29 0.23 0.16 0.11 0.07 0.05 0.04
0.02 0.02 0.02 0.04 0.05 0.07 0.10 0.14 0.19 0.23 0.23 0.30 0.37 0.45 0.52 0.66 0.68 0.70 0.69 0.66 0.67 0.60 0.60 0.67 0.67 0.64 0.60 0.53 0.47 0.41 0.38 0.34 0.27 0.20 0.16 0.12 0.07 0.04 0.02 0.02 0.01 0.01 0.00
0.02 0.02 0.03 0.07 0.12 0.16 0.18 0.22 0.34 0.47 0.50 0.58 0.65 0.70 0.72 0.66 0.65 0.62 0.57 0.45 0.44 0.39 0.37 0.35 0.33 0.30 0.26 0.23 0.20 0.17 0.14 0.10 0.06 0.03 0.01 0.00 0.00 0.00 0.00 0.00 0.00 0.00 0.00
0.02 0.03 0.03 0.04 0.08 0.09 0.12 0.16 0.21 0.23 0.24 0.28 0.27 0.26 0.31 0.30 0.26 0.24 0.20 0.18 0.19 0.20 0.20 0.19 0.18 0.17 0.15 0.12 0.09 0.05 0.03 0.01 0.00 0.00 0.00 0.00 0.00 0.00 0.00 0.00 0.00 0.00 0.00
0.02 0.02 0.02 0.04 0.06 0.08 0.09 0.09 0.10 0.11 0.12 0.13 0.13 0.17 0.17 0.12 0.12 0.14 0.14 0.13 0.13 0.14 0.13 0.11 0.10 0.08 0.05 0.03 0.01 0.01 0.01 0.00 0.00 0.00 0.00 0.00 0.00 0.00 0.00 0.00 0.00 0.00 0.00
0.02 0.01 0.01 0.02 0.03 0.04 0.04 0.05 0.05 0.05 0.07 0.08 0.10 0.11 0.09 0.07 0.09 0.08 0.08 0.07 0.07 0.06 0.05 0.02 0.01 0.00 0.00 0.00 0.00 0.00 0.00 0.00 0.00 0.00 0.00 0.00 0.00 0.00 0.00 0.00 0.00 0.00 0.00
0.01 0.01 0.01 0.01 0.01 0.02 0.02 0.02 0.02 0.01 0.02 0.02 0.03 0.03 0.02 0.02 0.02 0.02 0.02 0.01 0.01 0.00 0.00 0.00 0.00 0.00 0.00 0.00 0.00 0.00 0.00 0.00 0.00 0.00 0.00 0.00 0.00 0.00 0.00 0.00 0.00 0.00 0.00
0.00 0.00 0.00 0.00 0.00 0.00 0.00 0.00 0.00 0.00 0.01 0.01 0.00 0.00 0.00 0.00 0.00 0.01 0.01 0.01 0.00 0.00 0.00 0.00 0.00 0.00 0.00 0.00 0.00 0.00 0.00 0.00 0.00 0.00 0.00 0.00 0.00 0.00 0.00 0.00 0.00 0.00 0.00
0.00 0.00 0.00 0.00 0.00 0.00 0.01 0.01 0.01 0.00 0.00 0.01 0.01 0.00 0.01 0.01 0.01 0.01 0.01 0.01 0.01 0.01 0.00 0.00 0.00 0.00 0.00 0.00 0.00 0.00 0.00 0.00 0.00 0.00 0.00 0.00 0.00 0.00 0.00 0.00 0.00 0.00 0.00
0.00 0.00 0.00 0.00 0.00 0.01 0.01 0.01 0.01 0.01 0.01 0.01 0.01 0.01 0.01 0.01 0.01 0.01 0.01 0.00 0.00 0.01 0.01 0.00 0.00 0.00 0.00 0.00 0.00 0.00 0.00 0.00 0.00 0.00 0.00 0.00 0.00 0.00 0.00 0.00 0.01 0.01 0.00
0.00 0.00 0.00 0.00 0.00 0.00 0.01 0.01 0.01 0.01 0.01 0.01 0.01 0.01 0.01 0.00 0.00 0.00 0.00 0.00 0.00 0.00 0.00 0.00 0.00 0.00 0.00 0.01 0.00 0.00 0.00 0.00 0.00 0.00 0.00 0.00 0.01 0.01 0.01 0.01 0.00 0.00 0.00

GFSGL_prec_precacc24_105.txt.gz
Total_Precipitation_Accumulation
0.03 0.05 0.06 0.06 0.06 0.03 0.00 0.01 0.00 0.01 0.00 0.01 0.00 0.02 0.04 0.03 0.07 0.13 0.12 0.13 0.13 0.12 0.10 0.10 0.07 0.04 0.05 0.04 0.04 0.06 0.06 0.07 0.09 0.03 0.00 0.00 0.01 0.01 0.01 0.01 0.00 0.00 0.00
0.06 0.05 0.04 0.05 0.04 0.02 0.00 0.01 0.01 0.01 0.01 0.01 0.01 0.00 0.00 0.01 0.01 0.03 0.08 0.07 0.09 0.07 0.05 0.05 0.03 0.02 0.01 0.02 0.02 0.03 0.03 0.02 0.07 0.07 0.02 0.02 0.02 0.02 0.02 0.02 0.00 0.01 0.01
0.12 0.08 0.04 0.07 0.06 0.04 0.02 0.02 0.01 0.01 0.01 0.02 0.03 0.01 0.01 0.01 0.04 0.03 0.03 0.04 0.04 0.07 0.08 0.07 0.06 0.04 0.02 0.02 0.01 0.01 0.01 0.02 0.02 0.02 0.01 0.02 0.02 0.01 0.02 0.01 0.01 0.01 0.00
0.44 0.35 0.25 0.22 0.17 0.09 0.03 0.03 0.02 0.02 0.02 0.02 0.03 0.03 0.02 0.01 0.02 0.05 0.05 0.04 0.02 0.02 0.02 0.02 0.07 0.09 0.05 0.04 0.05 0.03 0.04 0.06 0.07 0.07 0.02 0.03 0.04 0.02 0.06 0.04 0.05 0.04 0.05
0.64 0.61 0.47 0.25 0.33 0.20 0.13 0.07 0.04 0.04 0.04 0.03 0.04 0.05 0.04 0.03 0.03 0.04 0.04 0.05 0.04 0.03 0.04 0.05 0.04 0.02 0.04 0.01 0.02 0.05 0.11 0.12 0.12 0.13 0.10 0.08 0.07 0.05 0.07 0.10 0.15 0.12 0.20
0.53 0.57 0.50 0.35 0.24 0.19 0.19 0.19 0.13 0.08 0.05 0.05 0.05 0.04 0.03 0.02 0.07 0.03 0.02 0.02 0.03 0.06 0.06 0.06 0.05 0.04 0.01 0.00 0.00 0.00 0.02 0.05 0.06 0.07 0.08 0.08 0.04 0.06 0.07 0.11 0.15 0.19 0.22
0.51 0.60 0.55 0.40 0.34 0.27 0.28 0.20 0.21 0.17 0.17 0.16 0.16 0.15 0.14 0.16 0.24 0.14 0.12 0.04 0.07 0.09 0.07 0.08 0.11 0.08 0.07 0.01 0.02 0.03 0.02 0.07 0.12 0.13 0.07 0.08 0.18 0.31 0.34 0.33 0.36 0.45 0.45
0.77 0.78 0.78 0.62 0.46 0.37 0.36 0.29 0.24 0.25 0.20 0.23 0.22 0.21 0.20 0.26 0.32 0.30 0.30 0.14 0.11 0.14 0.14 0.12 0.10 0.08 0.15 0.14 0.06 0.08 0.12 0.21 0.33 0.47 0.69 0.83 0.91 0.76 0.67 0.63 0.57 0.56 0.58
0.74 0.76 0.76 0.83 0.84 0.73 0.55 0.47 0.44 0.43 0.26 0.16 0.18 0.23 0.16 0.16 0.34 0.22 0.23 0.11 0.17 0.20 0.22 0.28 0.27 0.14 0.29 0.19 0.10 0.14 0.19 0.29 0.53 0.52 0.57 0.56 0.55 0.49 0.46 0.45 0.61 0.78 0.87
0.53 0.70 0.69 0.66 0.75 0.82 0.91 0.84 0.72 0.68 0.61 0.52 0.41 0.36 0.38 0.19 0.36 0.27 0.24 0.21 0.30 0.30 0.30 0.34 0.60 0.43 0.44 0.41 0.40 0.43 0.50 0.56 0.58 0.57 0.60 0.58 0.50 0.49 0.62 0.48 0.49 0.79 1.17
0.49 0.47 0.57 0.65 0.61 0.64 0.70 0.71 0.78 0.75 0.68 0.69 0.68 0.63 0.58 0.48 0.40 0.35 0.34 0.32 0.35 0.41 0.47 0.45 0.47 0.68 0.46 0.46 0.50 0.47 0.81 0.90 0.91 0.70 0.62 0.67 0.61 0.54 0.51 0.51 0.51 0.63 0.86
0.29 0.31 0.28 0.31 0.46 0.49 0.50 0.47 0.45 0.50 0.55 0.56 0.54 0.53 0.46 0.44 0.48 0.38 0.24 0.22 0.31 0.30 0.41 0.46 0.49 0.56 0.39 0.40 0.47 0.75 0.99 0.86 0.71 0.74 0.77 0.82 0.83 0.84 0.84 0.78 0.72 0.70 0.74
0.04 0.09 0.14 0.15 0.15 0.20 0.28 0.31 0.29 0.31 0.31 0.31 0.32 0.35 0.34 0.29 0.26 0.29 0.24 0.21 0.25 0.25 0.34 0.50 0.48 0.35 0.29 0.38 0.60 0.74 0.82 0.89 1.11 1.30 1.42 1.45 1.36 1.25 1.07 0.91 0.78 0.67 0.60
0.01 0.01 0.02 0.03 0.05 0.05 0.06 0.10 0.15 0.19 0.22 0.27 0.33 0.34 0.31 0.27 0.21 0.17 0.17 0.18 0.24 0.32 0.49 0.59 0.65 0.65 0.67 0.77 0.93 0.97 0.99 1.11 1.21 1.29 1.29 1.23 1.09 0.94 0.83 0.75 0.66 0.59 0.49
0.00 0.00 0.00 0.00 0.01 0.01 0.05 0.06 0.07 0.14 0.10 0.14 0.22 0.28 0.32 0.40 0.49 0.42 0.37 0.40 0.47 0.57 0.63 0.75 0.86 0.90 0.92 0.96 1.00 1.03 1.04 1.02 1.00 0.99 0.93 0.88 0.79 0.68 0.59 0.47 0.37 0.28 0.21
0.00 0.01 0.01 0.01 0.01 0.00 0.01 0.02 0.04 0.07 0.06 0.08 0.11 0.15 0.26 0.34 0.35 0.33 0.36 0.42 0.49 0.54 0.54 0.61 0.68 0.73 0.72 0.70 0.67 0.64 0.59 0.55 0.51 0.45 0.39 0.33 0.28 0.22 0.16 0.11 0.07 0.05 0.04
0.02 0.02 0.01 0.00 0.01 0.02 0.02 0.02 0.03 0.04 0.05 0.10 0.14 0.19 0.23 0.30 0.30 0.29 0.28 0.30 0.36 0.34 0.34 0.38 0.41 0.44 0.43 0.39 0.36 0.33 0.31 0.29 0.24 0.19 0.15 0.12 0.07 0.04 0.02 0.02 0.01 0.01 0.00
0.02 0.01 0.01 0.02 0.02 0.01 0.02 0.03 0.04 0.04 0.07 0.13 0.16 0.21 0.27 0.28 0.34 0.36 0.34 0.27 0.27 0.25 0.24 0.24 0.23 0.21 0.19 0.17 0.16 0.14 0.13 0.10 0.06 0.03 0.01 0.00 0.00 0.00 0.00 0.00 0.00 0.00 0.00
0.01 0.03 0.02 0.01 0.01 0.02 0.02 0.02 0.03 0.03 0.06 0.10 0.09 0.08 0.13 0.15 0.14 0.13 0.12 0.11 0.12 0.13 0.13 0.13 0.13 0.12 0.11 0.10 0.08 0.05 0.03 0.01 0.00 0.00 0.00 0.00 0.00 0.00 0.00 0.00 0.00 0.00 0.00
0.01 0.00 0.01 0.02 0.01 0.01 0.01 0.01 0.02 0.02 0.02 0.03 0.04 0.07 0.08 0.06 0.06 0.08 0.08 0.08 0.08 0.09 0.09 0.08 0.08 0.06 0.04 0.03 0.01 0.01 0.01 0.00 0.00 0.00 0.00 0.00 0.00 0.00 0.00 0.00 0.00 0.00 0.00
0.01 0.01 0.00 0.00 0.01 0.01 0.00 0.01 0.01 0.00 0.01 0.01 0.02 0.03 0.02 0.02 0.03 0.03 0.03 0.03 0.04 0.03 0.03 0.01 0.00 0.00 0.00 0.00 0.00 0.00 0.00 0.00 0.00 0.00 0.00 0.00 0.00 0.00 0.00 0.00 0.00 0.00 0.00
0.00 0.00 0.00 0.00 0.00 0.01 0.01 0.00 0.00 0.00 0.00 0.00 0.01 0.01 0.00 0.01 0.00 0.00 0.00 0.00 0.00 0.00 0.01 0.00 0.00 0.00 0.00 0.00 0.00 0.00 0.00 0.00 0.00 0.00 0.00 0.00 0.00 0.00 0.00 0.00 0.00 0.00 0.00
0.00 0.00 0.00 0.00 0.00 0.00 0.00 0.00 0.00 0.00 0.00 0.00 0.00 0.00 0.00 0.00 0.00 0.01 0.01 0.01 0.00 0.00 0.00 0.00 0.00 0.00 0.00 0.01 0.00 0.00 0.00 0.00 0.01 0.00 0.00 0.00 0.00 0.00 0.00 0.00 0.00 0.00 0.00
0.00 0.00 0.00 0.00 0.00 0.00 0.01 0.01 0.00 0.00 0.00 0.01 0.01 0.00 0.00 0.01 0.01 0.01 0.01 0.01 0.01 0.01 0.00 0.00 0.00 0.00 0.00 0.00 0.00 0.00 0.00 0.00 0.00 0.00 0.00 0.00 0.00 0.00 0.00 0.00 0.00 0.00 0.00
0.00 0.00 0.00 0.00 0.00 0.01 0.01 0.01 0.01 0.01 0.01 0.01 0.01 0.01 0.01 0.01 0.01 0.01 0.01 0.00 0.00 0.01 0.01 0.00 0.00 0.00 0.00 0.00 0.00 0.00 0.00 0.00 0.00 0.00 0.00 0.00 0.00 0.00 0.00 0.00 0.00 0.00 0.00
0.00 0.00 0.00 0.00 0.00 0.00 0.01 0.01 0.01 0.01 0.01 0.01 0.01 0.01 0.01 0.00 0.00 0.00 0.00 0.00 0.00 0.00 0.00 0.01 0.00 0.00 0.00 0.01 0.00 0.00 0.00 0.00 0.00 0.00 0.00 0.00 0.01 0.01 0.01 0.00 0.00 0.00 0.00

GFSGL_prec_precacc24_108.txt.gz
Total_Precipitation_Accumulation
0.04 0.08 0.10 0.14 0.13 0.10 0.06 0.01 0.01 0.01 0.00 0.01 0.00 0.02 0.05 0.03 0.07 0.13 0.12 0.14 0.19 0.37 0.34 0.29 0.28 0.22 0.19 0.11 0.09 0.09 0.08 0.07 0.08 0.02 0.00 0.00 0.02 0.02 0.02 0.02 0.02 0.02 0.00
0.06 0.07 0.09 0.16 0.13 0.10 0.08 0.04 0.02 0.01 0.01 0.01 0.01 0.00 0.01 0.02 0.02 0.05 0.09 0.09 0.13 0.15 0.25 0.26 0.26 0.26 0.19 0.13 0.09 0.06 0.04 0.03 0.07 0.07 0.01 0.00 0.00 0.00 0.01 0.01 0.01 0.00 0.00
0.14 0.10 0.06 0.11 0.12 0.10 0.08 0.07 0.05 0.02 0.01 0.02 0.03 0.01 0.01 0.01 0.04 0.03 0.04 0.04 0.04 0.12 0.14 0.14 0.15 0.17 0.13 0.09 0.05 0.03 0.02 0.02 0.02 0.02 0.00 0.01 0.01 0.01 0.02 0.01 0.00 0.00 0.00
0.48 0.41 0.27 0.25 0.23 0.18 0.08 0.08 0.05 0.03 0.03 0.02 0.04 0.03 0.02 0.02 0.02 0.05 0.05 0.05 0.02 0.02 0.04 0.05 0.10 0.15 0.12 0.09 0.08 0.05 0.06 0.07 0.07 0.06 0.01 0.01 0.03 0.01 0.06 0.02 0.02 0.01 0.01
0.63 0.64 0.49 0.30 0.40 0.34 0.33 0.22 0.09 0.07 0.06 0.04 0.04 0.05 0.05 0.04 0.04 0.05 0.05 0.06 0.05 0.04 0.05 0.07 0.08 0.09 0.16 0.16 0.13 0.11 0.16 0.17 0.13 0.12 0.08 0.04 0.04 0.04 0.06 0.07 0.11 0.08 0.14
0.52 0.60 0.58 0.41 0.34 0.40 0.42 0.36 0.19 0.11 0.08 0.07 0.07 0.04 0.04 0.04 0.12 0.06 0.04 0.03 0.05 0.09 0.12 0.09 0.12 0.20 0.16 0.13 0.08 0.04 0.05 0.09 0.08 0.07 0.08 0.08 0.04 0.06 0.06 0.09 0.11 0.13 0.12
0.53 0.52 0.55 0.49 0.47 0.39 0.50 0.43 0.35 0.22 0.17 0.17 0.17 0.17 0.15 0.17 0.27 0.17 0.17 0.06 0.09 0.11 0.11 0.16 0.18 0.14 0.14 0.05 0.03 0.04 0.03 0.07 0.11 0.12 0.05 0.07 0.17 0.30 0.32 0.31 0.33 0.40 0.38
0.80 0.80 0.81 0.69 0.56 0.47 0.52 0.49 0.38 0.30 0.18 0.21 0.22 0.21 0.22 0.29 0.35 0.33 0.35 0.16 0.15 0.16 0.16 0.13 0.11 0.11 0.19 0.18 0.07 0.10 0.14 0.22 0.33 0.47 0.67 0.80 0.84 0.64 0.54 0.55 0.51 0.52 0.55
0.81 0.89 0.88 0.95 1.00 0.91 0.74 0.63 0.58 0.58 0.36 0.19 0.17 0.22 0.17 0.18 0.40 0.28 0.27 0.13 0.21 0.23 0.24 0.30 0.30 0.16 0.34 0.25 0.14 0.19 0.25 0.35 0.58 0.53 0.56 0.50 0.45 0.40 0.38 0.41 0.59 0.80 0.89
0.58 0.78 0.93 0.93 1.01 1.07 1.15 1.13 0.93 0.86 0.90 0.71 0.47 0.37 0.39 0.21 0.42 0.31 0.30 0.26 0.34 0.33 0.32 0.36 0.65 0.47 0.52 0.46 0.42 0.47 0.52 0.55 0.55 0.53 0.57 0.56 0.51 0.50 0.60 0.46 0.47 0.77 1.14
0.50 0.51 0.67 0.88 0.94 1.03 1.06 1.13 1.17 1.06 0.89 0.86 0.78 0.69 0.62 0.52 0.49 0.49 0.48 0.42 0.48 0.55 0.57 0.49 0.50 0.67 0.42 0.40 0.46 0.49 0.80 0.85 0.89 0.73 0.69 0.72 0.67 0.58 0.53 0.51 0.50 0.62 0.83
0.29 0.32 0.31 0.38 0.56 0.64 0.68 0.73 0.75 0.80 0.81 0.71 0.62 0.56 0.52 0.55 0.62 0.56 0.42 0.40 0.47 0.43 0.56 0.54 0.54 0.53 0.38 0.41 0.50 0.76 0.96 0.87 0.73 0.70 0.70 0.71 0.69 0.68 0.69 0.67 0.68 0.69 0.74
0.04 0.09 0.14 0.16 0.16 0.23 0.33 0.39 0.42 0.44 0.46 0.47 0.45 0.43 0.42 0.36 0.37 0.41 0.39 0.36 0.37 0.36 0.43 0.54 0.50 0.38 0.31 0.34 0.49 0.59 0.64 0.67 0.82 0.93 0.99 1.01 0.99 0.96 0.89 0.80 0.72 0.64 0.58
0.01 0.01 0.02 0.03 0.05 0.05 0.06 0.11 0.17 0.23 0.28 0.33 0.35 0.34 0.32 0.30 0.28 0.27 0.26 0.24 0.25 0.27 0.40 0.48 0.52 0.53 0.53 0.55 0.59 0.60 0.62 0.70 0.79 0.88 0.90 0.90 0.84 0.75 0.68 0.64 0.58 0.54 0.46
0.00 0.01 0.00 0.00 0.01 0.01 0.05 0.06 0.07 0.13 0.08 0.11 0.17 0.20 0.23 0.31 0.38 0.31 0.31 0.34 0.38 0.42 0.42 0.47 0.47 0.47 0.47 0.48 0.49 0.52 0.57 0.62 0.65 0.69 0.69 0.68 0.64 0.58 0.51 0.42 0.35 0.27 0.20
0.00 0.01 0.02 0.02 0.01 0.00 0.01 0.03 0.03 0.05 0.02 0.03 0.04 0.06 0.11 0.14 0.11 0.11 0.13 0.15 0.17 0.17 0.17 0.24 0.31 0.33 0.30 0.30 0.30 0.30 0.30 0.30 0.31 0.29 0.27 0.25 0.22 0.19 0.15 0.11 0.07 0.05 0.04
0.02 0.01 0.01 0.01 0.01 0.02 0.02 0.01 0.02 0.03 0.01 0.02 0.03 0.04 0.05 0.06 0.05 0.06 0.08 0.08 0.10 0.09 0.09 0.12 0.15 0.15 0.16 0.15 0.15 0.15 0.16 0.16 0.14 0.12 0.11 0.10 0.07 0.04 0.02 0.02 0.01 0.01 0.00
0.01 0.01 0.01 0.02 0.02 0.01 0.02 0.02 0.02 0.02 0.02 0.03 0.03 0.03 0.04 0.03 0.02 0.02 0.03 0.03 0.04 0.05 0.05 0.06 0.07 0.07 0.07 0.08 0.08 0.08 0.08 0.06 0.04 0.02 0.01 0.00 0.00 0.00 0.00 0.00 0.00 0.00 0.00
0.01 0.03 0.02 0.01 0.01 0.01 0.01 0.01 0.01 0.01 0.02 0.03 0.03 0.02 0.03 0.02 0.01 0.01 0.02 0.02 0.03 0.04 0.05 0.06 0.07 0.08 0.08 0.07 0.07 0.04 0.02 0.01 0.00 0.00 0.00 0.00 0.00 0.00 0.00 0.00 0.00 0.00 0.00
0.01 0.00 0.01 0.02 0.01 0.01 0.01 0.01 0.01 0.01 0.01 0.01 0.01 0.02 0.01 0.01 0.00 0.01 0.02 0.02 0.03 0.03 0.04 0.04 0.05 0.04 0.03 0.02 0.01 0.01 0.01 0.00 0.00 0.00 0.00 0.00 0.00 0.00 0.00 0.00 0.00 0.00 0.00
0.01 0.00 0.00 0.00 0.01 0.01 0.00 0.01 0.00 0.00 0.00 0.00 0.01 0.00 0.00 0.00 0.00 0.00 0.00 0.01 0.01 0.01 0.01 0.00 0.00 0.00 0.00 0.00 0.00 0.00 0.00 0.00 0.00 0.00 0.00 0.00 0.00 0.00 0.00 0.00 0.00 0.00 0.00
0.00 0.00 0.00 0.00 0.00 0.00 0.00 0.00 0.00 0.00 0.00 0.00 0.00 0.00 0.00 0.00 0.00 0.00 0.00 0.00 0.00 0.00 0.00 0.00 0.00 0.00 0.00 0.00 0.00 0.00 0.00 0.00 0.00 0.00 0.00 0.00 0.00 0.00 0.00 0.00 0.00 0.00 0.00
0.00 0.00 0.00 0.00 0.00 0.00 0.00 0.00 0.00 0.00 0.00 0.00 0.00 0.00 0.00 0.00 0.00 0.00 0.01 0.01 0.00 0.00 0.00 0.00 0.00 0.00 0.00 0.01 0.00 0.00 0.00 0.00 0.00 0.00 0.00 0.00 0.00 0.00 0.00 0.00 0.00 0.00 0.00
0.00 0.00 0.00 0.00 0.00 0.00 0.01 0.01 0.00 0.00 0.00 0.01 0.00 0.00 0.00 0.01 0.01 0.01 0.01 0.01 0.01 0.01 0.00 0.00 0.00 0.00 0.00 0.00 0.00 0.00 0.00 0.00 0.00 0.00 0.00 0.00 0.00 0.00 0.00 0.00 0.00 0.00 0.00
0.00 0.00 0.00 0.00 0.01 0.01 0.02 0.01 0.01 0.01 0.01 0.01 0.01 0.01 0.01 0.01 0.01 0.01 0.01 0.00 0.00 0.00 0.01 0.00 0.00 0.00 0.00 0.00 0.00 0.00 0.00 0.00 0.00 0.00 0.00 0.00 0.00 0.00 0.00 0.00 0.00 0.00 0.00
0.00 0.00 0.00 0.00 0.00 0.00 0.01 0.02 0.01 0.01 0.01 0.01 0.01 0.01 0.01 0.00 0.00 0.01 0.00 0.00 0.00 0.01 0.01 0.01 0.00 0.00 0.00 0.01 0.00 0.00 0.00 0.00 0.00 0.00 0.00 0.00 0.01 0.01 0.01 0.00 0.00 0.00 0.00

GFSGL_prec_precacc24_114.txt.gz
Total_Precipitation_Accumulation
0.05 0.09 0.10 0.13 0.14 0.14 0.10 0.07 0.06 0.08 0.06 0.05 0.04 0.04 0.06 0.04 0.08 0.14 0.13 0.16 0.20 0.40 0.41 0.54 0.54 0.35 0.33 0.28 0.27 0.23 0.16 0.13 0.11 0.06 0.02 0.02 0.03 0.03 0.03 0.03 0.02 0.02 0.01
0.08 0.10 0.12 0.19 0.16 0.14 0.13 0.09 0.08 0.09 0.11 0.11 0.09 0.04 0.03 0.05 0.05 0.06 0.09 0.10 0.14 0.16 0.28 0.39 0.62 0.64 0.52 0.40 0.35 0.27 0.19 0.17 0.20 0.16 0.07 0.03 0.01 0.01 0.02 0.02 0.01 0.01 0.02
0.14 0.12 0.13 0.15 0.16 0.15 0.15 0.16 0.14 0.12 0.10 0.11 0.11 0.07 0.05 0.05 0.09 0.05 0.04 0.05 0.04 0.13 0.18 0.23 0.35 0.50 0.64 0.54 0.40 0.31 0.26 0.24 0.22 0.20 0.12 0.08 0.04 0.02 0.03 0.01 0.01 0.02 0.03
0.38 0.33 0.21 0.23 0.23 0.20 0.14 0.14 0.13 0.13 0.11 0.09 0.11 0.11 0.10 0.05 0.04 0.06 0.05 0.06 0.03 0.02 0.08 0.20 0.24 0.30 0.40 0.45 0.47 0.38 0.36 0.35 0.28 0.24 0.17 0.12 0.08 0.04 0.09 0.04 0.04 0.04 0.04
0.50 0.50 0.36 0.25 0.36 0.34 0.35 0.29 0.16 0.15 0.13 0.11 0.13 0.13 0.13 0.13 0.13 0.09 0.05 0.06 0.06 0.04 0.05 0.11 0.19 0.24 0.31 0.35 0.46 0.45 0.45 0.42 0.36 0.31 0.21 0.14 0.09 0.08 0.09 0.09 0.14 0.14 0.22
0.49 0.55 0.56 0.42 0.34 0.39 0.39 0.37 0.33 0.25 0.27 0.25 0.19 0.18 0.18 0.16 0.29 0.19 0.07 0.04 0.07 0.13 0.15 0.11 0.14 0.32 0.38 0.39 0.37 0.37 0.43 0.47 0.38 0.28 0.24 0.21 0.13 0.15 0.14 0.16 0.14 0.15 0.14
0.53 0.52 0.54 0.49 0.51 0.46 0.55 0.62 0.63 0.53 0.54 0.54 0.56 0.52 0.37 0.29 0.36 0.27 0.20 0.07 0.13 0.16 0.16 0.23 0.26 0.21 0.24 0.20 0.37 0.37 0.32 0.41 0.44 0.36 0.30 0.23 0.30 0.41 0.44 0.42 0.41 0.43 0.37
0.80 0.80 0.81 0.69 0.56 0.50 0.57 0.62 0.80 1.00 0.80 0.63 0.63 0.60 0.61 0.60 0.42 0.28 0.24 0.10 0.17 0.21 0.21 0.21 0.20 0.18 0.30 0.29 0.18 0.28 0.38 0.46 0.58 0.68 0.80 0.89 0.90 0.69 0.59 0.56 0.50 0.49 0.51
0.81 0.90 0.89 0.95 1.01 0.95 0.80 0.72 0.73 0.81 0.86 0.85 0.70 0.62 0.52 0.41 0.46 0.32 0.19 0.09 0.19 0.23 0.25 0.33 0.37 0.23 0.46 0.36 0.22 0.31 0.43 0.52 0.78 0.76 0.78 0.68 0.55 0.44 0.37 0.37 0.52 0.64 0.70
0.58 0.79 0.93 0.94 1.03 1.11 1.27 1.29 1.10 1.02 1.12 1.06 0.98 0.89 0.80 0.51 0.59 0.53 0.48 0.34 0.32 0.31 0.30 0.37 0.69 0.49 0.63 0.53 0.45 0.49 0.57 0.64 0.65 0.60 0.63 0.60 0.51 0.45 0.49 0.37 0.37 0.58 0.84
0.50 0.51 0.67 0.88 0.95 1.08 1.16 1.20 1.27 1.24 1.08 1.08 1.13 1.13 1.10 0.97 0.84 0.77 0.74 0.62 0.67 0.65 0.59 0.48 0.49 0.62 0.44 0.43 0.43 0.40 0.57 0.60 0.68 0.59 0.60 0.64 0.57 0.48 0.44 0.43 0.39 0.46 0.60
0.29 0.32 0.31 0.38 0.56 0.66 0.74 0.83 0.84 0.90 0.96 0.91 0.84 0.88 0.88 1.01 1.15 1.10 0.92 0.84 0.79 0.62 0.65 0.71 0.76 0.63 0.40 0.34 0.32 0.44 0.55 0.53 0.44 0.41 0.40 0.43 0.47 0.48 0.47 0.44 0.41 0.41 0.44
0.04 0.09 0.14 0.16 0.16 0.23 0.33 0.41 0.47 0.50 0.54 0.57 0.60 0.63 0.65 0.63 0.66 0.74 0.83 0.82 0.77 0.67 0.67 0.63 0.62 0.61 0.55 0.46 0.41 0.35 0.31 0.28 0.29 0.31 0.34 0.35 0.29 0.27 0.26 0.22 0.20 0.18 0.17
0.01 0.01 0.02 0.03 0.05 0.05 0.06 0.11 0.17 0.24 0.29 0.35 0.38 0.39 0.39 0.38 0.38 0.40 0.40 0.39 0.42 0.43 0.43 0.39 0.34 0.31 0.31 0.35 0.34 0.31 0.29 0.26 0.23 0.21 0.20 0.20 0.17 0.15 0.13 0.11 0.09 0.09 0.07
0.00 0.01 0.00 0.00 0.00 0.01 0.04 0.06 0.06 0.13 0.09 0.12 0.17 0.21 0.24 0.31 0.37 0.28 0.25 0.27 0.29 0.29 0.26 0.25 0.23 0.20 0.16 0.14 0.13 0.14 0.15 0.14 0.14 0.15 0.12 0.09 0.07 0.05 0.04 0.04 0.04 0.03 0.03
0.00 0.01 0.02 0.02 0.01 0.00 0.00 0.02 0.03 0.04 0.02 0.03 0.04 0.04 0.07 0.08 0.05 0.05 0.05 0.05 0.05 0.06 0.07 0.10 0.12 0.13 0.13 0.14 0.13 0.11 0.09 0.09 0.09 0.07 0.06 0.06 0.05 0.05 0.04 0.03 0.03 0.03 0.03
0.02 0.01 0.01 0.01 0.01 0.02 0.02 0.01 0.02 0.02 0.01 0.02 0.02 0.02 0.02 0.02 0.01 0.00 0.00 0.00 0.00 0.00 0.00 0.01 0.01 0.01 0.02 0.01 0.01 0.01 0.01 0.01 0.01 0.01 0.01 0.01 0.00 0.00 0.00 0.00 0.00 0.00 0.00
0.01 0.01 0.01 0.02 0.02 0.01 0.01 0.02 0.02 0.02 0.02 0.02 0.01 0.01 0.01 0.01 0.00 0.00 0.00 0.00 0.00 0.00 0.00 0.01 0.01 0.00 0.00 0.00 0.00 0.00 0.00 0.00 0.00 0.00 0.00 0.00 0.00 0.00 0.00 0.00 0.00 0.00 0.00
0.01 0.03 0.02 0.01 0.02 0.02 0.01 0.01 0.01 0.01 0.01 0.02 0.02 0.01 0.01 0.00 0.00 0.00 0.00 0.00 0.00 0.00 0.00 0.00 0.00 0.00 0.00 0.00 0.00 0.00 0.00 0.00 0.00 0.00 0.00 0.00 0.00 0.00 0.00 0.00 0.00 0.00 0.00
0.01 0.00 0.01 0.02 0.01 0.01 0.01 0.01 0.01 0.01 0.00 0.00 0.00 0.00 0.00 0.00 0.00 0.00 0.00 0.00 0.00 0.00 0.00 0.00 0.00 0.00 0.00 0.00 0.00 0.00 0.00 0.00 0.00 0.00 0.00 0.00 0.00 0.00 0.00 0.00 0.00 0.00 0.00
0.01 0.00 0.00 0.00 0.00 0.00 0.00 0.00 0.00 0.00 0.00 0.00 0.00 0.00 0.00 0.00 0.00 0.00 0.00 0.01 0.00 0.00 0.01 0.00 0.00 0.00 0.00 0.00 0.00 0.00 0.00 0.00 0.00 0.00 0.00 0.00 0.00 0.00 0.00 0.00 0.00 0.00 0.00
0.00 0.00 0.00 0.00 0.00 0.00 0.00 0.00 0.00 0.00 0.00 0.00 0.00 0.00 0.00 0.00 0.00 0.00 0.00 0.00 0.00 0.00 0.00 0.00 0.00 0.00 0.00 0.00 0.00 0.00 0.00 0.00 0.00 0.00 0.00 0.00 0.00 0.00 0.00 0.00 0.00 0.00 0.00
0.00 0.00 0.00 0.00 0.00 0.00 0.00 0.00 0.01 0.01 0.00 0.00 0.00 0.00 0.00 0.00 0.00 0.00 0.01 0.01 0.00 0.00 0.00 0.00 0.00 0.00 0.00 0.01 0.00 0.00 0.00 0.00 0.00 0.00 0.00 0.00 0.00 0.00 0.00 0.00 0.00 0.00 0.00
0.00 0.00 0.00 0.00 0.00 0.00 0.01 0.01 0.01 0.01 0.01 0.01 0.00 0.00 0.00 0.01 0.01 0.01 0.00 0.01 0.01 0.01 0.00 0.00 0.00 0.00 0.00 0.00 0.00 0.00 0.00 0.00 0.00 0.00 0.00 0.00 0.00 0.00 0.00 0.00 0.00 0.00 0.00
0.00 0.00 0.00 0.01 0.01 0.02 0.02 0.02 0.02 0.02 0.01 0.01 0.01 0.01 0.01 0.01 0.01 0.01 0.01 0.01 0.00 0.00 0.01 0.00 0.00 0.00 0.00 0.00 0.00 0.00 0.00 0.00 0.00 0.00 0.00 0.00 0.00 0.00 0.00 0.00 0.00 0.00 0.00
0.00 0.00 0.00 0.00 0.01 0.01 0.02 0.02 0.02 0.02 0.02 0.02 0.02 0.02 0.01 0.01 0.00 0.01 0.00 0.00 0.00 0.01 0.00 0.00 0.00 0.00 0.00 0.01 0.00 0.00 0.00 0.00 0.00 0.00 0.00 0.00 0.01 0.01 0.01 0.00 0.00 0.00 0.00

GFSGL_prec_precacc24_117.txt.gz
Total_Precipitation_Accumulation
0.05 0.09 0.10 0.13 0.14 0.14 0.12 0.09 0.12 0.15 0.17 0.14 0.18 0.15 0.14 0.09 0.10 0.16 0.14 0.17 0.21 0.40 0.41 0.54 0.54 0.36 0.33 0.27 0.26 0.24 0.21 0.22 0.22 0.11 0.05 0.06 0.07 0.04 0.04 0.03 0.03 0.03 0.01
0.08 0.10 0.12 0.18 0.16 0.14 0.13 0.09 0.09 0.10 0.14 0.17 0.17 0.14 0.11 0.10 0.10 0.09 0.11 0.11 0.15 0.17 0.28 0.39 0.62 0.64 0.52 0.40 0.35 0.28 0.22 0.21 0.25 0.20 0.14 0.11 0.05 0.03 0.03 0.03 0.02 0.02 0.03
0.13 0.12 0.13 0.15 0.16 0.15 0.15 0.16 0.14 0.14 0.12 0.13 0.14 0.09 0.07 0.09 0.13 0.09 0.07 0.06 0.05 0.13 0.18 0.23 0.36 0.51 0.65 0.56 0.42 0.35 0.28 0.25 0.25 0.26 0.20 0.16 0.12 0.06 0.05 0.02 0.01 0.03 0.04
0.30 0.23 0.17 0.22 0.23 0.20 0.14 0.14 0.14 0.14 0.14 0.13 0.15 0.15 0.13 0.09 0.09 0.11 0.09 0.08 0.05 0.04 0.08 0.20 0.24 0.31 0.40 0.46 0.49 0.43 0.42 0.39 0.33 0.33 0.29 0.21 0.14 0.08 0.13 0.06 0.06 0.05 0.05
0.41 0.40 0.30 0.23 0.35 0.33 0.35 0.30 0.17 0.16 0.16 0.16 0.16 0.17 0.17 0.20 0.23 0.20 0.16 0.16 0.11 0.05 0.06 0.11 0.19 0.24 0.32 0.36 0.47 0.49 0.49 0.46 0.42 0.40 0.35 0.29 0.17 0.12 0.12 0.12 0.21 0.18 0.25
0.44 0.48 0.50 0.38 0.32 0.39 0.38 0.36 0.33 0.25 0.27 0.26 0.20 0.19 0.21 0.18 0.41 0.34 0.27 0.24 0.22 0.20 0.15 0.11 0.14 0.32 0.39 0.42 0.40 0.41 0.47 0.52 0.45 0.35 0.33 0.32 0.21 0.21 0.18 0.23 0.25 0.25 0.18
0.39 0.46 0.50 0.46 0.48 0.45 0.54 0.61 0.62 0.51 0.50 0.50 0.53 0.51 0.37 0.28 0.45 0.38 0.38 0.26 0.30 0.30 0.21 0.24 0.26 0.21 0.26 0.21 0.43 0.47 0.41 0.48 0.51 0.45 0.39 0.30 0.37 0.48 0.55 0.55 0.53 0.51 0.42
0.67 0.76 0.77 0.64 0.54 0.49 0.56 0.62 0.80 0.99 0.78 0.62 0.62 0.61 0.64 0.66 0.60 0.53 0.63 0.51 0.51 0.40 0.27 0.23 0.22 0.19 0.32 0.31 0.18 0.29 0.41 0.53 0.65 0.76 0.90 0.96 0.94 0.76 0.70 0.66 0.61 0.65 0.66
0.78 0.89 0.89 0.95 1.01 0.95 0.80 0.72 0.73 0.81 0.86 0.85 0.71 0.64 0.57 0.48 0.55 0.53 0.51 0.40 0.46 0.47 0.37 0.35 0.33 0.21 0.47 0.39 0.23 0.31 0.46 0.57 0.89 0.87 0.79 0.74 0.66 0.57 0.54 0.58 0.75 0.83 0.80
0.58 0.79 0.94 0.94 1.03 1.11 1.27 1.29 1.10 1.02 1.13 1.07 0.99 0.90 0.83 0.56 0.65 0.67 0.70 0.57 0.57 0.53 0.47 0.41 0.60 0.47 0.68 0.57 0.46 0.47 0.55 0.66 0.63 0.60 0.59 0.55 0.51 0.47 0.52 0.40 0.44 0.59 0.72
0.50 0.51 0.67 0.88 0.95 1.08 1.16 1.20 1.27 1.24 1.08 1.08 1.13 1.13 1.12 1.01 0.92 0.90 0.95 0.88 0.91 0.87 0.78 0.67 0.61 0.62 0.47 0.47 0.44 0.37 0.49 0.48 0.54 0.41 0.37 0.37 0.34 0.32 0.33 0.34 0.33 0.39 0.45
0.29 0.32 0.31 0.38 0.56 0.66 0.74 0.83 0.84 0.90 0.96 0.91 0.84 0.88 0.88 1.02 1.15 1.11 0.95 0.93 0.99 0.84 0.85 0.87 0.91 0.75 0.53 0.47 0.43 0.51 0.53 0.39 0.24 0.20 0.20 0.20 0.17 0.17 0.18 0.20 0.23 0.26 0.27
0.04 0.09 0.14 0.16 0.16 0.23 0.33 0.41 0.47 0.50 0.54 0.57 0.60 0.63 0.65 0.63 0.66 0.74 0.83 0.83 0.81 0.75 0.81 0.82 0.81 0.79 0.72 0.65 0.61 0.57 0.49 0.40 0.36 0.33 0.32 0.28 0.19 0.12 0.10 0.08 0.09 0.11 0.15
0.01 0.01 0.02 0.03 0.05 0.05 0.06 0.11 0.17 0.24 0.29 0.35 0.38 0.39 0.39 0.38 0.38 0.40 0.40 0.39 0.42 0.44 0.45 0.45 0.46 0.46 0.47 0.50 0.49 0.47 0.46 0.44 0.39 0.35 0.30 0.26 0.19 0.14 0.12 0.11 0.09 0.09 0.07
0.00 0.01 0.00 0.00 0.00 0.01 0.04 0.05 0.06 0.13 0.10 0.12 0.17 0.21 0.24 0.31 0.36 0.28 0.25 0.27 0.29 0.29 0.27 0.27 0.26 0.26 0.25 0.25 0.26 0.27 0.27 0.27 0.26 0.26 0.23 0.20 0.15 0.11 0.09 0.07 0.07 0.07 0.07
0.00 0.01 0.02 0.02 0.01 0.00 0.00 0.02 0.02 0.04 0.02 0.03 0.03 0.04 0.06 0.07 0.05 0.04 0.05 0.05 0.05 0.06 0.07 0.10 0.13 0.14 0.15 0.18 0.19 0.19 0.17 0.16 0.16 0.14 0.12 0.10 0.09 0.08 0.06 0.04 0.03 0.03 0.03
0.02 0.01 0.01 0.01 0.01 0.02 0.02 0.01 0.02 0.02 0.01 0.01 0.02 0.02 0.02 0.01 0.01 0.00 0.00 0.00 0.00 0.00 0.00 0.01 0.01 0.01 0.01 0.01 0.01 0.02 0.03 0.04 0.04 0.04 0.03 0.02 0.01 0.00 0.00 0.00 0.00 0.00 0.00
0.01 0.01 0.01 0.02 0.02 0.01 0.01 0.02 0.02 0.02 0.02 0.02 0.01 0.01 0.01 0.00 0.00 0.00 0.00 0.00 0.00 0.00 0.00 0.01 0.00 0.00 0.00 0.00 0.00 0.00 0.00 0.00 0.00 0.00 0.00 0.00 0.00 0.00 0.00 0.00 0.00 0.00 0.00
0.01 0.03 0.02 0.01 0.02 0.02 0.01 0.01 0.01 0.01 0.01 0.02 0.02 0.01 0.01 0.00 0.00 0.00 0.00 0.00 0.00 0.00 0.00 0.00 0.00 0.00 0.00 0.00 0.00 0.00 0.00 0.00 0.00 0.00 0.00 0.00 0.00 0.00 0.00 0.00 0.00 0.00 0.00
0.01 0.00 0.01 0.02 0.01 0.01 0.01 0.01 0.01 0.01 0.00 0.00 0.00 0.00 0.00 0.00 0.00 0.00 0.00 0.00 0.00 0.00 0.00 0.00 0.00 0.00 0.00 0.00 0.00 0.00 0.00 0.00 0.00 0.00 0.00 0.00 0.00 0.00 0.00 0.00 0.00 0.00 0.00
0.01 0.00 0.00 0.00 0.00 0.00 0.00 0.00 0.00 0.00 0.00 0.00 0.00 0.00 0.00 0.00 0.00 0.00 0.00 0.01 0.00 0.00 0.01 0.00 0.00 0.00 0.00 0.00 0.00 0.00 0.00 0.00 0.00 0.00 0.00 0.00 0.00 0.00 0.00 0.00 0.00 0.00 0.00
0.00 0.00 0.00 0.00 0.00 0.00 0.00 0.00 0.00 0.00 0.00 0.00 0.00 0.00 0.00 0.00 0.00 0.00 0.00 0.00 0.00 0.00 0.00 0.00 0.00 0.00 0.00 0.00 0.00 0.00 0.00 0.00 0.00 0.00 0.00 0.00 0.00 0.00 0.00 0.00 0.00 0.00 0.00
0.00 0.00 0.00 0.00 0.00 0.00 0.00 0.00 0.01 0.01 0.00 0.00 0.00 0.00 0.00 0.00 0.00 0.00 0.01 0.01 0.00 0.00 0.00 0.00 0.00 0.00 0.00 0.01 0.00 0.00 0.00 0.00 0.00 0.00 0.00 0.00 0.00 0.00 0.00 0.00 0.00 0.00 0.00
0.00 0.00 0.00 0.00 0.00 0.00 0.01 0.01 0.01 0.01 0.01 0.01 0.01 0.00 0.00 0.01 0.01 0.01 0.00 0.01 0.01 0.01 0.00 0.00 0.00 0.00 0.00 0.00 0.00 0.00 0.00 0.00 0.00 0.00 0.00 0.00 0.00 0.00 0.00 0.00 0.00 0.00 0.00
0.00 0.00 0.00 0.01 0.01 0.02 0.02 0.02 0.02 0.02 0.02 0.02 0.02 0.01 0.01 0.01 0.01 0.01 0.01 0.01 0.00 0.00 0.01 0.00 0.00 0.00 0.00 0.00 0.00 0.00 0.00 0.00 0.00 0.00 0.00 0.00 0.00 0.00 0.00 0.00 0.00 0.00 0.00
0.00 0.00 0.00 0.00 0.01 0.01 0.02 0.02 0.03 0.02 0.02 0.02 0.02 0.02 0.02 0.01 0.01 0.01 0.00 0.00 0.00 0.01 0.00 0.00 0.00 0.00 0.00 0.01 0.00 0.00 0.00 0.00 0.00 0.00 0.00 0.00 0.01 0.01 0.01 0.00 0.00 0.00 0.00

GFSGL_prec_precacc24_120.txt.gz
Total_Precipitation_Accumulation
0.05 0.08 0.10 0.13 0.15 0.16 0.13 0.12 0.18 0.21 0.24 0.24 0.28 0.24 0.13 0.16 0.28 0.32 0.22 0.19 0.22 0.41 0.41 0.54 0.54 0.36 0.34 0.28 0.27 0.24 0.22 0.23 0.24 0.14 0.06 0.09 0.15 0.13 0.10 0.06 0.03 0.03 0.01
0.07 0.09 0.12 0.18 0.16 0.14 0.13 0.09 0.10 0.13 0.22 0.26 0.20 0.17 0.15 0.13 0.13 0.15 0.17 0.15 0.17 0.19 0.30 0.40 0.62 0.65 0.52 0.40 0.35 0.28 0.21 0.19 0.22 0.22 0.16 0.13 0.12 0.10 0.11 0.09 0.05 0.03 0.04
0.10 0.09 0.12 0.15 0.16 0.14 0.14 0.16 0.14 0.13 0.12 0.16 0.18 0.13 0.12 0.13 0.18 0.14 0.11 0.09 0.06 0.14 0.19 0.24 0.36 0.51 0.65 0.56 0.42 0.36 0.28 0.24 0.25 0.28 0.22 0.17 0.14 0.12 0.14 0.11 0.13 0.09 0.06
0.25 0.17 0.15 0.22 0.23 0.20 0.13 0.13 0.13 0.14 0.14 0.12 0.15 0.15 0.15 0.11 0.11 0.13 0.12 0.10 0.06 0.05 0.09 0.21 0.25 0.31 0.41 0.45 0.47 0.41 0.39 0.35 0.30 0.31 0.30 0.23 0.18 0.15 0.19 0.15 0.20 0.14 0.07
0.32 0.28 0.23 0.21 0.35 0.33 0.34 0.29 0.16 0.15 0.15 0.15 0.18 0.20 0.20 0.22 0.26 0.22 0.18 0.18 0.14 0.12 0.13 0.19 0.27 0.34 0.36 0.36 0.46 0.48 0.46 0.41 0.38 0.37 0.37 0.31 0.22 0.16 0.19 0.18 0.29 0.24 0.27
0.35 0.40 0.40 0.34 0.31 0.38 0.38 0.36 0.32 0.24 0.27 0.25 0.20 0.20 0.22 0.21 0.47 0.37 0.29 0.25 0.30 0.44 0.50 0.46 0.49 0.66 0.60 0.45 0.40 0.42 0.47 0.51 0.45 0.35 0.33 0.33 0.22 0.23 0.24 0.35 0.37 0.35 0.22
0.31 0.37 0.43 0.39 0.39 0.38 0.51 0.60 0.61 0.50 0.49 0.48 0.51 0.48 0.32 0.23 0.42 0.38 0.38 0.26 0.32 0.41 0.44 0.46 0.43 0.34 0.34 0.24 0.43 0.48 0.43 0.51 0.54 0.45 0.38 0.30 0.36 0.45 0.56 0.62 0.63 0.58 0.46
0.54 0.52 0.57 0.52 0.44 0.40 0.51 0.60 0.78 0.98 0.77 0.61 0.61 0.59 0.62 0.62 0.57 0.52 0.62 0.51 0.54 0.47 0.36 0.29 0.26 0.23 0.34 0.31 0.19 0.28 0.40 0.51 0.60 0.61 0.65 0.68 0.67 0.60 0.63 0.60 0.55 0.63 0.67
0.73 0.80 0.73 0.75 0.79 0.79 0.72 0.69 0.72 0.80 0.86 0.85 0.71 0.64 0.57 0.48 0.56 0.54 0.53 0.44 0.52 0.52 0.45 0.41 0.41 0.29 0.52 0.42 0.24 0.33 0.47 0.57 0.84 0.84 0.76 0.75 0.67 0.57 0.52 0.50 0.64 0.70 0.66
0.57 0.76 0.90 0.91 0.99 1.07 1.22 1.25 1.09 1.02 1.13 1.07 0.99 0.90 0.84 0.56 0.65 0.68 0.71 0.61 0.64 0.63 0.58 0.55 0.75 0.65 0.84 0.69 0.57 0.52 0.61 0.68 0.59 0.55 0.54 0.53 0.52 0.50 0.57 0.44 0.47 0.61 0.66
0.48 0.49 0.65 0.86 0.94 1.08 1.16 1.20 1.27 1.24 1.09 1.08 1.14 1.13 1.12 1.02 0.92 0.90 0.96 0.89 0.95 0.92 0.86 0.79 0.82 0.84 0.66 0.63 0.60 0.49 0.58 0.50 0.51 0.38 0.36 0.36 0.34 0.33 0.36 0.38 0.36 0.44 0.47
0.28 0.31 0.31 0.37 0.56 0.66 0.74 0.83 0.84 0.90 0.96 0.91 0.84 0.88 0.88 1.02 1.16 1.11 0.95 0.93 1.01 0.88 0.95 1.02 1.11 0.98 0.79 0.73 0.66 0.77 0.73 0.49 0.29 0.24 0.21 0.21 0.20 0.20 0.21 0.26 0.30 0.32 0.32
0.04 0.09 0.14 0.15 0.16 0.23 0.33 0.41 0.47 0.50 0.54 0.57 0.60 0.63 0.65 0.63 0.66 0.75 0.83 0.84 0.81 0.76 0.81 0.84 0.86 0.85 0.81 0.78 0.80 0.79 0.73 0.62 0.57 0.51 0.47 0.41 0.30 0.21 0.17 0.18 0.19 0.22 0.25
0.00 0.01 0.02 0.03 0.05 0.05 0.06 0.10 0.17 0.24 0.30 0.35 0.38 0.40 0.39 0.38 0.38 0.40 0.40 0.39 0.42 0.44 0.45 0.45 0.46 0.46 0.48 0.53 0.54 0.55 0.58 0.59 0.57 0.55 0.51 0.48 0.42 0.37 0.34 0.32 0.31 0.32 0.29
0.00 0.01 0.00 0.00 0.00 0.01 0.03 0.05 0.05 0.13 0.10 0.12 0.18 0.21 0.25 0.31 0.36 0.29 0.25 0.27 0.29 0.29 0.27 0.27 0.26 0.25 0.25 0.25 0.26 0.29 0.31 0.32 0.33 0.35 0.33 0.31 0.29 0.26 0.25 0.24 0.25 0.25 0.25
0.00 0.01 0.02 0.02 0.01 0.00 0.00 0.01 0.02 0.03 0.01 0.02 0.03 0.04 0.06 0.07 0.05 0.05 0.05 0.05 0.05 0.06 0.07 0.10 0.13 0.14 0.15 0.18 0.19 0.19 0.18 0.17 0.18 0.18 0.17 0.16 0.16 0.15 0.13 0.12 0.11 0.12 0.13
0.02 0.01 0.01 0.01 0.01 0.02 0.02 0.01 0.02 0.02 0.01 0.01 0.01 0.01 0.01 0.01 0.01 0.00 0.00 0.00 0.00 0.00 0.00 0.01 0.01 0.01 0.01 0.01 0.01 0.02 0.03 0.04 0.05 0.05 0.05 0.05 0.04 0.02 0.01 0.01 0.01 0.01 0.01
0.01 0.01 0.01 0.02 0.02 0.01 0.01 0.02 0.02 0.02 0.01 0.02 0.01 0.01 0.01 0.00 0.00 0.00 0.00 0.00 0.00 0.00 0.00 0.00 0.00 0.00 0.00 0.00 0.00 0.00 0.00 0.00 0.00 0.00 0.00 0.00 0.00 0.00 0.00 0.00 0.00 0.00 0.00
0.01 0.03 0.02 0.01 0.02 0.02 0.01 0.01 0.01 0.01 0.01 0.02 0.01 0.01 0.01 0.00 0.00 0.00 0.00 0.00 0.00 0.00 0.00 0.00 0.00 0.00 0.00 0.00 0.00 0.00 0.00 0.00 0.00 0.00 0.00 0.00 0.00 0.00 0.00 0.00 0.00 0.00 0.00
0.00 0.00 0.01 0.02 0.02 0.01 0.01 0.01 0.01 0.01 0.00 0.00 0.00 0.00 0.00 0.00 0.00 0.00 0.00 0.00 0.00 0.00 0.00 0.00 0.00 0.00 0.00 0.00 0.00 0.00 0.00 0.00 0.00 0.00 0.00 0.00 0.00 0.00 0.00 0.00 0.00 0.00 0.00
0.01 0.01 0.01 0.01 0.01 0.01 0.01 0.01 0.01 0.00 0.00 0.00 0.01 0.00 0.00 0.00 0.00 0.00 0.00 0.01 0.01 0.01 0.01 0.00 0.00 0.00 0.00 0.00 0.00 0.00 0.00 0.00 0.00 0.00 0.00 0.00 0.00 0.00 0.00 0.00 0.00 0.00 0.00
0.00 0.00 0.00 0.00 0.00 0.01 0.01 0.01 0.01 0.01 0.00 0.00 0.00 0.00 0.00 0.00 0.00 0.00 0.00 0.01 0.00 0.01 0.01 0.01 0.00 0.00 0.00 0.00 0.00 0.00 0.00 0.00 0.00 0.00 0.00 0.00 0.00 0.00 0.00 0.00 0.00 0.00 0.00
0.00 0.00 0.00 0.00 0.00 0.00 0.01 0.01 0.02 0.02 0.01 0.01 0.01 0.01 0.01 0.01 0.01 0.00 0.01 0.01 0.00 0.00 0.00 0.00 0.00 0.00 0.00 0.01 0.00 0.00 0.00 0.00 0.01 0.00 0.00 0.00 0.00 0.00 0.00 0.00 0.00 0.00 0.00
0.00 0.00 0.00 0.01 0.00 0.01 0.01 0.02 0.02 0.02 0.02 0.02 0.01 0.01 0.01 0.01 0.01 0.01 0.01 0.01 0.01 0.01 0.00 0.00 0.00 0.00 0.00 0.00 0.00 0.00 0.00 0.00 0.00 0.00 0.00 0.00 0.00 0.00 0.00 0.00 0.00 0.00 0.00
0.01 0.00 0.01 0.01 0.01 0.02 0.03 0.02 0.03 0.03 0.03 0.03 0.03 0.02 0.02 0.01 0.01 0.01 0.01 0.01 0.01 0.01 0.01 0.00 0.00 0.00 0.00 0.00 0.00 0.00 0.00 0.00 0.00 0.00 0.00 0.00 0.00 0.00 0.00 0.00 0.00 0.00 0.00
0.00 0.00 0.01 0.01 0.01 0.01 0.02 0.03 0.03 0.03 0.03 0.03 0.03 0.03 0.02 0.02 0.01 0.01 0.01 0.00 0.01 0.01 0.01 0.01 0.00 0.00 0.00 0.00 0.00 0.00 0.00 0.00 0.00 0.00 0.00 0.00 0.01 0.00 0.00 0.00 0.00 0.00 0.00

GFSGL_prec_precacc24_123.txt.gz
Total_Precipitation_Accumulation
0.10 0.15 0.19 0.29 0.35 0.52 0.48 0.25 0.22 0.24 0.27 0.27 0.33 0.29 0.16 0.18 0.33 0.33 0.30 0.31 0.33 0.54 0.52 0.61 0.58 0.38 0.35 0.28 0.27 0.26 0.23 0.26 0.26 0.14 0.07 0.09 0.15 0.14 0.13 0.11 0.07 0.06 0.03
0.09 0.09 0.13 0.21 0.31 0.24 0.24 0.14 0.13 0.16 0.25 0.29 0.23 0.20 0.17 0.15 0.17 0.18 0.20 0.22 0.21 0.19 0.33 0.49 0.70 0.70 0.56 0.41 0.36 0.28 0.23 0.21 0.23 0.22 0.16 0.13 0.12 0.11 0.15 0.16 0.15 0.14 0.11
0.21 0.10 0.12 0.15 0.17 0.15 0.14 0.15 0.14 0.13 0.12 0.16 0.20 0.16 0.16 0.15 0.19 0.16 0.13 0.12 0.11 0.18 0.21 0.25 0.39 0.55 0.69 0.58 0.44 0.36 0.28 0.25 0.26 0.29 0.23 0.17 0.14 0.12 0.16 0.16 0.19 0.21 0.19
0.25 0.16 0.11 0.20 0.22 0.19 0.13 0.12 0.13 0.13 0.13 0.12 0.14 0.14 0.15 0.12 0.12 0.14 0.12 0.12 0.10 0.10 0.14 0.24 0.28 0.36 0.46 0.49 0.50 0.42 0.39 0.35 0.28 0.29 0.29 0.23 0.16 0.14 0.18 0.18 0.26 0.28 0.20
0.23 0.22 0.18 0.18 0.34 0.32 0.33 0.28 0.16 0.15 0.15 0.14 0.17 0.18 0.17 0.20 0.25 0.21 0.18 0.18 0.16 0.15 0.16 0.23 0.33 0.46 0.54 0.55 0.64 0.62 0.55 0.47 0.35 0.31 0.33 0.29 0.20 0.15 0.18 0.18 0.30 0.29 0.34
0.26 0.32 0.31 0.26 0.28 0.37 0.37 0.36 0.32 0.24 0.26 0.25 0.19 0.20 0.21 0.21 0.48 0.37 0.30 0.27 0.33 0.48 0.55 0.53 0.58 0.79 0.78 0.75 0.67 0.63 0.64 0.64 0.48 0.32 0.30 0.31 0.22 0.21 0.22 0.34 0.41 0.40 0.29
0.21 0.26 0.32 0.31 0.35 0.36 0.50 0.58 0.59 0.49 0.49 0.47 0.50 0.47 0.30 0.22 0.41 0.38 0.39 0.27 0.33 0.44 0.48 0.48 0.45 0.38 0.37 0.29 0.48 0.51 0.46 0.52 0.52 0.41 0.36 0.27 0.26 0.28 0.39 0.50 0.55 0.48 0.36
0.36 0.30 0.37 0.36 0.35 0.34 0.42 0.52 0.73 0.94 0.74 0.58 0.58 0.56 0.60 0.58 0.53 0.50 0.61 0.50 0.51 0.43 0.34 0.29 0.26 0.24 0.33 0.30 0.21 0.30 0.39 0.44 0.50 0.47 0.42 0.45 0.41 0.42 0.48 0.47 0.45 0.54 0.57
0.47 0.59 0.52 0.52 0.55 0.55 0.51 0.50 0.56 0.64 0.74 0.78 0.67 0.61 0.55 0.47 0.54 0.53 0.51 0.43 0.48 0.46 0.41 0.39 0.42 0.33 0.60 0.48 0.28 0.38 0.53 0.58 0.79 0.82 0.77 0.80 0.73 0.62 0.55 0.51 0.64 0.68 0.58
0.43 0.60 0.72 0.75 0.84 0.83 0.96 0.99 0.87 0.80 0.97 0.94 0.89 0.83 0.79 0.55 0.63 0.67 0.71 0.62 0.65 0.64 0.59 0.57 0.81 0.72 0.96 0.84 0.72 0.74 0.80 0.82 0.71 0.64 0.58 0.53 0.51 0.52 0.61 0.47 0.50 0.65 0.66
0.39 0.44 0.56 0.73 0.89 1.05 1.12 1.12 1.17 1.14 1.01 1.03 1.09 1.08 1.09 1.01 0.92 0.90 0.96 0.89 0.95 0.93 0.87 0.80 0.84 0.90 0.73 0.72 0.75 0.73 0.86 0.72 0.67 0.51 0.51 0.48 0.42 0.38 0.40 0.44 0.44 0.55 0.60
0.17 0.24 0.29 0.35 0.53 0.64 0.71 0.81 0.82 0.88 0.95 0.91 0.84 0.88 0.88 1.02 1.16 1.11 0.95 0.93 1.01 0.89 0.95 1.03 1.12 1.01 0.83 0.79 0.78 0.96 0.98 0.74 0.48 0.39 0.32 0.32 0.34 0.33 0.33 0.37 0.41 0.45 0.47
0.03 0.06 0.10 0.14 0.16 0.23 0.32 0.40 0.46 0.50 0.53 0.56 0.61 0.63 0.65 0.63 0.66 0.75 0.83 0.84 0.81 0.76 0.82 0.84 0.86 0.86 0.83 0.81 0.87 0.92 0.91 0.85 0.82 0.77 0.71 0.63 0.49 0.36 0.30 0.31 0.31 0.34 0.38
0.00 0.01 0.02 0.03 0.04 0.05 0.06 0.10 0.16 0.23 0.29 0.35 0.38 0.40 0.39 0.38 0.38 0.40 0.40 0.39 0.42 0.44 0.45 0.45 0.46 0.47 0.48 0.53 0.54 0.57 0.62 0.67 0.68 0.69 0.67 0.67 0.62 0.56 0.52 0.51 0.50 0.53 0.49
0.00 0.01 0.00 0.00 0.00 0.01 0.03 0.04 0.05 0.12 0.10 0.12 0.17 0.21 0.25 0.31 0.37 0.29 0.25 0.27 0.28 0.29 0.27 0.27 0.26 0.25 0.25 0.25 0.26 0.29 0.31 0.33 0.34 0.38 0.38 0.38 0.36 0.34 0.35 0.35 0.36 0.38 0.39
0.00 0.01 0.02 0.02 0.01 0.00 0.00 0.01 0.02 0.03 0.01 0.02 0.03 0.03 0.06 0.07 0.05 0.05 0.05 0.05 0.05 0.06 0.06 0.10 0.13 0.14 0.15 0.18 0.19 0.19 0.18 0.18 0.19 0.18 0.18 0.18 0.18 0.18 0.17 0.16 0.17 0.19 0.20
0.01 0.01 0.01 0.01 0.01 0.01 0.01 0.01 0.01 0.01 0.00 0.01 0.01 0.01 0.01 0.01 0.01 0.00 0.00 0.00 0.00 0.00 0.00 0.01 0.01 0.01 0.01 0.01 0.01 0.02 0.03 0.04 0.05 0.05 0.06 0.05 0.04 0.03 0.02 0.03 0.04 0.05 0.05
0.01 0.01 0.01 0.02 0.02 0.01 0.01 0.02 0.02 0.01 0.01 0.01 0.01 0.01 0.01 0.00 0.00 0.00 0.00 0.00 0.00 0.00 0.00 0.00 0.00 0.00 0.00 0.00 0.00 0.00 0.00 0.00 0.00 0.00 0.00 0.00 0.00 0.00 0.00 0.00 0.00 0.00 0.00
0.01 0.02 0.02 0.01 0.02 0.02 0.01 0.01 0.01 0.00 0.01 0.01 0.01 0.01 0.01 0.00 0.00 0.00 0.00 0.00 0.01 0.01 0.00 0.00 0.01 0.00 0.00 0.00 0.01 0.01 0.01 0.00 0.00 0.00 0.00 0.00 0.00 0.00 0.00 0.00 0.00 0.00 0.00
0.00 0.00 0.01 0.02 0.02 0.01 0.01 0.01 0.01 0.01 0.00 0.00 0.00 0.00 0.00 0.00 0.00 0.00 0.00 0.00 0.00 0.01 0.01 0.01 0.01 0.01 0.00 0.01 0.01 0.01 0.01 0.00 0.00 0.00 0.01 0.01 0.00 0.00 0.00 0.00 0.00 0.00 0.00
0.01 0.00 0.00 0.00 0.01 0.01 0.01 0.01 0.01 0.00 0.01 0.00 0.01 0.01 0.00 0.00 0.00 0.00 0.01 0.01 0.01 0.01 0.01 0.00 0.01 0.00 0.00 0.00 0.00 0.00 0.00 0.01 0.00 0.01 0.00 0.00 0.01 0.00 0.00 0.00 0.00 0.00 0.00
0.00 0.00 0.00 0.00 0.00 0.01 0.01 0.01 0.01 0.01 0.01 0.01 0.01 0.00 0.00 0.01 0.01 0.00 0.01 0.01 0.01 0.01 0.01 0.01 0.01 0.00 0.01 0.01 0.00 0.00 0.00 0.00 0.01 0.01 0.01 0.00 0.01 0.01 0.00 0.00 0.00 0.00 0.00
0.00 0.00 0.00 0.00 0.01 0.01 0.01 0.01 0.02 0.02 0.02 0.02 0.02 0.01 0.01 0.01 0.01 0.01 0.01 0.02 0.01 0.01 0.01 0.00 0.01 0.00 0.00 0.01 0.00 0.00 0.00 0.00 0.01 0.01 0.01 0.01 0.00 0.01 0.00 0.00 0.00 0.00 0.00
0.00 0.00 0.01 0.01 0.00 0.01 0.02 0.02 0.03 0.03 0.03 0.03 0.02 0.02 0.02 0.02 0.02 0.02 0.01 0.01 0.01 0.01 0.01 0.01 0.01 0.00 0.00 0.00 0.00 0.00 0.00 0.00 0.00 0.00 0.00 0.01 0.00 0.01 0.00 0.00 0.00 0.00 0.00
0.01 0.00 0.01 0.01 0.02 0.02 0.03 0.02 0.03 0.03 0.03 0.03 0.03 0.03 0.03 0.02 0.02 0.02 0.02 0.01 0.01 0.01 0.01 0.01 0.01 0.00 0.00 0.00 0.00 0.00 0.00 0.00 0.00 0.00 0.00 0.00 0.00 0.00 0.00 0.00 0.00 0.00 0.00
0.01 0.01 0.01 0.01 0.01 0.01 0.02 0.03 0.03 0.03 0.03 0.03 0.04 0.03 0.03 0.03 0.02 0.02 0.02 0.01 0.01 0.01 0.01 0.01 0.01 0.00 0.00 0.01 0.00 0.00 0.00 0.00 0.00 0.00 0.00 0.00 0.00 0.00 0.00 0.00 0.00 0.00 0.00

GFSGL_prec_precacc24_126.txt.gz
Total_Precipitation_Accumulation
0.24 0.34 0.32 0.40 0.53 0.66 0.64 0.82 1.31 0.64 0.39 0.39 0.44 0.44 0.30 0.25 0.40 0.40 0.34 0.34 0.39 0.58 0.59 0.71 0.80 0.74 0.85 0.58 0.42 0.34 0.29 0.29 0.31 0.14 0.09 0.10 0.15 0.14 0.13 0.11 0.08 0.06 0.03
0.21 0.31 0.34 0.41 0.53 0.50 0.48 0.42 0.40 0.49 0.53 0.42 0.32 0.28 0.23 0.17 0.20 0.23 0.24 0.25 0.24 0.25 0.37 0.55 0.79 0.77 0.59 0.43 0.39 0.31 0.24 0.23 0.29 0.25 0.18 0.14 0.12 0.11 0.15 0.16 0.15 0.14 0.12
0.29 0.31 0.36 0.46 0.29 0.41 0.44 0.35 0.27 0.29 0.29 0.27 0.30 0.24 0.19 0.20 0.24 0.20 0.16 0.15 0.16 0.23 0.25 0.29 0.43 0.58 0.69 0.59 0.47 0.40 0.32 0.29 0.31 0.35 0.25 0.17 0.14 0.12 0.16 0.16 0.19 0.21 0.21
0.45 0.41 0.45 0.42 0.40 0.37 0.37 0.35 0.29 0.23 0.20 0.17 0.16 0.19 0.21 0.17 0.17 0.17 0.16 0.15 0.13 0.14 0.16 0.27 0.31 0.40 0.49 0.54 0.55 0.48 0.45 0.41 0.34 0.35 0.35 0.26 0.18 0.15 0.17 0.18 0.26 0.29 0.22
0.21 0.23 0.28 0.34 0.47 0.47 0.48 0.40 0.28 0.24 0.18 0.16 0.18 0.17 0.18 0.22 0.28 0.24 0.20 0.20 0.17 0.17 0.19 0.27 0.40 0.55 0.63 0.62 0.71 0.69 0.63 0.58 0.53 0.49 0.45 0.37 0.22 0.13 0.15 0.14 0.25 0.26 0.32
0.15 0.24 0.24 0.20 0.23 0.35 0.39 0.36 0.31 0.25 0.27 0.25 0.19 0.20 0.21 0.20 0.47 0.37 0.30 0.27 0.33 0.47 0.53 0.52 0.62 0.87 0.84 0.86 0.82 0.81 0.83 0.84 0.68 0.41 0.32 0.29 0.20 0.18 0.19 0.30 0.38 0.41 0.28
0.09 0.14 0.22 0.22 0.29 0.33 0.48 0.56 0.58 0.48 0.48 0.46 0.49 0.46 0.30 0.21 0.38 0.37 0.37 0.26 0.30 0.39 0.46 0.47 0.45 0.40 0.42 0.30 0.52 0.55 0.50 0.53 0.51 0.39 0.36 0.26 0.24 0.23 0.30 0.39 0.42 0.34 0.23
0.21 0.14 0.20 0.25 0.28 0.29 0.38 0.48 0.71 0.94 0.74 0.57 0.57 0.55 0.59 0.57 0.52 0.50 0.60 0.50 0.51 0.42 0.33 0.30 0.29 0.28 0.38 0.35 0.25 0.33 0.41 0.43 0.47 0.44 0.34 0.30 0.27 0.30 0.40 0.39 0.39 0.54 0.57
0.34 0.41 0.31 0.31 0.38 0.42 0.38 0.38 0.45 0.56 0.70 0.76 0.65 0.60 0.53 0.45 0.51 0.51 0.50 0.42 0.46 0.43 0.36 0.33 0.36 0.29 0.53 0.46 0.25 0.34 0.49 0.53 0.75 0.83 0.79 0.82 0.76 0.64 0.57 0.55 0.70 0.76 0.63
0.32 0.37 0.51 0.50 0.48 0.48 0.52 0.58 0.56 0.54 0.68 0.73 0.71 0.68 0.67 0.49 0.54 0.58 0.60 0.50 0.50 0.49 0.44 0.45 0.67 0.56 0.77 0.67 0.57 0.62 0.76 0.83 0.76 0.72 0.69 0.63 0.60 0.58 0.70 0.58 0.65 0.80 0.77
0.22 0.28 0.32 0.40 0.53 0.66 0.71 0.68 0.66 0.70 0.66 0.71 0.81 0.84 0.86 0.82 0.78 0.77 0.79 0.72 0.78 0.79 0.77 0.76 0.84 0.90 0.72 0.73 0.75 0.75 0.91 0.79 0.78 0.62 0.62 0.62 0.58 0.52 0.51 0.56 0.58 0.72 0.79
0.07 0.11 0.13 0.20 0.28 0.37 0.48 0.62 0.65 0.65 0.70 0.71 0.70 0.77 0.79 0.94 1.09 1.07 0.92 0.91 0.99 0.88 0.95 1.03 1.13 1.01 0.83 0.79 0.78 0.97 1.01 0.80 0.55 0.47 0.42 0.45 0.47 0.49 0.52 0.57 0.64 0.66 0.67
0.00 0.01 0.03 0.04 0.06 0.11 0.19 0.29 0.38 0.45 0.48 0.51 0.57 0.62 0.64 0.63 0.65 0.74 0.83 0.83 0.81 0.76 0.82 0.84 0.86 0.86 0.83 0.81 0.88 0.92 0.92 0.87 0.86 0.82 0.80 0.76 0.64 0.53 0.47 0.48 0.51 0.58 0.65
0.00 0.00 0.00 0.00 0.01 0.02 0.03 0.06 0.11 0.18 0.26 0.32 0.36 0.39 0.38 0.37 0.38 0.39 0.39 0.39 0.42 0.44 0.45 0.45 0.46 0.47 0.48 0.53 0.54 0.57 0.62 0.67 0.70 0.71 0.72 0.75 0.72 0.68 0.65 0.66 0.66 0.69 0.65
0.00 0.01 0.00 0.00 0.00 0.00 0.02 0.03 0.04 0.10 0.09 0.10 0.15 0.18 0.23 0.29 0.34 0.27 0.25 0.27 0.28 0.29 0.26 0.27 0.26 0.25 0.25 0.26 0.27 0.29 0.31 0.33 0.35 0.38 0.38 0.39 0.39 0.39 0.41 0.43 0.45 0.47 0.48
0.00 0.01 0.02 0.01 0.00 0.00 0.00 0.01 0.01 0.02 0.01 0.02 0.03 0.03 0.05 0.07 0.05 0.04 0.05 0.05 0.05 0.06 0.07 0.10 0.13 0.14 0.16 0.18 0.19 0.19 0.18 0.18 0.20 0.19 0.18 0.18 0.19 0.19 0.18 0.17 0.19 0.21 0.24
0.01 0.00 0.00 0.01 0.01 0.01 0.01 0.00 0.01 0.01 0.00 0.01 0.01 0.01 0.01 0.01 0.01 0.00 0.00 0.00 0.00 0.00 0.00 0.01 0.01 0.01 0.01 0.01 0.01 0.02 0.03 0.04 0.05 0.05 0.06 0.06 0.05 0.03 0.03 0.03 0.04 0.05 0.06
0.01 0.01 0.00 0.01 0.02 0.01 0.01 0.02 0.02 0.01 0.01 0.01 0.01 0.00 0.00 0.00 0.00 0.00 0.00 0.00 0.00 0.00 0.00 0.00 0.00 0.00 0.00 0.00 0.00 0.00 0.00 0.00 0.00 0.00 0.00 0.00 0.00 0.00 0.00 0.00 0.00 0.00 0.00
0.00 0.02 0.01 0.01 0.02 0.01 0.01 0.01 0.01 0.00 0.01 0.01 0.01 0.01 0.00 0.00 0.00 0.00 0.00 0.00 0.01 0.01 0.00 0.00 0.01 0.00 0.00 0.00 0.01 0.01 0.02 0.01 0.01 0.01 0.01 0.01 0.00 0.00 0.00 0.00 0.00 0.00 0.00
0.00 0.00 0.00 0.01 0.01 0.01 0.01 0.01 0.01 0.01 0.00 0.00 0.01 0.01 0.00 0.00 0.00 0.01 0.01 0.01 0.01 0.01 0.01 0.01 0.01 0.01 0.01 0.01 0.01 0.01 0.01 0.01 0.01 0.01 0.01 0.01 0.01 0.00 0.00 0.00 0.00 0.00 0.00
0.00 0.00 0.00 0.00 0.00 0.01 0.01 0.01 0.01 0.01 0.01 0.01 0.02 0.01 0.00 0.00 0.01 0.01 0.01 0.01 0.01 0.01 0.01 0.01 0.01 0.01 0.00 0.00 0.00 0.01 0.01 0.01 0.01 0.01 0.01 0.01 0.01 0.00 0.00 0.00 0.00 0.00 0.00
0.00 0.00 0.00 0.00 0.00 0.01 0.01 0.01 0.01 0.01 0.02 0.02 0.01 0.01 0.00 0.01 0.01 0.01 0.01 0.01 0.01 0.01 0.01 0.01 0.01 0.01 0.01 0.01 0.00 0.00 0.00 0.01 0.01 0.01 0.01 0.01 0.01 0.01 0.00 0.00 0.00 0.00 0.00
0.00 0.00 0.00 0.00 0.01 0.00 0.01 0.02 0.02 0.03 0.02 0.02 0.02 0.02 0.02 0.02 0.02 0.01 0.02 0.02 0.01 0.01 0.01 0.01 0.01 0.00 0.00 0.01 0.01 0.00 0.00 0.00 0.01 0.01 0.01 0.01 0.01 0.00 0.01 0.00 0.00 0.00 0.00
0.00 0.01 0.01 0.01 0.01 0.01 0.02 0.02 0.03 0.03 0.03 0.03 0.03 0.03 0.03 0.03 0.03 0.02 0.02 0.02 0.01 0.01 0.01 0.01 0.01 0.00 0.00 0.00 0.00 0.00 0.00 0.00 0.00 0.00 0.00 0.01 0.01 0.00 0.00 0.00 0.00 0.00 0.00
0.01 0.01 0.01 0.02 0.02 0.02 0.03 0.03 0.03 0.03 0.03 0.04 0.04 0.04 0.03 0.03 0.03 0.03 0.03 0.02 0.01 0.01 0.01 0.01 0.01 0.00 0.00 0.00 0.00 0.00 0.00 0.00 0.00 0.00 0.00 0.00 0.00 0.00 0.00 0.00 0.00 0.00 0.00
0.01 0.01 0.02 0.02 0.02 0.03 0.03 0.04 0.04 0.04 0.03 0.04 0.04 0.04 0.04 0.04 0.03 0.03 0.02 0.02 0.02 0.02 0.02 0.02 0.01 0.00 0.00 0.01 0.00 0.00 0.00 0.00 0.00 0.00 0.00 0.01 0.00 0.00 0.00 0.00 0.00 0.00 0.00

GFSGL_prec_precacc24_129.txt.gz
Total_Precipitation_Accumulation
0.46 0.49 0.43 0.46 0.52 0.71 0.86 1.03 1.81 1.70 1.67 2.18 1.47 0.89 0.61 0.54 0.62 0.60 0.46 0.35 0.34 0.51 0.55 0.68 0.80 0.79 0.91 0.74 0.70 0.74 0.70 0.65 0.56 0.22 0.20 0.19 0.16 0.14 0.13 0.10 0.08 0.06 0.03
0.82 0.83 0.52 0.43 0.54 0.62 0.70 0.77 0.73 0.99 1.25 1.18 0.96 1.13 1.05 0.53 0.36 0.34 0.31 0.35 0.38 0.40 0.47 0.65 0.89 0.92 0.73 0.51 0.43 0.32 0.26 0.28 0.36 0.29 0.22 0.19 0.15 0.12 0.15 0.16 0.15 0.14 0.12
0.69 0.84 0.54 0.50 0.30 0.42 0.60 0.76 0.66 0.59 0.57 0.73 0.66 0.57 0.66 0.46 0.31 0.31 0.23 0.16 0.19 0.29 0.33 0.38 0.49 0.72 0.84 0.66 0.52 0.42 0.35 0.33 0.36 0.40 0.27 0.19 0.15 0.12 0.16 0.16 0.19 0.21 0.21
0.47 0.44 0.48 0.40 0.37 0.34 0.40 0.55 0.53 0.47 0.47 0.43 0.47 0.51 0.47 0.32 0.25 0.23 0.23 0.21 0.18 0.19 0.24 0.34 0.32 0.38 0.53 0.57 0.58 0.51 0.48 0.43 0.36 0.37 0.39 0.31 0.21 0.16 0.20 0.22 0.27 0.29 0.22
0.14 0.20 0.28 0.41 0.43 0.47 0.53 0.48 0.40 0.40 0.35 0.33 0.29 0.28 0.32 0.37 0.41 0.37 0.28 0.23 0.19 0.19 0.21 0.29 0.41 0.59 0.65 0.66 0.74 0.71 0.67 0.64 0.61 0.56 0.53 0.45 0.28 0.15 0.15 0.15 0.25 0.24 0.27
0.05 0.15 0.17 0.17 0.27 0.50 0.56 0.48 0.39 0.33 0.33 0.31 0.24 0.24 0.26 0.24 0.49 0.38 0.31 0.30 0.35 0.45 0.51 0.49 0.60 0.87 0.86 0.90 0.88 0.86 0.89 0.90 0.80 0.63 0.49 0.44 0.32 0.26 0.21 0.29 0.36 0.39 0.27
0.02 0.02 0.09 0.14 0.21 0.26 0.41 0.54 0.54 0.48 0.47 0.45 0.47 0.43 0.29 0.21 0.38 0.37 0.36 0.25 0.28 0.37 0.43 0.43 0.39 0.37 0.40 0.30 0.52 0.56 0.51 0.57 0.56 0.45 0.45 0.37 0.33 0.29 0.31 0.35 0.36 0.25 0.16
0.04 0.03 0.05 0.11 0.15 0.20 0.27 0.40 0.64 0.86 0.69 0.50 0.48 0.50 0.54 0.52 0.47 0.46 0.54 0.47 0.47 0.38 0.30 0.26 0.25 0.25 0.35 0.32 0.23 0.32 0.42 0.47 0.52 0.47 0.36 0.32 0.29 0.28 0.33 0.31 0.33 0.49 0.52
0.08 0.14 0.14 0.14 0.19 0.25 0.27 0.31 0.38 0.49 0.65 0.74 0.61 0.53 0.49 0.43 0.47 0.46 0.45 0.39 0.43 0.40 0.34 0.31 0.33 0.27 0.50 0.44 0.24 0.32 0.45 0.48 0.68 0.76 0.71 0.72 0.66 0.56 0.47 0.47 0.68 0.81 0.67
0.06 0.10 0.25 0.29 0.29 0.29 0.38 0.47 0.45 0.43 0.54 0.59 0.64 0.63 0.60 0.46 0.50 0.54 0.56 0.48 0.47 0.45 0.40 0.39 0.58 0.49 0.66 0.52 0.39 0.41 0.49 0.56 0.52 0.50 0.52 0.52 0.54 0.59 0.74 0.62 0.70 0.90 0.90
0.01 0.04 0.10 0.23 0.35 0.44 0.47 0.50 0.50 0.53 0.47 0.47 0.54 0.58 0.64 0.64 0.65 0.68 0.72 0.65 0.69 0.65 0.60 0.56 0.60 0.65 0.52 0.54 0.58 0.58 0.76 0.68 0.72 0.60 0.62 0.62 0.59 0.55 0.55 0.61 0.65 0.82 0.93
0.00 0.01 0.03 0.07 0.11 0.18 0.24 0.36 0.41 0.43 0.46 0.44 0.41 0.47 0.51 0.66 0.80 0.82 0.79 0.81 0.87 0.76 0.82 0.90 1.05 0.94 0.75 0.72 0.75 0.95 1.00 0.79 0.55 0.47 0.43 0.46 0.49 0.52 0.57 0.63 0.72 0.78 0.81
0.00 0.00 0.00 0.01 0.02 0.03 0.06 0.11 0.18 0.23 0.26 0.29 0.34 0.37 0.41 0.44 0.50 0.60 0.70 0.76 0.78 0.73 0.79 0.81 0.85 0.85 0.83 0.81 0.88 0.92 0.92 0.87 0.86 0.82 0.80 0.76 0.65 0.55 0.50 0.52 0.57 0.66 0.76
0.00 0.00 0.00 0.00 0.00 0.00 0.00 0.01 0.02 0.06 0.09 0.13 0.16 0.19 0.22 0.26 0.31 0.34 0.36 0.36 0.40 0.43 0.45 0.45 0.46 0.47 0.48 0.53 0.54 0.57 0.62 0.67 0.70 0.72 0.73 0.75 0.72 0.69 0.67 0.68 0.69 0.74 0.72
0.00 0.01 0.00 0.00 0.00 0.00 0.01 0.02 0.02 0.07 0.05 0.04 0.07 0.08 0.12 0.16 0.21 0.18 0.19 0.22 0.24 0.26 0.24 0.25 0.25 0.25 0.24 0.25 0.26 0.29 0.31 0.33 0.35 0.38 0.38 0.39 0.39 0.39 0.41 0.43 0.46 0.49 0.52
0.00 0.00 0.01 0.01 0.00 0.00 0.00 0.01 0.01 0.02 0.01 0.01 0.02 0.02 0.04 0.05 0.03 0.03 0.03 0.04 0.04 0.05 0.06 0.09 0.12 0.14 0.16 0.18 0.19 0.19 0.18 0.18 0.20 0.19 0.18 0.18 0.19 0.19 0.18 0.17 0.19 0.22 0.25
0.01 0.00 0.00 0.01 0.01 0.00 0.00 0.00 0.01 0.00 0.00 0.01 0.01 0.01 0.01 0.01 0.00 0.00 0.00 0.00 0.00 0.00 0.00 0.01 0.01 0.01 0.01 0.01 0.01 0.02 0.04 0.04 0.05 0.05 0.06 0.06 0.05 0.03 0.03 0.03 0.04 0.05 0.06
0.00 0.00 0.00 0.01 0.01 0.01 0.01 0.01 0.01 0.01 0.01 0.00 0.01 0.00 0.00 0.00 0.00 0.00 0.00 0.00 0.00 0.00 0.00 0.01 0.01 0.00 0.00 0.00 0.00 0.01 0.01 0.00 0.00 0.00 0.00 0.00 0.00 0.00 0.00 0.00 0.00 0.00 0.00
0.00 0.01 0.01 0.00 0.01 0.01 0.01 0.01 0.01 0.00 0.00 0.00 0.00 0.00 0.00 0.00 0.00 0.00 0.00 0.00 0.01 0.01 0.00 0.00 0.01 0.01 0.00 0.00 0.01 0.01 0.02 0.01 0.01 0.01 0.01 0.01 0.01 0.00 0.00 0.00 0.00 0.00 0.00
0.00 0.00 0.00 0.01 0.01 0.01 0.01 0.01 0.00 0.01 0.00 0.00 0.01 0.01 0.00 0.00 0.00 0.01 0.01 0.01 0.01 0.01 0.01 0.01 0.01 0.01 0.01 0.01 0.01 0.01 0.01 0.01 0.01 0.01 0.01 0.01 0.01 0.00 0.00 0.00 0.00 0.00 0.00
0.00 0.00 0.00 0.00 0.00 0.01 0.01 0.01 0.01 0.01 0.01 0.01 0.02 0.02 0.00 0.00 0.01 0.01 0.01 0.01 0.01 0.01 0.01 0.01 0.01 0.01 0.00 0.00 0.00 0.01 0.01 0.01 0.01 0.01 0.01 0.01 0.02 0.01 0.00 0.00 0.00 0.00 0.00
0.00 0.00 0.00 0.00 0.00 0.01 0.01 0.01 0.01 0.01 0.02 0.02 0.01 0.01 0.00 0.01 0.02 0.01 0.01 0.01 0.01 0.01 0.01 0.01 0.01 0.01 0.00 0.01 0.01 0.00 0.00 0.01 0.01 0.01 0.01 0.01 0.01 0.01 0.01 0.00 0.00 0.00 0.00
0.00 0.00 0.00 0.00 0.00 0.00 0.01 0.02 0.02 0.03 0.02 0.02 0.02 0.02 0.02 0.03 0.02 0.02 0.02 0.02 0.01 0.01 0.01 0.01 0.01 0.00 0.00 0.01 0.01 0.00 0.00 0.00 0.01 0.01 0.01 0.01 0.01 0.01 0.01 0.00 0.00 0.00 0.00
0.00 0.01 0.01 0.01 0.01 0.01 0.02 0.02 0.03 0.03 0.03 0.03 0.03 0.03 0.03 0.03 0.03 0.02 0.02 0.04 0.01 0.01 0.01 0.01 0.01 0.00 0.00 0.00 0.00 0.00 0.00 0.00 0.00 0.00 0.01 0.01 0.01 0.01 0.00 0.00 0.00 0.00 0.00
0.01 0.01 0.01 0.02 0.02 0.02 0.04 0.03 0.03 0.03 0.04 0.04 0.04 0.04 0.04 0.03 0.03 0.03 0.03 0.03 0.02 0.01 0.01 0.01 0.01 0.00 0.00 0.00 0.00 0.00 0.00 0.00 0.00 0.00 0.00 0.01 0.01 0.00 0.00 0.00 0.00 0.00 0.00
0.01 0.02 0.03 0.03 0.04 0.04 0.04 0.04 0.05 0.05 0.05 0.05 0.05 0.05 0.05 0.04 0.03 0.03 0.02 0.02 0.02 0.02 0.01 0.01 0.02 0.01 0.00 0.01 0.00 0.00 0.00 0.00 0.00 0.00 0.00 0.01 0.00 0.00 0.00 0.00 0.00 0.00 0.00

GFSGL_prec_precacc24_132.txt.gz
Total_Precipitation_Accumulation
0.55 0.53 0.44 0.54 0.53 0.69 0.84 1.05 1.81 1.70 1.71 2.50 2.71 2.23 1.99 1.43 1.03 0.76 0.53 0.37 0.30 0.30 0.34 0.51 0.61 0.66 0.83 0.79 0.78 0.86 0.78 0.70 0.62 0.29 0.27 0.28 0.26 0.23 0.18 0.18 0.13 0.09 0.04
1.12 1.01 0.66 0.57 0.70 0.65 0.71 0.82 0.76 1.01 1.38 1.49 1.95 2.38 1.96 1.74 1.11 0.68 0.55 0.51 0.51 0.46 0.36 0.53 0.75 0.73 0.63 0.53 0.55 0.52 0.56 0.50 0.39 0.29 0.23 0.23 0.21 0.18 0.19 0.19 0.17 0.16 0.13
1.50 1.60 0.93 0.83 0.49 0.48 0.64 0.78 0.67 0.60 0.62 0.89 1.22 1.45 1.53 1.83 1.57 0.88 0.59 0.43 0.45 0.56 0.53 0.47 0.51 0.68 0.83 0.68 0.58 0.51 0.48 0.46 0.41 0.41 0.27 0.21 0.16 0.13 0.16 0.17 0.21 0.24 0.23
0.87 1.16 1.15 0.76 0.64 0.53 0.41 0.56 0.62 0.57 0.61 0.56 0.67 0.98 1.21 1.05 1.07 1.09 1.09 0.81 0.38 0.34 0.47 0.66 0.52 0.43 0.56 0.60 0.64 0.55 0.52 0.51 0.45 0.45 0.43 0.33 0.22 0.17 0.22 0.25 0.32 0.33 0.24
0.22 0.25 0.59 0.91 0.59 0.49 0.41 0.36 0.39 0.43 0.47 0.54 0.58 0.62 0.78 1.01 0.97 0.82 0.82 0.76 0.49 0.39 0.35 0.37 0.51 0.58 0.58 0.55 0.68 0.68 0.64 0.61 0.61 0.60 0.58 0.49 0.32 0.18 0.17 0.17 0.28 0.26 0.28
0.01 0.03 0.05 0.14 0.22 0.34 0.35 0.32 0.34 0.34 0.37 0.41 0.42 0.48 0.50 0.51 0.86 0.86 0.76 0.69 0.66 0.69 0.66 0.58 0.62 0.80 0.78 0.86 0.86 0.87 0.87 0.85 0.77 0.64 0.53 0.50 0.38 0.34 0.33 0.40 0.44 0.46 0.30
0.00 0.00 0.00 0.01 0.06 0.09 0.12 0.29 0.41 0.48 0.54 0.52 0.59 0.55 0.39 0.33 0.47 0.48 0.53 0.42 0.41 0.47 0.48 0.46 0.40 0.34 0.36 0.29 0.52 0.56 0.51 0.57 0.56 0.45 0.45 0.38 0.34 0.34 0.38 0.43 0.45 0.35 0.21
0.00 0.01 0.00 0.00 0.01 0.04 0.06 0.15 0.47 0.78 0.67 0.49 0.48 0.49 0.52 0.50 0.45 0.43 0.49 0.45 0.42 0.36 0.29 0.24 0.24 0.22 0.30 0.28 0.22 0.31 0.40 0.46 0.51 0.47 0.37 0.32 0.29 0.31 0.37 0.35 0.35 0.48 0.48
0.01 0.01 0.02 0.01 0.01 0.05 0.06 0.10 0.16 0.24 0.51 0.68 0.59 0.52 0.48 0.41 0.41 0.40 0.42 0.37 0.39 0.36 0.32 0.29 0.30 0.24 0.44 0.38 0.20 0.26 0.39 0.42 0.61 0.71 0.68 0.71 0.65 0.54 0.47 0.47 0.66 0.75 0.60
0.01 0.01 0.01 0.02 0.03 0.04 0.13 0.17 0.18 0.17 0.24 0.38 0.53 0.57 0.54 0.41 0.43 0.48 0.49 0.42 0.41 0.40 0.37 0.35 0.52 0.43 0.55 0.45 0.35 0.37 0.45 0.53 0.50 0.48 0.48 0.48 0.47 0.50 0.67 0.57 0.65 0.85 0.86
0.00 0.00 0.00 0.00 0.02 0.06 0.10 0.07 0.11 0.19 0.20 0.22 0.37 0.47 0.54 0.57 0.53 0.51 0.56 0.54 0.55 0.50 0.50 0.49 0.54 0.57 0.46 0.48 0.51 0.51 0.64 0.55 0.56 0.46 0.48 0.50 0.48 0.46 0.49 0.58 0.64 0.81 0.94
0.00 0.00 0.00 0.00 0.00 0.02 0.07 0.11 0.10 0.10 0.15 0.21 0.24 0.35 0.40 0.52 0.63 0.61 0.58 0.61 0.69 0.62 0.66 0.77 0.92 0.85 0.69 0.64 0.63 0.80 0.83 0.64 0.45 0.40 0.37 0.42 0.46 0.51 0.57 0.63 0.72 0.78 0.82
0.00 0.00 0.00 0.00 0.00 0.00 0.00 0.03 0.05 0.07 0.08 0.10 0.16 0.23 0.27 0.31 0.35 0.41 0.49 0.55 0.57 0.56 0.62 0.64 0.68 0.71 0.73 0.74 0.82 0.87 0.88 0.84 0.84 0.81 0.79 0.76 0.65 0.55 0.50 0.52 0.57 0.66 0.77
0.00 0.00 0.00 0.00 0.00 0.00 0.00 0.00 0.01 0.02 0.01 0.02 0.04 0.07 0.09 0.11 0.15 0.18 0.21 0.23 0.28 0.34 0.38 0.41 0.43 0.43 0.45 0.50 0.53 0.56 0.61 0.67 0.69 0.72 0.73 0.75 0.72 0.69 0.67 0.68 0.69 0.74 0.72
0.00 0.00 0.00 0.00 0.00 0.00 0.01 0.01 0.02 0.06 0.04 0.03 0.04 0.04 0.05 0.07 0.09 0.06 0.05 0.08 0.08 0.10 0.12 0.15 0.18 0.20 0.22 0.25 0.26 0.29 0.31 0.33 0.35 0.38 0.38 0.39 0.39 0.39 0.41 0.43 0.46 0.49 0.52
0.00 0.00 0.00 0.00 0.00 0.00 0.00 0.00 0.00 0.02 0.01 0.02 0.02 0.01 0.03 0.03 0.01 0.01 0.01 0.01 0.01 0.01 0.02 0.04 0.06 0.08 0.11 0.15 0.17 0.19 0.18 0.18 0.20 0.19 0.18 0.18 0.19 0.19 0.18 0.17 0.19 0.22 0.25
0.01 0.00 0.00 0.00 0.00 0.00 0.00 0.00 0.00 0.00 0.01 0.03 0.01 0.01 0.00 0.01 0.00 0.00 0.00 0.00 0.00 0.00 0.00 0.01 0.01 0.01 0.02 0.01 0.01 0.02 0.04 0.05 0.05 0.06 0.06 0.06 0.05 0.03 0.03 0.03 0.04 0.05 0.06
0.00 0.00 0.00 0.01 0.01 0.01 0.00 0.01 0.01 0.01 0.00 0.01 0.01 0.00 0.00 0.00 0.00 0.00 0.00 0.00 0.00 0.00 0.00 0.01 0.01 0.00 0.00 0.00 0.01 0.01 0.02 0.00 0.01 0.01 0.01 0.01 0.01 0.00 0.00 0.00 0.00 0.00 0.00
0.00 0.00 0.00 0.00 0.01 0.01 0.01 0.01 0.01 0.00 0.00 0.00 0.00 0.00 0.00 0.00 0.00 0.00 0.00 0.00 0.01 0.01 0.00 0.00 0.02 0.01 0.00 0.00 0.01 0.01 0.03 0.01 0.01 0.02 0.01 0.01 0.02 0.01 0.00 0.00 0.00 0.00 0.00
0.00 0.00 0.00 0.00 0.01 0.01 0.01 0.01 0.00 0.01 0.00 0.00 0.01 0.01 0.00 0.00 0.01 0.01 0.01 0.01 0.01 0.01 0.01 0.01 0.01 0.01 0.01 0.01 0.01 0.01 0.01 0.01 0.01 0.01 0.02 0.02 0.02 0.01 0.01 0.00 0.00 0.00 0.00
0.00 0.00 0.00 0.00 0.00 0.01 0.01 0.01 0.01 0.01 0.01 0.01 0.01 0.02 0.00 0.00 0.02 0.02 0.02 0.01 0.01 0.01 0.01 0.01 0.01 0.01 0.00 0.00 0.00 0.01 0.01 0.01 0.01 0.01 0.02 0.02 0.02 0.02 0.01 0.00 0.00 0.00 0.00
0.00 0.00 0.00 0.00 0.00 0.01 0.01 0.01 0.01 0.01 0.02 0.02 0.01 0.01 0.00 0.01 0.02 0.01 0.02 0.01 0.01 0.01 0.01 0.01 0.01 0.00 0.00 0.01 0.01 0.00 0.00 0.01 0.01 0.01 0.01 0.02 0.02 0.02 0.02 0.00 0.00 0.00 0.00
0.00 0.00 0.00 0.00 0.00 0.00 0.01 0.02 0.02 0.03 0.02 0.02 0.02 0.03 0.03 0.03 0.02 0.02 0.02 0.02 0.01 0.01 0.01 0.01 0.01 0.00 0.00 0.01 0.01 0.00 0.00 0.00 0.01 0.01 0.01 0.02 0.01 0.01 0.01 0.00 0.00 0.00 0.00
0.00 0.01 0.01 0.01 0.01 0.01 0.02 0.02 0.03 0.03 0.03 0.03 0.04 0.04 0.03 0.03 0.03 0.02 0.03 0.03 0.01 0.01 0.01 0.01 0.01 0.00 0.00 0.00 0.00 0.00 0.00 0.00 0.00 0.00 0.01 0.02 0.01 0.01 0.00 0.00 0.00 0.00 0.00
0.01 0.01 0.01 0.02 0.03 0.03 0.03 0.03 0.04 0.03 0.04 0.05 0.05 0.04 0.03 0.03 0.03 0.03 0.04 0.03 0.02 0.01 0.01 0.01 0.01 0.00 0.00 0.00 0.00 0.00 0.00 0.00 0.00 0.00 0.00 0.01 0.01 0.00 0.00 0.00 0.00 0.00 0.00
0.01 0.02 0.03 0.03 0.04 0.04 0.04 0.04 0.05 0.05 0.05 0.04 0.05 0.05 0.05 0.05 0.04 0.04 0.03 0.03 0.03 0.01 0.01 0.01 0.02 0.01 0.00 0.01 0.00 0.00 0.00 0.00 0.00 0.00 0.00 0.01 0.00 0.00 0.00 0.00 0.00 0.00 0.00

GFSGL_prec_precacc24_135.txt.gz
Total_Precipitation_Accumulation
0.56 0.54 0.45 0.56 0.53 0.69 0.84 1.06 1.83 1.69 1.68 2.48 2.71 2.23 1.99 1.48 1.35 1.28 0.94 0.63 0.48 0.38 0.36 0.34 0.46 0.58 0.77 0.68 0.68 0.81 0.76 0.69 0.63 0.29 0.28 0.31 0.26 0.22 0.18 0.18 0.15 0.11 0.07
1.19 1.03 0.67 0.65 0.78 0.70 0.80 0.88 0.79 0.99 1.32 1.44 1.94 2.38 1.96 1.79 1.36 1.12 1.06 1.06 0.89 0.67 0.44 0.49 0.55 0.51 0.45 0.39 0.46 0.58 0.64 0.60 0.55 0.44 0.32 0.27 0.21 0.17 0.18 0.18 0.16 0.16 0.13
1.68 1.81 1.04 1.05 0.65 0.78 0.98 1.05 0.78 0.62 0.60 0.84 1.20 1.44 1.53 1.88 1.72 1.44 1.19 0.92 0.89 0.83 0.67 0.50 0.42 0.49 0.53 0.45 0.42 0.43 0.48 0.55 0.56 0.51 0.32 0.26 0.17 0.13 0.16 0.17 0.21 0.24 0.22
0.94 1.47 1.52 1.30 1.36 1.03 0.81 0.95 1.03 0.70 0.67 0.58 0.65 0.97 1.26 1.30 1.55 1.67 1.75 1.45 1.13 0.90 0.71 0.72 0.64 0.54 0.52 0.52 0.53 0.58 0.58 0.56 0.48 0.46 0.43 0.35 0.24 0.20 0.24 0.25 0.32 0.33 0.24
0.21 0.30 0.82 1.49 1.29 1.17 0.99 0.80 0.65 0.61 0.75 0.59 0.57 0.62 0.80 1.16 1.34 1.35 1.41 1.53 1.50 1.46 1.04 0.74 0.82 1.00 0.97 0.79 0.92 0.98 0.82 0.65 0.67 0.69 0.68 0.53 0.35 0.21 0.18 0.18 0.28 0.26 0.27
0.00 0.02 0.04 0.11 0.30 0.54 0.61 0.50 0.23 0.26 0.24 0.31 0.41 0.48 0.53 0.60 1.04 1.15 1.27 1.25 1.20 1.27 1.30 1.21 1.14 1.19 1.08 1.09 0.98 0.94 0.95 0.84 0.72 0.64 0.55 0.50 0.37 0.33 0.33 0.41 0.46 0.48 0.34
0.00 0.00 0.00 0.00 0.00 0.00 0.04 0.05 0.09 0.15 0.24 0.31 0.50 0.53 0.43 0.43 0.55 0.60 0.78 0.87 0.91 0.97 0.94 0.83 0.74 0.69 0.59 0.45 0.60 0.64 0.58 0.63 0.61 0.45 0.44 0.40 0.34 0.32 0.38 0.43 0.45 0.36 0.24
0.00 0.00 0.00 0.00 0.00 0.00 0.00 0.02 0.04 0.05 0.09 0.22 0.37 0.46 0.52 0.50 0.45 0.44 0.50 0.47 0.46 0.39 0.30 0.24 0.25 0.27 0.36 0.35 0.30 0.31 0.37 0.44 0.52 0.48 0.38 0.33 0.29 0.30 0.36 0.34 0.35 0.48 0.48
0.01 0.01 0.01 0.01 0.00 0.00 0.01 0.01 0.02 0.03 0.11 0.29 0.38 0.42 0.45 0.40 0.37 0.38 0.40 0.37 0.38 0.34 0.28 0.25 0.24 0.18 0.38 0.33 0.17 0.22 0.34 0.38 0.57 0.68 0.65 0.67 0.62 0.53 0.46 0.46 0.64 0.73 0.56
0.01 0.01 0.01 0.01 0.00 0.00 0.01 0.02 0.03 0.02 0.04 0.12 0.22 0.29 0.35 0.34 0.35 0.39 0.43 0.40 0.40 0.39 0.35 0.32 0.44 0.38 0.48 0.40 0.32 0.35 0.40 0.45 0.44 0.43 0.44 0.44 0.44 0.48 0.64 0.55 0.64 0.83 0.81
0.00 0.00 0.00 0.00 0.00 0.01 0.01 0.01 0.01 0.01 0.02 0.02 0.04 0.11 0.23 0.32 0.37 0.42 0.43 0.43 0.46 0.44 0.46 0.47 0.48 0.48 0.37 0.39 0.44 0.46 0.57 0.48 0.47 0.38 0.41 0.44 0.44 0.43 0.46 0.53 0.59 0.76 0.86
0.00 0.00 0.00 0.00 0.00 0.00 0.01 0.00 0.00 0.00 0.01 0.01 0.02 0.03 0.05 0.11 0.20 0.31 0.43 0.48 0.55 0.51 0.54 0.59 0.68 0.64 0.58 0.56 0.56 0.70 0.71 0.57 0.40 0.35 0.32 0.36 0.41 0.47 0.54 0.61 0.70 0.76 0.81
0.00 0.00 0.00 0.00 0.00 0.00 0.00 0.00 0.00 0.00 0.01 0.01 0.01 0.02 0.03 0.05 0.08 0.15 0.24 0.32 0.39 0.42 0.46 0.49 0.51 0.49 0.46 0.51 0.64 0.74 0.78 0.78 0.79 0.77 0.75 0.72 0.63 0.54 0.50 0.52 0.57 0.66 0.77
0.00 0.00 0.00 0.00 0.00 0.00 0.00 0.00 0.01 0.02 0.01 0.01 0.01 0.02 0.02 0.01 0.02 0.05 0.08 0.11 0.17 0.24 0.29 0.31 0.32 0.32 0.33 0.36 0.38 0.43 0.52 0.63 0.68 0.71 0.73 0.75 0.72 0.69 0.67 0.68 0.69 0.74 0.72
0.00 0.00 0.00 0.00 0.00 0.00 0.00 0.01 0.01 0.05 0.04 0.03 0.03 0.03 0.04 0.04 0.04 0.02 0.01 0.03 0.04 0.06 0.08 0.10 0.12 0.14 0.16 0.19 0.21 0.24 0.28 0.31 0.34 0.38 0.38 0.39 0.39 0.39 0.41 0.43 0.46 0.48 0.51
0.00 0.00 0.00 0.00 0.00 0.00 0.00 0.00 0.00 0.01 0.01 0.02 0.01 0.01 0.02 0.02 0.01 0.00 0.00 0.00 0.00 0.00 0.01 0.01 0.03 0.04 0.06 0.09 0.11 0.13 0.14 0.15 0.18 0.18 0.18 0.18 0.19 0.19 0.18 0.17 0.18 0.21 0.24
0.00 0.00 0.00 0.00 0.00 0.00 0.00 0.00 0.00 0.00 0.01 0.03 0.01 0.00 0.00 0.01 0.00 0.00 0.00 0.00 0.00 0.00 0.00 0.01 0.01 0.01 0.01 0.01 0.01 0.02 0.04 0.05 0.05 0.06 0.06 0.06 0.05 0.03 0.03 0.03 0.04 0.05 0.06
0.00 0.00 0.00 0.01 0.01 0.01 0.00 0.01 0.01 0.01 0.00 0.01 0.01 0.00 0.00 0.00 0.00 0.00 0.00 0.00 0.00 0.00 0.00 0.01 0.01 0.00 0.00 0.00 0.01 0.01 0.02 0.00 0.01 0.01 0.01 0.01 0.01 0.01 0.00 0.00 0.00 0.00 0.00
0.00 0.00 0.00 0.00 0.01 0.01 0.01 0.01 0.01 0.00 0.00 0.00 0.00 0.00 0.00 0.00 0.00 0.00 0.00 0.00 0.01 0.01 0.00 0.00 0.01 0.01 0.00 0.00 0.01 0.01 0.03 0.01 0.01 0.02 0.01 0.01 0.02 0.01 0.00 0.00 0.00 0.00 0.00
0.00 0.00 0.00 0.00 0.01 0.01 0.01 0.01 0.00 0.01 0.00 0.00 0.01 0.01 0.00 0.00 0.01 0.01 0.01 0.01 0.01 0.01 0.01 0.01 0.01 0.01 0.01 0.01 0.01 0.01 0.01 0.01 0.01 0.01 0.02 0.02 0.02 0.02 0.01 0.00 0.00 0.00 0.00
0.00 0.00 0.00 0.00 0.00 0.01 0.01 0.01 0.01 0.01 0.01 0.01 0.01 0.02 0.00 0.01 0.02 0.02 0.02 0.01 0.01 0.01 0.01 0.01 0.01 0.01 0.00 0.00 0.00 0.01 0.01 0.01 0.01 0.01 0.02 0.02 0.03 0.02 0.01 0.01 0.00 0.00 0.00
0.00 0.00 0.00 0.00 0.00 0.01 0.01 0.01 0.01 0.02 0.02 0.02 0.01 0.01 0.01 0.01 0.02 0.01 0.02 0.01 0.01 0.01 0.01 0.01 0.01 0.00 0.00 0.01 0.01 0.00 0.00 0.01 0.01 0.01 0.01 0.02 0.02 0.02 0.02 0.00 0.00 0.00 0.00
0.00 0.00 0.00 0.00 0.00 0.00 0.01 0.02 0.02 0.03 0.02 0.02 0.02 0.03 0.03 0.03 0.02 0.02 0.02 0.02 0.01 0.01 0.01 0.01 0.01 0.00 0.00 0.01 0.01 0.00 0.00 0.00 0.01 0.01 0.01 0.02 0.02 0.01 0.02 0.01 0.00 0.00 0.00
0.00 0.01 0.01 0.01 0.01 0.01 0.02 0.02 0.03 0.03 0.02 0.03 0.04 0.04 0.03 0.03 0.03 0.03 0.03 0.04 0.02 0.02 0.02 0.01 0.01 0.00 0.00 0.00 0.00 0.00 0.00 0.00 0.00 0.00 0.01 0.02 0.01 0.01 0.01 0.00 0.00 0.00 0.00
0.01 0.01 0.01 0.02 0.02 0.03 0.03 0.03 0.03 0.03 0.04 0.05 0.04 0.04 0.03 0.03 0.03 0.03 0.04 0.03 0.03 0.02 0.02 0.01 0.01 0.00 0.00 0.00 0.00 0.00 0.00 0.00 0.00 0.00 0.00 0.01 0.01 0.01 0.00 0.00 0.00 0.00 0.00
0.01 0.02 0.03 0.03 0.04 0.04 0.03 0.04 0.04 0.05 0.05 0.04 0.05 0.05 0.04 0.05 0.04 0.04 0.03 0.03 0.03 0.02 0.02 0.02 0.02 0.01 0.00 0.01 0.00 0.00 0.00 0.00 0.00 0.00 0.00 0.01 0.00 0.00 0.00 0.00 0.00 0.00 0.00

GFSGL_prec_precacc24_138.txt.gz
Total_Precipitation_Accumulation
0.57 0.56 0.47 0.59 0.57 0.70 0.86 1.11 1.91 1.77 1.76 2.52 2.70 2.22 1.98 1.47 1.35 1.28 0.94 0.68 0.69 0.87 0.92 0.72 0.79 0.78 0.87 0.73 0.69 0.81 0.78 0.70 0.62 0.26 0.26 0.29 0.25 0.22 0.18 0.18 0.15 0.12 0.09
1.20 1.06 0.70 0.69 0.82 0.72 0.83 0.92 0.88 1.07 1.36 1.43 1.89 2.35 1.94 1.76 1.34 1.11 1.05 1.08 1.04 0.93 0.82 0.99 0.91 0.65 0.52 0.43 0.48 0.58 0.62 0.58 0.50 0.35 0.27 0.25 0.21 0.18 0.19 0.18 0.16 0.16 0.13
1.68 1.83 1.06 1.08 0.71 0.89 1.08 1.09 0.89 0.75 0.73 0.90 1.21 1.43 1.52 1.85 1.69 1.46 1.19 0.92 0.93 0.94 0.90 0.78 0.72 0.70 0.61 0.45 0.40 0.38 0.39 0.47 0.47 0.40 0.24 0.23 0.17 0.14 0.17 0.17 0.21 0.22 0.19
0.94 1.46 1.56 1.40 1.52 1.24 1.03 1.22 1.25 0.87 0.88 0.70 0.67 0.94 1.23 1.29 1.59 1.72 1.81 1.50 1.17 0.98 0.93 0.96 0.86 0.77 0.76 0.64 0.60 0.52 0.46 0.48 0.45 0.48 0.46 0.37 0.30 0.25 0.29 0.27 0.32 0.30 0.22
0.21 0.29 0.82 1.54 1.44 1.40 1.37 1.46 1.33 1.21 1.25 0.91 0.76 0.65 0.78 1.11 1.34 1.43 1.50 1.62 1.57 1.57 1.32 1.10 1.21 1.39 1.24 1.08 1.01 1.00 0.88 0.79 0.86 0.92 0.95 0.88 0.66 0.34 0.23 0.24 0.30 0.22 0.20
0.00 0.02 0.04 0.11 0.31 0.59 0.72 0.63 0.47 0.81 1.08 0.77 0.80 0.50 0.45 0.55 0.97 1.16 1.30 1.30 1.24 1.38 1.52 1.52 1.45 1.55 1.45 1.41 1.36 1.20 1.08 1.08 1.03 0.93 0.88 0.82 0.69 0.64 0.60 0.53 0.51 0.52 0.36
0.00 0.00 0.00 0.00 0.00 0.01 0.06 0.09 0.15 0.13 0.19 0.22 0.27 0.25 0.21 0.30 0.42 0.44 0.72 0.88 0.96 1.08 1.14 1.08 1.06 1.08 1.02 0.84 0.84 0.84 0.80 0.72 0.65 0.58 0.62 0.64 0.57 0.48 0.42 0.44 0.47 0.40 0.26
0.00 0.00 0.00 0.00 0.00 0.00 0.00 0.00 0.01 0.01 0.02 0.02 0.04 0.07 0.11 0.18 0.28 0.29 0.43 0.47 0.48 0.44 0.38 0.33 0.34 0.37 0.50 0.52 0.45 0.47 0.48 0.51 0.54 0.50 0.47 0.48 0.46 0.43 0.43 0.37 0.35 0.44 0.42
0.00 0.00 0.01 0.00 0.00 0.00 0.00 0.00 0.01 0.01 0.01 0.02 0.03 0.05 0.09 0.14 0.19 0.25 0.35 0.36 0.36 0.34 0.29 0.25 0.23 0.19 0.34 0.27 0.13 0.15 0.22 0.27 0.43 0.49 0.46 0.51 0.52 0.46 0.42 0.45 0.65 0.73 0.55
0.00 0.01 0.00 0.00 0.00 0.00 0.01 0.01 0.01 0.01 0.01 0.02 0.02 0.02 0.05 0.08 0.10 0.17 0.24 0.28 0.35 0.37 0.35 0.31 0.39 0.33 0.40 0.36 0.31 0.34 0.38 0.42 0.38 0.37 0.36 0.36 0.39 0.44 0.59 0.51 0.61 0.79 0.77
0.00 0.00 0.00 0.00 0.00 0.00 0.00 0.01 0.01 0.01 0.01 0.01 0.01 0.01 0.03 0.06 0.10 0.15 0.23 0.28 0.29 0.28 0.31 0.37 0.41 0.40 0.32 0.34 0.39 0.43 0.52 0.44 0.42 0.34 0.36 0.37 0.36 0.35 0.36 0.44 0.51 0.67 0.77
0.00 0.00 0.00 0.00 0.00 0.00 0.00 0.00 0.00 0.00 0.00 0.00 0.01 0.01 0.01 0.01 0.01 0.01 0.03 0.10 0.22 0.28 0.32 0.34 0.41 0.43 0.47 0.48 0.49 0.61 0.62 0.50 0.37 0.32 0.30 0.33 0.37 0.42 0.48 0.54 0.63 0.69 0.73
0.00 0.00 0.00 0.00 0.00 0.00 0.00 0.01 0.00 0.01 0.00 0.00 0.00 0.01 0.02 0.01 0.01 0.00 0.01 0.01 0.05 0.09 0.16 0.22 0.25 0.26 0.29 0.37 0.49 0.60 0.67 0.67 0.67 0.64 0.61 0.59 0.55 0.50 0.47 0.50 0.55 0.65 0.75
0.00 0.00 0.00 0.00 0.00 0.00 0.00 0.00 0.01 0.02 0.01 0.01 0.01 0.01 0.01 0.01 0.01 0.01 0.00 0.00 0.01 0.02 0.03 0.07 0.12 0.15 0.17 0.19 0.22 0.28 0.36 0.46 0.53 0.59 0.64 0.67 0.67 0.65 0.63 0.66 0.68 0.73 0.71
0.00 0.00 0.00 0.00 0.00 0.00 0.00 0.00 0.01 0.04 0.03 0.02 0.02 0.02 0.03 0.03 0.02 0.01 0.00 0.01 0.00 0.00 0.01 0.02 0.03 0.06 0.09 0.13 0.15 0.16 0.18 0.20 0.23 0.27 0.29 0.32 0.35 0.36 0.38 0.41 0.44 0.47 0.50
0.00 0.00 0.00 0.00 0.00 0.00 0.00 0.00 0.00 0.01 0.01 0.01 0.01 0.01 0.01 0.01 0.00 0.00 0.00 0.00 0.00 0.00 0.00 0.01 0.01 0.02 0.04 0.06 0.08 0.09 0.10 0.11 0.13 0.13 0.13 0.14 0.16 0.16 0.16 0.15 0.17 0.20 0.23
0.00 0.00 0.00 0.00 0.00 0.00 0.00 0.00 0.00 0.00 0.01 0.03 0.01 0.00 0.00 0.00 0.00 0.00 0.00 0.00 0.00 0.00 0.00 0.01 0.01 0.00 0.01 0.00 0.01 0.02 0.04 0.04 0.05 0.05 0.06 0.06 0.05 0.03 0.03 0.03 0.04 0.05 0.06
0.00 0.00 0.00 0.00 0.01 0.01 0.00 0.01 0.01 0.01 0.00 0.01 0.01 0.00 0.00 0.00 0.00 0.00 0.00 0.00 0.00 0.00 0.00 0.01 0.01 0.00 0.00 0.00 0.01 0.01 0.02 0.00 0.01 0.01 0.01 0.01 0.01 0.01 0.01 0.01 0.00 0.00 0.00
0.00 0.00 0.00 0.00 0.01 0.01 0.01 0.01 0.01 0.00 0.00 0.00 0.00 0.00 0.00 0.00 0.00 0.00 0.00 0.00 0.01 0.00 0.00 0.00 0.01 0.00 0.00 0.00 0.02 0.01 0.03 0.01 0.01 0.02 0.01 0.01 0.02 0.02 0.01 0.00 0.00 0.00 0.00
0.00 0.00 0.00 0.00 0.01 0.01 0.01 0.01 0.00 0.01 0.00 0.00 0.01 0.01 0.00 0.00 0.01 0.01 0.01 0.01 0.01 0.01 0.01 0.01 0.01 0.01 0.01 0.01 0.01 0.01 0.01 0.01 0.01 0.01 0.02 0.02 0.02 0.02 0.02 0.01 0.00 0.00 0.00
0.00 0.00 0.00 0.00 0.00 0.01 0.01 0.01 0.01 0.02 0.02 0.01 0.01 0.02 0.01 0.01 0.02 0.02 0.02 0.01 0.01 0.01 0.01 0.01 0.01 0.01 0.00 0.00 0.00 0.01 0.01 0.01 0.01 0.01 0.02 0.02 0.03 0.02 0.02 0.01 0.00 0.00 0.00
0.00 0.00 0.00 0.00 0.00 0.01 0.01 0.01 0.02 0.02 0.02 0.02 0.01 0.01 0.01 0.01 0.02 0.02 0.02 0.02 0.02 0.01 0.01 0.01 0.01 0.00 0.00 0.01 0.01 0.00 0.00 0.01 0.01 0.01 0.01 0.02 0.02 0.02 0.02 0.01 0.00 0.00 0.00
0.00 0.00 0.00 0.00 0.00 0.00 0.01 0.01 0.02 0.02 0.02 0.02 0.02 0.03 0.03 0.03 0.02 0.02 0.02 0.02 0.01 0.02 0.02 0.02 0.02 0.00 0.00 0.01 0.01 0.00 0.00 0.00 0.01 0.01 0.01 0.02 0.02 0.02 0.02 0.01 0.00 0.00 0.00
0.00 0.01 0.01 0.01 0.01 0.01 0.02 0.02 0.02 0.02 0.02 0.03 0.04 0.04 0.03 0.03 0.03 0.03 0.03 0.04 0.02 0.02 0.02 0.02 0.02 0.01 0.00 0.00 0.00 0.00 0.00 0.00 0.00 0.00 0.01 0.02 0.01 0.01 0.01 0.00 0.00 0.00 0.00
0.01 0.01 0.01 0.02 0.02 0.02 0.02 0.02 0.03 0.02 0.03 0.04 0.04 0.04 0.03 0.03 0.03 0.03 0.04 0.03 0.02 0.02 0.02 0.01 0.02 0.01 0.01 0.01 0.00 0.00 0.00 0.00 0.00 0.00 0.01 0.02 0.01 0.01 0.00 0.00 0.00 0.00 0.00
0.01 0.02 0.03 0.03 0.04 0.04 0.03 0.03 0.04 0.04 0.04 0.04 0.04 0.04 0.04 0.05 0.04 0.04 0.03 0.03 0.03 0.02 0.02 0.02 0.03 0.02 0.01 0.02 0.00 0.00 0.00 0.00 0.00 0.00 0.00 0.01 0.00 0.00 0.00 0.00 0.00 0.00 0.00

GFSGL_prec_precacc24_141.txt.gz
Total_Precipitation_Accumulation
0.57 0.56 0.48 0.59 0.58 0.71 0.87 1.11 1.92 1.77 1.75 2.46 2.61 2.19 1.95 1.42 1.33 1.26 0.93 0.68 0.69 0.87 0.95 0.84 0.94 1.09 1.34 1.24 0.94 0.94 0.83 0.69 0.54 0.21 0.23 0.26 0.22 0.20 0.17 0.18 0.15 0.12 0.09
1.20 1.06 0.71 0.70 0.84 0.75 0.88 0.96 0.93 1.17 1.37 1.40 1.87 2.32 1.89 1.71 1.29 1.08 1.04 1.08 1.03 0.93 0.82 1.01 1.02 0.86 0.83 0.76 0.73 0.76 0.76 0.68 0.53 0.32 0.22 0.18 0.17 0.16 0.18 0.18 0.16 0.16 0.12
1.68 1.82 1.06 1.08 0.73 0.94 1.16 1.19 1.04 0.89 0.81 0.95 1.25 1.46 1.53 1.84 1.66 1.43 1.18 0.93 0.94 0.94 0.89 0.77 0.76 0.95 0.93 0.77 0.76 0.61 0.57 0.62 0.57 0.42 0.22 0.17 0.11 0.11 0.16 0.18 0.22 0.23 0.19
0.94 1.46 1.56 1.40 1.52 1.27 1.09 1.36 1.48 1.17 1.08 0.90 0.83 1.07 1.31 1.35 1.60 1.72 1.81 1.53 1.21 1.00 0.94 0.96 0.86 0.79 0.94 1.06 0.97 0.90 0.77 0.66 0.54 0.54 0.47 0.32 0.25 0.24 0.29 0.28 0.32 0.31 0.22
0.21 0.29 0.82 1.54 1.44 1.40 1.39 1.53 1.52 1.59 1.69 1.34 1.12 0.81 0.83 1.18 1.41 1.46 1.64 1.70 1.67 1.70 1.39 1.13 1.24 1.40 1.24 1.13 1.24 1.34 1.30 1.21 1.19 1.07 0.99 0.86 0.65 0.39 0.30 0.28 0.26 0.18 0.18
0.00 0.02 0.04 0.11 0.31 0.59 0.72 0.65 0.52 0.92 1.21 1.00 1.19 0.77 0.74 0.69 1.04 1.32 1.50 1.57 1.49 1.54 1.68 1.62 1.53 1.59 1.47 1.44 1.46 1.37 1.26 1.29 1.33 1.21 1.07 0.92 0.82 0.80 0.78 0.66 0.58 0.55 0.43
0.00 0.00 0.00 0.00 0.00 0.01 0.06 0.10 0.16 0.15 0.23 0.30 0.41 0.36 0.29 0.30 0.30 0.41 0.70 0.98 1.19 1.31 1.35 1.21 1.12 1.11 1.05 0.90 0.90 0.87 0.88 0.90 0.83 0.77 0.82 0.86 0.73 0.65 0.60 0.63 0.65 0.58 0.51
0.00 0.00 0.00 0.00 0.00 0.00 0.00 0.00 0.01 0.01 0.02 0.04 0.07 0.08 0.06 0.04 0.04 0.03 0.04 0.07 0.15 0.26 0.33 0.32 0.33 0.38 0.50 0.53 0.54 0.59 0.61 0.67 0.76 0.75 0.63 0.62 0.64 0.61 0.56 0.50 0.47 0.48 0.47
0.00 0.00 0.00 0.00 0.00 0.00 0.00 0.00 0.01 0.01 0.01 0.01 0.01 0.02 0.04 0.03 0.04 0.03 0.02 0.05 0.08 0.09 0.16 0.18 0.20 0.19 0.31 0.23 0.12 0.16 0.22 0.26 0.35 0.37 0.36 0.41 0.39 0.33 0.29 0.32 0.51 0.65 0.57
0.00 0.00 0.00 0.00 0.00 0.00 0.01 0.01 0.01 0.01 0.01 0.01 0.01 0.01 0.01 0.02 0.02 0.02 0.02 0.05 0.09 0.13 0.15 0.21 0.33 0.31 0.34 0.32 0.30 0.33 0.34 0.36 0.33 0.30 0.27 0.25 0.23 0.25 0.38 0.34 0.41 0.55 0.55
0.00 0.00 0.00 0.00 0.00 0.00 0.00 0.01 0.01 0.01 0.01 0.01 0.01 0.01 0.01 0.01 0.00 0.01 0.01 0.02 0.05 0.07 0.10 0.15 0.25 0.31 0.27 0.26 0.32 0.39 0.45 0.37 0.36 0.30 0.31 0.33 0.32 0.29 0.28 0.33 0.39 0.54 0.62
0.00 0.00 0.00 0.00 0.00 0.00 0.01 0.01 0.00 0.00 0.00 0.00 0.01 0.01 0.01 0.01 0.00 0.00 0.00 0.00 0.02 0.05 0.12 0.17 0.23 0.27 0.31 0.32 0.35 0.46 0.48 0.41 0.32 0.28 0.25 0.29 0.36 0.39 0.44 0.47 0.51 0.54 0.58
0.00 0.00 0.00 0.00 0.00 0.00 0.00 0.01 0.01 0.01 0.00 0.00 0.00 0.01 0.02 0.01 0.01 0.00 0.00 0.00 0.00 0.01 0.02 0.03 0.05 0.07 0.11 0.17 0.26 0.35 0.43 0.48 0.51 0.50 0.49 0.51 0.50 0.46 0.42 0.45 0.49 0.56 0.62
0.00 0.00 0.00 0.00 0.00 0.00 0.00 0.00 0.01 0.02 0.01 0.01 0.00 0.01 0.01 0.01 0.01 0.01 0.00 0.00 0.00 0.00 0.01 0.00 0.00 0.01 0.02 0.04 0.06 0.10 0.16 0.25 0.31 0.39 0.45 0.50 0.54 0.55 0.55 0.58 0.61 0.66 0.65
0.00 0.00 0.00 0.00 0.00 0.00 0.00 0.00 0.00 0.02 0.02 0.01 0.01 0.01 0.02 0.03 0.02 0.01 0.00 0.01 0.00 0.00 0.00 0.01 0.00 0.00 0.01 0.01 0.01 0.02 0.04 0.06 0.09 0.13 0.16 0.20 0.24 0.28 0.32 0.36 0.39 0.42 0.45
0.00 0.00 0.00 0.00 0.00 0.00 0.00 0.00 0.00 0.00 0.01 0.01 0.00 0.00 0.01 0.01 0.01 0.00 0.00 0.00 0.00 0.00 0.00 0.01 0.01 0.01 0.01 0.01 0.01 0.01 0.01 0.02 0.05 0.06 0.07 0.09 0.11 0.12 0.13 0.13 0.16 0.19 0.22
0.00 0.00 0.00 0.00 0.00 0.00 0.00 0.00 0.00 0.00 0.01 0.03 0.01 0.00 0.00 0.00 0.00 0.00 0.00 0.00 0.00 0.00 0.00 0.01 0.01 0.00 0.01 0.00 0.00 0.00 0.02 0.01 0.01 0.02 0.03 0.04 0.04 0.03 0.03 0.03 0.04 0.05 0.06
0.00 0.00 0.00 0.00 0.01 0.01 0.00 0.01 0.01 0.01 0.00 0.01 0.01 0.00 0.00 0.00 0.00 0.00 0.00 0.00 0.00 0.00 0.00 0.01 0.01 0.00 0.00 0.00 0.01 0.01 0.02 0.00 0.01 0.01 0.01 0.01 0.01 0.01 0.01 0.01 0.00 0.01 0.00
0.00 0.00 0.00 0.00 0.01 0.01 0.01 0.01 0.01 0.00 0.00 0.00 0.00 0.00 0.00 0.00 0.00 0.00 0.00 0.00 0.01 0.00 0.00 0.00 0.01 0.00 0.00 0.00 0.02 0.01 0.03 0.01 0.01 0.02 0.01 0.01 0.02 0.02 0.01 0.01 0.00 0.00 0.00
0.00 0.00 0.00 0.00 0.01 0.01 0.01 0.01 0.00 0.01 0.00 0.00 0.01 0.02 0.00 0.00 0.01 0.01 0.01 0.01 0.01 0.01 0.01 0.01 0.01 0.01 0.01 0.01 0.01 0.01 0.01 0.01 0.01 0.01 0.02 0.02 0.02 0.03 0.02 0.01 0.01 0.01 0.00
0.00 0.00 0.00 0.00 0.00 0.01 0.01 0.01 0.01 0.02 0.02 0.01 0.01 0.02 0.01 0.01 0.03 0.02 0.02 0.01 0.01 0.01 0.01 0.01 0.01 0.01 0.00 0.00 0.00 0.01 0.01 0.01 0.01 0.01 0.02 0.02 0.03 0.02 0.02 0.01 0.01 0.01 0.00
0.00 0.00 0.00 0.00 0.00 0.01 0.01 0.01 0.02 0.02 0.02 0.02 0.01 0.01 0.01 0.01 0.02 0.02 0.02 0.02 0.02 0.01 0.01 0.02 0.01 0.01 0.00 0.01 0.01 0.00 0.00 0.01 0.01 0.01 0.01 0.02 0.02 0.02 0.03 0.01 0.01 0.00 0.00
0.00 0.00 0.00 0.00 0.00 0.00 0.01 0.01 0.02 0.02 0.02 0.02 0.02 0.03 0.03 0.03 0.02 0.02 0.02 0.02 0.01 0.02 0.02 0.02 0.02 0.00 0.00 0.01 0.02 0.00 0.00 0.00 0.01 0.01 0.01 0.02 0.02 0.02 0.02 0.01 0.01 0.00 0.00
0.00 0.01 0.01 0.01 0.01 0.01 0.02 0.02 0.02 0.02 0.02 0.03 0.04 0.04 0.03 0.03 0.03 0.03 0.03 0.04 0.02 0.02 0.02 0.02 0.02 0.02 0.01 0.01 0.01 0.00 0.00 0.00 0.00 0.00 0.01 0.02 0.02 0.01 0.01 0.00 0.01 0.00 0.00
0.01 0.01 0.01 0.02 0.02 0.02 0.02 0.02 0.02 0.02 0.03 0.04 0.04 0.04 0.03 0.03 0.03 0.03 0.04 0.03 0.02 0.02 0.02 0.01 0.02 0.01 0.02 0.02 0.01 0.00 0.00 0.00 0.00 0.00 0.01 0.02 0.01 0.01 0.00 0.00 0.00 0.00 0.00
0.01 0.02 0.03 0.03 0.04 0.04 0.03 0.03 0.04 0.04 0.04 0.03 0.04 0.04 0.04 0.05 0.04 0.03 0.03 0.03 0.03 0.01 0.02 0.02 0.03 0.02 0.02 0.04 0.02 0.01 0.00 0.00 0.00 0.00 0.00 0.01 0.00 0.00 0.00 0.00 0.00 0.01 0.00

GFSGL_prec_precacc24_144.txt.gz
Total_Precipitation_Accumulation
0.57 0.56 0.48 0.59 0.57 0.69 0.85 1.09 1.88 1.73 1.71 2.38 2.52 2.10 1.99 1.37 1.12 1.09 0.85 0.66 0.70 0.88 0.96 0.86 0.95 1.10 1.35 1.32 1.24 1.27 1.08 0.92 0.67 0.24 0.26 0.24 0.15 0.12 0.12 0.15 0.14 0.12 0.09
1.20 1.06 0.71 0.70 0.83 0.75 0.89 0.99 0.94 1.19 1.33 1.33 1.84 2.33 2.00 1.75 1.27 1.03 0.99 1.05 1.01 0.91 0.80 1.01 1.03 0.87 0.84 0.78 0.82 1.06 1.09 0.95 0.86 0.54 0.32 0.20 0.15 0.10 0.10 0.11 0.12 0.15 0.10
1.68 1.82 1.06 1.08 0.72 0.94 1.17 1.22 1.10 0.95 0.85 0.99 1.24 1.45 1.54 1.84 1.62 1.40 1.14 0.90 0.93 0.94 0.89 0.77 0.77 0.97 0.95 0.77 0.80 0.77 0.79 0.88 0.80 0.67 0.47 0.31 0.19 0.13 0.09 0.11 0.12 0.17 0.17
0.94 1.46 1.56 1.40 1.53 1.28 1.09 1.36 1.51 1.23 1.16 1.07 1.03 1.23 1.42 1.39 1.60 1.72 1.79 1.52 1.21 1.00 0.97 0.99 0.87 0.81 0.95 1.08 1.07 1.02 0.97 0.96 0.84 0.89 0.89 0.60 0.39 0.31 0.28 0.24 0.21 0.24 0.21
0.21 0.29 0.82 1.54 1.44 1.40 1.39 1.54 1.52 1.61 1.74 1.47 1.32 1.01 0.97 1.30 1.56 1.55 1.69 1.73 1.66 1.66 1.36 1.10 1.22 1.40 1.35 1.21 1.27 1.44 1.48 1.46 1.53 1.48 1.43 1.41 0.96 0.46 0.31 0.28 0.22 0.16 0.17
0.00 0.02 0.04 0.11 0.31 0.59 0.72 0.65 0.53 0.93 1.21 1.02 1.21 0.79 0.77 0.74 1.06 1.42 1.64 1.76 1.59 1.44 1.56 1.42 1.32 1.38 1.39 1.56 1.57 1.44 1.31 1.39 1.43 1.45 1.42 1.33 1.29 1.16 0.88 0.61 0.53 0.50 0.43
0.00 0.00 0.00 0.00 0.00 0.01 0.06 0.09 0.16 0.15 0.24 0.31 0.44 0.39 0.33 0.31 0.29 0.43 0.76 1.10 1.37 1.48 1.43 1.44 1.30 1.34 1.24 1.05 1.04 0.96 0.94 0.94 0.88 0.86 0.96 1.05 1.00 0.90 0.76 0.72 0.63 0.57 0.51
0.00 0.00 0.00 0.00 0.00 0.00 0.00 0.00 0.00 0.01 0.01 0.04 0.08 0.09 0.06 0.04 0.03 0.03 0.07 0.12 0.19 0.27 0.31 0.34 0.34 0.39 0.54 0.56 0.56 0.63 0.67 0.73 0.81 0.82 0.76 0.79 0.82 0.81 0.78 0.75 0.66 0.54 0.43
0.00 0.00 0.00 0.00 0.00 0.00 0.00 0.00 0.00 0.00 0.01 0.01 0.02 0.02 0.03 0.02 0.01 0.01 0.01 0.01 0.04 0.05 0.07 0.08 0.11 0.12 0.21 0.17 0.10 0.12 0.20 0.25 0.30 0.30 0.30 0.36 0.38 0.35 0.35 0.42 0.58 0.69 0.63
0.00 0.00 0.00 0.00 0.00 0.00 0.01 0.01 0.00 0.00 0.00 0.01 0.01 0.01 0.01 0.02 0.01 0.01 0.00 0.01 0.02 0.02 0.03 0.06 0.12 0.12 0.17 0.19 0.19 0.28 0.28 0.29 0.28 0.26 0.23 0.18 0.16 0.16 0.26 0.24 0.28 0.36 0.35
0.00 0.00 0.00 0.00 0.00 0.00 0.00 0.00 0.00 0.01 0.00 0.00 0.01 0.01 0.00 0.00 0.00 0.00 0.01 0.00 0.01 0.01 0.02 0.02 0.04 0.07 0.07 0.10 0.16 0.28 0.36 0.32 0.29 0.26 0.28 0.28 0.25 0.22 0.20 0.24 0.31 0.42 0.49
0.00 0.00 0.00 0.00 0.00 0.00 0.00 0.00 0.00 0.00 0.00 0.00 0.00 0.01 0.01 0.01 0.00 0.00 0.00 0.00 0.00 0.01 0.02 0.02 0.03 0.04 0.05 0.06 0.11 0.20 0.29 0.31 0.27 0.24 0.22 0.26 0.29 0.33 0.36 0.38 0.42 0.47 0.51
0.00 0.00 0.00 0.00 0.00 0.00 0.00 0.01 0.00 0.00 0.00 0.00 0.00 0.01 0.02 0.01 0.00 0.00 0.00 0.00 0.00 0.00 0.01 0.01 0.01 0.01 0.02 0.03 0.07 0.13 0.19 0.25 0.30 0.31 0.34 0.36 0.36 0.35 0.33 0.35 0.38 0.45 0.52
0.00 0.00 0.00 0.00 0.00 0.00 0.00 0.00 0.01 0.02 0.00 0.00 0.00 0.01 0.01 0.01 0.01 0.00 0.00 0.00 0.00 0.00 0.00 0.00 0.00 0.00 0.00 0.00 0.01 0.02 0.05 0.09 0.13 0.18 0.23 0.28 0.31 0.31 0.32 0.37 0.39 0.42 0.44
0.00 0.00 0.00 0.00 0.00 0.00 0.00 0.00 0.00 0.02 0.01 0.01 0.01 0.01 0.02 0.02 0.01 0.00 0.00 0.01 0.00 0.00 0.00 0.00 0.00 0.00 0.00 0.00 0.00 0.00 0.01 0.01 0.02 0.04 0.06 0.08 0.11 0.13 0.16 0.19 0.22 0.24 0.27
0.00 0.00 0.00 0.00 0.00 0.00 0.00 0.00 0.00 0.00 0.01 0.01 0.00 0.00 0.00 0.01 0.00 0.00 0.00 0.00 0.00 0.00 0.00 0.00 0.00 0.00 0.01 0.01 0.01 0.01 0.00 0.01 0.02 0.02 0.02 0.02 0.04 0.04 0.05 0.06 0.08 0.10 0.13
0.00 0.00 0.00 0.00 0.00 0.00 0.00 0.00 0.00 0.00 0.01 0.03 0.01 0.00 0.00 0.00 0.00 0.00 0.00 0.00 0.00 0.00 0.00 0.00 0.01 0.00 0.00 0.00 0.00 0.00 0.01 0.01 0.01 0.01 0.01 0.01 0.01 0.01 0.01 0.02 0.03 0.04 0.05
0.00 0.00 0.00 0.00 0.00 0.00 0.00 0.01 0.01 0.01 0.01 0.01 0.01 0.00 0.00 0.00 0.00 0.00 0.00 0.00 0.00 0.00 0.00 0.01 0.01 0.00 0.00 0.00 0.01 0.01 0.02 0.00 0.01 0.01 0.01 0.01 0.01 0.01 0.01 0.01 0.00 0.00 0.00
0.00 0.00 0.00 0.00 0.00 0.00 0.01 0.01 0.01 0.01 0.01 0.00 0.00 0.00 0.00 0.00 0.00 0.00 0.00 0.00 0.01 0.00 0.00 0.00 0.01 0.01 0.00 0.01 0.02 0.01 0.03 0.01 0.01 0.02 0.01 0.01 0.02 0.02 0.01 0.01 0.01 0.00 0.00
0.00 0.00 0.00 0.00 0.00 0.00 0.01 0.01 0.00 0.00 0.00 0.01 0.01 0.02 0.00 0.00 0.01 0.01 0.00 0.01 0.01 0.01 0.01 0.01 0.01 0.01 0.01 0.01 0.01 0.01 0.01 0.01 0.01 0.01 0.02 0.02 0.02 0.03 0.02 0.01 0.01 0.01 0.00
0.00 0.00 0.00 0.00 0.00 0.00 0.01 0.01 0.01 0.01 0.02 0.01 0.01 0.02 0.01 0.01 0.03 0.02 0.02 0.01 0.01 0.01 0.01 0.01 0.01 0.01 0.01 0.01 0.01 0.01 0.01 0.01 0.01 0.01 0.02 0.02 0.03 0.02 0.02 0.01 0.01 0.01 0.00
0.00 0.00 0.00 0.00 0.00 0.00 0.00 0.00 0.01 0.01 0.01 0.01 0.01 0.01 0.01 0.01 0.02 0.02 0.02 0.02 0.02 0.01 0.01 0.01 0.01 0.01 0.01 0.02 0.02 0.01 0.01 0.01 0.01 0.01 0.01 0.02 0.02 0.02 0.03 0.01 0.01 0.00 0.00
0.00 0.00 0.00 0.00 0.00 0.00 0.00 0.01 0.01 0.01 0.01 0.01 0.02 0.02 0.02 0.02 0.02 0.02 0.02 0.02 0.01 0.01 0.01 0.02 0.02 0.00 0.00 0.02 0.03 0.02 0.01 0.01 0.01 0.01 0.01 0.02 0.02 0.02 0.02 0.01 0.01 0.01 0.00
0.00 0.00 0.00 0.00 0.00 0.01 0.01 0.01 0.01 0.01 0.01 0.02 0.03 0.03 0.03 0.03 0.03 0.03 0.03 0.03 0.01 0.01 0.02 0.01 0.02 0.02 0.01 0.01 0.01 0.02 0.01 0.01 0.00 0.00 0.01 0.02 0.02 0.01 0.01 0.01 0.01 0.01 0.00
0.00 0.01 0.01 0.01 0.02 0.02 0.02 0.02 0.02 0.01 0.02 0.03 0.03 0.03 0.02 0.03 0.03 0.03 0.03 0.02 0.02 0.01 0.01 0.01 0.01 0.02 0.02 0.02 0.01 0.02 0.02 0.01 0.00 0.00 0.01 0.02 0.01 0.01 0.01 0.01 0.01 0.00 0.00
0.01 0.02 0.02 0.03 0.03 0.03 0.03 0.03 0.03 0.03 0.03 0.02 0.03 0.03 0.03 0.04 0.03 0.03 0.03 0.02 0.03 0.01 0.01 0.02 0.03 0.02 0.02 0.04 0.03 0.02 0.01 0.00 0.00 0.00 0.00 0.01 0.00 0.00 0.01 0.01 0.01 0.01 0.01